<?xml version="1.0" encoding="UTF-8" standalone="no" ?>
<gpx xmlns="http://www.topografix.com/GPX/1/1" xmlns:xsi="http://www.w3.org/2001/XMLSchema-instance" xsi:schemaLocation="http://www.topografix.com/GPX/1/1 http://www.topografix.com/GPX/1/1/gpx.xsd" version="1.1" creator="VisuGPX - https://www.visugpx.com">
  <metadata>
    <name>Balade printanière à Cabourg</name>
    <desc><![CDATA[Balade  toute simple en bord de mer pour profiter des premiers jours du printemps
Mars 2019]]></desc>
  </metadata>
  <trk>
    <name><![CDATA[Balade printanière à Cabourg_1]]></name>
    <trkseg>
      <trkpt lat="49.28215" lon="-0.12602">
        <ele>3.3</ele>
        <time>2019-03-22T13:15:53Z</time>
      </trkpt>
      <trkpt lat="49.28215" lon="-0.12602">
        <ele>54.7654</ele>
        <time>2019-03-22T13:15:54Z</time>
      </trkpt>
      <trkpt lat="49.28223" lon="-0.12594">
        <ele>48.8718</ele>
        <time>2019-03-22T13:17:08Z</time>
      </trkpt>
      <trkpt lat="49.28226" lon="-0.12589">
        <ele>49.0602</ele>
        <time>2019-03-22T13:17:12Z</time>
      </trkpt>
      <trkpt lat="49.28229" lon="-0.12586">
        <ele>49.2071</ele>
        <time>2019-03-22T13:17:15Z</time>
      </trkpt>
      <trkpt lat="49.28232" lon="-0.1258">
        <ele>49.4355</ele>
        <time>2019-03-22T13:17:19Z</time>
      </trkpt>
      <trkpt lat="49.28236" lon="-0.12574">
        <ele>49.6225</ele>
        <time>2019-03-22T13:17:22Z</time>
      </trkpt>
      <trkpt lat="49.28239" lon="-0.12568">
        <ele>49.7962</ele>
        <time>2019-03-22T13:17:25Z</time>
      </trkpt>
      <trkpt lat="49.28244" lon="-0.1256">
        <ele>50.0822</ele>
        <time>2019-03-22T13:17:30Z</time>
      </trkpt>
      <trkpt lat="49.28246" lon="-0.12553">
        <ele>50.2629</ele>
        <time>2019-03-22T13:17:33Z</time>
      </trkpt>
      <trkpt lat="49.2825" lon="-0.12549">
        <ele>50.5588</ele>
        <time>2019-03-22T13:17:38Z</time>
      </trkpt>
      <trkpt lat="49.28255" lon="-0.12546">
        <ele>50.7384</ele>
        <time>2019-03-22T13:17:41Z</time>
      </trkpt>
      <trkpt lat="49.2826" lon="-0.12544">
        <ele>50.9673</ele>
        <time>2019-03-22T13:17:45Z</time>
      </trkpt>
      <trkpt lat="49.28263" lon="-0.12539">
        <ele>51.128</ele>
        <time>2019-03-22T13:17:48Z</time>
      </trkpt>
      <trkpt lat="49.28265" lon="-0.12536">
        <ele>51.2306</ele>
        <time>2019-03-22T13:17:50Z</time>
      </trkpt>
      <trkpt lat="49.28265" lon="-0.12536">
        <ele>3.7</ele>
        <time>2019-03-22T13:17:57Z</time>
      </trkpt>
      <trkpt lat="49.28265" lon="-0.12536">
        <ele>3.7</ele>
        <time>2019-03-22T13:18:03Z</time>
      </trkpt>
      <trkpt lat="49.28267" lon="-0.12529">
        <ele>51.5419</ele>
        <time>2019-03-22T13:18:03Z</time>
      </trkpt>
      <trkpt lat="49.28272" lon="-0.12523">
        <ele>51.7094</ele>
        <time>2019-03-22T13:18:07Z</time>
      </trkpt>
      <trkpt lat="49.28273" lon="-0.1252">
        <ele>51.7926</ele>
        <time>2019-03-22T13:18:09Z</time>
      </trkpt>
      <trkpt lat="49.28278" lon="-0.12516">
        <ele>51.9977</ele>
        <time>2019-03-22T13:18:14Z</time>
      </trkpt>
      <trkpt lat="49.28283" lon="-0.1251">
        <ele>52.116</ele>
        <time>2019-03-22T13:18:17Z</time>
      </trkpt>
      <trkpt lat="49.28286" lon="-0.12507">
        <ele>52.1953</ele>
        <time>2019-03-22T13:18:19Z</time>
      </trkpt>
      <trkpt lat="49.28288" lon="-0.12504">
        <ele>52.2774</ele>
        <time>2019-03-22T13:18:21Z</time>
      </trkpt>
      <trkpt lat="49.28293" lon="-0.12499">
        <ele>52.4679</ele>
        <time>2019-03-22T13:18:25Z</time>
      </trkpt>
      <trkpt lat="49.28296" lon="-0.12493">
        <ele>52.6276</ele>
        <time>2019-03-22T13:18:28Z</time>
      </trkpt>
      <trkpt lat="49.28299" lon="-0.12486">
        <ele>52.8401</ele>
        <time>2019-03-22T13:18:32Z</time>
      </trkpt>
      <trkpt lat="49.28301" lon="-0.12483">
        <ele>52.9441</ele>
        <time>2019-03-22T13:18:34Z</time>
      </trkpt>
      <trkpt lat="49.28305" lon="-0.12478">
        <ele>53.1859</ele>
        <time>2019-03-22T13:18:39Z</time>
      </trkpt>
      <trkpt lat="49.28308" lon="-0.12474">
        <ele>53.321</ele>
        <time>2019-03-22T13:18:42Z</time>
      </trkpt>
      <trkpt lat="49.28314" lon="-0.12474">
        <ele>53.5222</ele>
        <time>2019-03-22T13:18:47Z</time>
      </trkpt>
      <trkpt lat="49.28319" lon="-0.12474">
        <ele>53.6899</ele>
        <time>2019-03-22T13:18:52Z</time>
      </trkpt>
      <trkpt lat="49.28323" lon="-0.12469">
        <ele>53.8113</ele>
        <time>2019-03-22T13:18:56Z</time>
      </trkpt>
      <trkpt lat="49.28326" lon="-0.12463">
        <ele>53.9165</ele>
        <time>2019-03-22T13:19:00Z</time>
      </trkpt>
      <trkpt lat="49.28328" lon="-0.12459">
        <ele>53.9645</ele>
        <time>2019-03-22T13:19:02Z</time>
      </trkpt>
      <trkpt lat="49.28329" lon="-0.12457">
        <ele>54.0107</ele>
        <time>2019-03-22T13:19:04Z</time>
      </trkpt>
      <trkpt lat="49.28331" lon="-0.12454">
        <ele>54.0786</ele>
        <time>2019-03-22T13:19:07Z</time>
      </trkpt>
      <trkpt lat="49.28335" lon="-0.1245">
        <ele>54.1644</ele>
        <time>2019-03-22T13:19:11Z</time>
      </trkpt>
      <trkpt lat="49.28339" lon="-0.12445">
        <ele>54.2446</ele>
        <time>2019-03-22T13:19:15Z</time>
      </trkpt>
      <trkpt lat="49.28344" lon="-0.12444">
        <ele>54.3193</ele>
        <time>2019-03-22T13:19:19Z</time>
      </trkpt>
      <trkpt lat="49.2835" lon="-0.12447">
        <ele>54.4067</ele>
        <time>2019-03-22T13:19:24Z</time>
      </trkpt>
      <trkpt lat="49.28353" lon="-0.12452">
        <ele>54.4655</ele>
        <time>2019-03-22T13:19:28Z</time>
      </trkpt>
      <trkpt lat="49.28355" lon="-0.12454">
        <ele>54.4917</ele>
        <time>2019-03-22T13:19:30Z</time>
      </trkpt>
      <trkpt lat="49.28358" lon="-0.12457">
        <ele>54.5152</ele>
        <time>2019-03-22T13:19:32Z</time>
      </trkpt>
      <trkpt lat="49.28363" lon="-0.12461">
        <ele>54.5536</ele>
        <time>2019-03-22T13:19:36Z</time>
      </trkpt>
      <trkpt lat="49.28367" lon="-0.12467">
        <ele>54.5804</ele>
        <time>2019-03-22T13:19:41Z</time>
      </trkpt>
      <trkpt lat="49.28372" lon="-0.12471">
        <ele>54.5827</ele>
        <time>2019-03-22T13:19:45Z</time>
      </trkpt>
      <trkpt lat="49.28377" lon="-0.1247">
        <ele>54.574</ele>
        <time>2019-03-22T13:19:51Z</time>
      </trkpt>
      <trkpt lat="49.28382" lon="-0.12469">
        <ele>54.5692</ele>
        <time>2019-03-22T13:19:55Z</time>
      </trkpt>
      <trkpt lat="49.28386" lon="-0.12471">
        <ele>54.5612</ele>
        <time>2019-03-22T13:19:59Z</time>
      </trkpt>
      <trkpt lat="49.28391" lon="-0.12476">
        <ele>54.5505</ele>
        <time>2019-03-22T13:20:03Z</time>
      </trkpt>
      <trkpt lat="49.28395" lon="-0.1248">
        <ele>54.5408</ele>
        <time>2019-03-22T13:20:06Z</time>
      </trkpt>
      <trkpt lat="49.28397" lon="-0.12482">
        <ele>54.5321</ele>
        <time>2019-03-22T13:20:08Z</time>
      </trkpt>
      <trkpt lat="49.28401" lon="-0.12487">
        <ele>54.5136</ele>
        <time>2019-03-22T13:20:12Z</time>
      </trkpt>
      <trkpt lat="49.28403" lon="-0.12489">
        <ele>54.5013</ele>
        <time>2019-03-22T13:20:15Z</time>
      </trkpt>
      <trkpt lat="49.28405" lon="-0.12492">
        <ele>54.4945</ele>
        <time>2019-03-22T13:20:17Z</time>
      </trkpt>
      <trkpt lat="49.28409" lon="-0.12496">
        <ele>54.486</ele>
        <time>2019-03-22T13:20:20Z</time>
      </trkpt>
      <trkpt lat="49.28413" lon="-0.12499">
        <ele>54.4829</ele>
        <time>2019-03-22T13:20:22Z</time>
      </trkpt>
      <trkpt lat="49.28418" lon="-0.12501">
        <ele>54.4773</ele>
        <time>2019-03-22T13:20:26Z</time>
      </trkpt>
      <trkpt lat="49.28422" lon="-0.12501">
        <ele>54.473</ele>
        <time>2019-03-22T13:20:32Z</time>
      </trkpt>
      <trkpt lat="49.28427" lon="-0.12505">
        <ele>54.4708</ele>
        <time>2019-03-22T13:20:36Z</time>
      </trkpt>
      <trkpt lat="49.28432" lon="-0.12506">
        <ele>54.4687</ele>
        <time>2019-03-22T13:20:41Z</time>
      </trkpt>
      <trkpt lat="49.28437" lon="-0.12505">
        <ele>54.4758</ele>
        <time>2019-03-22T13:20:47Z</time>
      </trkpt>
      <trkpt lat="49.28442" lon="-0.12507">
        <ele>54.4817</ele>
        <time>2019-03-22T13:20:50Z</time>
      </trkpt>
      <trkpt lat="49.28447" lon="-0.12509">
        <ele>54.4854</ele>
        <time>2019-03-22T13:20:53Z</time>
      </trkpt>
      <trkpt lat="49.28452" lon="-0.12513">
        <ele>54.4872</ele>
        <time>2019-03-22T13:20:57Z</time>
      </trkpt>
      <trkpt lat="49.28457" lon="-0.12516">
        <ele>54.4879</ele>
        <time>2019-03-22T13:21:01Z</time>
      </trkpt>
      <trkpt lat="49.28463" lon="-0.1252">
        <ele>54.4881</ele>
        <time>2019-03-22T13:21:05Z</time>
      </trkpt>
      <trkpt lat="49.28467" lon="-0.12522">
        <ele>54.4887</ele>
        <time>2019-03-22T13:21:08Z</time>
      </trkpt>
      <trkpt lat="49.28471" lon="-0.12525">
        <ele>54.4899</ele>
        <time>2019-03-22T13:21:11Z</time>
      </trkpt>
      <trkpt lat="49.28476" lon="-0.12526">
        <ele>54.493</ele>
        <time>2019-03-22T13:21:14Z</time>
      </trkpt>
      <trkpt lat="49.28479" lon="-0.12527">
        <ele>54.4944</ele>
        <time>2019-03-22T13:21:16Z</time>
      </trkpt>
      <trkpt lat="49.28484" lon="-0.12531">
        <ele>54.4945</ele>
        <time>2019-03-22T13:21:20Z</time>
      </trkpt>
      <trkpt lat="49.28489" lon="-0.12532">
        <ele>54.4913</ele>
        <time>2019-03-22T13:21:23Z</time>
      </trkpt>
      <trkpt lat="49.28493" lon="-0.12535">
        <ele>54.4852</ele>
        <time>2019-03-22T13:21:27Z</time>
      </trkpt>
      <trkpt lat="49.28499" lon="-0.12536">
        <ele>54.4782</ele>
        <time>2019-03-22T13:21:31Z</time>
      </trkpt>
      <trkpt lat="49.28501" lon="-0.12537">
        <ele>54.4743</ele>
        <time>2019-03-22T13:21:33Z</time>
      </trkpt>
      <trkpt lat="49.28506" lon="-0.1254">
        <ele>54.4685</ele>
        <time>2019-03-22T13:21:36Z</time>
      </trkpt>
      <trkpt lat="49.28508" lon="-0.12542">
        <ele>54.4602</ele>
        <time>2019-03-22T13:21:39Z</time>
      </trkpt>
      <trkpt lat="49.28508" lon="-0.1255">
        <ele>54.4358</ele>
        <time>2019-03-22T13:21:44Z</time>
      </trkpt>
      <trkpt lat="49.28508" lon="-0.12554">
        <ele>54.4195</ele>
        <time>2019-03-22T13:21:46Z</time>
      </trkpt>
      <trkpt lat="49.28508" lon="-0.12559">
        <ele>54.3995</ele>
        <time>2019-03-22T13:21:48Z</time>
      </trkpt>
      <trkpt lat="49.28508" lon="-0.12564">
        <ele>54.3755</ele>
        <time>2019-03-22T13:21:50Z</time>
      </trkpt>
      <trkpt lat="49.28508" lon="-0.12568">
        <ele>54.3314</ele>
        <time>2019-03-22T13:21:53Z</time>
      </trkpt>
      <trkpt lat="49.2851" lon="-0.12574">
        <ele>54.2418</ele>
        <time>2019-03-22T13:21:58Z</time>
      </trkpt>
      <trkpt lat="49.28512" lon="-0.12578">
        <ele>54.2021</ele>
        <time>2019-03-22T13:22:00Z</time>
      </trkpt>
      <trkpt lat="49.28515" lon="-0.12584">
        <ele>54.1207</ele>
        <time>2019-03-22T13:22:04Z</time>
      </trkpt>
      <trkpt lat="49.28518" lon="-0.12589">
        <ele>54.0375</ele>
        <time>2019-03-22T13:22:08Z</time>
      </trkpt>
      <trkpt lat="49.28522" lon="-0.12595">
        <ele>53.9529</ele>
        <time>2019-03-22T13:22:12Z</time>
      </trkpt>
      <trkpt lat="49.28528" lon="-0.12597">
        <ele>53.8681</ele>
        <time>2019-03-22T13:22:16Z</time>
      </trkpt>
      <trkpt lat="49.28531" lon="-0.12597">
        <ele>53.827</ele>
        <time>2019-03-22T13:22:18Z</time>
      </trkpt>
      <trkpt lat="49.28536" lon="-0.12595">
        <ele>53.7316</ele>
        <time>2019-03-22T13:22:23Z</time>
      </trkpt>
      <trkpt lat="49.28539" lon="-0.12593">
        <ele>53.6804</ele>
        <time>2019-03-22T13:22:26Z</time>
      </trkpt>
      <trkpt lat="49.28543" lon="-0.12589">
        <ele>53.6183</ele>
        <time>2019-03-22T13:22:30Z</time>
      </trkpt>
      <trkpt lat="49.28547" lon="-0.12585">
        <ele>53.555</ele>
        <time>2019-03-22T13:22:35Z</time>
      </trkpt>
      <trkpt lat="49.2855" lon="-0.12582">
        <ele>53.5255</ele>
        <time>2019-03-22T13:22:38Z</time>
      </trkpt>
      <trkpt lat="49.28556" lon="-0.12582">
        <ele>53.491</ele>
        <time>2019-03-22T13:22:42Z</time>
      </trkpt>
      <trkpt lat="49.2856" lon="-0.12582">
        <ele>53.4666</ele>
        <time>2019-03-22T13:22:45Z</time>
      </trkpt>
      <trkpt lat="49.28563" lon="-0.12582">
        <ele>53.4421</ele>
        <time>2019-03-22T13:22:48Z</time>
      </trkpt>
      <trkpt lat="49.28566" lon="-0.12583">
        <ele>53.4278</ele>
        <time>2019-03-22T13:22:50Z</time>
      </trkpt>
      <trkpt lat="49.2857" lon="-0.12583">
        <ele>53.4072</ele>
        <time>2019-03-22T13:22:53Z</time>
      </trkpt>
      <trkpt lat="49.28575" lon="-0.12582">
        <ele>53.37</ele>
        <time>2019-03-22T13:22:58Z</time>
      </trkpt>
      <trkpt lat="49.2858" lon="-0.12582">
        <ele>53.3332</ele>
        <time>2019-03-22T13:23:03Z</time>
      </trkpt>
      <trkpt lat="49.28586" lon="-0.12585">
        <ele>53.292</ele>
        <time>2019-03-22T13:23:09Z</time>
      </trkpt>
      <trkpt lat="49.2859" lon="-0.12586">
        <ele>53.2731</ele>
        <time>2019-03-22T13:23:12Z</time>
      </trkpt>
      <trkpt lat="49.28594" lon="-0.12587">
        <ele>53.2614</ele>
        <time>2019-03-22T13:23:14Z</time>
      </trkpt>
      <trkpt lat="49.28598" lon="-0.12587">
        <ele>53.2507</ele>
        <time>2019-03-22T13:23:16Z</time>
      </trkpt>
      <trkpt lat="49.28603" lon="-0.12589">
        <ele>53.2353</ele>
        <time>2019-03-22T13:23:19Z</time>
      </trkpt>
      <trkpt lat="49.28606" lon="-0.12591">
        <ele>53.2261</ele>
        <time>2019-03-22T13:23:21Z</time>
      </trkpt>
      <trkpt lat="49.28611" lon="-0.12592">
        <ele>53.2139</ele>
        <time>2019-03-22T13:23:24Z</time>
      </trkpt>
      <trkpt lat="49.28615" lon="-0.12593">
        <ele>53.2069</ele>
        <time>2019-03-22T13:23:26Z</time>
      </trkpt>
      <trkpt lat="49.28617" lon="-0.12595">
        <ele>53.2036</ele>
        <time>2019-03-22T13:23:27Z</time>
      </trkpt>
      <trkpt lat="49.28622" lon="-0.12596">
        <ele>53.1955</ele>
        <time>2019-03-22T13:23:30Z</time>
      </trkpt>
      <trkpt lat="49.28626" lon="-0.12596">
        <ele>53.1916</ele>
        <time>2019-03-22T13:23:32Z</time>
      </trkpt>
      <trkpt lat="49.28628" lon="-0.12597">
        <ele>53.1883</ele>
        <time>2019-03-22T13:23:34Z</time>
      </trkpt>
      <trkpt lat="49.28631" lon="-0.12598">
        <ele>53.1859</ele>
        <time>2019-03-22T13:23:36Z</time>
      </trkpt>
      <trkpt lat="49.28633" lon="-0.12599">
        <ele>53.1849</ele>
        <time>2019-03-22T13:23:38Z</time>
      </trkpt>
      <trkpt lat="49.28638" lon="-0.12602">
        <ele>53.1876</ele>
        <time>2019-03-22T13:23:43Z</time>
      </trkpt>
      <trkpt lat="49.28643" lon="-0.12604">
        <ele>53.2016</ele>
        <time>2019-03-22T13:23:49Z</time>
      </trkpt>
      <trkpt lat="49.28647" lon="-0.12608">
        <ele>53.2129</ele>
        <time>2019-03-22T13:23:56Z</time>
      </trkpt>
      <trkpt lat="49.28653" lon="-0.12609">
        <ele>53.2192</ele>
        <time>2019-03-22T13:24:00Z</time>
      </trkpt>
      <trkpt lat="49.28657" lon="-0.1261">
        <ele>53.2221</ele>
        <time>2019-03-22T13:24:02Z</time>
      </trkpt>
      <trkpt lat="49.2866" lon="-0.12612">
        <ele>53.2239</ele>
        <time>2019-03-22T13:24:04Z</time>
      </trkpt>
      <trkpt lat="49.28666" lon="-0.12613">
        <ele>53.2263</ele>
        <time>2019-03-22T13:24:07Z</time>
      </trkpt>
      <trkpt lat="49.28668" lon="-0.12614">
        <ele>53.2282</ele>
        <time>2019-03-22T13:24:09Z</time>
      </trkpt>
      <trkpt lat="49.28673" lon="-0.12614">
        <ele>53.2298</ele>
        <time>2019-03-22T13:24:13Z</time>
      </trkpt>
      <trkpt lat="49.28676" lon="-0.12614">
        <ele>53.2306</ele>
        <time>2019-03-22T13:24:14Z</time>
      </trkpt>
      <trkpt lat="49.28678" lon="-0.12614">
        <ele>53.2313</ele>
        <time>2019-03-22T13:24:16Z</time>
      </trkpt>
      <trkpt lat="49.28683" lon="-0.12616">
        <ele>53.2303</ele>
        <time>2019-03-22T13:24:19Z</time>
      </trkpt>
      <trkpt lat="49.28688" lon="-0.12619">
        <ele>53.2288</ele>
        <time>2019-03-22T13:24:23Z</time>
      </trkpt>
      <trkpt lat="49.2869" lon="-0.1262">
        <ele>53.227</ele>
        <time>2019-03-22T13:24:25Z</time>
      </trkpt>
      <trkpt lat="49.28693" lon="-0.12622">
        <ele>53.2247</ele>
        <time>2019-03-22T13:24:27Z</time>
      </trkpt>
      <trkpt lat="49.28696" lon="-0.12623">
        <ele>53.2222</ele>
        <time>2019-03-22T13:24:29Z</time>
      </trkpt>
      <trkpt lat="49.28699" lon="-0.12625">
        <ele>53.2197</ele>
        <time>2019-03-22T13:24:31Z</time>
      </trkpt>
      <trkpt lat="49.28703" lon="-0.1263">
        <ele>53.2155</ele>
        <time>2019-03-22T13:24:35Z</time>
      </trkpt>
      <trkpt lat="49.28706" lon="-0.12635">
        <ele>53.2116</ele>
        <time>2019-03-22T13:24:39Z</time>
      </trkpt>
      <trkpt lat="49.28708" lon="-0.12637">
        <ele>53.2101</ele>
        <time>2019-03-22T13:24:41Z</time>
      </trkpt>
      <trkpt lat="49.2871" lon="-0.1264">
        <ele>53.2084</ele>
        <time>2019-03-22T13:24:43Z</time>
      </trkpt>
      <trkpt lat="49.28714" lon="-0.12646">
        <ele>53.2046</ele>
        <time>2019-03-22T13:24:47Z</time>
      </trkpt>
      <trkpt lat="49.28716" lon="-0.12652">
        <ele>53.2006</ele>
        <time>2019-03-22T13:24:51Z</time>
      </trkpt>
      <trkpt lat="49.28716" lon="-0.12659">
        <ele>53.1953</ele>
        <time>2019-03-22T13:24:55Z</time>
      </trkpt>
      <trkpt lat="49.28713" lon="-0.12667">
        <ele>53.1884</ele>
        <time>2019-03-22T13:24:59Z</time>
      </trkpt>
      <trkpt lat="49.28712" lon="-0.1267">
        <ele>53.1847</ele>
        <time>2019-03-22T13:25:01Z</time>
      </trkpt>
      <trkpt lat="49.28711" lon="-0.12677">
        <ele>53.1776</ele>
        <time>2019-03-22T13:25:05Z</time>
      </trkpt>
      <trkpt lat="49.28709" lon="-0.12684">
        <ele>53.1695</ele>
        <time>2019-03-22T13:25:09Z</time>
      </trkpt>
      <trkpt lat="49.28708" lon="-0.12688">
        <ele>53.1649</ele>
        <time>2019-03-22T13:25:11Z</time>
      </trkpt>
      <trkpt lat="49.28707" lon="-0.12697">
        <ele>53.1521</ele>
        <time>2019-03-22T13:25:15Z</time>
      </trkpt>
      <trkpt lat="49.28706" lon="-0.12701">
        <ele>53.1441</ele>
        <time>2019-03-22T13:25:17Z</time>
      </trkpt>
      <trkpt lat="49.28706" lon="-0.12706">
        <ele>53.1312</ele>
        <time>2019-03-22T13:25:20Z</time>
      </trkpt>
      <trkpt lat="49.28704" lon="-0.12713">
        <ele>53.1134</ele>
        <time>2019-03-22T13:25:24Z</time>
      </trkpt>
      <trkpt lat="49.28704" lon="-0.12722">
        <ele>53.0939</ele>
        <time>2019-03-22T13:25:29Z</time>
      </trkpt>
      <trkpt lat="49.28702" lon="-0.12728">
        <ele>53.0852</ele>
        <time>2019-03-22T13:25:32Z</time>
      </trkpt>
      <trkpt lat="49.28701" lon="-0.12736">
        <ele>53.0747</ele>
        <time>2019-03-22T13:25:36Z</time>
      </trkpt>
      <trkpt lat="49.28701" lon="-0.1274">
        <ele>53.07</ele>
        <time>2019-03-22T13:25:38Z</time>
      </trkpt>
      <trkpt lat="49.28701" lon="-0.12748">
        <ele>53.0634</ele>
        <time>2019-03-22T13:25:42Z</time>
      </trkpt>
      <trkpt lat="49.28701" lon="-0.12755">
        <ele>53.058</ele>
        <time>2019-03-22T13:25:45Z</time>
      </trkpt>
      <trkpt lat="49.287" lon="-0.12761">
        <ele>53.0494</ele>
        <time>2019-03-22T13:25:49Z</time>
      </trkpt>
      <trkpt lat="49.287" lon="-0.12769">
        <ele>53.0447</ele>
        <time>2019-03-22T13:25:53Z</time>
      </trkpt>
      <trkpt lat="49.28699" lon="-0.12776">
        <ele>53.0429</ele>
        <time>2019-03-22T13:25:57Z</time>
      </trkpt>
      <trkpt lat="49.28698" lon="-0.12781">
        <ele>53.0424</ele>
        <time>2019-03-22T13:26:00Z</time>
      </trkpt>
      <trkpt lat="49.28698" lon="-0.12788">
        <ele>53.0406</ele>
        <time>2019-03-22T13:26:04Z</time>
      </trkpt>
      <trkpt lat="49.28697" lon="-0.12796">
        <ele>53.0361</ele>
        <time>2019-03-22T13:26:08Z</time>
      </trkpt>
      <trkpt lat="49.28697" lon="-0.128">
        <ele>53.0333</ele>
        <time>2019-03-22T13:26:10Z</time>
      </trkpt>
      <trkpt lat="49.28695" lon="-0.12807">
        <ele>53.0255</ele>
        <time>2019-03-22T13:26:14Z</time>
      </trkpt>
      <trkpt lat="49.28694" lon="-0.12812">
        <ele>53.0206</ele>
        <time>2019-03-22T13:26:16Z</time>
      </trkpt>
      <trkpt lat="49.28693" lon="-0.12817">
        <ele>53.0153</ele>
        <time>2019-03-22T13:26:18Z</time>
      </trkpt>
      <trkpt lat="49.28693" lon="-0.12823">
        <ele>53.0033</ele>
        <time>2019-03-22T13:26:21Z</time>
      </trkpt>
      <trkpt lat="49.28693" lon="-0.12831">
        <ele>52.9798</ele>
        <time>2019-03-22T13:26:26Z</time>
      </trkpt>
      <trkpt lat="49.28691" lon="-0.12838">
        <ele>52.9695</ele>
        <time>2019-03-22T13:26:29Z</time>
      </trkpt>
      <trkpt lat="49.2869" lon="-0.12842">
        <ele>52.963</ele>
        <time>2019-03-22T13:26:31Z</time>
      </trkpt>
      <trkpt lat="49.28689" lon="-0.12851">
        <ele>52.9482</ele>
        <time>2019-03-22T13:26:35Z</time>
      </trkpt>
      <trkpt lat="49.28688" lon="-0.12858">
        <ele>52.9283</ele>
        <time>2019-03-22T13:26:40Z</time>
      </trkpt>
      <trkpt lat="49.28688" lon="-0.12866">
        <ele>52.9108</ele>
        <time>2019-03-22T13:26:45Z</time>
      </trkpt>
      <trkpt lat="49.28688" lon="-0.12875">
        <ele>52.8954</ele>
        <time>2019-03-22T13:26:49Z</time>
      </trkpt>
      <trkpt lat="49.28688" lon="-0.12879">
        <ele>52.8874</ele>
        <time>2019-03-22T13:26:51Z</time>
      </trkpt>
      <trkpt lat="49.28687" lon="-0.12888">
        <ele>52.8724</ele>
        <time>2019-03-22T13:26:55Z</time>
      </trkpt>
      <trkpt lat="49.28684" lon="-0.12894">
        <ele>52.8628</ele>
        <time>2019-03-22T13:26:58Z</time>
      </trkpt>
      <trkpt lat="49.28684" lon="-0.12902">
        <ele>52.8504</ele>
        <time>2019-03-22T13:27:02Z</time>
      </trkpt>
      <trkpt lat="49.28683" lon="-0.12909">
        <ele>52.8409</ele>
        <time>2019-03-22T13:27:05Z</time>
      </trkpt>
      <trkpt lat="49.28682" lon="-0.12914">
        <ele>52.8349</ele>
        <time>2019-03-22T13:27:07Z</time>
      </trkpt>
      <trkpt lat="49.28681" lon="-0.12919">
        <ele>52.829</ele>
        <time>2019-03-22T13:27:09Z</time>
      </trkpt>
      <trkpt lat="49.28679" lon="-0.12926">
        <ele>52.8213</ele>
        <time>2019-03-22T13:27:12Z</time>
      </trkpt>
      <trkpt lat="49.28677" lon="-0.1293">
        <ele>52.8143</ele>
        <time>2019-03-22T13:27:14Z</time>
      </trkpt>
      <trkpt lat="49.28675" lon="-0.12937">
        <ele>52.8002</ele>
        <time>2019-03-22T13:27:17Z</time>
      </trkpt>
      <trkpt lat="49.28674" lon="-0.12944">
        <ele>52.7777</ele>
        <time>2019-03-22T13:27:21Z</time>
      </trkpt>
      <trkpt lat="49.28674" lon="-0.12949">
        <ele>52.7652</ele>
        <time>2019-03-22T13:27:23Z</time>
      </trkpt>
      <trkpt lat="49.28675" lon="-0.12956">
        <ele>52.7389</ele>
        <time>2019-03-22T13:27:27Z</time>
      </trkpt>
      <trkpt lat="49.28678" lon="-0.12963">
        <ele>52.7089</ele>
        <time>2019-03-22T13:27:31Z</time>
      </trkpt>
      <trkpt lat="49.28681" lon="-0.12969">
        <ele>52.6649</ele>
        <time>2019-03-22T13:27:36Z</time>
      </trkpt>
      <trkpt lat="49.28686" lon="-0.12969">
        <ele>52.6264</ele>
        <time>2019-03-22T13:27:40Z</time>
      </trkpt>
      <trkpt lat="49.28689" lon="-0.12968">
        <ele>52.6093</ele>
        <time>2019-03-22T13:27:42Z</time>
      </trkpt>
      <trkpt lat="49.28689" lon="-0.12968">
        <ele>52.6093</ele>
        <time>2019-03-22T13:27:49Z</time>
      </trkpt>
      <trkpt lat="49.28689" lon="-0.12968">
        <ele>4.8</ele>
        <time>2019-03-22T13:27:49Z</time>
      </trkpt>
      <trkpt lat="49.28689" lon="-0.12968">
        <ele>4.8</ele>
        <time>2019-03-22T13:28:17Z</time>
      </trkpt>
      <trkpt lat="49.28714" lon="-0.12985">
        <ele>52.4499</ele>
        <time>2019-03-22T13:28:17Z</time>
      </trkpt>
      <trkpt lat="49.28716" lon="-0.12986">
        <ele>52.4421</ele>
        <time>2019-03-22T13:28:19Z</time>
      </trkpt>
      <trkpt lat="49.28721" lon="-0.12987">
        <ele>52.4218</ele>
        <time>2019-03-22T13:28:24Z</time>
      </trkpt>
      <trkpt lat="49.28724" lon="-0.12987">
        <ele>52.4134</ele>
        <time>2019-03-22T13:28:26Z</time>
      </trkpt>
      <trkpt lat="49.28728" lon="-0.12989">
        <ele>52.4018</ele>
        <time>2019-03-22T13:28:29Z</time>
      </trkpt>
      <trkpt lat="49.28733" lon="-0.12992">
        <ele>52.3878</ele>
        <time>2019-03-22T13:28:33Z</time>
      </trkpt>
      <trkpt lat="49.28736" lon="-0.12994">
        <ele>52.381</ele>
        <time>2019-03-22T13:28:35Z</time>
      </trkpt>
      <trkpt lat="49.28738" lon="-0.12996">
        <ele>52.3742</ele>
        <time>2019-03-22T13:28:37Z</time>
      </trkpt>
      <trkpt lat="49.28741" lon="-0.12998">
        <ele>52.3674</ele>
        <time>2019-03-22T13:28:39Z</time>
      </trkpt>
      <trkpt lat="49.28745" lon="-0.13001">
        <ele>52.358</ele>
        <time>2019-03-22T13:28:42Z</time>
      </trkpt>
      <trkpt lat="49.2875" lon="-0.13003">
        <ele>52.3467</ele>
        <time>2019-03-22T13:28:46Z</time>
      </trkpt>
      <trkpt lat="49.28755" lon="-0.13005">
        <ele>52.3313</ele>
        <time>2019-03-22T13:28:51Z</time>
      </trkpt>
      <trkpt lat="49.28757" lon="-0.13006">
        <ele>52.3256</ele>
        <time>2019-03-22T13:28:53Z</time>
      </trkpt>
      <trkpt lat="49.2876" lon="-0.13008">
        <ele>52.3203</ele>
        <time>2019-03-22T13:28:55Z</time>
      </trkpt>
      <trkpt lat="49.28764" lon="-0.13009">
        <ele>52.3155</ele>
        <time>2019-03-22T13:28:57Z</time>
      </trkpt>
      <trkpt lat="49.28767" lon="-0.1301">
        <ele>52.3105</ele>
        <time>2019-03-22T13:28:59Z</time>
      </trkpt>
      <trkpt lat="49.28772" lon="-0.13013">
        <ele>52.3036</ele>
        <time>2019-03-22T13:29:02Z</time>
      </trkpt>
      <trkpt lat="49.28774" lon="-0.13014">
        <ele>52.2992</ele>
        <time>2019-03-22T13:29:04Z</time>
      </trkpt>
      <trkpt lat="49.28776" lon="-0.13016">
        <ele>52.2946</ele>
        <time>2019-03-22T13:29:06Z</time>
      </trkpt>
      <trkpt lat="49.28781" lon="-0.1302">
        <ele>52.2848</ele>
        <time>2019-03-22T13:29:10Z</time>
      </trkpt>
      <trkpt lat="49.28785" lon="-0.13024">
        <ele>52.269</ele>
        <time>2019-03-22T13:29:15Z</time>
      </trkpt>
      <trkpt lat="49.2879" lon="-0.13027">
        <ele>52.2529</ele>
        <time>2019-03-22T13:29:19Z</time>
      </trkpt>
      <trkpt lat="49.28795" lon="-0.1303">
        <ele>52.2392</ele>
        <time>2019-03-22T13:29:23Z</time>
      </trkpt>
      <trkpt lat="49.28797" lon="-0.13031">
        <ele>52.2328</ele>
        <time>2019-03-22T13:29:25Z</time>
      </trkpt>
      <trkpt lat="49.28799" lon="-0.13032">
        <ele>52.2279</ele>
        <time>2019-03-22T13:29:27Z</time>
      </trkpt>
      <trkpt lat="49.28804" lon="-0.13035">
        <ele>52.2242</ele>
        <time>2019-03-22T13:29:30Z</time>
      </trkpt>
      <trkpt lat="49.28808" lon="-0.13039">
        <ele>52.2222</ele>
        <time>2019-03-22T13:29:33Z</time>
      </trkpt>
      <trkpt lat="49.28812" lon="-0.13046">
        <ele>52.2217</ele>
        <time>2019-03-22T13:29:37Z</time>
      </trkpt>
      <trkpt lat="49.28816" lon="-0.13052">
        <ele>52.2222</ele>
        <time>2019-03-22T13:29:40Z</time>
      </trkpt>
      <trkpt lat="49.28819" lon="-0.13056">
        <ele>52.2211</ele>
        <time>2019-03-22T13:29:42Z</time>
      </trkpt>
      <trkpt lat="49.28823" lon="-0.13061">
        <ele>52.2186</ele>
        <time>2019-03-22T13:29:45Z</time>
      </trkpt>
      <trkpt lat="49.28827" lon="-0.13066">
        <ele>52.2151</ele>
        <time>2019-03-22T13:29:48Z</time>
      </trkpt>
      <trkpt lat="49.28833" lon="-0.13066">
        <ele>52.2101</ele>
        <time>2019-03-22T13:29:51Z</time>
      </trkpt>
      <trkpt lat="49.28836" lon="-0.13066">
        <ele>52.2065</ele>
        <time>2019-03-22T13:29:53Z</time>
      </trkpt>
      <trkpt lat="49.28842" lon="-0.13068">
        <ele>52.2004</ele>
        <time>2019-03-22T13:29:56Z</time>
      </trkpt>
      <trkpt lat="49.28846" lon="-0.13071">
        <ele>52.1953</ele>
        <time>2019-03-22T13:29:59Z</time>
      </trkpt>
      <trkpt lat="49.2885" lon="-0.13075">
        <ele>52.1915</ele>
        <time>2019-03-22T13:30:02Z</time>
      </trkpt>
      <trkpt lat="49.28856" lon="-0.13077">
        <ele>52.1881</ele>
        <time>2019-03-22T13:30:06Z</time>
      </trkpt>
      <trkpt lat="49.28862" lon="-0.13082">
        <ele>52.1887</ele>
        <time>2019-03-22T13:30:10Z</time>
      </trkpt>
      <trkpt lat="49.28864" lon="-0.13083">
        <ele>52.1891</ele>
        <time>2019-03-22T13:30:11Z</time>
      </trkpt>
      <trkpt lat="49.28868" lon="-0.13087">
        <ele>52.1886</ele>
        <time>2019-03-22T13:30:15Z</time>
      </trkpt>
      <trkpt lat="49.2887" lon="-0.1309">
        <ele>52.1881</ele>
        <time>2019-03-22T13:30:17Z</time>
      </trkpt>
      <trkpt lat="49.28873" lon="-0.13093">
        <ele>52.1877</ele>
        <time>2019-03-22T13:30:19Z</time>
      </trkpt>
      <trkpt lat="49.28876" lon="-0.13095">
        <ele>52.1877</ele>
        <time>2019-03-22T13:30:21Z</time>
      </trkpt>
      <trkpt lat="49.28879" lon="-0.13098">
        <ele>52.1882</ele>
        <time>2019-03-22T13:30:23Z</time>
      </trkpt>
      <trkpt lat="49.28882" lon="-0.131">
        <ele>52.1898</ele>
        <time>2019-03-22T13:30:25Z</time>
      </trkpt>
      <trkpt lat="49.28886" lon="-0.13103">
        <ele>52.1944</ele>
        <time>2019-03-22T13:30:28Z</time>
      </trkpt>
      <trkpt lat="49.28889" lon="-0.13105">
        <ele>52.1986</ele>
        <time>2019-03-22T13:30:30Z</time>
      </trkpt>
      <trkpt lat="49.28894" lon="-0.13106">
        <ele>52.2065</ele>
        <time>2019-03-22T13:30:33Z</time>
      </trkpt>
      <trkpt lat="49.28896" lon="-0.13108">
        <ele>52.2126</ele>
        <time>2019-03-22T13:30:35Z</time>
      </trkpt>
      <trkpt lat="49.28899" lon="-0.13109">
        <ele>52.2194</ele>
        <time>2019-03-22T13:30:37Z</time>
      </trkpt>
      <trkpt lat="49.28902" lon="-0.13111">
        <ele>52.2265</ele>
        <time>2019-03-22T13:30:39Z</time>
      </trkpt>
      <trkpt lat="49.28907" lon="-0.13112">
        <ele>52.2429</ele>
        <time>2019-03-22T13:30:43Z</time>
      </trkpt>
      <trkpt lat="49.2891" lon="-0.13112">
        <ele>52.2536</ele>
        <time>2019-03-22T13:30:45Z</time>
      </trkpt>
      <trkpt lat="49.28914" lon="-0.13113">
        <ele>52.2669</ele>
        <time>2019-03-22T13:30:47Z</time>
      </trkpt>
      <trkpt lat="49.28919" lon="-0.13115">
        <ele>52.2912</ele>
        <time>2019-03-22T13:30:50Z</time>
      </trkpt>
      <trkpt lat="49.28922" lon="-0.13116">
        <ele>52.3103</ele>
        <time>2019-03-22T13:30:52Z</time>
      </trkpt>
      <trkpt lat="49.28926" lon="-0.13118">
        <ele>52.3325</ele>
        <time>2019-03-22T13:30:54Z</time>
      </trkpt>
      <trkpt lat="49.2893" lon="-0.13122">
        <ele>52.3707</ele>
        <time>2019-03-22T13:30:57Z</time>
      </trkpt>
      <trkpt lat="49.28935" lon="-0.13126">
        <ele>52.4145</ele>
        <time>2019-03-22T13:31:00Z</time>
      </trkpt>
      <trkpt lat="49.28939" lon="-0.13132">
        <ele>52.4647</ele>
        <time>2019-03-22T13:31:03Z</time>
      </trkpt>
      <trkpt lat="49.28941" lon="-0.13136">
        <ele>52.5187</ele>
        <time>2019-03-22T13:31:06Z</time>
      </trkpt>
      <trkpt lat="49.28947" lon="-0.1314">
        <ele>52.5965</ele>
        <time>2019-03-22T13:31:10Z</time>
      </trkpt>
      <trkpt lat="49.28953" lon="-0.13143">
        <ele>52.6565</ele>
        <time>2019-03-22T13:31:13Z</time>
      </trkpt>
      <trkpt lat="49.28914" lon="-0.13114">
        <ele>53.4256</ele>
        <time>2019-03-22T13:41:15Z</time>
      </trkpt>
      <trkpt lat="49.28909" lon="-0.1311">
        <ele>53.5723</ele>
        <time>2019-03-22T13:41:20Z</time>
      </trkpt>
      <trkpt lat="49.28904" lon="-0.13111">
        <ele>53.6785</ele>
        <time>2019-03-22T13:41:22Z</time>
      </trkpt>
      <trkpt lat="49.28897" lon="-0.13114">
        <ele>53.9014</ele>
        <time>2019-03-22T13:41:26Z</time>
      </trkpt>
      <trkpt lat="49.28892" lon="-0.13116">
        <ele>54.0623</ele>
        <time>2019-03-22T13:41:29Z</time>
      </trkpt>
      <trkpt lat="49.28887" lon="-0.13116">
        <ele>54.2092</ele>
        <time>2019-03-22T13:41:32Z</time>
      </trkpt>
      <trkpt lat="49.28882" lon="-0.13115">
        <ele>54.3397</ele>
        <time>2019-03-22T13:41:35Z</time>
      </trkpt>
      <trkpt lat="49.28879" lon="-0.13114">
        <ele>54.4242</ele>
        <time>2019-03-22T13:41:37Z</time>
      </trkpt>
      <trkpt lat="49.28875" lon="-0.13111">
        <ele>54.5461</ele>
        <time>2019-03-22T13:41:40Z</time>
      </trkpt>
      <trkpt lat="49.28873" lon="-0.13109">
        <ele>54.6239</ele>
        <time>2019-03-22T13:41:42Z</time>
      </trkpt>
      <trkpt lat="49.28867" lon="-0.13108">
        <ele>54.7385</ele>
        <time>2019-03-22T13:41:45Z</time>
      </trkpt>
      <trkpt lat="49.28862" lon="-0.13108">
        <ele>54.8498</ele>
        <time>2019-03-22T13:41:48Z</time>
      </trkpt>
      <trkpt lat="49.28857" lon="-0.13106">
        <ele>54.9813</ele>
        <time>2019-03-22T13:41:52Z</time>
      </trkpt>
      <trkpt lat="49.28852" lon="-0.13102">
        <ele>55.0814</ele>
        <time>2019-03-22T13:41:56Z</time>
      </trkpt>
      <trkpt lat="49.28849" lon="-0.131">
        <ele>55.1121</ele>
        <time>2019-03-22T13:41:58Z</time>
      </trkpt>
      <trkpt lat="49.28847" lon="-0.13098">
        <ele>55.1239</ele>
        <time>2019-03-22T13:42:00Z</time>
      </trkpt>
      <trkpt lat="49.28844" lon="-0.13096">
        <ele>55.1114</ele>
        <time>2019-03-22T13:42:02Z</time>
      </trkpt>
      <trkpt lat="49.28841" lon="-0.13093">
        <ele>55.0836</ele>
        <time>2019-03-22T13:42:04Z</time>
      </trkpt>
      <trkpt lat="49.28838" lon="-0.13091">
        <ele>55.0404</ele>
        <time>2019-03-22T13:42:06Z</time>
      </trkpt>
      <trkpt lat="49.28834" lon="-0.13087">
        <ele>54.9546</ele>
        <time>2019-03-22T13:42:09Z</time>
      </trkpt>
      <trkpt lat="49.2883" lon="-0.13084">
        <ele>54.849</ele>
        <time>2019-03-22T13:42:12Z</time>
      </trkpt>
      <trkpt lat="49.28824" lon="-0.13085">
        <ele>54.6984</ele>
        <time>2019-03-22T13:42:16Z</time>
      </trkpt>
      <trkpt lat="49.2882" lon="-0.13088">
        <ele>54.4719</ele>
        <time>2019-03-22T13:42:21Z</time>
      </trkpt>
      <trkpt lat="49.28816" lon="-0.13084">
        <ele>54.1088</ele>
        <time>2019-03-22T13:42:28Z</time>
      </trkpt>
      <trkpt lat="49.28811" lon="-0.13079">
        <ele>53.8447</ele>
        <time>2019-03-22T13:42:33Z</time>
      </trkpt>
      <trkpt lat="49.28809" lon="-0.13076">
        <ele>53.7419</ele>
        <time>2019-03-22T13:42:35Z</time>
      </trkpt>
      <trkpt lat="49.28806" lon="-0.13073">
        <ele>53.6499</ele>
        <time>2019-03-22T13:42:37Z</time>
      </trkpt>
      <trkpt lat="49.28802" lon="-0.13069">
        <ele>53.479</ele>
        <time>2019-03-22T13:42:41Z</time>
      </trkpt>
      <trkpt lat="49.288" lon="-0.13067">
        <ele>53.4033</ele>
        <time>2019-03-22T13:42:43Z</time>
      </trkpt>
      <trkpt lat="49.28797" lon="-0.13065">
        <ele>53.2884</ele>
        <time>2019-03-22T13:42:46Z</time>
      </trkpt>
      <trkpt lat="49.28792" lon="-0.13061">
        <ele>53.1287</ele>
        <time>2019-03-22T13:42:50Z</time>
      </trkpt>
      <trkpt lat="49.28788" lon="-0.13055">
        <ele>52.9388</ele>
        <time>2019-03-22T13:42:55Z</time>
      </trkpt>
      <trkpt lat="49.28783" lon="-0.13051">
        <ele>52.7895</ele>
        <time>2019-03-22T13:42:59Z</time>
      </trkpt>
      <trkpt lat="49.2878" lon="-0.13049">
        <ele>52.6343</ele>
        <time>2019-03-22T13:43:03Z</time>
      </trkpt>
      <trkpt lat="49.28777" lon="-0.13047">
        <ele>52.5154</ele>
        <time>2019-03-22T13:43:06Z</time>
      </trkpt>
      <trkpt lat="49.28775" lon="-0.13045">
        <ele>52.4366</ele>
        <time>2019-03-22T13:43:08Z</time>
      </trkpt>
      <trkpt lat="49.28772" lon="-0.13044">
        <ele>52.3554</ele>
        <time>2019-03-22T13:43:10Z</time>
      </trkpt>
      <trkpt lat="49.2877" lon="-0.13042">
        <ele>52.2719</ele>
        <time>2019-03-22T13:43:12Z</time>
      </trkpt>
      <trkpt lat="49.28766" lon="-0.13038">
        <ele>52.1011</ele>
        <time>2019-03-22T13:43:16Z</time>
      </trkpt>
      <trkpt lat="49.28761" lon="-0.13035">
        <ele>51.9278</ele>
        <time>2019-03-22T13:43:20Z</time>
      </trkpt>
      <trkpt lat="49.28757" lon="-0.13033">
        <ele>51.7972</ele>
        <time>2019-03-22T13:43:23Z</time>
      </trkpt>
      <trkpt lat="49.28755" lon="-0.13031">
        <ele>51.7116</ele>
        <time>2019-03-22T13:43:25Z</time>
      </trkpt>
      <trkpt lat="49.28749" lon="-0.13029">
        <ele>51.539</ele>
        <time>2019-03-22T13:43:29Z</time>
      </trkpt>
      <trkpt lat="49.28745" lon="-0.13026">
        <ele>51.4052</ele>
        <time>2019-03-22T13:43:32Z</time>
      </trkpt>
      <trkpt lat="49.28743" lon="-0.13024">
        <ele>51.3148</ele>
        <time>2019-03-22T13:43:34Z</time>
      </trkpt>
      <trkpt lat="49.2874" lon="-0.13022">
        <ele>51.223</ele>
        <time>2019-03-22T13:43:36Z</time>
      </trkpt>
      <trkpt lat="49.28738" lon="-0.1302">
        <ele>51.1297</ele>
        <time>2019-03-22T13:43:38Z</time>
      </trkpt>
      <trkpt lat="49.28735" lon="-0.13018">
        <ele>51.0343</ele>
        <time>2019-03-22T13:43:40Z</time>
      </trkpt>
      <trkpt lat="49.28732" lon="-0.13016">
        <ele>50.9367</ele>
        <time>2019-03-22T13:43:42Z</time>
      </trkpt>
      <trkpt lat="49.28729" lon="-0.13014">
        <ele>50.8372</ele>
        <time>2019-03-22T13:43:44Z</time>
      </trkpt>
      <trkpt lat="49.28726" lon="-0.13012">
        <ele>50.7368</ele>
        <time>2019-03-22T13:43:46Z</time>
      </trkpt>
      <trkpt lat="49.2872" lon="-0.1301">
        <ele>50.5309</ele>
        <time>2019-03-22T13:43:50Z</time>
      </trkpt>
      <trkpt lat="49.28716" lon="-0.13009">
        <ele>50.3728</ele>
        <time>2019-03-22T13:43:53Z</time>
      </trkpt>
      <trkpt lat="49.28714" lon="-0.13008">
        <ele>50.2669</ele>
        <time>2019-03-22T13:43:55Z</time>
      </trkpt>
      <trkpt lat="49.28711" lon="-0.13007">
        <ele>50.1609</ele>
        <time>2019-03-22T13:43:57Z</time>
      </trkpt>
      <trkpt lat="49.28707" lon="-0.13005">
        <ele>50.0022</ele>
        <time>2019-03-22T13:44:00Z</time>
      </trkpt>
      <trkpt lat="49.28705" lon="-0.13004">
        <ele>49.8968</ele>
        <time>2019-03-22T13:44:02Z</time>
      </trkpt>
      <trkpt lat="49.28703" lon="-0.13003">
        <ele>49.7919</ele>
        <time>2019-03-22T13:44:04Z</time>
      </trkpt>
      <trkpt lat="49.28697" lon="-0.13002">
        <ele>49.5836</ele>
        <time>2019-03-22T13:44:08Z</time>
      </trkpt>
      <trkpt lat="49.28695" lon="-0.13001">
        <ele>49.4798</ele>
        <time>2019-03-22T13:44:10Z</time>
      </trkpt>
      <trkpt lat="49.28692" lon="-0.13">
        <ele>49.3766</ele>
        <time>2019-03-22T13:44:12Z</time>
      </trkpt>
      <trkpt lat="49.28689" lon="-0.13">
        <ele>49.2747</ele>
        <time>2019-03-22T13:44:14Z</time>
      </trkpt>
      <trkpt lat="49.28686" lon="-0.12999">
        <ele>49.1739</ele>
        <time>2019-03-22T13:44:16Z</time>
      </trkpt>
      <trkpt lat="49.28683" lon="-0.12992">
        <ele>48.8973</ele>
        <time>2019-03-22T13:44:22Z</time>
      </trkpt>
      <trkpt lat="49.28682" lon="-0.12986">
        <ele>48.8212</ele>
        <time>2019-03-22T13:44:24Z</time>
      </trkpt>
      <trkpt lat="49.28677" lon="-0.12983">
        <ele>48.6412</ele>
        <time>2019-03-22T13:44:29Z</time>
      </trkpt>
      <trkpt lat="49.28673" lon="-0.12976">
        <ele>48.5051</ele>
        <time>2019-03-22T13:44:33Z</time>
      </trkpt>
      <trkpt lat="49.28673" lon="-0.12969">
        <ele>48.3837</ele>
        <time>2019-03-22T13:44:37Z</time>
      </trkpt>
      <trkpt lat="49.28674" lon="-0.12962">
        <ele>48.279</ele>
        <time>2019-03-22T13:44:41Z</time>
      </trkpt>
      <trkpt lat="49.28675" lon="-0.1295">
        <ele>48.1913</ele>
        <time>2019-03-22T13:44:45Z</time>
      </trkpt>
      <trkpt lat="49.28677" lon="-0.1294">
        <ele>48.1508</ele>
        <time>2019-03-22T13:44:48Z</time>
      </trkpt>
      <trkpt lat="49.28678" lon="-0.12936">
        <ele>48.1251</ele>
        <time>2019-03-22T13:44:51Z</time>
      </trkpt>
      <trkpt lat="49.28681" lon="-0.12923">
        <ele>48.1208</ele>
        <time>2019-03-22T13:44:54Z</time>
      </trkpt>
      <trkpt lat="49.28682" lon="-0.12919">
        <ele>48.1354</ele>
        <time>2019-03-22T13:44:56Z</time>
      </trkpt>
      <trkpt lat="49.28682" lon="-0.12908">
        <ele>48.1764</ele>
        <time>2019-03-22T13:45:00Z</time>
      </trkpt>
      <trkpt lat="49.28682" lon="-0.129">
        <ele>48.2206</ele>
        <time>2019-03-22T13:45:03Z</time>
      </trkpt>
      <trkpt lat="49.28683" lon="-0.12894">
        <ele>48.2589</ele>
        <time>2019-03-22T13:45:05Z</time>
      </trkpt>
      <trkpt lat="49.28685" lon="-0.12888">
        <ele>48.3198</ele>
        <time>2019-03-22T13:45:08Z</time>
      </trkpt>
      <trkpt lat="49.28686" lon="-0.12884">
        <ele>48.359</ele>
        <time>2019-03-22T13:45:10Z</time>
      </trkpt>
      <trkpt lat="49.2869" lon="-0.12879">
        <ele>48.4335</ele>
        <time>2019-03-22T13:45:14Z</time>
      </trkpt>
      <trkpt lat="49.28695" lon="-0.12879">
        <ele>48.4835</ele>
        <time>2019-03-22T13:45:17Z</time>
      </trkpt>
      <trkpt lat="49.28699" lon="-0.12884">
        <ele>48.533</ele>
        <time>2019-03-22T13:45:21Z</time>
      </trkpt>
      <trkpt lat="49.28703" lon="-0.12892">
        <ele>48.5949</ele>
        <time>2019-03-22T13:45:26Z</time>
      </trkpt>
      <trkpt lat="49.28707" lon="-0.12896">
        <ele>48.6542</ele>
        <time>2019-03-22T13:45:31Z</time>
      </trkpt>
      <trkpt lat="49.28712" lon="-0.12898">
        <ele>48.706</ele>
        <time>2019-03-22T13:45:35Z</time>
      </trkpt>
      <trkpt lat="49.28716" lon="-0.12902">
        <ele>48.7607</ele>
        <time>2019-03-22T13:45:39Z</time>
      </trkpt>
      <trkpt lat="49.28721" lon="-0.12904">
        <ele>48.8156</ele>
        <time>2019-03-22T13:45:43Z</time>
      </trkpt>
      <trkpt lat="49.28725" lon="-0.12908">
        <ele>48.8598</ele>
        <time>2019-03-22T13:45:47Z</time>
      </trkpt>
      <trkpt lat="49.28728" lon="-0.1291">
        <ele>48.8804</ele>
        <time>2019-03-22T13:45:50Z</time>
      </trkpt>
      <trkpt lat="49.28733" lon="-0.12913">
        <ele>48.896</ele>
        <time>2019-03-22T13:45:55Z</time>
      </trkpt>
      <trkpt lat="49.28737" lon="-0.12916">
        <ele>48.8963</ele>
        <time>2019-03-22T13:45:59Z</time>
      </trkpt>
      <trkpt lat="49.28743" lon="-0.12919">
        <ele>48.8892</ele>
        <time>2019-03-22T13:46:03Z</time>
      </trkpt>
      <trkpt lat="49.28748" lon="-0.12923">
        <ele>48.8786</ele>
        <time>2019-03-22T13:46:06Z</time>
      </trkpt>
      <trkpt lat="49.28751" lon="-0.12928">
        <ele>48.8649</ele>
        <time>2019-03-22T13:46:09Z</time>
      </trkpt>
      <trkpt lat="49.28754" lon="-0.12935">
        <ele>48.8413</ele>
        <time>2019-03-22T13:46:13Z</time>
      </trkpt>
      <trkpt lat="49.28758" lon="-0.12939">
        <ele>48.8154</ele>
        <time>2019-03-22T13:46:17Z</time>
      </trkpt>
      <trkpt lat="49.28764" lon="-0.1294">
        <ele>48.7797</ele>
        <time>2019-03-22T13:46:22Z</time>
      </trkpt>
      <trkpt lat="49.28769" lon="-0.12943">
        <ele>48.7495</ele>
        <time>2019-03-22T13:46:26Z</time>
      </trkpt>
      <trkpt lat="49.28774" lon="-0.12944">
        <ele>48.705</ele>
        <time>2019-03-22T13:46:31Z</time>
      </trkpt>
      <trkpt lat="49.28777" lon="-0.12944">
        <ele>48.6846</ele>
        <time>2019-03-22T13:46:33Z</time>
      </trkpt>
      <trkpt lat="49.28782" lon="-0.12948">
        <ele>48.6401</ele>
        <time>2019-03-22T13:46:37Z</time>
      </trkpt>
      <trkpt lat="49.28786" lon="-0.12953">
        <ele>48.5897</ele>
        <time>2019-03-22T13:46:41Z</time>
      </trkpt>
      <trkpt lat="49.28789" lon="-0.12955">
        <ele>48.5622</ele>
        <time>2019-03-22T13:46:43Z</time>
      </trkpt>
      <trkpt lat="49.28792" lon="-0.12959">
        <ele>48.5181</ele>
        <time>2019-03-22T13:46:46Z</time>
      </trkpt>
      <trkpt lat="49.28794" lon="-0.12961">
        <ele>48.4867</ele>
        <time>2019-03-22T13:46:48Z</time>
      </trkpt>
      <trkpt lat="49.28796" lon="-0.12963">
        <ele>48.4533</ele>
        <time>2019-03-22T13:46:50Z</time>
      </trkpt>
      <trkpt lat="49.288" lon="-0.12966">
        <ele>48.382</ele>
        <time>2019-03-22T13:46:54Z</time>
      </trkpt>
      <trkpt lat="49.28805" lon="-0.12968">
        <ele>48.3071</ele>
        <time>2019-03-22T13:46:58Z</time>
      </trkpt>
      <trkpt lat="49.28809" lon="-0.1297">
        <ele>48.2484</ele>
        <time>2019-03-22T13:47:01Z</time>
      </trkpt>
      <trkpt lat="49.28813" lon="-0.12971">
        <ele>48.2076</ele>
        <time>2019-03-22T13:47:03Z</time>
      </trkpt>
      <trkpt lat="49.28815" lon="-0.12972">
        <ele>48.1663</ele>
        <time>2019-03-22T13:47:05Z</time>
      </trkpt>
      <trkpt lat="49.28818" lon="-0.12973">
        <ele>48.1244</ele>
        <time>2019-03-22T13:47:07Z</time>
      </trkpt>
      <trkpt lat="49.28821" lon="-0.12974">
        <ele>48.0823</ele>
        <time>2019-03-22T13:47:09Z</time>
      </trkpt>
      <trkpt lat="49.28826" lon="-0.12974">
        <ele>47.9976</ele>
        <time>2019-03-22T13:47:13Z</time>
      </trkpt>
      <trkpt lat="49.2883" lon="-0.12976">
        <ele>47.9146</ele>
        <time>2019-03-22T13:47:17Z</time>
      </trkpt>
      <trkpt lat="49.28836" lon="-0.12977">
        <ele>47.8569</ele>
        <time>2019-03-22T13:47:20Z</time>
      </trkpt>
      <trkpt lat="49.2884" lon="-0.12977">
        <ele>47.8014</ele>
        <time>2019-03-22T13:47:23Z</time>
      </trkpt>
      <trkpt lat="49.28846" lon="-0.12979">
        <ele>47.7529</ele>
        <time>2019-03-22T13:47:26Z</time>
      </trkpt>
      <trkpt lat="49.28848" lon="-0.1298">
        <ele>47.7224</ele>
        <time>2019-03-22T13:47:28Z</time>
      </trkpt>
      <trkpt lat="49.28851" lon="-0.12981">
        <ele>47.6809</ele>
        <time>2019-03-22T13:47:31Z</time>
      </trkpt>
      <trkpt lat="49.28854" lon="-0.12982">
        <ele>47.6421</ele>
        <time>2019-03-22T13:47:34Z</time>
      </trkpt>
      <trkpt lat="49.28858" lon="-0.12986">
        <ele>47.6061</ele>
        <time>2019-03-22T13:47:37Z</time>
      </trkpt>
      <trkpt lat="49.28863" lon="-0.12988">
        <ele>47.5511</ele>
        <time>2019-03-22T13:47:42Z</time>
      </trkpt>
      <trkpt lat="49.28868" lon="-0.12987">
        <ele>47.5111</ele>
        <time>2019-03-22T13:47:46Z</time>
      </trkpt>
      <trkpt lat="49.28873" lon="-0.12984">
        <ele>47.4776</ele>
        <time>2019-03-22T13:47:50Z</time>
      </trkpt>
      <trkpt lat="49.28875" lon="-0.12982">
        <ele>47.4649</ele>
        <time>2019-03-22T13:47:52Z</time>
      </trkpt>
      <trkpt lat="49.2888" lon="-0.12981">
        <ele>47.4524</ele>
        <time>2019-03-22T13:47:55Z</time>
      </trkpt>
      <trkpt lat="49.28884" lon="-0.12986">
        <ele>47.442</ele>
        <time>2019-03-22T13:47:59Z</time>
      </trkpt>
      <trkpt lat="49.28888" lon="-0.12992">
        <ele>47.4366</ele>
        <time>2019-03-22T13:48:03Z</time>
      </trkpt>
      <trkpt lat="49.28889" lon="-0.12994">
        <ele>47.4349</ele>
        <time>2019-03-22T13:48:05Z</time>
      </trkpt>
      <trkpt lat="49.28891" lon="-0.12997">
        <ele>47.4319</ele>
        <time>2019-03-22T13:48:07Z</time>
      </trkpt>
      <trkpt lat="49.28893" lon="-0.13">
        <ele>47.4282</ele>
        <time>2019-03-22T13:48:09Z</time>
      </trkpt>
      <trkpt lat="49.28895" lon="-0.13002">
        <ele>47.4258</ele>
        <time>2019-03-22T13:48:11Z</time>
      </trkpt>
      <trkpt lat="49.28899" lon="-0.13005">
        <ele>47.4211</ele>
        <time>2019-03-22T13:48:15Z</time>
      </trkpt>
      <trkpt lat="49.28905" lon="-0.13007">
        <ele>47.4145</ele>
        <time>2019-03-22T13:48:18Z</time>
      </trkpt>
      <trkpt lat="49.28908" lon="-0.13012">
        <ele>47.4008</ele>
        <time>2019-03-22T13:48:26Z</time>
      </trkpt>
      <trkpt lat="49.28914" lon="-0.13013">
        <ele>47.3992</ele>
        <time>2019-03-22T13:48:34Z</time>
      </trkpt>
      <trkpt lat="49.28918" lon="-0.13014">
        <ele>47.3992</ele>
        <time>2019-03-22T13:48:37Z</time>
      </trkpt>
      <trkpt lat="49.28922" lon="-0.13014">
        <ele>47.3971</ele>
        <time>2019-03-22T13:48:41Z</time>
      </trkpt>
      <trkpt lat="49.28926" lon="-0.13015">
        <ele>47.3935</ele>
        <time>2019-03-22T13:48:44Z</time>
      </trkpt>
      <trkpt lat="49.28932" lon="-0.13018">
        <ele>47.3862</ele>
        <time>2019-03-22T13:48:48Z</time>
      </trkpt>
      <trkpt lat="49.28934" lon="-0.13019">
        <ele>47.3756</ele>
        <time>2019-03-22T13:48:52Z</time>
      </trkpt>
      <trkpt lat="49.28939" lon="-0.1302">
        <ele>47.3639</ele>
        <time>2019-03-22T13:48:56Z</time>
      </trkpt>
      <trkpt lat="49.28944" lon="-0.1302">
        <ele>47.3522</ele>
        <time>2019-03-22T13:49:00Z</time>
      </trkpt>
      <trkpt lat="49.28953" lon="-0.13021">
        <ele>47.3367</ele>
        <time>2019-03-22T13:49:05Z</time>
      </trkpt>
      <trkpt lat="49.28958" lon="-0.13022">
        <ele>47.3263</ele>
        <time>2019-03-22T13:49:08Z</time>
      </trkpt>
      <trkpt lat="49.28961" lon="-0.13026">
        <ele>47.3121</ele>
        <time>2019-03-22T13:49:12Z</time>
      </trkpt>
      <trkpt lat="49.28966" lon="-0.13028">
        <ele>47.2946</ele>
        <time>2019-03-22T13:49:17Z</time>
      </trkpt>
      <trkpt lat="49.28971" lon="-0.13032">
        <ele>47.2768</ele>
        <time>2019-03-22T13:49:23Z</time>
      </trkpt>
      <trkpt lat="49.28975" lon="-0.13034">
        <ele>47.2672</ele>
        <time>2019-03-22T13:49:27Z</time>
      </trkpt>
      <trkpt lat="49.28978" lon="-0.13035">
        <ele>47.2626</ele>
        <time>2019-03-22T13:49:29Z</time>
      </trkpt>
      <trkpt lat="49.28983" lon="-0.13036">
        <ele>47.254</ele>
        <time>2019-03-22T13:49:33Z</time>
      </trkpt>
      <trkpt lat="49.28986" lon="-0.13036">
        <ele>47.2493</ele>
        <time>2019-03-22T13:49:35Z</time>
      </trkpt>
      <trkpt lat="49.28988" lon="-0.13037">
        <ele>47.2448</ele>
        <time>2019-03-22T13:49:37Z</time>
      </trkpt>
      <trkpt lat="49.28994" lon="-0.13039">
        <ele>47.2351</ele>
        <time>2019-03-22T13:49:42Z</time>
      </trkpt>
      <trkpt lat="49.28998" lon="-0.13039">
        <ele>47.2309</ele>
        <time>2019-03-22T13:49:45Z</time>
      </trkpt>
      <trkpt lat="49.29001" lon="-0.13039">
        <ele>47.2271</ele>
        <time>2019-03-22T13:49:47Z</time>
      </trkpt>
      <trkpt lat="49.29006" lon="-0.1304">
        <ele>47.2177</ele>
        <time>2019-03-22T13:49:51Z</time>
      </trkpt>
      <trkpt lat="49.29011" lon="-0.1304">
        <ele>47.2079</ele>
        <time>2019-03-22T13:49:55Z</time>
      </trkpt>
      <trkpt lat="49.29014" lon="-0.1304">
        <ele>47.2029</ele>
        <time>2019-03-22T13:49:57Z</time>
      </trkpt>
      <trkpt lat="49.29016" lon="-0.1304">
        <ele>47.1975</ele>
        <time>2019-03-22T13:49:59Z</time>
      </trkpt>
      <trkpt lat="49.29019" lon="-0.1304">
        <ele>47.1918</ele>
        <time>2019-03-22T13:50:01Z</time>
      </trkpt>
      <trkpt lat="49.29023" lon="-0.13036">
        <ele>47.182</ele>
        <time>2019-03-22T13:50:06Z</time>
      </trkpt>
      <trkpt lat="49.29027" lon="-0.13032">
        <ele>47.1841</ele>
        <time>2019-03-22T13:50:09Z</time>
      </trkpt>
      <trkpt lat="49.29029" lon="-0.13029">
        <ele>47.1906</ele>
        <time>2019-03-22T13:50:12Z</time>
      </trkpt>
      <trkpt lat="49.29031" lon="-0.13026">
        <ele>47.2033</ele>
        <time>2019-03-22T13:50:16Z</time>
      </trkpt>
      <trkpt lat="49.29034" lon="-0.13023">
        <ele>47.2165</ele>
        <time>2019-03-22T13:50:19Z</time>
      </trkpt>
      <trkpt lat="49.29039" lon="-0.13022">
        <ele>47.2337</ele>
        <time>2019-03-22T13:50:23Z</time>
      </trkpt>
      <trkpt lat="49.29044" lon="-0.1302">
        <ele>47.244</ele>
        <time>2019-03-22T13:50:26Z</time>
      </trkpt>
      <trkpt lat="49.29047" lon="-0.13019">
        <ele>47.2494</ele>
        <time>2019-03-22T13:50:28Z</time>
      </trkpt>
      <trkpt lat="49.29052" lon="-0.13023">
        <ele>47.2579</ele>
        <time>2019-03-22T13:50:32Z</time>
      </trkpt>
      <trkpt lat="49.29056" lon="-0.13027">
        <ele>47.2638</ele>
        <time>2019-03-22T13:50:36Z</time>
      </trkpt>
      <trkpt lat="49.2906" lon="-0.13032">
        <ele>47.2684</ele>
        <time>2019-03-22T13:50:41Z</time>
      </trkpt>
      <trkpt lat="49.2906" lon="-0.13032">
        <ele>9.1</ele>
        <time>2019-03-22T13:50:48Z</time>
      </trkpt>
      <trkpt lat="49.2906" lon="-0.13032">
        <ele>9.1</ele>
        <time>2019-03-22T13:50:53Z</time>
      </trkpt>
      <trkpt lat="49.2907" lon="-0.13038">
        <ele>47.253</ele>
        <time>2019-03-22T13:50:53Z</time>
      </trkpt>
      <trkpt lat="49.29074" lon="-0.13041">
        <ele>47.2373</ele>
        <time>2019-03-22T13:50:56Z</time>
      </trkpt>
      <trkpt lat="49.29077" lon="-0.13043">
        <ele>47.2245</ele>
        <time>2019-03-22T13:50:58Z</time>
      </trkpt>
      <trkpt lat="49.2908" lon="-0.13045">
        <ele>47.2103</ele>
        <time>2019-03-22T13:51:00Z</time>
      </trkpt>
      <trkpt lat="49.29083" lon="-0.13047">
        <ele>47.1957</ele>
        <time>2019-03-22T13:51:02Z</time>
      </trkpt>
      <trkpt lat="49.29086" lon="-0.13048">
        <ele>47.1809</ele>
        <time>2019-03-22T13:51:04Z</time>
      </trkpt>
      <trkpt lat="49.29089" lon="-0.13049">
        <ele>47.1661</ele>
        <time>2019-03-22T13:51:06Z</time>
      </trkpt>
      <trkpt lat="49.29091" lon="-0.1305">
        <ele>47.1516</ele>
        <time>2019-03-22T13:51:08Z</time>
      </trkpt>
      <trkpt lat="49.29094" lon="-0.13051">
        <ele>47.1315</ele>
        <time>2019-03-22T13:51:11Z</time>
      </trkpt>
      <trkpt lat="49.29098" lon="-0.13054">
        <ele>47.1122</ele>
        <time>2019-03-22T13:51:14Z</time>
      </trkpt>
      <trkpt lat="49.29101" lon="-0.13056">
        <ele>47.0996</ele>
        <time>2019-03-22T13:51:16Z</time>
      </trkpt>
      <trkpt lat="49.29104" lon="-0.13063">
        <ele>47.0646</ele>
        <time>2019-03-22T13:51:21Z</time>
      </trkpt>
      <trkpt lat="49.29104" lon="-0.1307">
        <ele>47.0252</ele>
        <time>2019-03-22T13:51:26Z</time>
      </trkpt>
      <trkpt lat="49.29103" lon="-0.13078">
        <ele>46.9927</ele>
        <time>2019-03-22T13:51:30Z</time>
      </trkpt>
      <trkpt lat="49.29102" lon="-0.13082">
        <ele>46.9766</ele>
        <time>2019-03-22T13:51:32Z</time>
      </trkpt>
      <trkpt lat="49.29101" lon="-0.13087">
        <ele>46.9617</ele>
        <time>2019-03-22T13:51:34Z</time>
      </trkpt>
      <trkpt lat="49.291" lon="-0.13091">
        <ele>46.9474</ele>
        <time>2019-03-22T13:51:36Z</time>
      </trkpt>
      <trkpt lat="49.291" lon="-0.13095">
        <ele>46.9332</ele>
        <time>2019-03-22T13:51:38Z</time>
      </trkpt>
      <trkpt lat="49.29099" lon="-0.13099">
        <ele>46.9198</ele>
        <time>2019-03-22T13:51:40Z</time>
      </trkpt>
      <trkpt lat="49.29097" lon="-0.13105">
        <ele>46.9017</ele>
        <time>2019-03-22T13:51:43Z</time>
      </trkpt>
      <trkpt lat="49.29095" lon="-0.13113">
        <ele>46.8783</ele>
        <time>2019-03-22T13:51:47Z</time>
      </trkpt>
      <trkpt lat="49.29093" lon="-0.13121">
        <ele>46.8574</ele>
        <time>2019-03-22T13:51:51Z</time>
      </trkpt>
      <trkpt lat="49.29092" lon="-0.13126">
        <ele>46.8446</ele>
        <time>2019-03-22T13:51:54Z</time>
      </trkpt>
      <trkpt lat="49.29091" lon="-0.13133">
        <ele>46.8352</ele>
        <time>2019-03-22T13:51:57Z</time>
      </trkpt>
      <trkpt lat="49.2909" lon="-0.13141">
        <ele>46.8244</ele>
        <time>2019-03-22T13:52:01Z</time>
      </trkpt>
      <trkpt lat="49.2909" lon="-0.13146">
        <ele>46.816</ele>
        <time>2019-03-22T13:52:04Z</time>
      </trkpt>
      <trkpt lat="49.29088" lon="-0.13154">
        <ele>46.8002</ele>
        <time>2019-03-22T13:52:09Z</time>
      </trkpt>
      <trkpt lat="49.29087" lon="-0.13162">
        <ele>46.7826</ele>
        <time>2019-03-22T13:52:14Z</time>
      </trkpt>
      <trkpt lat="49.29086" lon="-0.1317">
        <ele>46.7685</ele>
        <time>2019-03-22T13:52:18Z</time>
      </trkpt>
      <trkpt lat="49.29085" lon="-0.13174">
        <ele>46.7589</ele>
        <time>2019-03-22T13:52:21Z</time>
      </trkpt>
      <trkpt lat="49.29084" lon="-0.13183">
        <ele>46.7463</ele>
        <time>2019-03-22T13:52:25Z</time>
      </trkpt>
      <trkpt lat="49.29084" lon="-0.13187">
        <ele>46.7397</ele>
        <time>2019-03-22T13:52:27Z</time>
      </trkpt>
      <trkpt lat="49.29082" lon="-0.13195">
        <ele>46.7205</ele>
        <time>2019-03-22T13:52:32Z</time>
      </trkpt>
      <trkpt lat="49.29081" lon="-0.13199">
        <ele>46.7113</ele>
        <time>2019-03-22T13:52:34Z</time>
      </trkpt>
      <trkpt lat="49.29081" lon="-0.13203">
        <ele>46.701</ele>
        <time>2019-03-22T13:52:36Z</time>
      </trkpt>
      <trkpt lat="49.29079" lon="-0.13207">
        <ele>46.6896</ele>
        <time>2019-03-22T13:52:38Z</time>
      </trkpt>
      <trkpt lat="49.29078" lon="-0.13215">
        <ele>46.6676</ele>
        <time>2019-03-22T13:52:42Z</time>
      </trkpt>
      <trkpt lat="49.29077" lon="-0.13223">
        <ele>46.6438</ele>
        <time>2019-03-22T13:52:46Z</time>
      </trkpt>
      <trkpt lat="49.29077" lon="-0.13227">
        <ele>46.6315</ele>
        <time>2019-03-22T13:52:48Z</time>
      </trkpt>
      <trkpt lat="49.29075" lon="-0.13234">
        <ele>46.6042</ele>
        <time>2019-03-22T13:52:52Z</time>
      </trkpt>
      <trkpt lat="49.29074" lon="-0.13239">
        <ele>46.5822</ele>
        <time>2019-03-22T13:52:55Z</time>
      </trkpt>
      <trkpt lat="49.29073" lon="-0.13244">
        <ele>46.5676</ele>
        <time>2019-03-22T13:52:57Z</time>
      </trkpt>
      <trkpt lat="49.29072" lon="-0.13247">
        <ele>46.5532</ele>
        <time>2019-03-22T13:52:59Z</time>
      </trkpt>
      <trkpt lat="49.29071" lon="-0.13251">
        <ele>46.5382</ele>
        <time>2019-03-22T13:53:01Z</time>
      </trkpt>
      <trkpt lat="49.29069" lon="-0.13258">
        <ele>46.5059</ele>
        <time>2019-03-22T13:53:05Z</time>
      </trkpt>
      <trkpt lat="49.29069" lon="-0.13262">
        <ele>46.4882</ele>
        <time>2019-03-22T13:53:07Z</time>
      </trkpt>
      <trkpt lat="49.29068" lon="-0.13266">
        <ele>46.4701</ele>
        <time>2019-03-22T13:53:09Z</time>
      </trkpt>
      <trkpt lat="49.29067" lon="-0.1327">
        <ele>46.4514</ele>
        <time>2019-03-22T13:53:11Z</time>
      </trkpt>
      <trkpt lat="49.29067" lon="-0.13277">
        <ele>46.4019</ele>
        <time>2019-03-22T13:53:16Z</time>
      </trkpt>
      <trkpt lat="49.29066" lon="-0.13281">
        <ele>46.3816</ele>
        <time>2019-03-22T13:53:18Z</time>
      </trkpt>
      <trkpt lat="49.29066" lon="-0.13285">
        <ele>46.3612</ele>
        <time>2019-03-22T13:53:20Z</time>
      </trkpt>
      <trkpt lat="49.29065" lon="-0.13289">
        <ele>46.3405</ele>
        <time>2019-03-22T13:53:22Z</time>
      </trkpt>
      <trkpt lat="49.29065" lon="-0.13294">
        <ele>46.3076</ele>
        <time>2019-03-22T13:53:25Z</time>
      </trkpt>
      <trkpt lat="49.29064" lon="-0.13299">
        <ele>46.2738</ele>
        <time>2019-03-22T13:53:28Z</time>
      </trkpt>
      <trkpt lat="49.29064" lon="-0.13303">
        <ele>46.2509</ele>
        <time>2019-03-22T13:53:30Z</time>
      </trkpt>
      <trkpt lat="49.29063" lon="-0.13307">
        <ele>46.2276</ele>
        <time>2019-03-22T13:53:32Z</time>
      </trkpt>
      <trkpt lat="49.29063" lon="-0.13311">
        <ele>46.2041</ele>
        <time>2019-03-22T13:53:34Z</time>
      </trkpt>
      <trkpt lat="49.29062" lon="-0.13318">
        <ele>46.1557</ele>
        <time>2019-03-22T13:53:38Z</time>
      </trkpt>
      <trkpt lat="49.29061" lon="-0.13322">
        <ele>46.1311</ele>
        <time>2019-03-22T13:53:40Z</time>
      </trkpt>
      <trkpt lat="49.2906" lon="-0.13329">
        <ele>46.0938</ele>
        <time>2019-03-22T13:53:43Z</time>
      </trkpt>
      <trkpt lat="49.2906" lon="-0.13334">
        <ele>46.0554</ele>
        <time>2019-03-22T13:53:46Z</time>
      </trkpt>
      <trkpt lat="49.29059" lon="-0.13338">
        <ele>46.0153</ele>
        <time>2019-03-22T13:53:49Z</time>
      </trkpt>
      <trkpt lat="49.29058" lon="-0.13343">
        <ele>45.9736</ele>
        <time>2019-03-22T13:53:52Z</time>
      </trkpt>
      <trkpt lat="49.29057" lon="-0.13347">
        <ele>45.9447</ele>
        <time>2019-03-22T13:53:54Z</time>
      </trkpt>
      <trkpt lat="49.29057" lon="-0.13354">
        <ele>45.8854</ele>
        <time>2019-03-22T13:53:58Z</time>
      </trkpt>
      <trkpt lat="49.29056" lon="-0.13358">
        <ele>45.855</ele>
        <time>2019-03-22T13:54:00Z</time>
      </trkpt>
      <trkpt lat="49.29056" lon="-0.13362">
        <ele>45.8249</ele>
        <time>2019-03-22T13:54:02Z</time>
      </trkpt>
      <trkpt lat="49.29055" lon="-0.13366">
        <ele>45.7952</ele>
        <time>2019-03-22T13:54:04Z</time>
      </trkpt>
      <trkpt lat="49.29054" lon="-0.1337">
        <ele>45.7658</ele>
        <time>2019-03-22T13:54:06Z</time>
      </trkpt>
      <trkpt lat="49.29054" lon="-0.13374">
        <ele>45.7371</ele>
        <time>2019-03-22T13:54:08Z</time>
      </trkpt>
      <trkpt lat="49.29053" lon="-0.13378">
        <ele>45.7088</ele>
        <time>2019-03-22T13:54:10Z</time>
      </trkpt>
      <trkpt lat="49.29052" lon="-0.13383">
        <ele>45.666</ele>
        <time>2019-03-22T13:54:13Z</time>
      </trkpt>
      <trkpt lat="49.29052" lon="-0.13387">
        <ele>45.6366</ele>
        <time>2019-03-22T13:54:15Z</time>
      </trkpt>
      <trkpt lat="49.29051" lon="-0.13391">
        <ele>45.6075</ele>
        <time>2019-03-22T13:54:17Z</time>
      </trkpt>
      <trkpt lat="49.2905" lon="-0.13399">
        <ele>45.5486</ele>
        <time>2019-03-22T13:54:21Z</time>
      </trkpt>
      <trkpt lat="49.29049" lon="-0.13403">
        <ele>45.5186</ele>
        <time>2019-03-22T13:54:23Z</time>
      </trkpt>
      <trkpt lat="49.29048" lon="-0.13411">
        <ele>45.4572</ele>
        <time>2019-03-22T13:54:27Z</time>
      </trkpt>
      <trkpt lat="49.29046" lon="-0.13418">
        <ele>45.3751</ele>
        <time>2019-03-22T13:54:32Z</time>
      </trkpt>
      <trkpt lat="49.29045" lon="-0.13422">
        <ele>45.3414</ele>
        <time>2019-03-22T13:54:34Z</time>
      </trkpt>
      <trkpt lat="49.29043" lon="-0.13429">
        <ele>45.2915</ele>
        <time>2019-03-22T13:54:37Z</time>
      </trkpt>
      <trkpt lat="49.29042" lon="-0.13433">
        <ele>45.2585</ele>
        <time>2019-03-22T13:54:39Z</time>
      </trkpt>
      <trkpt lat="49.29041" lon="-0.1344">
        <ele>45.1958</ele>
        <time>2019-03-22T13:54:43Z</time>
      </trkpt>
      <trkpt lat="49.2904" lon="-0.13446">
        <ele>45.151</ele>
        <time>2019-03-22T13:54:46Z</time>
      </trkpt>
      <trkpt lat="49.29039" lon="-0.1345">
        <ele>45.122</ele>
        <time>2019-03-22T13:54:48Z</time>
      </trkpt>
      <trkpt lat="49.29039" lon="-0.13458">
        <ele>45.0362</ele>
        <time>2019-03-22T13:54:54Z</time>
      </trkpt>
      <trkpt lat="49.29039" lon="-0.13462">
        <ele>45.0088</ele>
        <time>2019-03-22T13:54:56Z</time>
      </trkpt>
      <trkpt lat="49.29037" lon="-0.1347">
        <ele>44.9445</ele>
        <time>2019-03-22T13:55:01Z</time>
      </trkpt>
      <trkpt lat="49.29038" lon="-0.13477">
        <ele>44.8845</ele>
        <time>2019-03-22T13:55:06Z</time>
      </trkpt>
      <trkpt lat="49.29039" lon="-0.13481">
        <ele>44.8517</ele>
        <time>2019-03-22T13:55:09Z</time>
      </trkpt>
      <trkpt lat="49.29037" lon="-0.13488">
        <ele>44.8103</ele>
        <time>2019-03-22T13:55:13Z</time>
      </trkpt>
      <trkpt lat="49.29037" lon="-0.13495">
        <ele>44.7812</ele>
        <time>2019-03-22T13:55:16Z</time>
      </trkpt>
      <trkpt lat="49.29036" lon="-0.13502">
        <ele>44.745</ele>
        <time>2019-03-22T13:55:20Z</time>
      </trkpt>
      <trkpt lat="49.29037" lon="-0.13506">
        <ele>44.7286</ele>
        <time>2019-03-22T13:55:22Z</time>
      </trkpt>
      <trkpt lat="49.29036" lon="-0.13514">
        <ele>44.6982</ele>
        <time>2019-03-22T13:55:26Z</time>
      </trkpt>
      <trkpt lat="49.29035" lon="-0.13519">
        <ele>44.6762</ele>
        <time>2019-03-22T13:55:29Z</time>
      </trkpt>
      <trkpt lat="49.29035" lon="-0.13525">
        <ele>44.6583</ele>
        <time>2019-03-22T13:55:32Z</time>
      </trkpt>
      <trkpt lat="49.29034" lon="-0.13532">
        <ele>44.6417</ele>
        <time>2019-03-22T13:55:35Z</time>
      </trkpt>
      <trkpt lat="49.29033" lon="-0.1354">
        <ele>44.6286</ele>
        <time>2019-03-22T13:55:38Z</time>
      </trkpt>
      <trkpt lat="49.29032" lon="-0.13547">
        <ele>44.6144</ele>
        <time>2019-03-22T13:55:42Z</time>
      </trkpt>
      <trkpt lat="49.29029" lon="-0.13554">
        <ele>44.6025</ele>
        <time>2019-03-22T13:55:46Z</time>
      </trkpt>
      <trkpt lat="49.29028" lon="-0.13561">
        <ele>44.5945</ele>
        <time>2019-03-22T13:55:49Z</time>
      </trkpt>
      <trkpt lat="49.29027" lon="-0.13569">
        <ele>44.5834</ele>
        <time>2019-03-22T13:55:53Z</time>
      </trkpt>
      <trkpt lat="49.29026" lon="-0.13573">
        <ele>44.5774</ele>
        <time>2019-03-22T13:55:55Z</time>
      </trkpt>
      <trkpt lat="49.29025" lon="-0.13577">
        <ele>44.5709</ele>
        <time>2019-03-22T13:55:57Z</time>
      </trkpt>
      <trkpt lat="49.29024" lon="-0.13582">
        <ele>44.5603</ele>
        <time>2019-03-22T13:56:00Z</time>
      </trkpt>
      <trkpt lat="49.29023" lon="-0.13586">
        <ele>44.5527</ele>
        <time>2019-03-22T13:56:02Z</time>
      </trkpt>
      <trkpt lat="49.29023" lon="-0.13589">
        <ele>44.5443</ele>
        <time>2019-03-22T13:56:04Z</time>
      </trkpt>
      <trkpt lat="49.29021" lon="-0.13597">
        <ele>44.5257</ele>
        <time>2019-03-22T13:56:08Z</time>
      </trkpt>
      <trkpt lat="49.29019" lon="-0.13602">
        <ele>44.5094</ele>
        <time>2019-03-22T13:56:11Z</time>
      </trkpt>
      <trkpt lat="49.29018" lon="-0.13609">
        <ele>44.4838</ele>
        <time>2019-03-22T13:56:15Z</time>
      </trkpt>
      <trkpt lat="49.29017" lon="-0.13616">
        <ele>44.453</ele>
        <time>2019-03-22T13:56:19Z</time>
      </trkpt>
      <trkpt lat="49.29016" lon="-0.13621">
        <ele>44.4261</ele>
        <time>2019-03-22T13:56:22Z</time>
      </trkpt>
      <trkpt lat="49.29015" lon="-0.13625">
        <ele>44.4056</ele>
        <time>2019-03-22T13:56:24Z</time>
      </trkpt>
      <trkpt lat="49.29014" lon="-0.13628">
        <ele>44.3828</ele>
        <time>2019-03-22T13:56:26Z</time>
      </trkpt>
      <trkpt lat="49.29013" lon="-0.13632">
        <ele>44.3271</ele>
        <time>2019-03-22T13:56:31Z</time>
      </trkpt>
      <trkpt lat="49.29016" lon="-0.13644">
        <ele>44.2404</ele>
        <time>2019-03-22T13:56:39Z</time>
      </trkpt>
      <trkpt lat="49.29015" lon="-0.1365">
        <ele>44.2156</ele>
        <time>2019-03-22T13:56:41Z</time>
      </trkpt>
      <trkpt lat="49.29014" lon="-0.13656">
        <ele>44.1731</ele>
        <time>2019-03-22T13:56:44Z</time>
      </trkpt>
      <trkpt lat="49.29012" lon="-0.13663">
        <ele>44.1281</ele>
        <time>2019-03-22T13:56:47Z</time>
      </trkpt>
      <trkpt lat="49.29011" lon="-0.13671">
        <ele>44.066</ele>
        <time>2019-03-22T13:56:51Z</time>
      </trkpt>
      <trkpt lat="49.29011" lon="-0.13679">
        <ele>44.0024</ele>
        <time>2019-03-22T13:56:55Z</time>
      </trkpt>
      <trkpt lat="49.29011" lon="-0.13683">
        <ele>43.9875</ele>
        <time>2019-03-22T13:56:56Z</time>
      </trkpt>
      <trkpt lat="49.29009" lon="-0.1369">
        <ele>43.9621</ele>
        <time>2019-03-22T13:56:58Z</time>
      </trkpt>
      <trkpt lat="49.29007" lon="-0.13697">
        <ele>43.9277</ele>
        <time>2019-03-22T13:57:01Z</time>
      </trkpt>
      <trkpt lat="49.29004" lon="-0.13705">
        <ele>43.8853</ele>
        <time>2019-03-22T13:57:05Z</time>
      </trkpt>
      <trkpt lat="49.29002" lon="-0.13714">
        <ele>43.8602</ele>
        <time>2019-03-22T13:57:08Z</time>
      </trkpt>
      <trkpt lat="49.28999" lon="-0.13723">
        <ele>43.8469</ele>
        <time>2019-03-22T13:57:11Z</time>
      </trkpt>
      <trkpt lat="49.28996" lon="-0.13728">
        <ele>43.8446</ele>
        <time>2019-03-22T13:57:14Z</time>
      </trkpt>
      <trkpt lat="49.28994" lon="-0.13732">
        <ele>43.8478</ele>
        <time>2019-03-22T13:57:16Z</time>
      </trkpt>
      <trkpt lat="49.28992" lon="-0.13738">
        <ele>43.8598</ele>
        <time>2019-03-22T13:57:19Z</time>
      </trkpt>
      <trkpt lat="49.28989" lon="-0.13745">
        <ele>43.8867</ele>
        <time>2019-03-22T13:57:22Z</time>
      </trkpt>
      <trkpt lat="49.28987" lon="-0.13749">
        <ele>43.9115</ele>
        <time>2019-03-22T13:57:24Z</time>
      </trkpt>
      <trkpt lat="49.28985" lon="-0.13756">
        <ele>43.9505</ele>
        <time>2019-03-22T13:57:27Z</time>
      </trkpt>
      <trkpt lat="49.28983" lon="-0.13761">
        <ele>43.9909</ele>
        <time>2019-03-22T13:57:30Z</time>
      </trkpt>
      <trkpt lat="49.28982" lon="-0.13769">
        <ele>44.033</ele>
        <time>2019-03-22T13:57:33Z</time>
      </trkpt>
      <trkpt lat="49.28981" lon="-0.13773">
        <ele>44.06</ele>
        <time>2019-03-22T13:57:35Z</time>
      </trkpt>
      <trkpt lat="49.2898" lon="-0.1378">
        <ele>44.1329</ele>
        <time>2019-03-22T13:57:41Z</time>
      </trkpt>
      <trkpt lat="49.28978" lon="-0.13787">
        <ele>44.1603</ele>
        <time>2019-03-22T13:57:44Z</time>
      </trkpt>
      <trkpt lat="49.28978" lon="-0.13793">
        <ele>44.1804</ele>
        <time>2019-03-22T13:57:46Z</time>
      </trkpt>
      <trkpt lat="49.28977" lon="-0.13798">
        <ele>44.2117</ele>
        <time>2019-03-22T13:57:49Z</time>
      </trkpt>
      <trkpt lat="49.28977" lon="-0.13798">
        <ele>8.3</ele>
        <time>2019-03-22T13:57:54Z</time>
      </trkpt>
      <trkpt lat="49.28977" lon="-0.13798">
        <ele>8.3</ele>
        <time>2019-03-22T13:57:57Z</time>
      </trkpt>
      <trkpt lat="49.28975" lon="-0.1381">
        <ele>44.2696</ele>
        <time>2019-03-22T13:57:57Z</time>
      </trkpt>
      <trkpt lat="49.28974" lon="-0.13818">
        <ele>44.2908</ele>
        <time>2019-03-22T13:58:01Z</time>
      </trkpt>
      <trkpt lat="49.28973" lon="-0.13825">
        <ele>44.3035</ele>
        <time>2019-03-22T13:58:06Z</time>
      </trkpt>
      <trkpt lat="49.28971" lon="-0.13833">
        <ele>44.2994</ele>
        <time>2019-03-22T13:58:11Z</time>
      </trkpt>
      <trkpt lat="49.2897" lon="-0.13842">
        <ele>44.2794</ele>
        <time>2019-03-22T13:58:16Z</time>
      </trkpt>
      <trkpt lat="49.28968" lon="-0.13849">
        <ele>44.2628</ele>
        <time>2019-03-22T13:58:19Z</time>
      </trkpt>
      <trkpt lat="49.28967" lon="-0.13856">
        <ele>44.241</ele>
        <time>2019-03-22T13:58:23Z</time>
      </trkpt>
      <trkpt lat="49.28966" lon="-0.13859">
        <ele>44.2268</ele>
        <time>2019-03-22T13:58:25Z</time>
      </trkpt>
      <trkpt lat="49.28966" lon="-0.13865">
        <ele>44.215</ele>
        <time>2019-03-22T13:58:27Z</time>
      </trkpt>
      <trkpt lat="49.28964" lon="-0.13872">
        <ele>44.1871</ele>
        <time>2019-03-22T13:58:31Z</time>
      </trkpt>
      <trkpt lat="49.28962" lon="-0.13877">
        <ele>44.1634</ele>
        <time>2019-03-22T13:58:34Z</time>
      </trkpt>
      <trkpt lat="49.28961" lon="-0.13884">
        <ele>44.1268</ele>
        <time>2019-03-22T13:58:38Z</time>
      </trkpt>
      <trkpt lat="49.28958" lon="-0.13891">
        <ele>44.0961</ele>
        <time>2019-03-22T13:58:41Z</time>
      </trkpt>
      <trkpt lat="49.28956" lon="-0.13899">
        <ele>44.0526</ele>
        <time>2019-03-22T13:58:45Z</time>
      </trkpt>
      <trkpt lat="49.28955" lon="-0.13906">
        <ele>44.0184</ele>
        <time>2019-03-22T13:58:48Z</time>
      </trkpt>
      <trkpt lat="49.28957" lon="-0.13913">
        <ele>43.9871</ele>
        <time>2019-03-22T13:58:51Z</time>
      </trkpt>
      <trkpt lat="49.28958" lon="-0.13919">
        <ele>43.9337</ele>
        <time>2019-03-22T13:58:56Z</time>
      </trkpt>
      <trkpt lat="49.28957" lon="-0.13927">
        <ele>43.8864</ele>
        <time>2019-03-22T13:59:00Z</time>
      </trkpt>
      <trkpt lat="49.28955" lon="-0.13935">
        <ele>43.8467</ele>
        <time>2019-03-22T13:59:04Z</time>
      </trkpt>
      <trkpt lat="49.28958" lon="-0.13942">
        <ele>43.8206</ele>
        <time>2019-03-22T13:59:07Z</time>
      </trkpt>
      <trkpt lat="49.28959" lon="-0.13945">
        <ele>43.803</ele>
        <time>2019-03-22T13:59:09Z</time>
      </trkpt>
      <trkpt lat="49.28961" lon="-0.13948">
        <ele>43.7843</ele>
        <time>2019-03-22T13:59:11Z</time>
      </trkpt>
      <trkpt lat="49.28966" lon="-0.13952">
        <ele>43.7461</ele>
        <time>2019-03-22T13:59:15Z</time>
      </trkpt>
      <trkpt lat="49.28971" lon="-0.13955">
        <ele>43.7034</ele>
        <time>2019-03-22T13:59:19Z</time>
      </trkpt>
      <trkpt lat="49.28974" lon="-0.13956">
        <ele>43.682</ele>
        <time>2019-03-22T13:59:21Z</time>
      </trkpt>
      <trkpt lat="49.28979" lon="-0.13955">
        <ele>43.6271</ele>
        <time>2019-03-22T13:59:26Z</time>
      </trkpt>
      <trkpt lat="49.28983" lon="-0.13961">
        <ele>43.5798</ele>
        <time>2019-03-22T13:59:30Z</time>
      </trkpt>
      <trkpt lat="49.28985" lon="-0.13968">
        <ele>43.5304</ele>
        <time>2019-03-22T13:59:34Z</time>
      </trkpt>
      <trkpt lat="49.28986" lon="-0.13977">
        <ele>43.4625</ele>
        <time>2019-03-22T13:59:39Z</time>
      </trkpt>
      <trkpt lat="49.28986" lon="-0.13985">
        <ele>43.4225</ele>
        <time>2019-03-22T13:59:42Z</time>
      </trkpt>
      <trkpt lat="49.28988" lon="-0.13994">
        <ele>43.3929</ele>
        <time>2019-03-22T13:59:45Z</time>
      </trkpt>
      <trkpt lat="49.28991" lon="-0.14">
        <ele>43.3302</ele>
        <time>2019-03-22T13:59:52Z</time>
      </trkpt>
      <trkpt lat="49.28992" lon="-0.14005">
        <ele>43.3166</ele>
        <time>2019-03-22T13:59:55Z</time>
      </trkpt>
      <trkpt lat="49.28994" lon="-0.14008">
        <ele>43.3096</ele>
        <time>2019-03-22T13:59:57Z</time>
      </trkpt>
      <trkpt lat="49.28994" lon="-0.14016">
        <ele>43.2901</ele>
        <time>2019-03-22T14:00:02Z</time>
      </trkpt>
      <trkpt lat="49.28997" lon="-0.14022">
        <ele>43.256</ele>
        <time>2019-03-22T14:00:08Z</time>
      </trkpt>
      <trkpt lat="49.28998" lon="-0.1403">
        <ele>43.2157</ele>
        <time>2019-03-22T14:00:13Z</time>
      </trkpt>
      <trkpt lat="49.29001" lon="-0.14036">
        <ele>43.1766</ele>
        <time>2019-03-22T14:00:17Z</time>
      </trkpt>
      <trkpt lat="49.29001" lon="-0.1404">
        <ele>43.1181</ele>
        <time>2019-03-22T14:00:24Z</time>
      </trkpt>
      <trkpt lat="49.29002" lon="-0.14047">
        <ele>43.0196</ele>
        <time>2019-03-22T14:00:31Z</time>
      </trkpt>
      <trkpt lat="49.29" lon="-0.14055">
        <ele>42.9607</ele>
        <time>2019-03-22T14:00:35Z</time>
      </trkpt>
      <trkpt lat="49.29001" lon="-0.14064">
        <ele>42.9147</ele>
        <time>2019-03-22T14:00:38Z</time>
      </trkpt>
      <trkpt lat="49.29002" lon="-0.14069">
        <ele>42.8829</ele>
        <time>2019-03-22T14:00:40Z</time>
      </trkpt>
      <trkpt lat="49.29003" lon="-0.14073">
        <ele>42.8507</ele>
        <time>2019-03-22T14:00:42Z</time>
      </trkpt>
      <trkpt lat="49.29001" lon="-0.14081">
        <ele>42.7873</ele>
        <time>2019-03-22T14:00:46Z</time>
      </trkpt>
      <trkpt lat="49.29001" lon="-0.14087">
        <ele>42.7553</ele>
        <time>2019-03-22T14:00:48Z</time>
      </trkpt>
      <trkpt lat="49.29" lon="-0.14093">
        <ele>42.7228</ele>
        <time>2019-03-22T14:00:50Z</time>
      </trkpt>
      <trkpt lat="49.28999" lon="-0.14099">
        <ele>42.6547</ele>
        <time>2019-03-22T14:00:54Z</time>
      </trkpt>
      <trkpt lat="49.28998" lon="-0.14107">
        <ele>42.5815</ele>
        <time>2019-03-22T14:00:58Z</time>
      </trkpt>
      <trkpt lat="49.28997" lon="-0.14111">
        <ele>42.5433</ele>
        <time>2019-03-22T14:01:00Z</time>
      </trkpt>
      <trkpt lat="49.28997" lon="-0.14114">
        <ele>42.5044</ele>
        <time>2019-03-22T14:01:02Z</time>
      </trkpt>
      <trkpt lat="49.28994" lon="-0.14121">
        <ele>42.4019</ele>
        <time>2019-03-22T14:01:08Z</time>
      </trkpt>
      <trkpt lat="49.28994" lon="-0.14128">
        <ele>42.3012</ele>
        <time>2019-03-22T14:01:13Z</time>
      </trkpt>
      <trkpt lat="49.28991" lon="-0.14134">
        <ele>42.2053</ele>
        <time>2019-03-22T14:01:18Z</time>
      </trkpt>
      <trkpt lat="49.28988" lon="-0.14141">
        <ele>42.0803</ele>
        <time>2019-03-22T14:01:24Z</time>
      </trkpt>
      <trkpt lat="49.28986" lon="-0.14148">
        <ele>41.9701</ele>
        <time>2019-03-22T14:01:29Z</time>
      </trkpt>
      <trkpt lat="49.28985" lon="-0.14152">
        <ele>41.9069</ele>
        <time>2019-03-22T14:01:32Z</time>
      </trkpt>
      <trkpt lat="49.28985" lon="-0.14155">
        <ele>41.8453</ele>
        <time>2019-03-22T14:01:35Z</time>
      </trkpt>
      <trkpt lat="49.28982" lon="-0.14163">
        <ele>41.763</ele>
        <time>2019-03-22T14:01:39Z</time>
      </trkpt>
      <trkpt lat="49.2898" lon="-0.1417">
        <ele>41.6782</ele>
        <time>2019-03-22T14:01:43Z</time>
      </trkpt>
      <trkpt lat="49.28979" lon="-0.14174">
        <ele>41.6121</ele>
        <time>2019-03-22T14:01:46Z</time>
      </trkpt>
      <trkpt lat="49.28979" lon="-0.14179">
        <ele>41.544</ele>
        <time>2019-03-22T14:01:49Z</time>
      </trkpt>
      <trkpt lat="49.28979" lon="-0.14187">
        <ele>41.3989</ele>
        <time>2019-03-22T14:01:56Z</time>
      </trkpt>
      <trkpt lat="49.28979" lon="-0.14192">
        <ele>41.3241</ele>
        <time>2019-03-22T14:01:59Z</time>
      </trkpt>
      <trkpt lat="49.28978" lon="-0.14199">
        <ele>41.1968</ele>
        <time>2019-03-22T14:02:04Z</time>
      </trkpt>
      <trkpt lat="49.28977" lon="-0.14206">
        <ele>41.0994</ele>
        <time>2019-03-22T14:02:08Z</time>
      </trkpt>
      <trkpt lat="49.28976" lon="-0.14213">
        <ele>41.0018</ele>
        <time>2019-03-22T14:02:12Z</time>
      </trkpt>
      <trkpt lat="49.28976" lon="-0.14216">
        <ele>40.9522</ele>
        <time>2019-03-22T14:02:14Z</time>
      </trkpt>
      <trkpt lat="49.28973" lon="-0.14226">
        <ele>40.8255</ele>
        <time>2019-03-22T14:02:19Z</time>
      </trkpt>
      <trkpt lat="49.28971" lon="-0.14232">
        <ele>40.7202</ele>
        <time>2019-03-22T14:02:23Z</time>
      </trkpt>
      <trkpt lat="49.28968" lon="-0.14238">
        <ele>40.6388</ele>
        <time>2019-03-22T14:02:26Z</time>
      </trkpt>
      <trkpt lat="49.28966" lon="-0.14241">
        <ele>40.5551</ele>
        <time>2019-03-22T14:02:29Z</time>
      </trkpt>
      <trkpt lat="49.28962" lon="-0.14247">
        <ele>40.4083</ele>
        <time>2019-03-22T14:02:34Z</time>
      </trkpt>
      <trkpt lat="49.28961" lon="-0.14254">
        <ele>40.1967</ele>
        <time>2019-03-22T14:02:41Z</time>
      </trkpt>
      <trkpt lat="49.28961" lon="-0.14262">
        <ele>40.0891</ele>
        <time>2019-03-22T14:02:45Z</time>
      </trkpt>
      <trkpt lat="49.2896" lon="-0.14267">
        <ele>40.0161</ele>
        <time>2019-03-22T14:02:48Z</time>
      </trkpt>
      <trkpt lat="49.28959" lon="-0.14274">
        <ele>39.8928</ele>
        <time>2019-03-22T14:02:53Z</time>
      </trkpt>
      <trkpt lat="49.28957" lon="-0.1428">
        <ele>39.7873</ele>
        <time>2019-03-22T14:02:57Z</time>
      </trkpt>
      <trkpt lat="49.28955" lon="-0.14284">
        <ele>39.7053</ele>
        <time>2019-03-22T14:03:00Z</time>
      </trkpt>
      <trkpt lat="49.28954" lon="-0.14288">
        <ele>39.5998</ele>
        <time>2019-03-22T14:03:04Z</time>
      </trkpt>
      <trkpt lat="49.28953" lon="-0.14295">
        <ele>39.4921</ele>
        <time>2019-03-22T14:03:08Z</time>
      </trkpt>
      <trkpt lat="49.28952" lon="-0.143">
        <ele>39.4068</ele>
        <time>2019-03-22T14:03:11Z</time>
      </trkpt>
      <trkpt lat="49.28951" lon="-0.14305">
        <ele>39.318</ele>
        <time>2019-03-22T14:03:14Z</time>
      </trkpt>
      <trkpt lat="49.28951" lon="-0.1431">
        <ele>39.2263</ele>
        <time>2019-03-22T14:03:17Z</time>
      </trkpt>
      <trkpt lat="49.28952" lon="-0.14319">
        <ele>39.1013</ele>
        <time>2019-03-22T14:03:21Z</time>
      </trkpt>
      <trkpt lat="49.28953" lon="-0.14324">
        <ele>39.0372</ele>
        <time>2019-03-22T14:03:23Z</time>
      </trkpt>
      <trkpt lat="49.28955" lon="-0.1433">
        <ele>38.9081</ele>
        <time>2019-03-22T14:03:27Z</time>
      </trkpt>
      <trkpt lat="49.28955" lon="-0.14338">
        <ele>38.7493</ele>
        <time>2019-03-22T14:03:32Z</time>
      </trkpt>
      <trkpt lat="49.28955" lon="-0.14344">
        <ele>38.6537</ele>
        <time>2019-03-22T14:03:35Z</time>
      </trkpt>
      <trkpt lat="49.28955" lon="-0.14351">
        <ele>38.4891</ele>
        <time>2019-03-22T14:03:40Z</time>
      </trkpt>
      <trkpt lat="49.28954" lon="-0.14355">
        <ele>38.4215</ele>
        <time>2019-03-22T14:03:42Z</time>
      </trkpt>
      <trkpt lat="49.28954" lon="-0.14363">
        <ele>38.2833</ele>
        <time>2019-03-22T14:03:46Z</time>
      </trkpt>
      <trkpt lat="49.28956" lon="-0.14372">
        <ele>38.1069</ele>
        <time>2019-03-22T14:03:51Z</time>
      </trkpt>
      <trkpt lat="49.28957" lon="-0.14375">
        <ele>38.0356</ele>
        <time>2019-03-22T14:03:53Z</time>
      </trkpt>
      <trkpt lat="49.28957" lon="-0.14375">
        <ele>2</ele>
        <time>2019-03-22T14:04:00Z</time>
      </trkpt>
      <trkpt lat="49.28957" lon="-0.14375">
        <ele>2</ele>
        <time>2019-03-22T14:04:44Z</time>
      </trkpt>
      <trkpt lat="49.28977" lon="-0.14411">
        <ele>36.867</ele>
        <time>2019-03-22T14:04:44Z</time>
      </trkpt>
      <trkpt lat="49.28979" lon="-0.14417">
        <ele>36.7172</ele>
        <time>2019-03-22T14:04:51Z</time>
      </trkpt>
      <trkpt lat="49.28983" lon="-0.14422">
        <ele>36.6401</ele>
        <time>2019-03-22T14:04:55Z</time>
      </trkpt>
      <trkpt lat="49.28987" lon="-0.14426">
        <ele>36.5825</ele>
        <time>2019-03-22T14:04:58Z</time>
      </trkpt>
      <trkpt lat="49.28989" lon="-0.14428">
        <ele>36.5431</ele>
        <time>2019-03-22T14:05:00Z</time>
      </trkpt>
      <trkpt lat="49.28993" lon="-0.14432">
        <ele>36.446</ele>
        <time>2019-03-22T14:05:05Z</time>
      </trkpt>
      <trkpt lat="49.28996" lon="-0.14437">
        <ele>36.3724</ele>
        <time>2019-03-22T14:05:09Z</time>
      </trkpt>
      <trkpt lat="49.29" lon="-0.14442">
        <ele>36.303</ele>
        <time>2019-03-22T14:05:13Z</time>
      </trkpt>
      <trkpt lat="49.29" lon="-0.14442">
        <ele>1</ele>
        <time>2019-03-22T14:05:20Z</time>
      </trkpt>
      <trkpt lat="49.29" lon="-0.14442">
        <ele>1</ele>
        <time>2019-03-22T14:05:56Z</time>
      </trkpt>
      <trkpt lat="49.28992" lon="-0.14491">
        <ele>35.6449</ele>
        <time>2019-03-22T14:05:56Z</time>
      </trkpt>
      <trkpt lat="49.28992" lon="-0.14494">
        <ele>35.6019</ele>
        <time>2019-03-22T14:05:59Z</time>
      </trkpt>
      <trkpt lat="49.28992" lon="-0.14501">
        <ele>35.5506</ele>
        <time>2019-03-22T14:06:03Z</time>
      </trkpt>
      <trkpt lat="49.28991" lon="-0.14509">
        <ele>35.516</ele>
        <time>2019-03-22T14:06:06Z</time>
      </trkpt>
      <trkpt lat="49.28991" lon="-0.14509">
        <ele>1</ele>
        <time>2019-03-22T14:06:14Z</time>
      </trkpt>
      <trkpt lat="49.28991" lon="-0.14509">
        <ele>1</ele>
        <time>2019-03-22T14:06:29Z</time>
      </trkpt>
      <trkpt lat="49.28983" lon="-0.14542">
        <ele>35.2342</ele>
        <time>2019-03-22T14:06:29Z</time>
      </trkpt>
      <trkpt lat="49.28983" lon="-0.14542">
        <ele>35.2342</ele>
        <time>2019-03-22T14:06:34Z</time>
      </trkpt>
      <trkpt lat="49.28983" lon="-0.14542">
        <time>2019-03-22T14:06:34Z</time>
      </trkpt>
      <trkpt lat="49.28983" lon="-0.14542">
        <time>2019-03-22T14:06:39Z</time>
      </trkpt>
      <trkpt lat="49.28984" lon="-0.14556">
        <ele>35.0798</ele>
        <time>2019-03-22T14:06:39Z</time>
      </trkpt>
      <trkpt lat="49.28983" lon="-0.14564">
        <ele>34.9779</ele>
        <time>2019-03-22T14:06:45Z</time>
      </trkpt>
      <trkpt lat="49.28979" lon="-0.14569">
        <ele>34.9048</ele>
        <time>2019-03-22T14:06:49Z</time>
      </trkpt>
      <trkpt lat="49.28975" lon="-0.14573">
        <ele>34.8461</ele>
        <time>2019-03-22T14:06:52Z</time>
      </trkpt>
      <trkpt lat="49.2897" lon="-0.14574">
        <ele>34.7884</ele>
        <time>2019-03-22T14:06:55Z</time>
      </trkpt>
      <trkpt lat="49.2897" lon="-0.14574">
        <ele>1</ele>
        <time>2019-03-22T14:07:00Z</time>
      </trkpt>
      <trkpt lat="49.2897" lon="-0.14574">
        <ele>1</ele>
        <time>2019-03-22T14:07:15Z</time>
      </trkpt>
      <trkpt lat="49.28956" lon="-0.14575">
        <ele>34.5516</ele>
        <time>2019-03-22T14:07:15Z</time>
      </trkpt>
      <trkpt lat="49.28951" lon="-0.14578">
        <ele>34.4793</ele>
        <time>2019-03-22T14:07:20Z</time>
      </trkpt>
      <trkpt lat="49.28947" lon="-0.1458">
        <ele>34.4402</ele>
        <time>2019-03-22T14:07:23Z</time>
      </trkpt>
      <trkpt lat="49.28943" lon="-0.14586">
        <ele>34.4016</ele>
        <time>2019-03-22T14:07:26Z</time>
      </trkpt>
      <trkpt lat="49.28941" lon="-0.14593">
        <ele>34.3721</ele>
        <time>2019-03-22T14:07:29Z</time>
      </trkpt>
      <trkpt lat="49.28939" lon="-0.14597">
        <ele>34.3583</ele>
        <time>2019-03-22T14:07:31Z</time>
      </trkpt>
      <trkpt lat="49.28938" lon="-0.146">
        <ele>34.3469</ele>
        <time>2019-03-22T14:07:33Z</time>
      </trkpt>
      <trkpt lat="49.28937" lon="-0.14605">
        <ele>34.33</ele>
        <time>2019-03-22T14:07:36Z</time>
      </trkpt>
      <trkpt lat="49.28937" lon="-0.14613">
        <ele>34.2993</ele>
        <time>2019-03-22T14:07:43Z</time>
      </trkpt>
      <trkpt lat="49.28937" lon="-0.14613">
        <ele>1.9</ele>
        <time>2019-03-22T14:07:50Z</time>
      </trkpt>
      <trkpt lat="49.28937" lon="-0.14613">
        <ele>1.9</ele>
        <time>2019-03-22T14:08:21Z</time>
      </trkpt>
      <trkpt lat="49.28931" lon="-0.1463">
        <ele>34.189</ele>
        <time>2019-03-22T14:08:21Z</time>
      </trkpt>
      <trkpt lat="49.28927" lon="-0.14636">
        <ele>34.1713</ele>
        <time>2019-03-22T14:08:25Z</time>
      </trkpt>
      <trkpt lat="49.28925" lon="-0.14639">
        <ele>34.1521</ele>
        <time>2019-03-22T14:08:31Z</time>
      </trkpt>
      <trkpt lat="49.28924" lon="-0.14645">
        <ele>34.1285</ele>
        <time>2019-03-22T14:08:36Z</time>
      </trkpt>
      <trkpt lat="49.28921" lon="-0.14651">
        <ele>34.1054</ele>
        <time>2019-03-22T14:08:40Z</time>
      </trkpt>
      <trkpt lat="49.28917" lon="-0.14654">
        <ele>34.0785</ele>
        <time>2019-03-22T14:08:44Z</time>
      </trkpt>
      <trkpt lat="49.28913" lon="-0.14658">
        <ele>34.0313</ele>
        <time>2019-03-22T14:08:49Z</time>
      </trkpt>
      <trkpt lat="49.28909" lon="-0.14663">
        <ele>33.9578</ele>
        <time>2019-03-22T14:08:55Z</time>
      </trkpt>
      <trkpt lat="49.28906" lon="-0.1467">
        <ele>33.9</ele>
        <time>2019-03-22T14:08:59Z</time>
      </trkpt>
      <trkpt lat="49.28902" lon="-0.14676">
        <ele>33.8581</ele>
        <time>2019-03-22T14:09:03Z</time>
      </trkpt>
      <trkpt lat="49.28899" lon="-0.14679">
        <ele>33.8561</ele>
        <time>2019-03-22T14:09:08Z</time>
      </trkpt>
      <trkpt lat="49.28896" lon="-0.14685">
        <ele>33.8545</ele>
        <time>2019-03-22T14:09:10Z</time>
      </trkpt>
      <trkpt lat="49.28895" lon="-0.14693">
        <ele>33.8476</ele>
        <time>2019-03-22T14:09:14Z</time>
      </trkpt>
      <trkpt lat="49.28894" lon="-0.147">
        <ele>33.8417</ele>
        <time>2019-03-22T14:09:17Z</time>
      </trkpt>
      <trkpt lat="49.28894" lon="-0.147">
        <ele>1.8</ele>
        <time>2019-03-22T14:09:23Z</time>
      </trkpt>
      <trkpt lat="49.28894" lon="-0.147">
        <ele>1.8</ele>
        <time>2019-03-22T14:09:27Z</time>
      </trkpt>
      <trkpt lat="49.2889" lon="-0.14715">
        <ele>33.8032</ele>
        <time>2019-03-22T14:09:27Z</time>
      </trkpt>
      <trkpt lat="49.28889" lon="-0.1472">
        <ele>33.7937</ele>
        <time>2019-03-22T14:09:29Z</time>
      </trkpt>
      <trkpt lat="49.28889" lon="-0.14724">
        <ele>33.7802</ele>
        <time>2019-03-22T14:09:32Z</time>
      </trkpt>
      <trkpt lat="49.28889" lon="-0.14724">
        <ele>2</ele>
        <time>2019-03-22T14:09:37Z</time>
      </trkpt>
      <trkpt lat="49.28889" lon="-0.14724">
        <ele>2</ele>
        <time>2019-03-22T14:09:57Z</time>
      </trkpt>
      <trkpt lat="49.28884" lon="-0.1476">
        <ele>33.656</ele>
        <time>2019-03-22T14:09:57Z</time>
      </trkpt>
      <trkpt lat="49.28882" lon="-0.14764">
        <ele>33.6432</ele>
        <time>2019-03-22T14:09:59Z</time>
      </trkpt>
      <trkpt lat="49.28881" lon="-0.14768">
        <ele>33.625</ele>
        <time>2019-03-22T14:10:02Z</time>
      </trkpt>
      <trkpt lat="49.28881" lon="-0.14768">
        <ele>3</ele>
        <time>2019-03-22T14:10:07Z</time>
      </trkpt>
      <trkpt lat="49.28881" lon="-0.14768">
        <ele>3</ele>
        <time>2019-03-22T14:10:11Z</time>
      </trkpt>
      <trkpt lat="49.28879" lon="-0.14778">
        <ele>33.5633</ele>
        <time>2019-03-22T14:10:11Z</time>
      </trkpt>
      <trkpt lat="49.28878" lon="-0.14782">
        <ele>33.5366</ele>
        <time>2019-03-22T14:10:14Z</time>
      </trkpt>
      <trkpt lat="49.28878" lon="-0.14786">
        <ele>33.5175</ele>
        <time>2019-03-22T14:10:16Z</time>
      </trkpt>
      <trkpt lat="49.28878" lon="-0.14786">
        <ele>3.4</ele>
        <time>2019-03-22T14:10:24Z</time>
      </trkpt>
      <trkpt lat="49.28878" lon="-0.14786">
        <ele>3.4</ele>
        <time>2019-03-22T14:11:06Z</time>
      </trkpt>
      <trkpt lat="49.28893" lon="-0.14831">
        <ele>33.0352</ele>
        <time>2019-03-22T14:11:06Z</time>
      </trkpt>
      <trkpt lat="49.28898" lon="-0.14834">
        <ele>33.0271</ele>
        <time>2019-03-22T14:11:11Z</time>
      </trkpt>
      <trkpt lat="49.28902" lon="-0.14835">
        <ele>33.0202</ele>
        <time>2019-03-22T14:11:16Z</time>
      </trkpt>
      <trkpt lat="49.28908" lon="-0.14838">
        <ele>33.0155</ele>
        <time>2019-03-22T14:11:19Z</time>
      </trkpt>
      <trkpt lat="49.28911" lon="-0.1484">
        <ele>33.0121</ele>
        <time>2019-03-22T14:11:21Z</time>
      </trkpt>
      <trkpt lat="49.28916" lon="-0.14842">
        <ele>33.0067</ele>
        <time>2019-03-22T14:11:24Z</time>
      </trkpt>
      <trkpt lat="49.28921" lon="-0.14842">
        <ele>33.0004</ele>
        <time>2019-03-22T14:11:27Z</time>
      </trkpt>
      <trkpt lat="49.28923" lon="-0.14842">
        <ele>32.9988</ele>
        <time>2019-03-22T14:11:28Z</time>
      </trkpt>
      <trkpt lat="49.28925" lon="-0.14843">
        <ele>32.9974</ele>
        <time>2019-03-22T14:11:29Z</time>
      </trkpt>
      <trkpt lat="49.2893" lon="-0.14846">
        <ele>32.9939</ele>
        <time>2019-03-22T14:11:32Z</time>
      </trkpt>
      <trkpt lat="49.28933" lon="-0.14847">
        <ele>32.9915</ele>
        <time>2019-03-22T14:11:34Z</time>
      </trkpt>
      <trkpt lat="49.28937" lon="-0.1485">
        <ele>32.9875</ele>
        <time>2019-03-22T14:11:37Z</time>
      </trkpt>
      <trkpt lat="49.28941" lon="-0.14854">
        <ele>32.9787</ele>
        <time>2019-03-22T14:11:41Z</time>
      </trkpt>
      <trkpt lat="49.28941" lon="-0.14854">
        <ele>32.9787</ele>
        <time>2019-03-22T14:11:49Z</time>
      </trkpt>
      <trkpt lat="49.28941" lon="-0.14854">
        <ele>1</ele>
        <time>2019-03-22T14:11:49Z</time>
      </trkpt>
      <trkpt lat="49.28941" lon="-0.14854">
        <ele>1</ele>
        <time>2019-03-22T14:12:05Z</time>
      </trkpt>
      <trkpt lat="49.28938" lon="-0.14878">
        <ele>32.826</ele>
        <time>2019-03-22T14:12:05Z</time>
      </trkpt>
      <trkpt lat="49.28934" lon="-0.14883">
        <ele>32.796</ele>
        <time>2019-03-22T14:12:08Z</time>
      </trkpt>
      <trkpt lat="49.28932" lon="-0.14891">
        <ele>32.7563</ele>
        <time>2019-03-22T14:12:12Z</time>
      </trkpt>
      <trkpt lat="49.28929" lon="-0.14899">
        <ele>32.7267</ele>
        <time>2019-03-22T14:12:15Z</time>
      </trkpt>
      <trkpt lat="49.28929" lon="-0.14899">
        <ele>1</ele>
        <time>2019-03-22T14:12:22Z</time>
      </trkpt>
      <trkpt lat="49.28929" lon="-0.14899">
        <ele>1</ele>
        <time>2019-03-22T14:12:30Z</time>
      </trkpt>
      <trkpt lat="49.28932" lon="-0.14907">
        <ele>32.6004</ele>
        <time>2019-03-22T14:12:30Z</time>
      </trkpt>
      <trkpt lat="49.28929" lon="-0.14916">
        <ele>32.557</ele>
        <time>2019-03-22T14:12:34Z</time>
      </trkpt>
      <trkpt lat="49.28925" lon="-0.14919">
        <ele>32.5119</ele>
        <time>2019-03-22T14:12:38Z</time>
      </trkpt>
      <trkpt lat="49.28922" lon="-0.14924">
        <ele>32.4795</ele>
        <time>2019-03-22T14:12:41Z</time>
      </trkpt>
      <trkpt lat="49.28917" lon="-0.14929">
        <ele>32.4598</ele>
        <time>2019-03-22T14:12:43Z</time>
      </trkpt>
      <trkpt lat="49.28915" lon="-0.14931">
        <ele>32.4318</ele>
        <time>2019-03-22T14:12:46Z</time>
      </trkpt>
      <trkpt lat="49.28911" lon="-0.14937">
        <ele>32.3959</ele>
        <time>2019-03-22T14:12:50Z</time>
      </trkpt>
      <trkpt lat="49.28909" lon="-0.14943">
        <ele>32.3593</ele>
        <time>2019-03-22T14:12:54Z</time>
      </trkpt>
      <trkpt lat="49.28907" lon="-0.14948">
        <ele>32.3094</ele>
        <time>2019-03-22T14:12:59Z</time>
      </trkpt>
      <trkpt lat="49.28907" lon="-0.14948">
        <ele>32.3094</ele>
        <time>2019-03-22T14:13:06Z</time>
      </trkpt>
      <trkpt lat="49.28907" lon="-0.14948">
        <ele>1</ele>
        <time>2019-03-22T14:13:06Z</time>
      </trkpt>
      <trkpt lat="49.28907" lon="-0.14948">
        <ele>1</ele>
        <time>2019-03-22T14:13:16Z</time>
      </trkpt>
      <trkpt lat="49.28893" lon="-0.14959">
        <ele>32.0858</ele>
        <time>2019-03-22T14:13:16Z</time>
      </trkpt>
      <trkpt lat="49.28891" lon="-0.14961">
        <ele>32.0721</ele>
        <time>2019-03-22T14:13:17Z</time>
      </trkpt>
      <trkpt lat="49.28887" lon="-0.14966">
        <ele>32.0299</ele>
        <time>2019-03-22T14:13:20Z</time>
      </trkpt>
      <trkpt lat="49.28885" lon="-0.14974">
        <ele>31.9705</ele>
        <time>2019-03-22T14:13:24Z</time>
      </trkpt>
      <trkpt lat="49.28884" lon="-0.14979">
        <ele>31.9233</ele>
        <time>2019-03-22T14:13:27Z</time>
      </trkpt>
      <trkpt lat="49.28886" lon="-0.14989">
        <ele>31.8407</ele>
        <time>2019-03-22T14:13:32Z</time>
      </trkpt>
      <trkpt lat="49.28888" lon="-0.14996">
        <ele>31.7704</ele>
        <time>2019-03-22T14:13:37Z</time>
      </trkpt>
      <trkpt lat="49.28891" lon="-0.15002">
        <ele>31.7076</ele>
        <time>2019-03-22T14:13:42Z</time>
      </trkpt>
      <trkpt lat="49.28892" lon="-0.15009">
        <ele>31.6626</ele>
        <time>2019-03-22T14:13:46Z</time>
      </trkpt>
      <trkpt lat="49.28894" lon="-0.15015">
        <ele>31.6207</ele>
        <time>2019-03-22T14:13:50Z</time>
      </trkpt>
      <trkpt lat="49.28896" lon="-0.15022">
        <ele>31.566</ele>
        <time>2019-03-22T14:13:56Z</time>
      </trkpt>
      <trkpt lat="49.28897" lon="-0.15026">
        <ele>31.5448</ele>
        <time>2019-03-22T14:13:59Z</time>
      </trkpt>
      <trkpt lat="49.28898" lon="-0.15033">
        <ele>31.5105</ele>
        <time>2019-03-22T14:14:04Z</time>
      </trkpt>
      <trkpt lat="49.28898" lon="-0.15033">
        <ele>1</ele>
        <time>2019-03-22T14:14:12Z</time>
      </trkpt>
      <trkpt lat="49.28898" lon="-0.15033">
        <ele>1</ele>
        <time>2019-03-22T14:14:17Z</time>
      </trkpt>
      <trkpt lat="49.28897" lon="-0.15044">
        <ele>31.4476</ele>
        <time>2019-03-22T14:14:17Z</time>
      </trkpt>
      <trkpt lat="49.28897" lon="-0.15048">
        <ele>31.4407</ele>
        <time>2019-03-22T14:14:19Z</time>
      </trkpt>
      <trkpt lat="49.28897" lon="-0.15055">
        <ele>31.4323</ele>
        <time>2019-03-22T14:14:24Z</time>
      </trkpt>
      <trkpt lat="49.28896" lon="-0.15061">
        <ele>31.432</ele>
        <time>2019-03-22T14:14:28Z</time>
      </trkpt>
      <trkpt lat="49.28895" lon="-0.1507">
        <ele>31.4437</ele>
        <time>2019-03-22T14:14:34Z</time>
      </trkpt>
      <trkpt lat="49.28893" lon="-0.15077">
        <ele>31.4535</ele>
        <time>2019-03-22T14:14:38Z</time>
      </trkpt>
      <trkpt lat="49.28893" lon="-0.15085">
        <ele>31.464</ele>
        <time>2019-03-22T14:14:43Z</time>
      </trkpt>
      <trkpt lat="49.28893" lon="-0.15093">
        <ele>31.4708</ele>
        <time>2019-03-22T14:14:48Z</time>
      </trkpt>
      <trkpt lat="49.28892" lon="-0.15098">
        <ele>31.4733</ele>
        <time>2019-03-22T14:14:51Z</time>
      </trkpt>
      <trkpt lat="49.28891" lon="-0.15105">
        <ele>31.4748</ele>
        <time>2019-03-22T14:14:56Z</time>
      </trkpt>
      <trkpt lat="49.2889" lon="-0.15108">
        <ele>31.478</ele>
        <time>2019-03-22T14:14:58Z</time>
      </trkpt>
      <trkpt lat="49.2889" lon="-0.15117">
        <ele>31.4888</ele>
        <time>2019-03-22T14:15:04Z</time>
      </trkpt>
      <trkpt lat="49.2889" lon="-0.1512">
        <ele>31.4953</ele>
        <time>2019-03-22T14:15:07Z</time>
      </trkpt>
      <trkpt lat="49.28887" lon="-0.15127">
        <ele>31.4982</ele>
        <time>2019-03-22T14:15:13Z</time>
      </trkpt>
      <trkpt lat="49.28885" lon="-0.15131">
        <ele>31.4944</ele>
        <time>2019-03-22T14:15:16Z</time>
      </trkpt>
      <trkpt lat="49.28884" lon="-0.15138">
        <ele>31.4869</ele>
        <time>2019-03-22T14:15:20Z</time>
      </trkpt>
      <trkpt lat="49.28882" lon="-0.15145">
        <ele>31.4739</ele>
        <time>2019-03-22T14:15:24Z</time>
      </trkpt>
      <trkpt lat="49.28881" lon="-0.15148">
        <ele>31.4704</ele>
        <time>2019-03-22T14:15:26Z</time>
      </trkpt>
      <trkpt lat="49.28881" lon="-0.15148">
        <ele>1</ele>
        <time>2019-03-22T14:15:33Z</time>
      </trkpt>
      <trkpt lat="49.28881" lon="-0.15148">
        <ele>1</ele>
        <time>2019-03-22T14:15:38Z</time>
      </trkpt>
      <trkpt lat="49.28879" lon="-0.15163">
        <ele>31.4499</ele>
        <time>2019-03-22T14:15:38Z</time>
      </trkpt>
      <trkpt lat="49.28881" lon="-0.15169">
        <ele>31.4309</ele>
        <time>2019-03-22T14:15:43Z</time>
      </trkpt>
      <trkpt lat="49.2888" lon="-0.15177">
        <ele>31.4116</ele>
        <time>2019-03-22T14:15:47Z</time>
      </trkpt>
      <trkpt lat="49.2888" lon="-0.15183">
        <ele>31.3964</ele>
        <time>2019-03-22T14:15:50Z</time>
      </trkpt>
      <trkpt lat="49.28878" lon="-0.1519">
        <ele>31.3741</ele>
        <time>2019-03-22T14:15:54Z</time>
      </trkpt>
      <trkpt lat="49.28878" lon="-0.15195">
        <ele>31.3547</ele>
        <time>2019-03-22T14:15:57Z</time>
      </trkpt>
      <trkpt lat="49.28877" lon="-0.152">
        <ele>31.3329</ele>
        <time>2019-03-22T14:16:00Z</time>
      </trkpt>
      <trkpt lat="49.28877" lon="-0.15208">
        <ele>31.2948</ele>
        <time>2019-03-22T14:16:05Z</time>
      </trkpt>
      <trkpt lat="49.28877" lon="-0.15212">
        <ele>31.2732</ele>
        <time>2019-03-22T14:16:08Z</time>
      </trkpt>
      <trkpt lat="49.28875" lon="-0.15219">
        <ele>31.2388</ele>
        <time>2019-03-22T14:16:13Z</time>
      </trkpt>
      <trkpt lat="49.28875" lon="-0.15226">
        <ele>31.2109</ele>
        <time>2019-03-22T14:16:17Z</time>
      </trkpt>
      <trkpt lat="49.28875" lon="-0.1523">
        <ele>31.1963</ele>
        <time>2019-03-22T14:16:19Z</time>
      </trkpt>
      <trkpt lat="49.28874" lon="-0.15238">
        <ele>31.1665</ele>
        <time>2019-03-22T14:16:23Z</time>
      </trkpt>
      <trkpt lat="49.28874" lon="-0.15245">
        <ele>31.1443</ele>
        <time>2019-03-22T14:16:26Z</time>
      </trkpt>
      <trkpt lat="49.28873" lon="-0.15252">
        <ele>31.102</ele>
        <time>2019-03-22T14:16:32Z</time>
      </trkpt>
      <trkpt lat="49.28874" lon="-0.15261">
        <ele>31.0774</ele>
        <time>2019-03-22T14:16:36Z</time>
      </trkpt>
      <trkpt lat="49.28875" lon="-0.15266">
        <ele>31.0674</ele>
        <time>2019-03-22T14:16:38Z</time>
      </trkpt>
      <trkpt lat="49.28876" lon="-0.15274">
        <ele>31.0505</ele>
        <time>2019-03-22T14:16:45Z</time>
      </trkpt>
      <trkpt lat="49.28876" lon="-0.15274">
        <ele>1</ele>
        <time>2019-03-22T14:16:52Z</time>
      </trkpt>
      <trkpt lat="49.28876" lon="-0.15274">
        <ele>1</ele>
        <time>2019-03-22T14:17:29Z</time>
      </trkpt>
      <trkpt lat="49.28867" lon="-0.15323">
        <ele>31.3182</ele>
        <time>2019-03-22T14:17:29Z</time>
      </trkpt>
      <trkpt lat="49.28866" lon="-0.1533">
        <ele>31.3753</ele>
        <time>2019-03-22T14:17:34Z</time>
      </trkpt>
      <trkpt lat="49.28863" lon="-0.15337">
        <ele>31.4322</ele>
        <time>2019-03-22T14:17:39Z</time>
      </trkpt>
      <trkpt lat="49.28862" lon="-0.1534">
        <ele>31.4543</ele>
        <time>2019-03-22T14:17:41Z</time>
      </trkpt>
      <trkpt lat="49.28861" lon="-0.15348">
        <ele>31.5289</ele>
        <time>2019-03-22T14:17:48Z</time>
      </trkpt>
      <trkpt lat="49.2886" lon="-0.15355">
        <ele>31.5612</ele>
        <time>2019-03-22T14:17:51Z</time>
      </trkpt>
      <trkpt lat="49.2886" lon="-0.1536">
        <ele>31.5941</ele>
        <time>2019-03-22T14:17:54Z</time>
      </trkpt>
      <trkpt lat="49.28859" lon="-0.15365">
        <ele>31.6259</ele>
        <time>2019-03-22T14:17:57Z</time>
      </trkpt>
      <trkpt lat="49.28858" lon="-0.15373">
        <ele>31.6668</ele>
        <time>2019-03-22T14:18:01Z</time>
      </trkpt>
      <trkpt lat="49.28858" lon="-0.1538">
        <ele>31.706</ele>
        <time>2019-03-22T14:18:05Z</time>
      </trkpt>
      <trkpt lat="49.28858" lon="-0.15383">
        <ele>31.7249</ele>
        <time>2019-03-22T14:18:07Z</time>
      </trkpt>
      <trkpt lat="49.28858" lon="-0.15388">
        <ele>31.753</ele>
        <time>2019-03-22T14:18:10Z</time>
      </trkpt>
      <trkpt lat="49.28858" lon="-0.15393">
        <ele>31.7731</ele>
        <time>2019-03-22T14:18:12Z</time>
      </trkpt>
      <trkpt lat="49.28858" lon="-0.15397">
        <ele>31.7937</ele>
        <time>2019-03-22T14:18:14Z</time>
      </trkpt>
      <trkpt lat="49.28858" lon="-0.15404">
        <ele>31.8456</ele>
        <time>2019-03-22T14:18:19Z</time>
      </trkpt>
      <trkpt lat="49.28858" lon="-0.15411">
        <ele>31.8872</ele>
        <time>2019-03-22T14:18:23Z</time>
      </trkpt>
      <trkpt lat="49.28856" lon="-0.15419">
        <ele>31.9283</ele>
        <time>2019-03-22T14:18:27Z</time>
      </trkpt>
      <trkpt lat="49.28855" lon="-0.15423">
        <ele>31.9591</ele>
        <time>2019-03-22T14:18:30Z</time>
      </trkpt>
      <trkpt lat="49.28853" lon="-0.15429">
        <ele>31.9902</ele>
        <time>2019-03-22T14:18:33Z</time>
      </trkpt>
      <trkpt lat="49.28852" lon="-0.15437">
        <ele>32.031</ele>
        <time>2019-03-22T14:18:37Z</time>
      </trkpt>
      <trkpt lat="49.28851" lon="-0.15444">
        <ele>32.0706</ele>
        <time>2019-03-22T14:18:41Z</time>
      </trkpt>
      <trkpt lat="49.28852" lon="-0.15452">
        <ele>32.1194</ele>
        <time>2019-03-22T14:18:46Z</time>
      </trkpt>
      <trkpt lat="49.28852" lon="-0.15459">
        <ele>32.163</ele>
        <time>2019-03-22T14:18:51Z</time>
      </trkpt>
      <trkpt lat="49.28851" lon="-0.15466">
        <ele>32.1992</ele>
        <time>2019-03-22T14:18:56Z</time>
      </trkpt>
      <trkpt lat="49.2885" lon="-0.15471">
        <ele>32.2217</ele>
        <time>2019-03-22T14:18:59Z</time>
      </trkpt>
      <trkpt lat="49.28848" lon="-0.15479">
        <ele>32.2511</ele>
        <time>2019-03-22T14:19:03Z</time>
      </trkpt>
      <trkpt lat="49.28845" lon="-0.15485">
        <ele>32.2737</ele>
        <time>2019-03-22T14:19:06Z</time>
      </trkpt>
      <trkpt lat="49.28845" lon="-0.15493">
        <ele>32.3124</ele>
        <time>2019-03-22T14:19:11Z</time>
      </trkpt>
      <trkpt lat="49.28842" lon="-0.155">
        <ele>32.3538</ele>
        <time>2019-03-22T14:19:17Z</time>
      </trkpt>
      <trkpt lat="49.2884" lon="-0.15506">
        <ele>32.3727</ele>
        <time>2019-03-22T14:19:21Z</time>
      </trkpt>
      <trkpt lat="49.28839" lon="-0.15513">
        <ele>32.3866</ele>
        <time>2019-03-22T14:19:25Z</time>
      </trkpt>
      <trkpt lat="49.28841" lon="-0.15521">
        <ele>32.3986</ele>
        <time>2019-03-22T14:19:31Z</time>
      </trkpt>
      <trkpt lat="49.28841" lon="-0.15528">
        <ele>32.3999</ele>
        <time>2019-03-22T14:19:37Z</time>
      </trkpt>
      <trkpt lat="49.28841" lon="-0.15537">
        <ele>32.3955</ele>
        <time>2019-03-22T14:19:41Z</time>
      </trkpt>
      <trkpt lat="49.2884" lon="-0.15542">
        <ele>32.3882</ele>
        <time>2019-03-22T14:19:45Z</time>
      </trkpt>
      <trkpt lat="49.2884" lon="-0.15546">
        <ele>32.3804</ele>
        <time>2019-03-22T14:19:48Z</time>
      </trkpt>
      <trkpt lat="49.28839" lon="-0.15552">
        <ele>32.374</ele>
        <time>2019-03-22T14:19:51Z</time>
      </trkpt>
      <trkpt lat="49.28838" lon="-0.1556">
        <ele>32.3719</ele>
        <time>2019-03-22T14:19:54Z</time>
      </trkpt>
      <trkpt lat="49.28838" lon="-0.1556">
        <ele>1</ele>
        <time>2019-03-22T14:20:01Z</time>
      </trkpt>
      <trkpt lat="49.28838" lon="-0.1556">
        <ele>1</ele>
        <time>2019-03-22T14:20:06Z</time>
      </trkpt>
      <trkpt lat="49.28838" lon="-0.15571">
        <ele>32.3455</ele>
        <time>2019-03-22T14:20:06Z</time>
      </trkpt>
      <trkpt lat="49.28836" lon="-0.1558">
        <ele>32.3226</ele>
        <time>2019-03-22T14:20:10Z</time>
      </trkpt>
      <trkpt lat="49.28835" lon="-0.15583">
        <ele>32.2935</ele>
        <time>2019-03-22T14:20:15Z</time>
      </trkpt>
      <trkpt lat="49.28834" lon="-0.15587">
        <ele>32.2833</ele>
        <time>2019-03-22T14:20:17Z</time>
      </trkpt>
      <trkpt lat="49.2883" lon="-0.15593">
        <ele>32.2626</ele>
        <time>2019-03-22T14:20:22Z</time>
      </trkpt>
      <trkpt lat="49.28829" lon="-0.15602">
        <ele>32.2424</ele>
        <time>2019-03-22T14:20:25Z</time>
      </trkpt>
      <trkpt lat="49.28826" lon="-0.1561">
        <ele>32.2184</ele>
        <time>2019-03-22T14:20:29Z</time>
      </trkpt>
      <trkpt lat="49.28825" lon="-0.15617">
        <ele>32.2004</ele>
        <time>2019-03-22T14:20:33Z</time>
      </trkpt>
      <trkpt lat="49.28823" lon="-0.15623">
        <ele>32.1836</ele>
        <time>2019-03-22T14:20:38Z</time>
      </trkpt>
      <trkpt lat="49.28822" lon="-0.15627">
        <ele>32.1706</ele>
        <time>2019-03-22T14:20:41Z</time>
      </trkpt>
      <trkpt lat="49.28821" lon="-0.15631">
        <ele>32.1544</ele>
        <time>2019-03-22T14:20:44Z</time>
      </trkpt>
      <trkpt lat="49.28821" lon="-0.15639">
        <ele>32.1291</ele>
        <time>2019-03-22T14:20:48Z</time>
      </trkpt>
      <trkpt lat="49.28821" lon="-0.15642">
        <ele>32.1151</ele>
        <time>2019-03-22T14:20:50Z</time>
      </trkpt>
      <trkpt lat="49.28822" lon="-0.15649">
        <ele>32.0672</ele>
        <time>2019-03-22T14:20:57Z</time>
      </trkpt>
      <trkpt lat="49.28823" lon="-0.15657">
        <ele>32.0434</ele>
        <time>2019-03-22T14:21:01Z</time>
      </trkpt>
      <trkpt lat="49.28823" lon="-0.15663">
        <ele>32.0202</ele>
        <time>2019-03-22T14:21:05Z</time>
      </trkpt>
      <trkpt lat="49.28822" lon="-0.1567">
        <ele>31.9918</ele>
        <time>2019-03-22T14:21:10Z</time>
      </trkpt>
      <trkpt lat="49.28822" lon="-0.15678">
        <ele>31.9594</ele>
        <time>2019-03-22T14:21:16Z</time>
      </trkpt>
      <trkpt lat="49.28821" lon="-0.15685">
        <ele>31.9328</ele>
        <time>2019-03-22T14:21:21Z</time>
      </trkpt>
      <trkpt lat="49.28824" lon="-0.15691">
        <ele>31.8922</ele>
        <time>2019-03-22T14:21:29Z</time>
      </trkpt>
      <trkpt lat="49.28821" lon="-0.15699">
        <ele>31.875</ele>
        <time>2019-03-22T14:21:33Z</time>
      </trkpt>
      <trkpt lat="49.28819" lon="-0.15707">
        <ele>31.8562</ele>
        <time>2019-03-22T14:21:38Z</time>
      </trkpt>
      <trkpt lat="49.28819" lon="-0.15714">
        <ele>31.8377</ele>
        <time>2019-03-22T14:21:43Z</time>
      </trkpt>
      <trkpt lat="49.28818" lon="-0.15721">
        <ele>31.8247</ele>
        <time>2019-03-22T14:21:46Z</time>
      </trkpt>
      <trkpt lat="49.28813" lon="-0.15725">
        <ele>31.8055</ele>
        <time>2019-03-22T14:21:50Z</time>
      </trkpt>
      <trkpt lat="49.2881" lon="-0.15731">
        <ele>31.7894</ele>
        <time>2019-03-22T14:21:53Z</time>
      </trkpt>
      <trkpt lat="49.28807" lon="-0.15738">
        <ele>31.7625</ele>
        <time>2019-03-22T14:21:57Z</time>
      </trkpt>
      <trkpt lat="49.28806" lon="-0.15741">
        <ele>31.7463</ele>
        <time>2019-03-22T14:21:59Z</time>
      </trkpt>
      <trkpt lat="49.28805" lon="-0.1575">
        <ele>31.6979</ele>
        <time>2019-03-22T14:22:04Z</time>
      </trkpt>
      <trkpt lat="49.28804" lon="-0.15756">
        <ele>31.6551</ele>
        <time>2019-03-22T14:22:08Z</time>
      </trkpt>
      <trkpt lat="49.28803" lon="-0.15764">
        <ele>31.5999</ele>
        <time>2019-03-22T14:22:13Z</time>
      </trkpt>
      <trkpt lat="49.28802" lon="-0.1577">
        <ele>31.5518</ele>
        <time>2019-03-22T14:22:17Z</time>
      </trkpt>
      <trkpt lat="49.28801" lon="-0.15774">
        <ele>31.5254</ele>
        <time>2019-03-22T14:22:19Z</time>
      </trkpt>
      <trkpt lat="49.28802" lon="-0.15781">
        <ele>31.4667</ele>
        <time>2019-03-22T14:22:23Z</time>
      </trkpt>
      <trkpt lat="49.28803" lon="-0.15789">
        <ele>31.4</ele>
        <time>2019-03-22T14:22:27Z</time>
      </trkpt>
      <trkpt lat="49.28802" lon="-0.15797">
        <ele>31.3259</ele>
        <time>2019-03-22T14:22:31Z</time>
      </trkpt>
      <trkpt lat="49.28804" lon="-0.15805">
        <ele>31.2264</ele>
        <time>2019-03-22T14:22:36Z</time>
      </trkpt>
      <trkpt lat="49.28804" lon="-0.15805">
        <ele>1.1</ele>
        <time>2019-03-22T14:22:44Z</time>
      </trkpt>
      <trkpt lat="49.28804" lon="-0.15805">
        <ele>1.1</ele>
        <time>2019-03-22T14:23:26Z</time>
      </trkpt>
      <trkpt lat="49.28812" lon="-0.15827">
        <ele>30.8883</ele>
        <time>2019-03-22T14:23:26Z</time>
      </trkpt>
      <trkpt lat="49.28813" lon="-0.15836">
        <ele>30.8806</ele>
        <time>2019-03-22T14:23:30Z</time>
      </trkpt>
      <trkpt lat="49.28813" lon="-0.15844">
        <ele>30.8804</ele>
        <time>2019-03-22T14:23:35Z</time>
      </trkpt>
      <trkpt lat="49.28813" lon="-0.15844">
        <ele>30.8804</ele>
        <time>2019-03-22T14:23:42Z</time>
      </trkpt>
      <trkpt lat="49.28813" lon="-0.15844">
        <ele>1</ele>
        <time>2019-03-22T14:23:42Z</time>
      </trkpt>
      <trkpt lat="49.28813" lon="-0.15844">
        <ele>1</ele>
        <time>2019-03-22T14:23:54Z</time>
      </trkpt>
      <trkpt lat="49.28804" lon="-0.15864">
        <ele>30.9146</ele>
        <time>2019-03-22T14:23:54Z</time>
      </trkpt>
      <trkpt lat="49.28804" lon="-0.15871">
        <ele>30.9326</ele>
        <time>2019-03-22T14:23:59Z</time>
      </trkpt>
      <trkpt lat="49.28805" lon="-0.15878">
        <ele>30.9597</ele>
        <time>2019-03-22T14:24:04Z</time>
      </trkpt>
      <trkpt lat="49.28804" lon="-0.15885">
        <ele>31.0018</ele>
        <time>2019-03-22T14:24:10Z</time>
      </trkpt>
      <trkpt lat="49.28803" lon="-0.15891">
        <ele>31.0321</ele>
        <time>2019-03-22T14:24:14Z</time>
      </trkpt>
      <trkpt lat="49.28802" lon="-0.15898">
        <ele>31.0637</ele>
        <time>2019-03-22T14:24:18Z</time>
      </trkpt>
      <trkpt lat="49.28798" lon="-0.15904">
        <ele>31.1067</ele>
        <time>2019-03-22T14:24:23Z</time>
      </trkpt>
      <trkpt lat="49.28796" lon="-0.1591">
        <ele>31.1406</ele>
        <time>2019-03-22T14:24:27Z</time>
      </trkpt>
      <trkpt lat="49.28796" lon="-0.15919">
        <ele>31.1748</ele>
        <time>2019-03-22T14:24:31Z</time>
      </trkpt>
      <trkpt lat="49.28794" lon="-0.15926">
        <ele>31.2101</ele>
        <time>2019-03-22T14:24:35Z</time>
      </trkpt>
      <trkpt lat="49.28794" lon="-0.15934">
        <ele>31.248</ele>
        <time>2019-03-22T14:24:39Z</time>
      </trkpt>
      <trkpt lat="49.28794" lon="-0.15937">
        <ele>31.2676</ele>
        <time>2019-03-22T14:24:41Z</time>
      </trkpt>
      <trkpt lat="49.28793" lon="-0.15945">
        <ele>31.3089</ele>
        <time>2019-03-22T14:24:45Z</time>
      </trkpt>
      <trkpt lat="49.28793" lon="-0.15948">
        <ele>31.342</ele>
        <time>2019-03-22T14:24:48Z</time>
      </trkpt>
      <trkpt lat="49.28792" lon="-0.15955">
        <ele>31.3878</ele>
        <time>2019-03-22T14:24:52Z</time>
      </trkpt>
      <trkpt lat="49.28791" lon="-0.15963">
        <ele>31.4323</ele>
        <time>2019-03-22T14:24:56Z</time>
      </trkpt>
      <trkpt lat="49.2879" lon="-0.15967">
        <ele>31.4653</ele>
        <time>2019-03-22T14:24:59Z</time>
      </trkpt>
      <trkpt lat="49.2879" lon="-0.15971">
        <ele>31.4869</ele>
        <time>2019-03-22T14:25:01Z</time>
      </trkpt>
      <trkpt lat="49.28785" lon="-0.15981">
        <ele>31.5593</ele>
        <time>2019-03-22T14:25:08Z</time>
      </trkpt>
      <trkpt lat="49.28784" lon="-0.15987">
        <ele>31.585</ele>
        <time>2019-03-22T14:25:11Z</time>
      </trkpt>
      <trkpt lat="49.28783" lon="-0.15995">
        <ele>31.6116</ele>
        <time>2019-03-22T14:25:15Z</time>
      </trkpt>
      <trkpt lat="49.28782" lon="-0.16002">
        <ele>31.6575</ele>
        <time>2019-03-22T14:25:22Z</time>
      </trkpt>
      <trkpt lat="49.28781" lon="-0.16011">
        <ele>31.6777</ele>
        <time>2019-03-22T14:25:25Z</time>
      </trkpt>
      <trkpt lat="49.28783" lon="-0.16017">
        <ele>31.7005</ele>
        <time>2019-03-22T14:25:28Z</time>
      </trkpt>
      <trkpt lat="49.28784" lon="-0.16025">
        <ele>31.758</ele>
        <time>2019-03-22T14:25:35Z</time>
      </trkpt>
      <trkpt lat="49.28785" lon="-0.16032">
        <ele>31.8035</ele>
        <time>2019-03-22T14:25:41Z</time>
      </trkpt>
      <trkpt lat="49.28785" lon="-0.1604">
        <ele>31.8354</ele>
        <time>2019-03-22T14:25:46Z</time>
      </trkpt>
      <trkpt lat="49.28786" lon="-0.16048">
        <ele>31.8759</ele>
        <time>2019-03-22T14:25:54Z</time>
      </trkpt>
      <trkpt lat="49.28786" lon="-0.16056">
        <ele>31.8889</ele>
        <time>2019-03-22T14:26:00Z</time>
      </trkpt>
      <trkpt lat="49.28786" lon="-0.16064">
        <ele>31.8873</ele>
        <time>2019-03-22T14:26:05Z</time>
      </trkpt>
      <trkpt lat="49.28785" lon="-0.16074">
        <ele>31.8816</ele>
        <time>2019-03-22T14:26:09Z</time>
      </trkpt>
      <trkpt lat="49.28784" lon="-0.16079">
        <ele>31.8794</ele>
        <time>2019-03-22T14:26:12Z</time>
      </trkpt>
      <trkpt lat="49.28782" lon="-0.16087">
        <ele>31.8804</ele>
        <time>2019-03-22T14:26:15Z</time>
      </trkpt>
      <trkpt lat="49.2878" lon="-0.16095">
        <ele>31.8865</ele>
        <time>2019-03-22T14:26:18Z</time>
      </trkpt>
      <trkpt lat="49.28778" lon="-0.16101">
        <ele>31.9025</ele>
        <time>2019-03-22T14:26:22Z</time>
      </trkpt>
      <trkpt lat="49.28779" lon="-0.16111">
        <ele>31.9307</ele>
        <time>2019-03-22T14:26:27Z</time>
      </trkpt>
      <trkpt lat="49.28778" lon="-0.1612">
        <ele>31.9764</ele>
        <time>2019-03-22T14:26:34Z</time>
      </trkpt>
      <trkpt lat="49.28778" lon="-0.16126">
        <ele>32.0123</ele>
        <time>2019-03-22T14:26:38Z</time>
      </trkpt>
      <trkpt lat="49.28779" lon="-0.16133">
        <ele>32.0527</ele>
        <time>2019-03-22T14:26:42Z</time>
      </trkpt>
      <trkpt lat="49.28781" lon="-0.16139">
        <ele>32.1118</ele>
        <time>2019-03-22T14:26:47Z</time>
      </trkpt>
      <trkpt lat="49.28781" lon="-0.16139">
        <ele>1</ele>
        <time>2019-03-22T14:26:54Z</time>
      </trkpt>
      <trkpt lat="49.28781" lon="-0.16139">
        <ele>1</ele>
        <time>2019-03-22T14:26:58Z</time>
      </trkpt>
      <trkpt lat="49.28788" lon="-0.16147">
        <ele>32.2467</ele>
        <time>2019-03-22T14:26:58Z</time>
      </trkpt>
      <trkpt lat="49.28788" lon="-0.16147">
        <ele>32.2467</ele>
        <time>2019-03-22T14:27:03Z</time>
      </trkpt>
      <trkpt lat="49.28788" lon="-0.16147">
        <ele>1</ele>
        <time>2019-03-22T14:27:03Z</time>
      </trkpt>
      <trkpt lat="49.28788" lon="-0.16147">
        <ele>1</ele>
        <time>2019-03-22T14:27:06Z</time>
      </trkpt>
      <trkpt lat="49.2879" lon="-0.16158">
        <ele>32.3594</ele>
        <time>2019-03-22T14:27:06Z</time>
      </trkpt>
      <trkpt lat="49.28786" lon="-0.16164">
        <ele>32.4261</ele>
        <time>2019-03-22T14:27:11Z</time>
      </trkpt>
      <trkpt lat="49.28787" lon="-0.16174">
        <ele>32.4883</ele>
        <time>2019-03-22T14:27:16Z</time>
      </trkpt>
      <trkpt lat="49.2879" lon="-0.16182">
        <ele>32.5287</ele>
        <time>2019-03-22T14:27:19Z</time>
      </trkpt>
      <trkpt lat="49.2879" lon="-0.16182">
        <ele>1</ele>
        <time>2019-03-22T14:27:27Z</time>
      </trkpt>
      <trkpt lat="49.2879" lon="-0.16182">
        <ele>1</ele>
        <time>2019-03-22T14:28:37Z</time>
      </trkpt>
      <trkpt lat="49.28777" lon="-0.16208">
        <ele>33.4217</ele>
        <time>2019-03-22T14:28:37Z</time>
      </trkpt>
      <trkpt lat="49.28774" lon="-0.1621">
        <ele>33.4923</ele>
        <time>2019-03-22T14:28:39Z</time>
      </trkpt>
      <trkpt lat="49.2877" lon="-0.16214">
        <ele>33.6275</ele>
        <time>2019-03-22T14:28:43Z</time>
      </trkpt>
      <trkpt lat="49.28768" lon="-0.16217">
        <ele>34.126</ele>
        <time>2019-03-22T14:29:03Z</time>
      </trkpt>
      <trkpt lat="49.28771" lon="-0.16227">
        <ele>34.32</ele>
        <time>2019-03-22T14:29:10Z</time>
      </trkpt>
      <trkpt lat="49.28771" lon="-0.16236">
        <ele>34.4203</ele>
        <time>2019-03-22T14:29:14Z</time>
      </trkpt>
      <trkpt lat="49.28769" lon="-0.16243">
        <ele>34.4943</ele>
        <time>2019-03-22T14:29:17Z</time>
      </trkpt>
      <trkpt lat="49.2877" lon="-0.16251">
        <ele>34.6083</ele>
        <time>2019-03-22T14:29:22Z</time>
      </trkpt>
      <trkpt lat="49.2877" lon="-0.16251">
        <ele>34.6083</ele>
        <time>2019-03-22T14:29:29Z</time>
      </trkpt>
      <trkpt lat="49.2877" lon="-0.16251">
        <ele>1</ele>
        <time>2019-03-22T14:29:29Z</time>
      </trkpt>
      <trkpt lat="49.2877" lon="-0.16251">
        <ele>1</ele>
        <time>2019-03-22T14:29:44Z</time>
      </trkpt>
      <trkpt lat="49.2876" lon="-0.1627">
        <ele>34.9194</ele>
        <time>2019-03-22T14:29:44Z</time>
      </trkpt>
      <trkpt lat="49.28769" lon="-0.16277">
        <ele>35.2174</ele>
        <time>2019-03-22T14:30:26Z</time>
      </trkpt>
      <trkpt lat="49.28769" lon="-0.16282">
        <ele>35.2455</ele>
        <time>2019-03-22T14:30:28Z</time>
      </trkpt>
      <trkpt lat="49.28768" lon="-0.16289">
        <ele>35.2875</ele>
        <time>2019-03-22T14:30:31Z</time>
      </trkpt>
      <trkpt lat="49.28766" lon="-0.16296">
        <ele>35.3445</ele>
        <time>2019-03-22T14:30:35Z</time>
      </trkpt>
      <trkpt lat="49.28765" lon="-0.16301">
        <ele>35.3879</ele>
        <time>2019-03-22T14:30:38Z</time>
      </trkpt>
      <trkpt lat="49.28765" lon="-0.16305">
        <ele>35.4325</ele>
        <time>2019-03-22T14:30:41Z</time>
      </trkpt>
      <trkpt lat="49.28761" lon="-0.16309">
        <ele>35.4924</ele>
        <time>2019-03-22T14:30:45Z</time>
      </trkpt>
      <trkpt lat="49.2876" lon="-0.16316">
        <ele>35.5526</ele>
        <time>2019-03-22T14:30:49Z</time>
      </trkpt>
      <trkpt lat="49.28756" lon="-0.16319">
        <ele>35.6551</ele>
        <time>2019-03-22T14:30:56Z</time>
      </trkpt>
      <trkpt lat="49.28751" lon="-0.16322">
        <ele>35.708</ele>
        <time>2019-03-22T14:31:00Z</time>
      </trkpt>
      <trkpt lat="49.28749" lon="-0.16323">
        <ele>35.7328</ele>
        <time>2019-03-22T14:31:02Z</time>
      </trkpt>
      <trkpt lat="49.28746" lon="-0.1633">
        <ele>35.7817</ele>
        <time>2019-03-22T14:31:06Z</time>
      </trkpt>
      <trkpt lat="49.28744" lon="-0.16337">
        <ele>35.8195</ele>
        <time>2019-03-22T14:31:09Z</time>
      </trkpt>
      <trkpt lat="49.28742" lon="-0.16342">
        <ele>35.8686</ele>
        <time>2019-03-22T14:31:13Z</time>
      </trkpt>
      <trkpt lat="49.28741" lon="-0.1635">
        <ele>35.9177</ele>
        <time>2019-03-22T14:31:17Z</time>
      </trkpt>
      <trkpt lat="49.2874" lon="-0.16353">
        <ele>35.9433</ele>
        <time>2019-03-22T14:31:19Z</time>
      </trkpt>
      <trkpt lat="49.28739" lon="-0.16362">
        <ele>36.0099</ele>
        <time>2019-03-22T14:31:24Z</time>
      </trkpt>
      <trkpt lat="49.28739" lon="-0.16367">
        <ele>36.0517</ele>
        <time>2019-03-22T14:31:27Z</time>
      </trkpt>
      <trkpt lat="49.28739" lon="-0.16367">
        <ele>1.8</ele>
        <time>2019-03-22T14:31:35Z</time>
      </trkpt>
      <trkpt lat="49.28739" lon="-0.16367">
        <ele>1.8</ele>
        <time>2019-03-22T14:31:39Z</time>
      </trkpt>
      <trkpt lat="49.28737" lon="-0.16376">
        <ele>36.175</ele>
        <time>2019-03-22T14:31:39Z</time>
      </trkpt>
      <trkpt lat="49.28737" lon="-0.16381">
        <ele>36.2224</ele>
        <time>2019-03-22T14:31:42Z</time>
      </trkpt>
      <trkpt lat="49.28737" lon="-0.16389">
        <ele>36.2909</ele>
        <time>2019-03-22T14:31:46Z</time>
      </trkpt>
      <trkpt lat="49.28736" lon="-0.16397">
        <ele>36.3846</ele>
        <time>2019-03-22T14:31:51Z</time>
      </trkpt>
      <trkpt lat="49.28735" lon="-0.16405">
        <ele>36.462</ele>
        <time>2019-03-22T14:31:55Z</time>
      </trkpt>
      <trkpt lat="49.28734" lon="-0.16413">
        <ele>36.563</ele>
        <time>2019-03-22T14:32:00Z</time>
      </trkpt>
      <trkpt lat="49.28732" lon="-0.16421">
        <ele>36.6689</ele>
        <time>2019-03-22T14:32:05Z</time>
      </trkpt>
      <trkpt lat="49.2873" lon="-0.16426">
        <ele>36.7343</ele>
        <time>2019-03-22T14:32:08Z</time>
      </trkpt>
      <trkpt lat="49.28729" lon="-0.16429">
        <ele>36.7777</ele>
        <time>2019-03-22T14:32:10Z</time>
      </trkpt>
      <trkpt lat="49.28728" lon="-0.16433">
        <ele>36.8208</ele>
        <time>2019-03-22T14:32:12Z</time>
      </trkpt>
      <trkpt lat="49.28727" lon="-0.1644">
        <ele>36.9062</ele>
        <time>2019-03-22T14:32:16Z</time>
      </trkpt>
      <trkpt lat="49.28725" lon="-0.16447">
        <ele>36.9943</ele>
        <time>2019-03-22T14:32:20Z</time>
      </trkpt>
      <trkpt lat="49.28725" lon="-0.16454">
        <ele>37.0886</ele>
        <time>2019-03-22T14:32:24Z</time>
      </trkpt>
      <trkpt lat="49.28726" lon="-0.16459">
        <ele>37.1644</ele>
        <time>2019-03-22T14:32:27Z</time>
      </trkpt>
      <trkpt lat="49.28726" lon="-0.16459">
        <ele>1.9</ele>
        <time>2019-03-22T14:32:34Z</time>
      </trkpt>
      <trkpt lat="49.28726" lon="-0.16459">
        <ele>1.9</ele>
        <time>2019-03-22T14:32:40Z</time>
      </trkpt>
      <trkpt lat="49.28715" lon="-0.16473">
        <ele>37.4959</ele>
        <time>2019-03-22T14:32:40Z</time>
      </trkpt>
      <trkpt lat="49.28711" lon="-0.16477">
        <ele>37.5844</ele>
        <time>2019-03-22T14:32:44Z</time>
      </trkpt>
      <trkpt lat="49.28708" lon="-0.16483">
        <ele>37.6446</ele>
        <time>2019-03-22T14:32:47Z</time>
      </trkpt>
      <trkpt lat="49.28707" lon="-0.16487">
        <ele>37.6817</ele>
        <time>2019-03-22T14:32:49Z</time>
      </trkpt>
      <trkpt lat="49.28704" lon="-0.16493">
        <ele>37.7167</ele>
        <time>2019-03-22T14:32:51Z</time>
      </trkpt>
      <trkpt lat="49.28702" lon="-0.16499">
        <ele>37.7669</ele>
        <time>2019-03-22T14:32:54Z</time>
      </trkpt>
      <trkpt lat="49.28703" lon="-0.16507">
        <ele>37.8358</ele>
        <time>2019-03-22T14:32:59Z</time>
      </trkpt>
      <trkpt lat="49.28704" lon="-0.16513">
        <ele>37.8675</ele>
        <time>2019-03-22T14:33:02Z</time>
      </trkpt>
      <trkpt lat="49.28708" lon="-0.16518">
        <ele>37.9129</ele>
        <time>2019-03-22T14:33:08Z</time>
      </trkpt>
      <trkpt lat="49.28711" lon="-0.16524">
        <ele>37.9395</ele>
        <time>2019-03-22T14:33:14Z</time>
      </trkpt>
      <trkpt lat="49.28711" lon="-0.16524">
        <ele>37.9395</ele>
        <time>2019-03-22T14:33:21Z</time>
      </trkpt>
      <trkpt lat="49.28711" lon="-0.16524">
        <ele>2.2</ele>
        <time>2019-03-22T14:33:21Z</time>
      </trkpt>
      <trkpt lat="49.28711" lon="-0.16524">
        <ele>2.2</ele>
        <time>2019-03-22T14:33:44Z</time>
      </trkpt>
      <trkpt lat="49.28713" lon="-0.16559">
        <ele>38.1556</ele>
        <time>2019-03-22T14:33:44Z</time>
      </trkpt>
      <trkpt lat="49.28712" lon="-0.16567">
        <ele>38.1946</ele>
        <time>2019-03-22T14:33:48Z</time>
      </trkpt>
      <trkpt lat="49.28712" lon="-0.16571">
        <ele>38.2237</ele>
        <time>2019-03-22T14:33:52Z</time>
      </trkpt>
      <trkpt lat="49.28711" lon="-0.1658">
        <ele>38.2423</ele>
        <time>2019-03-22T14:33:57Z</time>
      </trkpt>
      <trkpt lat="49.28711" lon="-0.16583">
        <ele>38.243</ele>
        <time>2019-03-22T14:34:01Z</time>
      </trkpt>
      <trkpt lat="49.28714" lon="-0.16592">
        <ele>38.2173</ele>
        <time>2019-03-22T14:34:27Z</time>
      </trkpt>
      <trkpt lat="49.28715" lon="-0.16597">
        <ele>38.198</ele>
        <time>2019-03-22T14:34:31Z</time>
      </trkpt>
      <trkpt lat="49.28718" lon="-0.16603">
        <ele>38.1757</ele>
        <time>2019-03-22T14:34:35Z</time>
      </trkpt>
      <trkpt lat="49.28716" lon="-0.16615">
        <ele>38.1442</ele>
        <time>2019-03-22T14:34:39Z</time>
      </trkpt>
      <trkpt lat="49.28717" lon="-0.16622">
        <ele>38.094</ele>
        <time>2019-03-22T14:34:44Z</time>
      </trkpt>
      <trkpt lat="49.2872" lon="-0.16627">
        <ele>38.0296</ele>
        <time>2019-03-22T14:34:50Z</time>
      </trkpt>
      <trkpt lat="49.28723" lon="-0.16632">
        <ele>37.958</ele>
        <time>2019-03-22T14:34:56Z</time>
      </trkpt>
      <trkpt lat="49.28727" lon="-0.16636">
        <ele>37.9254</ele>
        <time>2019-03-22T14:34:59Z</time>
      </trkpt>
      <trkpt lat="49.2873" lon="-0.16642">
        <ele>37.8825</ele>
        <time>2019-03-22T14:35:03Z</time>
      </trkpt>
      <trkpt lat="49.28732" lon="-0.16649">
        <ele>37.8408</ele>
        <time>2019-03-22T14:35:07Z</time>
      </trkpt>
      <trkpt lat="49.28734" lon="-0.16655">
        <ele>37.8019</ele>
        <time>2019-03-22T14:35:11Z</time>
      </trkpt>
      <trkpt lat="49.28735" lon="-0.16663">
        <ele>37.7697</ele>
        <time>2019-03-22T14:35:15Z</time>
      </trkpt>
      <trkpt lat="49.28735" lon="-0.16668">
        <ele>37.756</ele>
        <time>2019-03-22T14:35:17Z</time>
      </trkpt>
      <trkpt lat="49.28734" lon="-0.16676">
        <ele>37.7345</ele>
        <time>2019-03-22T14:35:21Z</time>
      </trkpt>
      <trkpt lat="49.28732" lon="-0.16683">
        <ele>37.723</ele>
        <time>2019-03-22T14:35:24Z</time>
      </trkpt>
      <trkpt lat="49.28731" lon="-0.16687">
        <ele>37.7085</ele>
        <time>2019-03-22T14:35:30Z</time>
      </trkpt>
      <trkpt lat="49.28731" lon="-0.16687">
        <ele>1</ele>
        <time>2019-03-22T14:35:37Z</time>
      </trkpt>
      <trkpt lat="49.28731" lon="-0.16687">
        <ele>1</ele>
        <time>2019-03-22T14:35:40Z</time>
      </trkpt>
      <trkpt lat="49.28736" lon="-0.16699">
        <ele>37.7495</ele>
        <time>2019-03-22T14:35:44Z</time>
      </trkpt>
      <trkpt lat="49.28738" lon="-0.16709">
        <ele>37.7846</ele>
        <time>2019-03-22T14:35:48Z</time>
      </trkpt>
      <trkpt lat="49.28739" lon="-0.16714">
        <ele>37.8067</ele>
        <time>2019-03-22T14:35:50Z</time>
      </trkpt>
      <trkpt lat="49.2874" lon="-0.16719">
        <ele>37.8316</ele>
        <time>2019-03-22T14:35:52Z</time>
      </trkpt>
      <trkpt lat="49.28741" lon="-0.16723">
        <ele>37.8596</ele>
        <time>2019-03-22T14:35:54Z</time>
      </trkpt>
      <trkpt lat="49.28741" lon="-0.16727">
        <ele>37.8906</ele>
        <time>2019-03-22T14:35:56Z</time>
      </trkpt>
      <trkpt lat="49.28742" lon="-0.16735">
        <ele>37.9439</ele>
        <time>2019-03-22T14:35:59Z</time>
      </trkpt>
      <trkpt lat="49.28742" lon="-0.1674">
        <ele>38.0044</ele>
        <time>2019-03-22T14:36:02Z</time>
      </trkpt>
      <trkpt lat="49.28743" lon="-0.16748">
        <ele>38.1233</ele>
        <time>2019-03-22T14:36:07Z</time>
      </trkpt>
      <trkpt lat="49.28743" lon="-0.16755">
        <ele>38.2571</ele>
        <time>2019-03-22T14:36:12Z</time>
      </trkpt>
      <trkpt lat="49.28741" lon="-0.16761">
        <ele>38.3785</ele>
        <time>2019-03-22T14:36:16Z</time>
      </trkpt>
      <trkpt lat="49.28739" lon="-0.16766">
        <ele>38.4798</ele>
        <time>2019-03-22T14:36:19Z</time>
      </trkpt>
      <trkpt lat="49.28738" lon="-0.16774">
        <ele>38.6632</ele>
        <time>2019-03-22T14:36:24Z</time>
      </trkpt>
      <trkpt lat="49.28738" lon="-0.16782">
        <ele>38.8181</ele>
        <time>2019-03-22T14:36:28Z</time>
      </trkpt>
      <trkpt lat="49.28735" lon="-0.16787">
        <ele>39.0165</ele>
        <time>2019-03-22T14:36:33Z</time>
      </trkpt>
      <trkpt lat="49.28734" lon="-0.16795">
        <ele>39.2502</ele>
        <time>2019-03-22T14:36:39Z</time>
      </trkpt>
      <trkpt lat="49.28734" lon="-0.16804">
        <ele>39.4438</ele>
        <time>2019-03-22T14:36:44Z</time>
      </trkpt>
      <trkpt lat="49.28734" lon="-0.16808">
        <ele>39.5605</ele>
        <time>2019-03-22T14:36:47Z</time>
      </trkpt>
      <trkpt lat="49.28733" lon="-0.16816">
        <ele>39.7501</ele>
        <time>2019-03-22T14:36:52Z</time>
      </trkpt>
      <trkpt lat="49.28733" lon="-0.1682">
        <ele>39.8583</ele>
        <time>2019-03-22T14:36:55Z</time>
      </trkpt>
      <trkpt lat="49.28732" lon="-0.16824">
        <ele>39.9283</ele>
        <time>2019-03-22T14:36:57Z</time>
      </trkpt>
      <trkpt lat="49.28732" lon="-0.16829">
        <ele>40.0295</ele>
        <time>2019-03-22T14:37:00Z</time>
      </trkpt>
      <trkpt lat="49.28729" lon="-0.16836">
        <ele>40.1251</ele>
        <time>2019-03-22T14:37:03Z</time>
      </trkpt>
      <trkpt lat="49.28729" lon="-0.16843">
        <ele>40.2806</ele>
        <time>2019-03-22T14:37:08Z</time>
      </trkpt>
      <trkpt lat="49.28727" lon="-0.16851">
        <ele>40.4344</ele>
        <time>2019-03-22T14:37:13Z</time>
      </trkpt>
      <trkpt lat="49.28727" lon="-0.16858">
        <ele>40.5849</ele>
        <time>2019-03-22T14:37:18Z</time>
      </trkpt>
      <trkpt lat="49.28725" lon="-0.16866">
        <ele>40.7286</ele>
        <time>2019-03-22T14:37:23Z</time>
      </trkpt>
      <trkpt lat="49.28723" lon="-0.16873">
        <ele>40.8404</ele>
        <time>2019-03-22T14:37:27Z</time>
      </trkpt>
      <trkpt lat="49.2872" lon="-0.1688">
        <ele>40.9755</ele>
        <time>2019-03-22T14:37:32Z</time>
      </trkpt>
      <trkpt lat="49.28716" lon="-0.16884">
        <ele>41.1483</ele>
        <time>2019-03-22T14:37:39Z</time>
      </trkpt>
      <trkpt lat="49.28717" lon="-0.16892">
        <ele>41.3042</ele>
        <time>2019-03-22T14:37:46Z</time>
      </trkpt>
      <trkpt lat="49.28717" lon="-0.169">
        <ele>41.4572</ele>
        <time>2019-03-22T14:37:54Z</time>
      </trkpt>
      <trkpt lat="49.28718" lon="-0.16909">
        <ele>41.5005</ele>
        <time>2019-03-22T14:37:56Z</time>
      </trkpt>
      <trkpt lat="49.28719" lon="-0.16915">
        <ele>41.543</ele>
        <time>2019-03-22T14:37:58Z</time>
      </trkpt>
      <trkpt lat="49.28719" lon="-0.16921">
        <ele>41.585</ele>
        <time>2019-03-22T14:38:00Z</time>
      </trkpt>
      <trkpt lat="49.28721" lon="-0.16929">
        <ele>41.6674</ele>
        <time>2019-03-22T14:38:04Z</time>
      </trkpt>
      <trkpt lat="49.28721" lon="-0.16938">
        <ele>41.7476</ele>
        <time>2019-03-22T14:38:08Z</time>
      </trkpt>
      <trkpt lat="49.28721" lon="-0.16938">
        <ele>1</ele>
        <time>2019-03-22T14:38:16Z</time>
      </trkpt>
      <trkpt lat="49.28721" lon="-0.16938">
        <ele>1</ele>
        <time>2019-03-22T14:38:33Z</time>
      </trkpt>
      <trkpt lat="49.2872" lon="-0.16959">
        <ele>42.0649</ele>
        <time>2019-03-22T14:38:33Z</time>
      </trkpt>
      <trkpt lat="49.28721" lon="-0.16967">
        <ele>42.1267</ele>
        <time>2019-03-22T14:38:36Z</time>
      </trkpt>
      <trkpt lat="49.28722" lon="-0.16974">
        <ele>42.2053</ele>
        <time>2019-03-22T14:38:40Z</time>
      </trkpt>
      <trkpt lat="49.28722" lon="-0.1698">
        <ele>42.2616</ele>
        <time>2019-03-22T14:38:43Z</time>
      </trkpt>
      <trkpt lat="49.2872" lon="-0.16987">
        <ele>42.3168</ele>
        <time>2019-03-22T14:38:46Z</time>
      </trkpt>
      <trkpt lat="49.28715" lon="-0.16992">
        <ele>42.3714</ele>
        <time>2019-03-22T14:38:49Z</time>
      </trkpt>
      <trkpt lat="49.28713" lon="-0.16998">
        <ele>42.4243</ele>
        <time>2019-03-22T14:38:52Z</time>
      </trkpt>
      <trkpt lat="49.28713" lon="-0.17005">
        <ele>42.4751</ele>
        <time>2019-03-22T14:38:55Z</time>
      </trkpt>
      <trkpt lat="49.28709" lon="-0.17011">
        <ele>42.5233</ele>
        <time>2019-03-22T14:38:58Z</time>
      </trkpt>
      <trkpt lat="49.28705" lon="-0.17016">
        <ele>42.5689</ele>
        <time>2019-03-22T14:39:01Z</time>
      </trkpt>
      <trkpt lat="49.28703" lon="-0.17025">
        <ele>42.6268</ele>
        <time>2019-03-22T14:39:05Z</time>
      </trkpt>
      <trkpt lat="49.28703" lon="-0.17033">
        <ele>42.6939</ele>
        <time>2019-03-22T14:39:10Z</time>
      </trkpt>
      <trkpt lat="49.28703" lon="-0.1704">
        <ele>42.7442</ele>
        <time>2019-03-22T14:39:14Z</time>
      </trkpt>
      <trkpt lat="49.28701" lon="-0.17047">
        <ele>42.7794</ele>
        <time>2019-03-22T14:39:17Z</time>
      </trkpt>
      <trkpt lat="49.28699" lon="-0.17051">
        <ele>42.8017</ele>
        <time>2019-03-22T14:39:19Z</time>
      </trkpt>
      <trkpt lat="49.28699" lon="-0.17058">
        <ele>42.8336</ele>
        <time>2019-03-22T14:39:22Z</time>
      </trkpt>
      <trkpt lat="49.28699" lon="-0.17066">
        <ele>42.8839</ele>
        <time>2019-03-22T14:39:27Z</time>
      </trkpt>
      <trkpt lat="49.28701" lon="-0.17073">
        <ele>42.9208</ele>
        <time>2019-03-22T14:39:31Z</time>
      </trkpt>
      <trkpt lat="49.28702" lon="-0.17082">
        <ele>42.956</ele>
        <time>2019-03-22T14:39:35Z</time>
      </trkpt>
      <trkpt lat="49.28703" lon="-0.17088">
        <ele>42.9814</ele>
        <time>2019-03-22T14:39:38Z</time>
      </trkpt>
      <trkpt lat="49.28704" lon="-0.17096">
        <ele>43.0291</ele>
        <time>2019-03-22T14:39:44Z</time>
      </trkpt>
      <trkpt lat="49.28704" lon="-0.17104">
        <ele>43.059</ele>
        <time>2019-03-22T14:39:48Z</time>
      </trkpt>
      <trkpt lat="49.28704" lon="-0.17108">
        <ele>43.0815</ele>
        <time>2019-03-22T14:39:51Z</time>
      </trkpt>
      <trkpt lat="49.28705" lon="-0.17114">
        <ele>43.1264</ele>
        <time>2019-03-22T14:39:57Z</time>
      </trkpt>
      <trkpt lat="49.28706" lon="-0.17122">
        <ele>43.1624</ele>
        <time>2019-03-22T14:40:02Z</time>
      </trkpt>
      <trkpt lat="49.28706" lon="-0.1713">
        <ele>43.2041</ele>
        <time>2019-03-22T14:40:08Z</time>
      </trkpt>
      <trkpt lat="49.28707" lon="-0.17137">
        <ele>43.2236</ele>
        <time>2019-03-22T14:40:11Z</time>
      </trkpt>
      <trkpt lat="49.28707" lon="-0.17137">
        <ele>43.2236</ele>
        <time>2019-03-22T14:40:16Z</time>
      </trkpt>
      <trkpt lat="49.28707" lon="-0.17137">
        <ele>1</ele>
        <time>2019-03-22T14:40:16Z</time>
      </trkpt>
      <trkpt lat="49.28707" lon="-0.17137">
        <ele>1</ele>
        <time>2019-03-22T14:40:20Z</time>
      </trkpt>
      <trkpt lat="49.28708" lon="-0.17148">
        <ele>43.2796</ele>
        <time>2019-03-22T14:40:20Z</time>
      </trkpt>
      <trkpt lat="49.28707" lon="-0.17156">
        <ele>43.3029</ele>
        <time>2019-03-22T14:40:24Z</time>
      </trkpt>
      <trkpt lat="49.28707" lon="-0.17165">
        <ele>43.3299</ele>
        <time>2019-03-22T14:40:29Z</time>
      </trkpt>
      <trkpt lat="49.28706" lon="-0.1717">
        <ele>43.345</ele>
        <time>2019-03-22T14:40:32Z</time>
      </trkpt>
      <trkpt lat="49.28707" lon="-0.17178">
        <ele>43.3641</ele>
        <time>2019-03-22T14:40:36Z</time>
      </trkpt>
      <trkpt lat="49.28707" lon="-0.17182">
        <ele>43.3817</ele>
        <time>2019-03-22T14:40:40Z</time>
      </trkpt>
      <trkpt lat="49.28706" lon="-0.17189">
        <ele>43.3946</ele>
        <time>2019-03-22T14:40:43Z</time>
      </trkpt>
      <trkpt lat="49.28705" lon="-0.17195">
        <ele>43.4072</ele>
        <time>2019-03-22T14:40:46Z</time>
      </trkpt>
      <trkpt lat="49.28704" lon="-0.17202">
        <ele>43.424</ele>
        <time>2019-03-22T14:40:50Z</time>
      </trkpt>
      <trkpt lat="49.28704" lon="-0.17207">
        <ele>43.4317</ele>
        <time>2019-03-22T14:40:52Z</time>
      </trkpt>
      <trkpt lat="49.28703" lon="-0.17211">
        <ele>43.4428</ele>
        <time>2019-03-22T14:40:55Z</time>
      </trkpt>
      <trkpt lat="49.28703" lon="-0.17215">
        <ele>43.4503</ele>
        <time>2019-03-22T14:40:57Z</time>
      </trkpt>
      <trkpt lat="49.28703" lon="-0.17219">
        <ele>43.4613</ele>
        <time>2019-03-22T14:41:00Z</time>
      </trkpt>
      <trkpt lat="49.28702" lon="-0.17226">
        <ele>43.4787</ele>
        <time>2019-03-22T14:41:05Z</time>
      </trkpt>
      <trkpt lat="49.28702" lon="-0.17233">
        <ele>43.492</ele>
        <time>2019-03-22T14:41:09Z</time>
      </trkpt>
      <trkpt lat="49.287" lon="-0.1724">
        <ele>43.5046</ele>
        <time>2019-03-22T14:41:13Z</time>
      </trkpt>
      <trkpt lat="49.287" lon="-0.17248">
        <ele>43.5196</ele>
        <time>2019-03-22T14:41:18Z</time>
      </trkpt>
      <trkpt lat="49.28699" lon="-0.17256">
        <ele>43.5418</ele>
        <time>2019-03-22T14:41:25Z</time>
      </trkpt>
      <trkpt lat="49.287" lon="-0.17263">
        <ele>43.5596</ele>
        <time>2019-03-22T14:41:30Z</time>
      </trkpt>
      <trkpt lat="49.287" lon="-0.17267">
        <ele>43.5714</ele>
        <time>2019-03-22T14:41:33Z</time>
      </trkpt>
      <trkpt lat="49.287" lon="-0.17274">
        <ele>43.5871</ele>
        <time>2019-03-22T14:41:37Z</time>
      </trkpt>
      <trkpt lat="49.287" lon="-0.17282">
        <ele>43.6068</ele>
        <time>2019-03-22T14:41:42Z</time>
      </trkpt>
      <trkpt lat="49.287" lon="-0.17287">
        <ele>43.6184</ele>
        <time>2019-03-22T14:41:45Z</time>
      </trkpt>
      <trkpt lat="49.28699" lon="-0.17295">
        <ele>43.6383</ele>
        <time>2019-03-22T14:41:50Z</time>
      </trkpt>
      <trkpt lat="49.28698" lon="-0.17298">
        <ele>43.6469</ele>
        <time>2019-03-22T14:41:52Z</time>
      </trkpt>
      <trkpt lat="49.28696" lon="-0.17305">
        <ele>43.6692</ele>
        <time>2019-03-22T14:41:57Z</time>
      </trkpt>
      <trkpt lat="49.28691" lon="-0.17306">
        <ele>43.7014</ele>
        <time>2019-03-22T14:42:03Z</time>
      </trkpt>
      <trkpt lat="49.28686" lon="-0.17304">
        <ele>43.7368</ele>
        <time>2019-03-22T14:42:08Z</time>
      </trkpt>
      <trkpt lat="49.28682" lon="-0.1731">
        <ele>43.7636</ele>
        <time>2019-03-22T14:42:12Z</time>
      </trkpt>
      <trkpt lat="49.28681" lon="-0.17317">
        <ele>43.784</ele>
        <time>2019-03-22T14:42:15Z</time>
      </trkpt>
      <trkpt lat="49.28681" lon="-0.17324">
        <ele>43.811</ele>
        <time>2019-03-22T14:42:19Z</time>
      </trkpt>
      <trkpt lat="49.28681" lon="-0.17328">
        <ele>43.8461</ele>
        <time>2019-03-22T14:42:24Z</time>
      </trkpt>
      <trkpt lat="49.28682" lon="-0.17336">
        <ele>43.8666</ele>
        <time>2019-03-22T14:42:27Z</time>
      </trkpt>
      <trkpt lat="49.28682" lon="-0.1734">
        <ele>43.8797</ele>
        <time>2019-03-22T14:42:29Z</time>
      </trkpt>
      <trkpt lat="49.28683" lon="-0.17347">
        <ele>43.8991</ele>
        <time>2019-03-22T14:42:32Z</time>
      </trkpt>
      <trkpt lat="49.28685" lon="-0.17356">
        <ele>43.9172</ele>
        <time>2019-03-22T14:42:35Z</time>
      </trkpt>
      <trkpt lat="49.28686" lon="-0.17361">
        <ele>43.9287</ele>
        <time>2019-03-22T14:42:37Z</time>
      </trkpt>
      <trkpt lat="49.28686" lon="-0.17366">
        <ele>43.9393</ele>
        <time>2019-03-22T14:42:39Z</time>
      </trkpt>
      <trkpt lat="49.28688" lon="-0.17373">
        <ele>43.9543</ele>
        <time>2019-03-22T14:42:42Z</time>
      </trkpt>
      <trkpt lat="49.28689" lon="-0.17377">
        <ele>43.9635</ele>
        <time>2019-03-22T14:42:44Z</time>
      </trkpt>
      <trkpt lat="49.28689" lon="-0.1738">
        <ele>43.9722</ele>
        <time>2019-03-22T14:42:46Z</time>
      </trkpt>
      <trkpt lat="49.28689" lon="-0.1738">
        <ele>1.2</ele>
        <time>2019-03-22T14:42:53Z</time>
      </trkpt>
      <trkpt lat="49.28689" lon="-0.1738">
        <ele>1.2</ele>
        <time>2019-03-22T14:44:03Z</time>
      </trkpt>
      <trkpt lat="49.28676" lon="-0.17426">
        <ele>43.7218</ele>
        <time>2019-03-22T14:44:03Z</time>
      </trkpt>
      <trkpt lat="49.28686" lon="-0.1743">
        <ele>43.5959</ele>
        <time>2019-03-22T14:44:32Z</time>
      </trkpt>
      <trkpt lat="49.28694" lon="-0.17429">
        <ele>43.5878</ele>
        <time>2019-03-22T14:44:34Z</time>
      </trkpt>
      <trkpt lat="49.28699" lon="-0.1743">
        <ele>43.5822</ele>
        <time>2019-03-22T14:44:36Z</time>
      </trkpt>
      <trkpt lat="49.28702" lon="-0.17437">
        <ele>43.5764</ele>
        <time>2019-03-22T14:44:40Z</time>
      </trkpt>
      <trkpt lat="49.28703" lon="-0.17445">
        <ele>43.581</ele>
        <time>2019-03-22T14:44:43Z</time>
      </trkpt>
      <trkpt lat="49.28703" lon="-0.17454">
        <ele>43.6047</ele>
        <time>2019-03-22T14:44:47Z</time>
      </trkpt>
      <trkpt lat="49.28702" lon="-0.17462">
        <ele>43.6658</ele>
        <time>2019-03-22T14:44:52Z</time>
      </trkpt>
      <trkpt lat="49.28701" lon="-0.1747">
        <ele>43.7126</ele>
        <time>2019-03-22T14:44:55Z</time>
      </trkpt>
      <trkpt lat="49.28701" lon="-0.17474">
        <ele>43.75</ele>
        <time>2019-03-22T14:44:57Z</time>
      </trkpt>
      <trkpt lat="49.28699" lon="-0.17482">
        <ele>43.8108</ele>
        <time>2019-03-22T14:45:00Z</time>
      </trkpt>
      <trkpt lat="49.28699" lon="-0.17489">
        <ele>43.9327</ele>
        <time>2019-03-22T14:45:06Z</time>
      </trkpt>
      <trkpt lat="49.28699" lon="-0.17494">
        <ele>43.9908</ele>
        <time>2019-03-22T14:45:09Z</time>
      </trkpt>
      <trkpt lat="49.28696" lon="-0.175">
        <ele>44.1106</ele>
        <time>2019-03-22T14:45:15Z</time>
      </trkpt>
      <trkpt lat="49.28695" lon="-0.17509">
        <ele>44.1895</ele>
        <time>2019-03-22T14:45:19Z</time>
      </trkpt>
      <trkpt lat="49.28695" lon="-0.17514">
        <ele>44.2301</ele>
        <time>2019-03-22T14:45:21Z</time>
      </trkpt>
      <trkpt lat="49.28694" lon="-0.17518">
        <ele>44.2718</ele>
        <time>2019-03-22T14:45:23Z</time>
      </trkpt>
      <trkpt lat="49.28695" lon="-0.17527">
        <ele>44.3917</ele>
        <time>2019-03-22T14:45:29Z</time>
      </trkpt>
      <trkpt lat="49.28695" lon="-0.17536">
        <ele>44.4692</ele>
        <time>2019-03-22T14:45:33Z</time>
      </trkpt>
      <trkpt lat="49.28694" lon="-0.17544">
        <ele>44.5463</ele>
        <time>2019-03-22T14:45:37Z</time>
      </trkpt>
      <trkpt lat="49.28696" lon="-0.17551">
        <ele>44.6244</ele>
        <time>2019-03-22T14:45:41Z</time>
      </trkpt>
      <trkpt lat="49.28697" lon="-0.17555">
        <ele>44.6818</ele>
        <time>2019-03-22T14:45:44Z</time>
      </trkpt>
      <trkpt lat="49.28698" lon="-0.17558">
        <ele>44.7198</ele>
        <time>2019-03-22T14:45:46Z</time>
      </trkpt>
      <trkpt lat="49.28699" lon="-0.17562">
        <ele>44.7767</ele>
        <time>2019-03-22T14:45:49Z</time>
      </trkpt>
      <trkpt lat="49.28699" lon="-0.17569">
        <ele>44.8569</ele>
        <time>2019-03-22T14:45:53Z</time>
      </trkpt>
      <trkpt lat="49.28699" lon="-0.17573">
        <ele>44.8989</ele>
        <time>2019-03-22T14:45:55Z</time>
      </trkpt>
      <trkpt lat="49.28699" lon="-0.17577">
        <ele>44.9407</ele>
        <time>2019-03-22T14:45:57Z</time>
      </trkpt>
      <trkpt lat="49.28701" lon="-0.17584">
        <ele>45.0263</ele>
        <time>2019-03-22T14:46:01Z</time>
      </trkpt>
      <trkpt lat="49.28698" lon="-0.1759">
        <ele>45.2189</ele>
        <time>2019-03-22T14:46:09Z</time>
      </trkpt>
      <trkpt lat="49.28698" lon="-0.17597">
        <ele>45.3202</ele>
        <time>2019-03-22T14:46:13Z</time>
      </trkpt>
      <trkpt lat="49.28698" lon="-0.17602">
        <ele>45.4012</ele>
        <time>2019-03-22T14:46:16Z</time>
      </trkpt>
      <trkpt lat="49.28699" lon="-0.17605">
        <ele>45.4575</ele>
        <time>2019-03-22T14:46:18Z</time>
      </trkpt>
      <trkpt lat="49.28698" lon="-0.17613">
        <ele>45.5778</ele>
        <time>2019-03-22T14:46:22Z</time>
      </trkpt>
      <trkpt lat="49.28701" lon="-0.1762">
        <ele>45.7257</ele>
        <time>2019-03-22T14:46:27Z</time>
      </trkpt>
      <trkpt lat="49.28701" lon="-0.17627">
        <ele>45.8153</ele>
        <time>2019-03-22T14:46:30Z</time>
      </trkpt>
      <trkpt lat="49.287" lon="-0.17635">
        <ele>46.0083</ele>
        <time>2019-03-22T14:46:36Z</time>
      </trkpt>
      <trkpt lat="49.28698" lon="-0.17642">
        <ele>46.1822</ele>
        <time>2019-03-22T14:46:41Z</time>
      </trkpt>
      <trkpt lat="49.28697" lon="-0.1765">
        <ele>46.3646</ele>
        <time>2019-03-22T14:46:46Z</time>
      </trkpt>
      <trkpt lat="49.28698" lon="-0.17659">
        <ele>46.5527</ele>
        <time>2019-03-22T14:46:51Z</time>
      </trkpt>
      <trkpt lat="49.28698" lon="-0.17663">
        <ele>46.6684</ele>
        <time>2019-03-22T14:46:54Z</time>
      </trkpt>
      <trkpt lat="49.28697" lon="-0.17671">
        <ele>46.866</ele>
        <time>2019-03-22T14:46:59Z</time>
      </trkpt>
      <trkpt lat="49.28697" lon="-0.17678">
        <ele>47.0286</ele>
        <time>2019-03-22T14:47:03Z</time>
      </trkpt>
      <trkpt lat="49.28698" lon="-0.17683">
        <ele>47.1533</ele>
        <time>2019-03-22T14:47:06Z</time>
      </trkpt>
      <trkpt lat="49.28698" lon="-0.17687">
        <ele>47.2375</ele>
        <time>2019-03-22T14:47:08Z</time>
      </trkpt>
      <trkpt lat="49.28698" lon="-0.1769">
        <ele>47.3649</ele>
        <time>2019-03-22T14:47:11Z</time>
      </trkpt>
      <trkpt lat="49.28698" lon="-0.17694">
        <ele>47.4499</ele>
        <time>2019-03-22T14:47:13Z</time>
      </trkpt>
      <trkpt lat="49.28699" lon="-0.17701">
        <ele>47.6185</ele>
        <time>2019-03-22T14:47:17Z</time>
      </trkpt>
      <trkpt lat="49.28699" lon="-0.17709">
        <ele>47.7825</ele>
        <time>2019-03-22T14:47:21Z</time>
      </trkpt>
      <trkpt lat="49.28699" lon="-0.17709">
        <ele>1</ele>
        <time>2019-03-22T14:47:28Z</time>
      </trkpt>
      <trkpt lat="49.28699" lon="-0.17709">
        <ele>1</ele>
        <time>2019-03-22T14:47:33Z</time>
      </trkpt>
      <trkpt lat="49.28699" lon="-0.17718">
        <ele>48.2062</ele>
        <time>2019-03-22T14:47:33Z</time>
      </trkpt>
      <trkpt lat="49.28698" lon="-0.17725">
        <ele>48.419</ele>
        <time>2019-03-22T14:47:39Z</time>
      </trkpt>
      <trkpt lat="49.28698" lon="-0.17733">
        <ele>48.5677</ele>
        <time>2019-03-22T14:47:44Z</time>
      </trkpt>
      <trkpt lat="49.28698" lon="-0.1774">
        <ele>48.6525</ele>
        <time>2019-03-22T14:47:47Z</time>
      </trkpt>
      <trkpt lat="49.28697" lon="-0.17747">
        <ele>48.7902</ele>
        <time>2019-03-22T14:47:52Z</time>
      </trkpt>
      <trkpt lat="49.28697" lon="-0.17757">
        <ele>48.8943</ele>
        <time>2019-03-22T14:47:56Z</time>
      </trkpt>
      <trkpt lat="49.28696" lon="-0.17764">
        <ele>48.9764</ele>
        <time>2019-03-22T14:47:59Z</time>
      </trkpt>
      <trkpt lat="49.28695" lon="-0.1777">
        <ele>49.0625</ele>
        <time>2019-03-22T14:48:02Z</time>
      </trkpt>
      <trkpt lat="49.28695" lon="-0.17777">
        <ele>49.1844</ele>
        <time>2019-03-22T14:48:06Z</time>
      </trkpt>
      <trkpt lat="49.28697" lon="-0.17785">
        <ele>49.3449</ele>
        <time>2019-03-22T14:48:11Z</time>
      </trkpt>
      <trkpt lat="49.28694" lon="-0.17793">
        <ele>49.4686</ele>
        <time>2019-03-22T14:48:15Z</time>
      </trkpt>
      <trkpt lat="49.28693" lon="-0.17798">
        <ele>49.5561</ele>
        <time>2019-03-22T14:48:18Z</time>
      </trkpt>
      <trkpt lat="49.28689" lon="-0.17803">
        <ele>49.692</ele>
        <time>2019-03-22T14:48:23Z</time>
      </trkpt>
      <trkpt lat="49.28683" lon="-0.17806">
        <ele>49.8173</ele>
        <time>2019-03-22T14:48:28Z</time>
      </trkpt>
      <trkpt lat="49.28682" lon="-0.17814">
        <ele>49.9113</ele>
        <time>2019-03-22T14:48:32Z</time>
      </trkpt>
      <trkpt lat="49.28681" lon="-0.1782">
        <ele>49.998</ele>
        <time>2019-03-22T14:48:36Z</time>
      </trkpt>
      <trkpt lat="49.28681" lon="-0.17827">
        <ele>50.1178</ele>
        <time>2019-03-22T14:48:43Z</time>
      </trkpt>
      <trkpt lat="49.28679" lon="-0.17837">
        <ele>50.209</ele>
        <time>2019-03-22T14:48:48Z</time>
      </trkpt>
      <trkpt lat="49.28678" lon="-0.17841">
        <ele>50.2441</ele>
        <time>2019-03-22T14:48:50Z</time>
      </trkpt>
      <trkpt lat="49.28677" lon="-0.17845">
        <ele>50.2781</ele>
        <time>2019-03-22T14:48:52Z</time>
      </trkpt>
      <trkpt lat="49.28677" lon="-0.17845">
        <ele>50.2781</ele>
        <time>2019-03-22T14:48:57Z</time>
      </trkpt>
      <trkpt lat="49.28677" lon="-0.17845">
        <ele>1</ele>
        <time>2019-03-22T14:48:57Z</time>
      </trkpt>
      <trkpt lat="49.28677" lon="-0.17845">
        <ele>1</ele>
        <time>2019-03-22T14:49:09Z</time>
      </trkpt>
      <trkpt lat="49.28677" lon="-0.17871">
        <ele>50.5246</ele>
        <time>2019-03-22T14:49:09Z</time>
      </trkpt>
      <trkpt lat="49.28677" lon="-0.17876">
        <ele>50.5495</ele>
        <time>2019-03-22T14:49:11Z</time>
      </trkpt>
      <trkpt lat="49.28677" lon="-0.17883">
        <ele>50.5968</ele>
        <time>2019-03-22T14:49:15Z</time>
      </trkpt>
      <trkpt lat="49.28679" lon="-0.1789">
        <ele>50.6297</ele>
        <time>2019-03-22T14:49:18Z</time>
      </trkpt>
      <trkpt lat="49.28681" lon="-0.17898">
        <ele>50.661</ele>
        <time>2019-03-22T14:49:21Z</time>
      </trkpt>
      <trkpt lat="49.28683" lon="-0.17905">
        <ele>50.6906</ele>
        <time>2019-03-22T14:49:24Z</time>
      </trkpt>
      <trkpt lat="49.28683" lon="-0.17913">
        <ele>50.728</ele>
        <time>2019-03-22T14:49:28Z</time>
      </trkpt>
      <trkpt lat="49.28683" lon="-0.17918">
        <ele>50.7454</ele>
        <time>2019-03-22T14:49:30Z</time>
      </trkpt>
      <trkpt lat="49.28687" lon="-0.17923">
        <ele>50.7784</ele>
        <time>2019-03-22T14:49:34Z</time>
      </trkpt>
      <trkpt lat="49.28684" lon="-0.17931">
        <ele>50.8259</ele>
        <time>2019-03-22T14:49:40Z</time>
      </trkpt>
      <trkpt lat="49.2868" lon="-0.17938">
        <ele>50.8551</ele>
        <time>2019-03-22T14:49:44Z</time>
      </trkpt>
      <trkpt lat="49.28679" lon="-0.17946">
        <ele>50.8838</ele>
        <time>2019-03-22T14:49:48Z</time>
      </trkpt>
      <trkpt lat="49.28678" lon="-0.17952">
        <ele>50.9038</ele>
        <time>2019-03-22T14:49:51Z</time>
      </trkpt>
      <trkpt lat="49.28678" lon="-0.17956">
        <ele>50.9164</ele>
        <time>2019-03-22T14:49:53Z</time>
      </trkpt>
      <trkpt lat="49.28678" lon="-0.17961">
        <ele>50.9337</ele>
        <time>2019-03-22T14:49:56Z</time>
      </trkpt>
      <trkpt lat="49.28678" lon="-0.17961">
        <ele>1</ele>
        <time>2019-03-22T14:50:04Z</time>
      </trkpt>
      <trkpt lat="49.28678" lon="-0.17961">
        <ele>1</ele>
        <time>2019-03-22T14:50:06Z</time>
      </trkpt>
      <trkpt lat="49.28675" lon="-0.17964">
        <ele>51.005</ele>
        <time>2019-03-22T14:50:07Z</time>
      </trkpt>
      <trkpt lat="49.28673" lon="-0.17972">
        <ele>51.0347</ele>
        <time>2019-03-22T14:50:12Z</time>
      </trkpt>
      <trkpt lat="49.28679" lon="-0.17976">
        <ele>51.1635</ele>
        <time>2019-03-22T14:50:23Z</time>
      </trkpt>
      <trkpt lat="49.28678" lon="-0.17984">
        <ele>51.2124</ele>
        <time>2019-03-22T14:50:28Z</time>
      </trkpt>
      <trkpt lat="49.28678" lon="-0.1799">
        <ele>51.238</ele>
        <time>2019-03-22T14:50:32Z</time>
      </trkpt>
      <trkpt lat="49.28678" lon="-0.17996">
        <ele>51.2533</ele>
        <time>2019-03-22T14:50:36Z</time>
      </trkpt>
      <trkpt lat="49.28678" lon="-0.18">
        <ele>51.2577</ele>
        <time>2019-03-22T14:50:38Z</time>
      </trkpt>
      <trkpt lat="49.28676" lon="-0.18007">
        <ele>51.2627</ele>
        <time>2019-03-22T14:50:42Z</time>
      </trkpt>
      <trkpt lat="49.28674" lon="-0.18014">
        <ele>51.2563</ele>
        <time>2019-03-22T14:50:46Z</time>
      </trkpt>
      <trkpt lat="49.28673" lon="-0.18019">
        <ele>51.2443</ele>
        <time>2019-03-22T14:50:49Z</time>
      </trkpt>
      <trkpt lat="49.28672" lon="-0.18028">
        <ele>51.2105</ele>
        <time>2019-03-22T14:50:54Z</time>
      </trkpt>
      <trkpt lat="49.28673" lon="-0.18035">
        <ele>51.1856</ele>
        <time>2019-03-22T14:50:57Z</time>
      </trkpt>
      <trkpt lat="49.28673" lon="-0.18038">
        <ele>51.1782</ele>
        <time>2019-03-22T14:50:58Z</time>
      </trkpt>
      <trkpt lat="49.28673" lon="-0.18045">
        <ele>51.1569</ele>
        <time>2019-03-22T14:51:01Z</time>
      </trkpt>
      <trkpt lat="49.28674" lon="-0.18049">
        <ele>51.1452</ele>
        <time>2019-03-22T14:51:03Z</time>
      </trkpt>
      <trkpt lat="49.28674" lon="-0.18059">
        <ele>51.12</ele>
        <time>2019-03-22T14:51:07Z</time>
      </trkpt>
      <trkpt lat="49.28675" lon="-0.18062">
        <ele>51.1089</ele>
        <time>2019-03-22T14:51:09Z</time>
      </trkpt>
      <trkpt lat="49.28673" lon="-0.18071">
        <ele>51.0715</ele>
        <time>2019-03-22T14:51:15Z</time>
      </trkpt>
      <trkpt lat="49.28673" lon="-0.18078">
        <ele>51.032</ele>
        <time>2019-03-22T14:51:20Z</time>
      </trkpt>
      <trkpt lat="49.28672" lon="-0.18084">
        <ele>51.0079</ele>
        <time>2019-03-22T14:51:23Z</time>
      </trkpt>
      <trkpt lat="49.28671" lon="-0.18092">
        <ele>50.9631</ele>
        <time>2019-03-22T14:51:28Z</time>
      </trkpt>
      <trkpt lat="49.2867" lon="-0.18098">
        <ele>50.9355</ele>
        <time>2019-03-22T14:51:31Z</time>
      </trkpt>
      <trkpt lat="49.2867" lon="-0.18101">
        <ele>50.9199</ele>
        <time>2019-03-22T14:51:33Z</time>
      </trkpt>
      <trkpt lat="49.2867" lon="-0.18109">
        <ele>50.9024</ele>
        <time>2019-03-22T14:51:36Z</time>
      </trkpt>
      <trkpt lat="49.28672" lon="-0.18118">
        <ele>50.8931</ele>
        <time>2019-03-22T14:51:39Z</time>
      </trkpt>
      <trkpt lat="49.28672" lon="-0.18126">
        <ele>50.8922</ele>
        <time>2019-03-22T14:51:42Z</time>
      </trkpt>
      <trkpt lat="49.2867" lon="-0.18132">
        <ele>50.8953</ele>
        <time>2019-03-22T14:51:45Z</time>
      </trkpt>
      <trkpt lat="49.28669" lon="-0.18136">
        <ele>50.8992</ele>
        <time>2019-03-22T14:51:47Z</time>
      </trkpt>
      <trkpt lat="49.28669" lon="-0.18148">
        <ele>50.9116</ele>
        <time>2019-03-22T14:51:52Z</time>
      </trkpt>
      <trkpt lat="49.28668" lon="-0.18154">
        <ele>50.9214</ele>
        <time>2019-03-22T14:51:55Z</time>
      </trkpt>
      <trkpt lat="49.28668" lon="-0.18159">
        <ele>50.9284</ele>
        <time>2019-03-22T14:51:57Z</time>
      </trkpt>
      <trkpt lat="49.28667" lon="-0.18166">
        <ele>50.9386</ele>
        <time>2019-03-22T14:52:00Z</time>
      </trkpt>
      <trkpt lat="49.28666" lon="-0.18174">
        <ele>50.9524</ele>
        <time>2019-03-22T14:52:04Z</time>
      </trkpt>
      <trkpt lat="49.28665" lon="-0.18181">
        <ele>50.9628</ele>
        <time>2019-03-22T14:52:07Z</time>
      </trkpt>
      <trkpt lat="49.28664" lon="-0.18188">
        <ele>50.9831</ele>
        <time>2019-03-22T14:52:14Z</time>
      </trkpt>
      <trkpt lat="49.28663" lon="-0.18196">
        <ele>50.9919</ele>
        <time>2019-03-22T14:52:18Z</time>
      </trkpt>
      <trkpt lat="49.28663" lon="-0.182">
        <ele>50.9958</ele>
        <time>2019-03-22T14:52:20Z</time>
      </trkpt>
      <trkpt lat="49.28663" lon="-0.18208">
        <ele>51.0023</ele>
        <time>2019-03-22T14:52:24Z</time>
      </trkpt>
      <trkpt lat="49.28661" lon="-0.18215">
        <ele>51.0075</ele>
        <time>2019-03-22T14:52:28Z</time>
      </trkpt>
      <trkpt lat="49.2866" lon="-0.18224">
        <ele>51.0122</ele>
        <time>2019-03-22T14:52:33Z</time>
      </trkpt>
      <trkpt lat="49.28659" lon="-0.18229">
        <ele>51.0134</ele>
        <time>2019-03-22T14:52:35Z</time>
      </trkpt>
      <trkpt lat="49.28657" lon="-0.18235">
        <ele>51.015</ele>
        <time>2019-03-22T14:52:39Z</time>
      </trkpt>
      <trkpt lat="49.28657" lon="-0.18244">
        <ele>51.0163</ele>
        <time>2019-03-22T14:52:44Z</time>
      </trkpt>
      <trkpt lat="49.28657" lon="-0.18252">
        <ele>51.0164</ele>
        <time>2019-03-22T14:52:48Z</time>
      </trkpt>
      <trkpt lat="49.28658" lon="-0.1826">
        <ele>51.0155</ele>
        <time>2019-03-22T14:52:53Z</time>
      </trkpt>
      <trkpt lat="49.28658" lon="-0.18268">
        <ele>51.0134</ele>
        <time>2019-03-22T14:52:57Z</time>
      </trkpt>
      <trkpt lat="49.28657" lon="-0.18277">
        <ele>51.0106</ele>
        <time>2019-03-22T14:53:01Z</time>
      </trkpt>
      <trkpt lat="49.28657" lon="-0.18277">
        <ele>1.4</ele>
        <time>2019-03-22T14:53:09Z</time>
      </trkpt>
      <trkpt lat="49.28657" lon="-0.18277">
        <ele>1.4</ele>
        <time>2019-03-22T14:53:14Z</time>
      </trkpt>
      <trkpt lat="49.28658" lon="-0.18286">
        <ele>50.9986</ele>
        <time>2019-03-22T14:53:14Z</time>
      </trkpt>
      <trkpt lat="49.28658" lon="-0.1829">
        <ele>50.9936</ele>
        <time>2019-03-22T14:53:17Z</time>
      </trkpt>
      <trkpt lat="49.28659" lon="-0.18297">
        <ele>50.9753</ele>
        <time>2019-03-22T14:53:25Z</time>
      </trkpt>
      <trkpt lat="49.28658" lon="-0.18305">
        <ele>50.9613</ele>
        <time>2019-03-22T14:53:31Z</time>
      </trkpt>
      <trkpt lat="49.28657" lon="-0.18312">
        <ele>50.9481</ele>
        <time>2019-03-22T14:53:37Z</time>
      </trkpt>
      <trkpt lat="49.28657" lon="-0.18312">
        <ele>1.4</ele>
        <time>2019-03-22T14:53:45Z</time>
      </trkpt>
      <trkpt lat="49.28657" lon="-0.18312">
        <ele>1.4</ele>
        <time>2019-03-22T14:53:51Z</time>
      </trkpt>
      <trkpt lat="49.28653" lon="-0.18325">
        <ele>50.9257</ele>
        <time>2019-03-22T14:53:51Z</time>
      </trkpt>
      <trkpt lat="49.28652" lon="-0.18332">
        <ele>50.9148</ele>
        <time>2019-03-22T14:53:56Z</time>
      </trkpt>
      <trkpt lat="49.28652" lon="-0.18332">
        <ele>1.5</ele>
        <time>2019-03-22T14:54:04Z</time>
      </trkpt>
      <trkpt lat="49.28652" lon="-0.18332">
        <ele>1.5</ele>
        <time>2019-03-22T14:54:32Z</time>
      </trkpt>
      <trkpt lat="49.28655" lon="-0.18354">
        <ele>51.2066</ele>
        <time>2019-03-22T14:54:32Z</time>
      </trkpt>
      <trkpt lat="49.28654" lon="-0.18362">
        <ele>51.2562</ele>
        <time>2019-03-22T14:54:35Z</time>
      </trkpt>
      <trkpt lat="49.28653" lon="-0.1837">
        <ele>51.3175</ele>
        <time>2019-03-22T14:54:39Z</time>
      </trkpt>
      <trkpt lat="49.28653" lon="-0.18379">
        <ele>51.3745</ele>
        <time>2019-03-22T14:54:43Z</time>
      </trkpt>
      <trkpt lat="49.28653" lon="-0.18386">
        <ele>51.4149</ele>
        <time>2019-03-22T14:54:46Z</time>
      </trkpt>
      <trkpt lat="49.28653" lon="-0.18392">
        <ele>51.4408</ele>
        <time>2019-03-22T14:54:48Z</time>
      </trkpt>
      <trkpt lat="49.28653" lon="-0.18399">
        <ele>51.4906</ele>
        <time>2019-03-22T14:54:52Z</time>
      </trkpt>
      <trkpt lat="49.28654" lon="-0.18407">
        <ele>51.549</ele>
        <time>2019-03-22T14:54:58Z</time>
      </trkpt>
      <trkpt lat="49.28655" lon="-0.18411">
        <ele>51.5811</ele>
        <time>2019-03-22T14:55:01Z</time>
      </trkpt>
      <trkpt lat="49.28655" lon="-0.18418">
        <ele>51.6212</ele>
        <time>2019-03-22T14:55:05Z</time>
      </trkpt>
      <trkpt lat="49.28655" lon="-0.18427">
        <ele>51.6579</ele>
        <time>2019-03-22T14:55:09Z</time>
      </trkpt>
      <trkpt lat="49.28655" lon="-0.18435">
        <ele>51.6838</ele>
        <time>2019-03-22T14:55:12Z</time>
      </trkpt>
      <trkpt lat="49.28656" lon="-0.18443">
        <ele>51.7299</ele>
        <time>2019-03-22T14:55:18Z</time>
      </trkpt>
      <trkpt lat="49.28657" lon="-0.18447">
        <ele>51.7576</ele>
        <time>2019-03-22T14:55:22Z</time>
      </trkpt>
      <trkpt lat="49.28652" lon="-0.18439">
        <ele>52.0359</ele>
        <time>2019-03-22T14:56:00Z</time>
      </trkpt>
      <trkpt lat="49.28651" lon="-0.18432">
        <ele>52.071</ele>
        <time>2019-03-22T14:56:05Z</time>
      </trkpt>
      <trkpt lat="49.28649" lon="-0.18424">
        <ele>52.1082</ele>
        <time>2019-03-22T14:56:11Z</time>
      </trkpt>
      <trkpt lat="49.28648" lon="-0.18421">
        <ele>52.1193</ele>
        <time>2019-03-22T14:56:13Z</time>
      </trkpt>
      <trkpt lat="49.28644" lon="-0.18416">
        <ele>52.1482</ele>
        <time>2019-03-22T14:56:19Z</time>
      </trkpt>
      <trkpt lat="49.2864" lon="-0.18407">
        <ele>52.1825</ele>
        <time>2019-03-22T14:56:23Z</time>
      </trkpt>
      <trkpt lat="49.28637" lon="-0.18394">
        <ele>52.2334</ele>
        <time>2019-03-22T14:56:26Z</time>
      </trkpt>
      <trkpt lat="49.28631" lon="-0.18394">
        <ele>52.3012</ele>
        <time>2019-03-22T14:56:29Z</time>
      </trkpt>
      <trkpt lat="49.28631" lon="-0.18394">
        <ele>2.6</ele>
        <time>2019-03-22T14:56:37Z</time>
      </trkpt>
      <trkpt lat="49.28631" lon="-0.18394">
        <ele>2.6</ele>
        <time>2019-03-22T14:56:42Z</time>
      </trkpt>
      <trkpt lat="49.28623" lon="-0.1839">
        <ele>52.5907</ele>
        <time>2019-03-22T14:56:42Z</time>
      </trkpt>
      <trkpt lat="49.28621" lon="-0.18387">
        <ele>52.6323</ele>
        <time>2019-03-22T14:56:44Z</time>
      </trkpt>
      <trkpt lat="49.28619" lon="-0.18383">
        <ele>52.6938</ele>
        <time>2019-03-22T14:56:47Z</time>
      </trkpt>
      <trkpt lat="49.28614" lon="-0.18377">
        <ele>52.7569</ele>
        <time>2019-03-22T14:56:50Z</time>
      </trkpt>
      <trkpt lat="49.28612" lon="-0.18374">
        <ele>52.8077</ele>
        <time>2019-03-22T14:56:52Z</time>
      </trkpt>
      <trkpt lat="49.28609" lon="-0.1837">
        <ele>52.9222</ele>
        <time>2019-03-22T14:56:56Z</time>
      </trkpt>
      <trkpt lat="49.28606" lon="-0.18365">
        <ele>53.0136</ele>
        <time>2019-03-22T14:56:59Z</time>
      </trkpt>
      <trkpt lat="49.28603" lon="-0.18358">
        <ele>53.1616</ele>
        <time>2019-03-22T14:57:04Z</time>
      </trkpt>
      <trkpt lat="49.28598" lon="-0.18356">
        <ele>53.2171</ele>
        <time>2019-03-22T14:57:06Z</time>
      </trkpt>
      <trkpt lat="49.28596" lon="-0.18348">
        <ele>53.3187</ele>
        <time>2019-03-22T14:57:10Z</time>
      </trkpt>
      <trkpt lat="49.28592" lon="-0.1834">
        <ele>53.3873</ele>
        <time>2019-03-22T14:57:13Z</time>
      </trkpt>
      <trkpt lat="49.28589" lon="-0.18333">
        <ele>53.4674</ele>
        <time>2019-03-22T14:57:17Z</time>
      </trkpt>
      <trkpt lat="49.28589" lon="-0.18333">
        <ele>8</ele>
        <time>2019-03-22T14:57:23Z</time>
      </trkpt>
      <trkpt lat="49.28589" lon="-0.18333">
        <ele>8</ele>
        <time>2019-03-22T14:57:30Z</time>
      </trkpt>
      <trkpt lat="49.28603" lon="-0.18325">
        <ele>53.6553</ele>
        <time>2019-03-22T14:57:30Z</time>
      </trkpt>
      <trkpt lat="49.28607" lon="-0.18322">
        <ele>53.704</ele>
        <time>2019-03-22T14:57:34Z</time>
      </trkpt>
      <trkpt lat="49.2861" lon="-0.18313">
        <ele>53.7494</ele>
        <time>2019-03-22T14:57:38Z</time>
      </trkpt>
      <trkpt lat="49.28611" lon="-0.18309">
        <ele>53.7703</ele>
        <time>2019-03-22T14:57:40Z</time>
      </trkpt>
      <trkpt lat="49.28613" lon="-0.18303">
        <ele>53.8111</ele>
        <time>2019-03-22T14:57:44Z</time>
      </trkpt>
      <trkpt lat="49.28616" lon="-0.18296">
        <ele>53.8592</ele>
        <time>2019-03-22T14:57:49Z</time>
      </trkpt>
      <trkpt lat="49.28617" lon="-0.18289">
        <ele>53.9049</ele>
        <time>2019-03-22T14:57:54Z</time>
      </trkpt>
      <trkpt lat="49.28618" lon="-0.18285">
        <ele>53.9227</ele>
        <time>2019-03-22T14:57:56Z</time>
      </trkpt>
      <trkpt lat="49.28619" lon="-0.18278">
        <ele>53.9648</ele>
        <time>2019-03-22T14:58:01Z</time>
      </trkpt>
      <trkpt lat="49.28618" lon="-0.1827">
        <ele>53.9895</ele>
        <time>2019-03-22T14:58:04Z</time>
      </trkpt>
      <trkpt lat="49.28615" lon="-0.18264">
        <ele>54.0133</ele>
        <time>2019-03-22T14:58:07Z</time>
      </trkpt>
      <trkpt lat="49.28614" lon="-0.18257">
        <ele>54.0531</ele>
        <time>2019-03-22T14:58:12Z</time>
      </trkpt>
      <trkpt lat="49.28612" lon="-0.1825">
        <ele>54.0889</ele>
        <time>2019-03-22T14:58:16Z</time>
      </trkpt>
      <trkpt lat="49.2861" lon="-0.18243">
        <ele>54.1299</ele>
        <time>2019-03-22T14:58:20Z</time>
      </trkpt>
      <trkpt lat="49.28604" lon="-0.18236">
        <ele>54.1716</ele>
        <time>2019-03-22T14:58:24Z</time>
      </trkpt>
      <trkpt lat="49.28601" lon="-0.18232">
        <ele>54.1818</ele>
        <time>2019-03-22T14:58:25Z</time>
      </trkpt>
      <trkpt lat="49.28599" lon="-0.18221">
        <ele>54.2352</ele>
        <time>2019-03-22T14:58:31Z</time>
      </trkpt>
      <trkpt lat="49.28595" lon="-0.18215">
        <ele>54.25</ele>
        <time>2019-03-22T14:58:33Z</time>
      </trkpt>
      <trkpt lat="49.28595" lon="-0.18215">
        <ele>6.3</ele>
        <time>2019-03-22T14:58:40Z</time>
      </trkpt>
      <trkpt lat="49.28595" lon="-0.18215">
        <ele>6.3</ele>
        <time>2019-03-22T14:58:47Z</time>
      </trkpt>
      <trkpt lat="49.28604" lon="-0.18202">
        <ele>54.3384</ele>
        <time>2019-03-22T14:58:47Z</time>
      </trkpt>
      <trkpt lat="49.28609" lon="-0.182">
        <ele>54.3716</ele>
        <time>2019-03-22T14:58:52Z</time>
      </trkpt>
      <trkpt lat="49.28612" lon="-0.18194">
        <ele>54.4117</ele>
        <time>2019-03-22T14:58:57Z</time>
      </trkpt>
      <trkpt lat="49.28613" lon="-0.18187">
        <ele>54.4532</ele>
        <time>2019-03-22T14:59:02Z</time>
      </trkpt>
      <trkpt lat="49.28613" lon="-0.18178">
        <ele>54.4854</ele>
        <time>2019-03-22T14:59:06Z</time>
      </trkpt>
      <trkpt lat="49.28614" lon="-0.18172">
        <ele>54.5169</ele>
        <time>2019-03-22T14:59:10Z</time>
      </trkpt>
      <trkpt lat="49.28615" lon="-0.18164">
        <ele>54.5562</ele>
        <time>2019-03-22T14:59:15Z</time>
      </trkpt>
      <trkpt lat="49.28615" lon="-0.1816">
        <ele>54.5722</ele>
        <time>2019-03-22T14:59:17Z</time>
      </trkpt>
      <trkpt lat="49.28615" lon="-0.18156">
        <ele>54.5958</ele>
        <time>2019-03-22T14:59:20Z</time>
      </trkpt>
      <trkpt lat="49.28616" lon="-0.18149">
        <ele>54.6342</ele>
        <time>2019-03-22T14:59:25Z</time>
      </trkpt>
      <trkpt lat="49.28618" lon="-0.18145">
        <ele>54.6571</ele>
        <time>2019-03-22T14:59:28Z</time>
      </trkpt>
      <trkpt lat="49.28618" lon="-0.18137">
        <ele>54.7006</ele>
        <time>2019-03-22T14:59:34Z</time>
      </trkpt>
      <trkpt lat="49.28618" lon="-0.1813">
        <ele>54.7357</ele>
        <time>2019-03-22T14:59:39Z</time>
      </trkpt>
      <trkpt lat="49.28615" lon="-0.18121">
        <ele>54.7565</ele>
        <time>2019-03-22T14:59:42Z</time>
      </trkpt>
      <trkpt lat="49.28611" lon="-0.18115">
        <ele>54.7774</ele>
        <time>2019-03-22T14:59:45Z</time>
      </trkpt>
      <trkpt lat="49.28607" lon="-0.18109">
        <ele>54.798</ele>
        <time>2019-03-22T14:59:48Z</time>
      </trkpt>
      <trkpt lat="49.28605" lon="-0.18105">
        <ele>54.8112</ele>
        <time>2019-03-22T14:59:50Z</time>
      </trkpt>
      <trkpt lat="49.28603" lon="-0.18101">
        <ele>54.8235</ele>
        <time>2019-03-22T14:59:52Z</time>
      </trkpt>
      <trkpt lat="49.28601" lon="-0.18093">
        <ele>54.8445</ele>
        <time>2019-03-22T14:59:56Z</time>
      </trkpt>
      <trkpt lat="49.286" lon="-0.1809">
        <ele>54.853</ele>
        <time>2019-03-22T14:59:58Z</time>
      </trkpt>
      <trkpt lat="49.28595" lon="-0.18085">
        <ele>54.8602</ele>
        <time>2019-03-22T15:00:00Z</time>
      </trkpt>
      <trkpt lat="49.2859" lon="-0.18076">
        <ele>54.8659</ele>
        <time>2019-03-22T15:00:02Z</time>
      </trkpt>
      <trkpt lat="49.28586" lon="-0.18069">
        <ele>54.874</ele>
        <time>2019-03-22T15:00:05Z</time>
      </trkpt>
      <trkpt lat="49.28584" lon="-0.18061">
        <ele>54.8837</ele>
        <time>2019-03-22T15:00:09Z</time>
      </trkpt>
      <trkpt lat="49.28583" lon="-0.18056">
        <ele>54.8914</ele>
        <time>2019-03-22T15:00:12Z</time>
      </trkpt>
      <trkpt lat="49.28582" lon="-0.18052">
        <ele>54.8968</ele>
        <time>2019-03-22T15:00:14Z</time>
      </trkpt>
      <trkpt lat="49.28585" lon="-0.18046">
        <ele>54.9091</ele>
        <time>2019-03-22T15:00:20Z</time>
      </trkpt>
      <trkpt lat="49.28589" lon="-0.18041">
        <ele>54.9147</ele>
        <time>2019-03-22T15:00:24Z</time>
      </trkpt>
      <trkpt lat="49.28593" lon="-0.18037">
        <ele>54.9214</ele>
        <time>2019-03-22T15:00:28Z</time>
      </trkpt>
      <trkpt lat="49.28595" lon="-0.18031">
        <ele>54.9271</ele>
        <time>2019-03-22T15:00:32Z</time>
      </trkpt>
      <trkpt lat="49.28599" lon="-0.18027">
        <ele>54.9347</ele>
        <time>2019-03-22T15:00:37Z</time>
      </trkpt>
      <trkpt lat="49.28602" lon="-0.18024">
        <ele>54.9403</ele>
        <time>2019-03-22T15:00:40Z</time>
      </trkpt>
      <trkpt lat="49.28606" lon="-0.18019">
        <ele>54.9532</ele>
        <time>2019-03-22T15:00:45Z</time>
      </trkpt>
      <trkpt lat="49.28608" lon="-0.18012">
        <ele>54.9665</ele>
        <time>2019-03-22T15:00:49Z</time>
      </trkpt>
      <trkpt lat="49.28609" lon="-0.18006">
        <ele>54.9796</ele>
        <time>2019-03-22T15:00:53Z</time>
      </trkpt>
      <trkpt lat="49.2861" lon="-0.18001">
        <ele>54.9887</ele>
        <time>2019-03-22T15:00:56Z</time>
      </trkpt>
      <trkpt lat="49.2861" lon="-0.17997">
        <ele>54.9941</ele>
        <time>2019-03-22T15:00:58Z</time>
      </trkpt>
      <trkpt lat="49.28612" lon="-0.1799">
        <ele>55.0092</ele>
        <time>2019-03-22T15:01:03Z</time>
      </trkpt>
      <trkpt lat="49.28613" lon="-0.17983">
        <ele>55.0227</ele>
        <time>2019-03-22T15:01:07Z</time>
      </trkpt>
      <trkpt lat="49.28613" lon="-0.17978">
        <ele>55.0374</ele>
        <time>2019-03-22T15:01:10Z</time>
      </trkpt>
      <trkpt lat="49.28614" lon="-0.17974">
        <ele>55.0522</ele>
        <time>2019-03-22T15:01:13Z</time>
      </trkpt>
      <trkpt lat="49.28615" lon="-0.17967">
        <ele>55.0762</ele>
        <time>2019-03-22T15:01:18Z</time>
      </trkpt>
      <trkpt lat="49.28615" lon="-0.1796">
        <ele>55.0961</ele>
        <time>2019-03-22T15:01:22Z</time>
      </trkpt>
      <trkpt lat="49.28613" lon="-0.17953">
        <ele>55.1222</ele>
        <time>2019-03-22T15:01:26Z</time>
      </trkpt>
      <trkpt lat="49.28609" lon="-0.17948">
        <ele>55.1588</ele>
        <time>2019-03-22T15:01:30Z</time>
      </trkpt>
      <trkpt lat="49.28607" lon="-0.17941">
        <ele>55.1977</ele>
        <time>2019-03-22T15:01:34Z</time>
      </trkpt>
      <trkpt lat="49.28607" lon="-0.17941">
        <ele>4.6</ele>
        <time>2019-03-22T15:01:41Z</time>
      </trkpt>
      <trkpt lat="49.28607" lon="-0.17941">
        <ele>4.6</ele>
        <time>2019-03-22T15:01:47Z</time>
      </trkpt>
      <trkpt lat="49.28607" lon="-0.17928">
        <ele>55.289</ele>
        <time>2019-03-22T15:01:47Z</time>
      </trkpt>
      <trkpt lat="49.28607" lon="-0.17922">
        <ele>55.3354</ele>
        <time>2019-03-22T15:01:51Z</time>
      </trkpt>
      <trkpt lat="49.28605" lon="-0.17916">
        <ele>55.3596</ele>
        <time>2019-03-22T15:01:53Z</time>
      </trkpt>
      <trkpt lat="49.28603" lon="-0.17909">
        <ele>55.3943</ele>
        <time>2019-03-22T15:01:56Z</time>
      </trkpt>
      <trkpt lat="49.2861" lon="-0.17903">
        <ele>55.4573</ele>
        <time>2019-03-22T15:02:01Z</time>
      </trkpt>
      <trkpt lat="49.28606" lon="-0.17892">
        <ele>55.5131</ele>
        <time>2019-03-22T15:02:05Z</time>
      </trkpt>
      <trkpt lat="49.28607" lon="-0.17885">
        <ele>55.5863</ele>
        <time>2019-03-22T15:02:10Z</time>
      </trkpt>
      <trkpt lat="49.28608" lon="-0.1788">
        <ele>55.6345</ele>
        <time>2019-03-22T15:02:13Z</time>
      </trkpt>
      <trkpt lat="49.28612" lon="-0.17875">
        <ele>55.7214</ele>
        <time>2019-03-22T15:02:18Z</time>
      </trkpt>
      <trkpt lat="49.28612" lon="-0.17867">
        <ele>55.8154</ele>
        <time>2019-03-22T15:02:23Z</time>
      </trkpt>
      <trkpt lat="49.28612" lon="-0.17863">
        <ele>55.9479</ele>
        <time>2019-03-22T15:02:30Z</time>
      </trkpt>
      <trkpt lat="49.28608" lon="-0.17854">
        <ele>56.0154</ele>
        <time>2019-03-22T15:02:33Z</time>
      </trkpt>
      <trkpt lat="49.28604" lon="-0.17848">
        <ele>56.1526</ele>
        <time>2019-03-22T15:02:39Z</time>
      </trkpt>
      <trkpt lat="49.28601" lon="-0.17838">
        <ele>56.2361</ele>
        <time>2019-03-22T15:02:43Z</time>
      </trkpt>
      <trkpt lat="49.28601" lon="-0.1783">
        <ele>56.3069</ele>
        <time>2019-03-22T15:02:47Z</time>
      </trkpt>
      <trkpt lat="49.28597" lon="-0.17815">
        <ele>56.3842</ele>
        <time>2019-03-22T15:02:52Z</time>
      </trkpt>
      <trkpt lat="49.28596" lon="-0.17807">
        <ele>56.4389</ele>
        <time>2019-03-22T15:02:56Z</time>
      </trkpt>
      <trkpt lat="49.28594" lon="-0.178">
        <ele>56.4757</ele>
        <time>2019-03-22T15:02:59Z</time>
      </trkpt>
      <trkpt lat="49.28594" lon="-0.17791">
        <ele>56.5324</ele>
        <time>2019-03-22T15:03:05Z</time>
      </trkpt>
      <trkpt lat="49.28598" lon="-0.17786">
        <ele>56.5667</ele>
        <time>2019-03-22T15:03:10Z</time>
      </trkpt>
      <trkpt lat="49.28601" lon="-0.17782">
        <ele>56.5789</ele>
        <time>2019-03-22T15:03:12Z</time>
      </trkpt>
      <trkpt lat="49.28603" lon="-0.1778">
        <ele>56.59</ele>
        <time>2019-03-22T15:03:14Z</time>
      </trkpt>
      <trkpt lat="49.28607" lon="-0.17777">
        <ele>56.6086</ele>
        <time>2019-03-22T15:03:18Z</time>
      </trkpt>
      <trkpt lat="49.2861" lon="-0.1777">
        <ele>56.6279</ele>
        <time>2019-03-22T15:03:22Z</time>
      </trkpt>
      <trkpt lat="49.28614" lon="-0.17764">
        <ele>56.6491</ele>
        <time>2019-03-22T15:03:26Z</time>
      </trkpt>
      <trkpt lat="49.28616" lon="-0.17761">
        <ele>56.661</ele>
        <time>2019-03-22T15:03:28Z</time>
      </trkpt>
      <trkpt lat="49.28619" lon="-0.17757">
        <ele>56.6803</ele>
        <time>2019-03-22T15:03:31Z</time>
      </trkpt>
      <trkpt lat="49.28621" lon="-0.17753">
        <ele>56.701</ele>
        <time>2019-03-22T15:03:34Z</time>
      </trkpt>
      <trkpt lat="49.28624" lon="-0.17745">
        <ele>56.7416</ele>
        <time>2019-03-22T15:03:40Z</time>
      </trkpt>
      <trkpt lat="49.28625" lon="-0.17742">
        <ele>56.7548</ele>
        <time>2019-03-22T15:03:42Z</time>
      </trkpt>
      <trkpt lat="49.28626" lon="-0.17733">
        <ele>56.7815</ele>
        <time>2019-03-22T15:03:46Z</time>
      </trkpt>
      <trkpt lat="49.28627" lon="-0.17727">
        <ele>56.8016</ele>
        <time>2019-03-22T15:03:49Z</time>
      </trkpt>
      <trkpt lat="49.28628" lon="-0.17719">
        <ele>56.8289</ele>
        <time>2019-03-22T15:03:53Z</time>
      </trkpt>
      <trkpt lat="49.2863" lon="-0.17712">
        <ele>56.8616</ele>
        <time>2019-03-22T15:03:58Z</time>
      </trkpt>
      <trkpt lat="49.28631" lon="-0.17707">
        <ele>56.881</ele>
        <time>2019-03-22T15:04:01Z</time>
      </trkpt>
      <trkpt lat="49.28631" lon="-0.17699">
        <ele>56.9066</ele>
        <time>2019-03-22T15:04:05Z</time>
      </trkpt>
      <trkpt lat="49.28631" lon="-0.17692">
        <ele>56.9437</ele>
        <time>2019-03-22T15:04:11Z</time>
      </trkpt>
      <trkpt lat="49.28632" lon="-0.17688">
        <ele>56.9554</ele>
        <time>2019-03-22T15:04:13Z</time>
      </trkpt>
      <trkpt lat="49.28633" lon="-0.1768">
        <ele>56.9902</ele>
        <time>2019-03-22T15:04:19Z</time>
      </trkpt>
      <trkpt lat="49.28632" lon="-0.17673">
        <ele>57.0078</ele>
        <time>2019-03-22T15:04:22Z</time>
      </trkpt>
      <trkpt lat="49.28629" lon="-0.17667">
        <ele>57.0349</ele>
        <time>2019-03-22T15:04:26Z</time>
      </trkpt>
      <trkpt lat="49.28625" lon="-0.17656">
        <ele>57.0978</ele>
        <time>2019-03-22T15:04:33Z</time>
      </trkpt>
      <trkpt lat="49.28623" lon="-0.17651">
        <ele>57.1342</ele>
        <time>2019-03-22T15:04:36Z</time>
      </trkpt>
      <trkpt lat="49.28621" lon="-0.17648">
        <ele>57.1802</ele>
        <time>2019-03-22T15:04:39Z</time>
      </trkpt>
      <trkpt lat="49.28618" lon="-0.17641">
        <ele>57.2118</ele>
        <time>2019-03-22T15:04:41Z</time>
      </trkpt>
      <trkpt lat="49.28612" lon="-0.17634">
        <ele>57.2577</ele>
        <time>2019-03-22T15:04:44Z</time>
      </trkpt>
      <trkpt lat="49.28612" lon="-0.17634">
        <ele>4</ele>
        <time>2019-03-22T15:04:51Z</time>
      </trkpt>
      <trkpt lat="49.28612" lon="-0.17634">
        <ele>4</ele>
        <time>2019-03-22T15:04:54Z</time>
      </trkpt>
      <trkpt lat="49.28616" lon="-0.17622">
        <ele>57.4019</ele>
        <time>2019-03-22T15:04:54Z</time>
      </trkpt>
      <trkpt lat="49.28616" lon="-0.17622">
        <ele>57.4019</ele>
        <time>2019-03-22T15:04:59Z</time>
      </trkpt>
      <trkpt lat="49.28616" lon="-0.17622">
        <ele>3.8</ele>
        <time>2019-03-22T15:04:59Z</time>
      </trkpt>
      <trkpt lat="49.28616" lon="-0.17622">
        <ele>3.8</ele>
        <time>2019-03-22T15:05:29Z</time>
      </trkpt>
      <trkpt lat="49.28626" lon="-0.17603">
        <ele>57.7596</ele>
        <time>2019-03-22T15:05:29Z</time>
      </trkpt>
      <trkpt lat="49.28626" lon="-0.17598">
        <ele>57.7877</ele>
        <time>2019-03-22T15:05:32Z</time>
      </trkpt>
      <trkpt lat="49.28629" lon="-0.17591">
        <ele>57.8306</ele>
        <time>2019-03-22T15:05:37Z</time>
      </trkpt>
      <trkpt lat="49.2863" lon="-0.17584">
        <ele>57.8629</ele>
        <time>2019-03-22T15:05:41Z</time>
      </trkpt>
      <trkpt lat="49.28632" lon="-0.17577">
        <ele>57.9017</ele>
        <time>2019-03-22T15:05:46Z</time>
      </trkpt>
      <trkpt lat="49.28634" lon="-0.17572">
        <ele>57.924</ele>
        <time>2019-03-22T15:05:49Z</time>
      </trkpt>
      <trkpt lat="49.28634" lon="-0.17563">
        <ele>57.9643</ele>
        <time>2019-03-22T15:05:55Z</time>
      </trkpt>
      <trkpt lat="49.28634" lon="-0.17556">
        <ele>57.989</ele>
        <time>2019-03-22T15:05:59Z</time>
      </trkpt>
      <trkpt lat="49.28636" lon="-0.1755">
        <ele>58.0137</ele>
        <time>2019-03-22T15:06:03Z</time>
      </trkpt>
      <trkpt lat="49.28637" lon="-0.17542">
        <ele>58.0402</ele>
        <time>2019-03-22T15:06:07Z</time>
      </trkpt>
      <trkpt lat="49.28638" lon="-0.17536">
        <ele>58.0611</ele>
        <time>2019-03-22T15:06:10Z</time>
      </trkpt>
      <trkpt lat="49.28639" lon="-0.17529">
        <ele>58.0825</ele>
        <time>2019-03-22T15:06:13Z</time>
      </trkpt>
      <trkpt lat="49.28638" lon="-0.17522">
        <ele>58.1061</ele>
        <time>2019-03-22T15:06:16Z</time>
      </trkpt>
      <trkpt lat="49.28635" lon="-0.17515">
        <ele>58.1323</ele>
        <time>2019-03-22T15:06:19Z</time>
      </trkpt>
      <trkpt lat="49.28636" lon="-0.17507">
        <ele>58.1855</ele>
        <time>2019-03-22T15:06:24Z</time>
      </trkpt>
      <trkpt lat="49.28637" lon="-0.17502">
        <ele>58.2423</ele>
        <time>2019-03-22T15:06:28Z</time>
      </trkpt>
      <trkpt lat="49.28636" lon="-0.17494">
        <ele>58.346</ele>
        <time>2019-03-22T15:06:34Z</time>
      </trkpt>
      <trkpt lat="49.28635" lon="-0.17489">
        <ele>58.427</ele>
        <time>2019-03-22T15:06:38Z</time>
      </trkpt>
      <trkpt lat="49.28633" lon="-0.17482">
        <ele>58.4911</ele>
        <time>2019-03-22T15:06:41Z</time>
      </trkpt>
      <trkpt lat="49.28634" lon="-0.17475">
        <ele>58.6045</ele>
        <time>2019-03-22T15:06:46Z</time>
      </trkpt>
      <trkpt lat="49.28634" lon="-0.17467">
        <ele>58.7248</ele>
        <time>2019-03-22T15:06:51Z</time>
      </trkpt>
      <trkpt lat="49.28634" lon="-0.17463">
        <ele>58.8013</ele>
        <time>2019-03-22T15:06:54Z</time>
      </trkpt>
      <trkpt lat="49.28634" lon="-0.17455">
        <ele>58.9596</ele>
        <time>2019-03-22T15:07:00Z</time>
      </trkpt>
      <trkpt lat="49.28634" lon="-0.17447">
        <ele>59.07</ele>
        <time>2019-03-22T15:07:04Z</time>
      </trkpt>
      <trkpt lat="49.28634" lon="-0.17441">
        <ele>59.1841</ele>
        <time>2019-03-22T15:07:08Z</time>
      </trkpt>
      <trkpt lat="49.28634" lon="-0.17433">
        <ele>59.3321</ele>
        <time>2019-03-22T15:07:13Z</time>
      </trkpt>
      <trkpt lat="49.28634" lon="-0.17424">
        <ele>59.4553</ele>
        <time>2019-03-22T15:07:17Z</time>
      </trkpt>
      <trkpt lat="49.28634" lon="-0.17419">
        <ele>59.5517</ele>
        <time>2019-03-22T15:07:20Z</time>
      </trkpt>
      <trkpt lat="49.28633" lon="-0.17415">
        <ele>59.6177</ele>
        <time>2019-03-22T15:07:22Z</time>
      </trkpt>
      <trkpt lat="49.28634" lon="-0.17407">
        <ele>59.7845</ele>
        <time>2019-03-22T15:07:27Z</time>
      </trkpt>
      <trkpt lat="49.28636" lon="-0.174">
        <ele>59.9535</ele>
        <time>2019-03-22T15:07:32Z</time>
      </trkpt>
      <trkpt lat="49.28635" lon="-0.17392">
        <ele>60.0525</ele>
        <time>2019-03-22T15:07:35Z</time>
      </trkpt>
      <trkpt lat="49.28634" lon="-0.17387">
        <ele>60.1171</ele>
        <time>2019-03-22T15:07:37Z</time>
      </trkpt>
      <trkpt lat="49.28631" lon="-0.17378">
        <ele>60.2759</ele>
        <time>2019-03-22T15:07:42Z</time>
      </trkpt>
      <trkpt lat="49.28629" lon="-0.17371">
        <ele>60.3703</ele>
        <time>2019-03-22T15:07:45Z</time>
      </trkpt>
      <trkpt lat="49.2863" lon="-0.17363">
        <ele>60.4604</ele>
        <time>2019-03-22T15:07:48Z</time>
      </trkpt>
      <trkpt lat="49.28629" lon="-0.17356">
        <ele>60.5458</ele>
        <time>2019-03-22T15:07:51Z</time>
      </trkpt>
      <trkpt lat="49.2863" lon="-0.17348">
        <ele>60.6508</ele>
        <time>2019-03-22T15:07:55Z</time>
      </trkpt>
      <trkpt lat="49.2863" lon="-0.17344">
        <ele>60.6998</ele>
        <time>2019-03-22T15:07:57Z</time>
      </trkpt>
      <trkpt lat="49.28628" lon="-0.17336">
        <ele>60.7936</ele>
        <time>2019-03-22T15:08:01Z</time>
      </trkpt>
      <trkpt lat="49.28628" lon="-0.1733">
        <ele>60.8824</ele>
        <time>2019-03-22T15:08:05Z</time>
      </trkpt>
      <trkpt lat="49.28628" lon="-0.17323">
        <ele>60.9658</ele>
        <time>2019-03-22T15:08:09Z</time>
      </trkpt>
      <trkpt lat="49.28629" lon="-0.17319">
        <ele>61.023</ele>
        <time>2019-03-22T15:08:12Z</time>
      </trkpt>
      <trkpt lat="49.2864" lon="-0.17313">
        <ele>61.1235</ele>
        <time>2019-03-22T15:08:18Z</time>
      </trkpt>
      <trkpt lat="49.28641" lon="-0.17305">
        <ele>61.17</ele>
        <time>2019-03-22T15:08:21Z</time>
      </trkpt>
      <trkpt lat="49.28642" lon="-0.17299">
        <ele>61.2229</ele>
        <time>2019-03-22T15:08:25Z</time>
      </trkpt>
      <trkpt lat="49.2864" lon="-0.17293">
        <ele>61.2758</ele>
        <time>2019-03-22T15:08:29Z</time>
      </trkpt>
      <trkpt lat="49.28638" lon="-0.17288">
        <ele>61.3215</ele>
        <time>2019-03-22T15:08:32Z</time>
      </trkpt>
      <trkpt lat="49.28637" lon="-0.17284">
        <ele>61.3851</ele>
        <time>2019-03-22T15:08:36Z</time>
      </trkpt>
      <trkpt lat="49.28636" lon="-0.17276">
        <ele>61.4569</ele>
        <time>2019-03-22T15:08:41Z</time>
      </trkpt>
      <trkpt lat="49.28642" lon="-0.1727">
        <ele>61.5331</ele>
        <time>2019-03-22T15:08:47Z</time>
      </trkpt>
      <trkpt lat="49.28645" lon="-0.17263">
        <ele>61.5634</ele>
        <time>2019-03-22T15:08:50Z</time>
      </trkpt>
      <trkpt lat="49.28643" lon="-0.17256">
        <ele>61.5957</ele>
        <time>2019-03-22T15:08:53Z</time>
      </trkpt>
      <trkpt lat="49.2864" lon="-0.17249">
        <ele>61.6465</ele>
        <time>2019-03-22T15:08:57Z</time>
      </trkpt>
      <trkpt lat="49.28638" lon="-0.17243">
        <ele>61.7091</ele>
        <time>2019-03-22T15:09:01Z</time>
      </trkpt>
      <trkpt lat="49.28635" lon="-0.17238">
        <ele>61.7429</ele>
        <time>2019-03-22T15:09:03Z</time>
      </trkpt>
      <trkpt lat="49.28631" lon="-0.17231">
        <ele>61.8064</ele>
        <time>2019-03-22T15:09:07Z</time>
      </trkpt>
      <trkpt lat="49.2863" lon="-0.17227">
        <ele>61.8357</ele>
        <time>2019-03-22T15:09:09Z</time>
      </trkpt>
      <trkpt lat="49.28629" lon="-0.1722">
        <ele>61.9049</ele>
        <time>2019-03-22T15:09:14Z</time>
      </trkpt>
      <trkpt lat="49.28628" lon="-0.17216">
        <ele>61.93</ele>
        <time>2019-03-22T15:09:16Z</time>
      </trkpt>
      <trkpt lat="49.28628" lon="-0.17209">
        <ele>61.9931</ele>
        <time>2019-03-22T15:09:21Z</time>
      </trkpt>
      <trkpt lat="49.28637" lon="-0.17214">
        <ele>62.0191</ele>
        <time>2019-03-22T15:09:23Z</time>
      </trkpt>
      <trkpt lat="49.2864" lon="-0.17203">
        <ele>62.1217</ele>
        <time>2019-03-22T15:09:30Z</time>
      </trkpt>
      <trkpt lat="49.28639" lon="-0.17194">
        <ele>62.1865</ele>
        <time>2019-03-22T15:09:34Z</time>
      </trkpt>
      <trkpt lat="49.28636" lon="-0.17186">
        <ele>62.2342</ele>
        <time>2019-03-22T15:09:37Z</time>
      </trkpt>
      <trkpt lat="49.28637" lon="-0.17179">
        <ele>62.3109</ele>
        <time>2019-03-22T15:09:42Z</time>
      </trkpt>
      <trkpt lat="49.28637" lon="-0.17171">
        <ele>62.3823</ele>
        <time>2019-03-22T15:09:47Z</time>
      </trkpt>
      <trkpt lat="49.2864" lon="-0.17166">
        <ele>62.4643</ele>
        <time>2019-03-22T15:09:53Z</time>
      </trkpt>
      <trkpt lat="49.28642" lon="-0.17163">
        <ele>62.493</ele>
        <time>2019-03-22T15:09:55Z</time>
      </trkpt>
      <trkpt lat="49.28644" lon="-0.17157">
        <ele>62.5514</ele>
        <time>2019-03-22T15:09:59Z</time>
      </trkpt>
      <trkpt lat="49.28646" lon="-0.17153">
        <ele>62.5951</ele>
        <time>2019-03-22T15:10:02Z</time>
      </trkpt>
      <trkpt lat="49.28649" lon="-0.17147">
        <ele>62.6536</ele>
        <time>2019-03-22T15:10:06Z</time>
      </trkpt>
      <trkpt lat="49.28651" lon="-0.1714">
        <ele>62.7236</ele>
        <time>2019-03-22T15:10:11Z</time>
      </trkpt>
      <trkpt lat="49.28653" lon="-0.17133">
        <ele>62.79</ele>
        <time>2019-03-22T15:10:16Z</time>
      </trkpt>
      <trkpt lat="49.28653" lon="-0.17119">
        <ele>62.8543</ele>
        <time>2019-03-22T15:10:21Z</time>
      </trkpt>
      <trkpt lat="49.28652" lon="-0.17111">
        <ele>62.9282</ele>
        <time>2019-03-22T15:10:26Z</time>
      </trkpt>
      <trkpt lat="49.28651" lon="-0.17104">
        <ele>62.9756</ele>
        <time>2019-03-22T15:10:29Z</time>
      </trkpt>
      <trkpt lat="49.28649" lon="-0.17096">
        <ele>63.025</ele>
        <time>2019-03-22T15:10:32Z</time>
      </trkpt>
      <trkpt lat="49.28648" lon="-0.17089">
        <ele>63.0761</ele>
        <time>2019-03-22T15:10:35Z</time>
      </trkpt>
      <trkpt lat="49.28647" lon="-0.17085">
        <ele>63.1087</ele>
        <time>2019-03-22T15:10:37Z</time>
      </trkpt>
      <trkpt lat="49.28646" lon="-0.17077">
        <ele>63.1977</ele>
        <time>2019-03-22T15:10:43Z</time>
      </trkpt>
      <trkpt lat="49.2865" lon="-0.17072">
        <ele>63.2717</ele>
        <time>2019-03-22T15:10:48Z</time>
      </trkpt>
      <trkpt lat="49.28649" lon="-0.17063">
        <ele>63.3517</ele>
        <time>2019-03-22T15:10:53Z</time>
      </trkpt>
      <trkpt lat="49.28653" lon="-0.17057">
        <ele>63.4326</ele>
        <time>2019-03-22T15:10:58Z</time>
      </trkpt>
      <trkpt lat="49.28651" lon="-0.1705">
        <ele>63.4799</ele>
        <time>2019-03-22T15:11:01Z</time>
      </trkpt>
      <trkpt lat="49.28652" lon="-0.17043">
        <ele>63.5382</ele>
        <time>2019-03-22T15:11:05Z</time>
      </trkpt>
      <trkpt lat="49.28652" lon="-0.17038">
        <ele>63.581</ele>
        <time>2019-03-22T15:11:08Z</time>
      </trkpt>
      <trkpt lat="49.28652" lon="-0.17031">
        <ele>63.6357</ele>
        <time>2019-03-22T15:11:12Z</time>
      </trkpt>
      <trkpt lat="49.28655" lon="-0.17023">
        <ele>63.6775</ele>
        <time>2019-03-22T15:11:16Z</time>
      </trkpt>
      <trkpt lat="49.28656" lon="-0.1702">
        <ele>63.6918</ele>
        <time>2019-03-22T15:11:18Z</time>
      </trkpt>
      <trkpt lat="49.28658" lon="-0.17013">
        <ele>63.7183</ele>
        <time>2019-03-22T15:11:22Z</time>
      </trkpt>
      <trkpt lat="49.28658" lon="-0.17004">
        <ele>63.7509</ele>
        <time>2019-03-22T15:11:27Z</time>
      </trkpt>
      <trkpt lat="49.28657" lon="-0.16997">
        <ele>63.7703</ele>
        <time>2019-03-22T15:11:31Z</time>
      </trkpt>
      <trkpt lat="49.28657" lon="-0.16992">
        <ele>63.7754</ele>
        <time>2019-03-22T15:11:33Z</time>
      </trkpt>
      <trkpt lat="49.28656" lon="-0.16989">
        <ele>63.7782</ele>
        <time>2019-03-22T15:11:35Z</time>
      </trkpt>
      <trkpt lat="49.28656" lon="-0.16984">
        <ele>63.7792</ele>
        <time>2019-03-22T15:11:37Z</time>
      </trkpt>
      <trkpt lat="49.28655" lon="-0.16977">
        <ele>63.7818</ele>
        <time>2019-03-22T15:11:41Z</time>
      </trkpt>
      <trkpt lat="49.28655" lon="-0.16972">
        <ele>63.7801</ele>
        <time>2019-03-22T15:11:44Z</time>
      </trkpt>
      <trkpt lat="49.28657" lon="-0.16965">
        <ele>63.7557</ele>
        <time>2019-03-22T15:11:51Z</time>
      </trkpt>
      <trkpt lat="49.28656" lon="-0.16956">
        <ele>63.729</ele>
        <time>2019-03-22T15:11:56Z</time>
      </trkpt>
      <trkpt lat="49.28659" lon="-0.1695">
        <ele>63.7185</ele>
        <time>2019-03-22T15:12:00Z</time>
      </trkpt>
      <trkpt lat="49.28659" lon="-0.16943">
        <ele>63.718</ele>
        <time>2019-03-22T15:12:03Z</time>
      </trkpt>
      <trkpt lat="49.28659" lon="-0.16939">
        <ele>63.7181</ele>
        <time>2019-03-22T15:12:05Z</time>
      </trkpt>
      <trkpt lat="49.2866" lon="-0.16931">
        <ele>63.7133</ele>
        <time>2019-03-22T15:12:11Z</time>
      </trkpt>
      <trkpt lat="49.28659" lon="-0.16924">
        <ele>63.7121</ele>
        <time>2019-03-22T15:12:15Z</time>
      </trkpt>
      <trkpt lat="49.28658" lon="-0.16915">
        <ele>63.7062</ele>
        <time>2019-03-22T15:12:22Z</time>
      </trkpt>
      <trkpt lat="49.28668" lon="-0.16914">
        <ele>63.7127</ele>
        <time>2019-03-22T15:12:27Z</time>
      </trkpt>
      <trkpt lat="49.28668" lon="-0.16914">
        <ele>63.7127</ele>
        <time>2019-03-22T15:12:34Z</time>
      </trkpt>
      <trkpt lat="49.28668" lon="-0.16914">
        <ele>2.9</ele>
        <time>2019-03-22T15:12:34Z</time>
      </trkpt>
      <trkpt lat="49.28668" lon="-0.16914">
        <ele>2.9</ele>
        <time>2019-03-22T15:12:45Z</time>
      </trkpt>
      <trkpt lat="49.28657" lon="-0.16891">
        <ele>63.91</ele>
        <time>2019-03-22T15:12:45Z</time>
      </trkpt>
      <trkpt lat="49.28655" lon="-0.16887">
        <ele>63.943</ele>
        <time>2019-03-22T15:12:47Z</time>
      </trkpt>
      <trkpt lat="49.28653" lon="-0.16883">
        <ele>63.9764</ele>
        <time>2019-03-22T15:12:49Z</time>
      </trkpt>
      <trkpt lat="49.28651" lon="-0.16874">
        <ele>64.0595</ele>
        <time>2019-03-22T15:12:54Z</time>
      </trkpt>
      <trkpt lat="49.2865" lon="-0.1687">
        <ele>64.0918</ele>
        <time>2019-03-22T15:12:56Z</time>
      </trkpt>
      <trkpt lat="49.28649" lon="-0.16866">
        <ele>64.1406</ele>
        <time>2019-03-22T15:12:59Z</time>
      </trkpt>
      <trkpt lat="49.28648" lon="-0.16858">
        <ele>64.2065</ele>
        <time>2019-03-22T15:13:03Z</time>
      </trkpt>
      <trkpt lat="49.28649" lon="-0.1685">
        <ele>64.2982</ele>
        <time>2019-03-22T15:13:09Z</time>
      </trkpt>
      <trkpt lat="49.28649" lon="-0.16841">
        <ele>64.3555</ele>
        <time>2019-03-22T15:13:13Z</time>
      </trkpt>
      <trkpt lat="49.28649" lon="-0.16835">
        <ele>64.4411</ele>
        <time>2019-03-22T15:13:19Z</time>
      </trkpt>
      <trkpt lat="49.28644" lon="-0.1683">
        <ele>64.5293</ele>
        <time>2019-03-22T15:13:24Z</time>
      </trkpt>
      <trkpt lat="49.28639" lon="-0.16826">
        <ele>64.5696</ele>
        <time>2019-03-22T15:13:26Z</time>
      </trkpt>
      <trkpt lat="49.28635" lon="-0.16821">
        <ele>64.611</ele>
        <time>2019-03-22T15:13:28Z</time>
      </trkpt>
      <trkpt lat="49.28629" lon="-0.16815">
        <ele>64.6512</ele>
        <time>2019-03-22T15:13:30Z</time>
      </trkpt>
      <trkpt lat="49.28629" lon="-0.16815">
        <ele>9.9</ele>
        <time>2019-03-22T15:13:38Z</time>
      </trkpt>
      <trkpt lat="49.28629" lon="-0.16815">
        <ele>9.9</ele>
        <time>2019-03-22T15:13:42Z</time>
      </trkpt>
      <trkpt lat="49.2864" lon="-0.16799">
        <ele>64.8761</ele>
        <time>2019-03-22T15:13:42Z</time>
      </trkpt>
      <trkpt lat="49.28637" lon="-0.16788">
        <ele>64.9265</ele>
        <time>2019-03-22T15:13:45Z</time>
      </trkpt>
      <trkpt lat="49.28633" lon="-0.16782">
        <ele>64.959</ele>
        <time>2019-03-22T15:13:47Z</time>
      </trkpt>
      <trkpt lat="49.28633" lon="-0.16782">
        <ele>9.4</ele>
        <time>2019-03-22T15:13:55Z</time>
      </trkpt>
      <trkpt lat="49.28633" lon="-0.16782">
        <ele>9.4</ele>
        <time>2019-03-22T15:14:25Z</time>
      </trkpt>
      <trkpt lat="49.28641" lon="-0.16744">
        <ele>65.2912</ele>
        <time>2019-03-22T15:14:27Z</time>
      </trkpt>
      <trkpt lat="49.28642" lon="-0.16738">
        <ele>65.319</ele>
        <time>2019-03-22T15:14:31Z</time>
      </trkpt>
      <trkpt lat="49.28644" lon="-0.16731">
        <ele>65.3507</ele>
        <time>2019-03-22T15:14:36Z</time>
      </trkpt>
      <trkpt lat="49.28645" lon="-0.16726">
        <ele>65.3675</ele>
        <time>2019-03-22T15:14:39Z</time>
      </trkpt>
      <trkpt lat="49.28647" lon="-0.1672">
        <ele>65.3937</ele>
        <time>2019-03-22T15:14:44Z</time>
      </trkpt>
      <trkpt lat="49.28648" lon="-0.16711">
        <ele>65.4178</ele>
        <time>2019-03-22T15:14:49Z</time>
      </trkpt>
      <trkpt lat="49.28649" lon="-0.16704">
        <ele>65.4367</ele>
        <time>2019-03-22T15:14:53Z</time>
      </trkpt>
      <trkpt lat="49.2865" lon="-0.16699">
        <ele>65.4508</ele>
        <time>2019-03-22T15:14:56Z</time>
      </trkpt>
      <trkpt lat="49.28651" lon="-0.16695">
        <ele>65.4649</ele>
        <time>2019-03-22T15:14:59Z</time>
      </trkpt>
      <trkpt lat="49.28651" lon="-0.16687">
        <ele>65.4866</ele>
        <time>2019-03-22T15:15:04Z</time>
      </trkpt>
      <trkpt lat="49.28652" lon="-0.16679">
        <ele>65.5071</ele>
        <time>2019-03-22T15:15:09Z</time>
      </trkpt>
      <trkpt lat="49.28653" lon="-0.16676">
        <ele>65.5176</ele>
        <time>2019-03-22T15:15:12Z</time>
      </trkpt>
      <trkpt lat="49.28661" lon="-0.16673">
        <ele>65.5345</ele>
        <time>2019-03-22T15:15:19Z</time>
      </trkpt>
      <trkpt lat="49.28663" lon="-0.16664">
        <ele>65.5315</ele>
        <time>2019-03-22T15:15:21Z</time>
      </trkpt>
      <trkpt lat="49.2867" lon="-0.16663">
        <ele>65.5321</ele>
        <time>2019-03-22T15:15:23Z</time>
      </trkpt>
      <trkpt lat="49.28671" lon="-0.16654">
        <ele>65.5626</ele>
        <time>2019-03-22T15:15:29Z</time>
      </trkpt>
      <trkpt lat="49.28671" lon="-0.16647">
        <ele>65.605</ele>
        <time>2019-03-22T15:15:33Z</time>
      </trkpt>
      <trkpt lat="49.28673" lon="-0.1664">
        <ele>65.6616</ele>
        <time>2019-03-22T15:15:37Z</time>
      </trkpt>
      <trkpt lat="49.28674" lon="-0.16634">
        <ele>65.7302</ele>
        <time>2019-03-22T15:15:41Z</time>
      </trkpt>
      <trkpt lat="49.28675" lon="-0.1663">
        <ele>65.7891</ele>
        <time>2019-03-22T15:15:44Z</time>
      </trkpt>
      <trkpt lat="49.28675" lon="-0.16623">
        <ele>65.8993</ele>
        <time>2019-03-22T15:15:49Z</time>
      </trkpt>
      <trkpt lat="49.28675" lon="-0.16619">
        <ele>65.9472</ele>
        <time>2019-03-22T15:15:51Z</time>
      </trkpt>
      <trkpt lat="49.28675" lon="-0.16615">
        <ele>66.0233</ele>
        <time>2019-03-22T15:15:54Z</time>
      </trkpt>
      <trkpt lat="49.28673" lon="-0.16606">
        <ele>66.104</ele>
        <time>2019-03-22T15:15:57Z</time>
      </trkpt>
      <trkpt lat="49.28671" lon="-0.16598">
        <ele>66.215</ele>
        <time>2019-03-22T15:16:01Z</time>
      </trkpt>
      <trkpt lat="49.2867" lon="-0.16589">
        <ele>66.3529</ele>
        <time>2019-03-22T15:16:06Z</time>
      </trkpt>
      <trkpt lat="49.2867" lon="-0.16585">
        <ele>66.4317</ele>
        <time>2019-03-22T15:16:09Z</time>
      </trkpt>
      <trkpt lat="49.2867" lon="-0.16581">
        <ele>66.5074</ele>
        <time>2019-03-22T15:16:12Z</time>
      </trkpt>
      <trkpt lat="49.2867" lon="-0.16573">
        <ele>66.6093</ele>
        <time>2019-03-22T15:16:16Z</time>
      </trkpt>
      <trkpt lat="49.2867" lon="-0.16569">
        <ele>66.6625</ele>
        <time>2019-03-22T15:16:18Z</time>
      </trkpt>
      <trkpt lat="49.2867" lon="-0.16565">
        <ele>66.7659</ele>
        <time>2019-03-22T15:16:22Z</time>
      </trkpt>
      <trkpt lat="49.2867" lon="-0.1656">
        <ele>66.8395</ele>
        <time>2019-03-22T15:16:25Z</time>
      </trkpt>
      <trkpt lat="49.28669" lon="-0.16552">
        <ele>66.961</ele>
        <time>2019-03-22T15:16:30Z</time>
      </trkpt>
      <trkpt lat="49.28669" lon="-0.16544">
        <ele>67.0788</ele>
        <time>2019-03-22T15:16:35Z</time>
      </trkpt>
      <trkpt lat="49.28671" lon="-0.16537">
        <ele>67.1942</ele>
        <time>2019-03-22T15:16:40Z</time>
      </trkpt>
      <trkpt lat="49.28675" lon="-0.16533">
        <ele>67.3048</ele>
        <time>2019-03-22T15:16:45Z</time>
      </trkpt>
      <trkpt lat="49.28678" lon="-0.16525">
        <ele>67.3924</ele>
        <time>2019-03-22T15:16:49Z</time>
      </trkpt>
      <trkpt lat="49.28677" lon="-0.16517">
        <ele>67.4583</ele>
        <time>2019-03-22T15:16:52Z</time>
      </trkpt>
      <trkpt lat="49.28677" lon="-0.16514">
        <ele>67.5043</ele>
        <time>2019-03-22T15:16:54Z</time>
      </trkpt>
      <trkpt lat="49.28677" lon="-0.16506">
        <ele>67.6167</ele>
        <time>2019-03-22T15:16:59Z</time>
      </trkpt>
      <trkpt lat="49.28677" lon="-0.16502">
        <ele>67.6811</ele>
        <time>2019-03-22T15:17:02Z</time>
      </trkpt>
      <trkpt lat="49.28678" lon="-0.16495">
        <ele>67.7998</ele>
        <time>2019-03-22T15:17:08Z</time>
      </trkpt>
      <trkpt lat="49.28679" lon="-0.16487">
        <ele>67.8877</ele>
        <time>2019-03-22T15:17:13Z</time>
      </trkpt>
      <trkpt lat="49.28678" lon="-0.16478">
        <ele>67.9743</ele>
        <time>2019-03-22T15:17:18Z</time>
      </trkpt>
      <trkpt lat="49.2868" lon="-0.16471">
        <ele>68.0615</ele>
        <time>2019-03-22T15:17:23Z</time>
      </trkpt>
      <trkpt lat="49.2868" lon="-0.16466">
        <ele>68.1127</ele>
        <time>2019-03-22T15:17:26Z</time>
      </trkpt>
      <trkpt lat="49.28682" lon="-0.1646">
        <ele>68.194</ele>
        <time>2019-03-22T15:17:31Z</time>
      </trkpt>
      <trkpt lat="49.28682" lon="-0.16451">
        <ele>68.2701</ele>
        <time>2019-03-22T15:17:36Z</time>
      </trkpt>
      <trkpt lat="49.28684" lon="-0.16443">
        <ele>68.3485</ele>
        <time>2019-03-22T15:17:41Z</time>
      </trkpt>
      <trkpt lat="49.28685" lon="-0.16437">
        <ele>68.3983</ele>
        <time>2019-03-22T15:17:44Z</time>
      </trkpt>
      <trkpt lat="49.28686" lon="-0.16432">
        <ele>68.4478</ele>
        <time>2019-03-22T15:17:47Z</time>
      </trkpt>
      <trkpt lat="49.28687" lon="-0.16424">
        <ele>68.5287</ele>
        <time>2019-03-22T15:17:52Z</time>
      </trkpt>
      <trkpt lat="49.28686" lon="-0.16416">
        <ele>68.5923</ele>
        <time>2019-03-22T15:17:56Z</time>
      </trkpt>
      <trkpt lat="49.28688" lon="-0.16409">
        <ele>68.6816</ele>
        <time>2019-03-22T15:18:01Z</time>
      </trkpt>
      <trkpt lat="49.28692" lon="-0.16403">
        <ele>68.7442</ele>
        <time>2019-03-22T15:18:06Z</time>
      </trkpt>
      <trkpt lat="49.28693" lon="-0.16397">
        <ele>68.7877</ele>
        <time>2019-03-22T15:18:09Z</time>
      </trkpt>
      <trkpt lat="49.28694" lon="-0.16389">
        <ele>68.8726</ele>
        <time>2019-03-22T15:18:14Z</time>
      </trkpt>
      <trkpt lat="49.28694" lon="-0.16385">
        <ele>68.906</ele>
        <time>2019-03-22T15:18:16Z</time>
      </trkpt>
      <trkpt lat="49.28693" lon="-0.16379">
        <ele>68.9746</ele>
        <time>2019-03-22T15:18:20Z</time>
      </trkpt>
      <trkpt lat="49.28694" lon="-0.16371">
        <ele>69.0533</ele>
        <time>2019-03-22T15:18:24Z</time>
      </trkpt>
      <trkpt lat="49.28695" lon="-0.16366">
        <ele>69.1695</ele>
        <time>2019-03-22T15:18:29Z</time>
      </trkpt>
      <trkpt lat="49.28696" lon="-0.1636">
        <ele>69.2581</ele>
        <time>2019-03-22T15:18:33Z</time>
      </trkpt>
      <trkpt lat="49.28697" lon="-0.16356">
        <ele>69.3028</ele>
        <time>2019-03-22T15:18:35Z</time>
      </trkpt>
      <trkpt lat="49.28697" lon="-0.16349">
        <ele>69.4268</ele>
        <time>2019-03-22T15:18:40Z</time>
      </trkpt>
      <trkpt lat="49.28697" lon="-0.16345">
        <ele>69.5052</ele>
        <time>2019-03-22T15:18:43Z</time>
      </trkpt>
      <trkpt lat="49.28698" lon="-0.16341">
        <ele>69.5895</ele>
        <time>2019-03-22T15:18:46Z</time>
      </trkpt>
      <trkpt lat="49.28699" lon="-0.16333">
        <ele>69.7319</ele>
        <time>2019-03-22T15:18:51Z</time>
      </trkpt>
      <trkpt lat="49.28699" lon="-0.16325">
        <ele>69.8699</ele>
        <time>2019-03-22T15:18:56Z</time>
      </trkpt>
      <trkpt lat="49.28701" lon="-0.16318">
        <ele>69.9919</ele>
        <time>2019-03-22T15:19:00Z</time>
      </trkpt>
      <trkpt lat="49.28702" lon="-0.16314">
        <ele>70.1133</ele>
        <time>2019-03-22T15:19:04Z</time>
      </trkpt>
      <trkpt lat="49.28703" lon="-0.16307">
        <ele>70.2067</ele>
        <time>2019-03-22T15:19:07Z</time>
      </trkpt>
      <trkpt lat="49.28704" lon="-0.163">
        <ele>70.3554</ele>
        <time>2019-03-22T15:19:12Z</time>
      </trkpt>
      <trkpt lat="49.28705" lon="-0.16293">
        <ele>70.4803</ele>
        <time>2019-03-22T15:19:16Z</time>
      </trkpt>
      <trkpt lat="49.28705" lon="-0.16286">
        <ele>70.6873</ele>
        <time>2019-03-22T15:19:22Z</time>
      </trkpt>
      <trkpt lat="49.28708" lon="-0.16277">
        <ele>70.859</ele>
        <time>2019-03-22T15:19:27Z</time>
      </trkpt>
      <trkpt lat="49.28709" lon="-0.16273">
        <ele>70.9617</ele>
        <time>2019-03-22T15:19:30Z</time>
      </trkpt>
      <trkpt lat="49.28711" lon="-0.16267">
        <ele>71.0897</ele>
        <time>2019-03-22T15:19:34Z</time>
      </trkpt>
      <trkpt lat="49.28712" lon="-0.1626">
        <ele>71.1846</ele>
        <time>2019-03-22T15:19:37Z</time>
      </trkpt>
      <trkpt lat="49.28712" lon="-0.16252">
        <ele>71.2846</ele>
        <time>2019-03-22T15:19:40Z</time>
      </trkpt>
      <trkpt lat="49.28712" lon="-0.16249">
        <ele>71.3523</ele>
        <time>2019-03-22T15:19:42Z</time>
      </trkpt>
      <trkpt lat="49.28712" lon="-0.16242">
        <ele>71.5485</ele>
        <time>2019-03-22T15:19:48Z</time>
      </trkpt>
      <trkpt lat="49.28713" lon="-0.16235">
        <ele>71.755</ele>
        <time>2019-03-22T15:19:54Z</time>
      </trkpt>
      <trkpt lat="49.28716" lon="-0.16229">
        <ele>71.8955</ele>
        <time>2019-03-22T15:19:58Z</time>
      </trkpt>
      <trkpt lat="49.28717" lon="-0.16223">
        <ele>72.1025</ele>
        <time>2019-03-22T15:20:04Z</time>
      </trkpt>
      <trkpt lat="49.28718" lon="-0.16215">
        <ele>72.2885</ele>
        <time>2019-03-22T15:20:09Z</time>
      </trkpt>
      <trkpt lat="49.28718" lon="-0.16207">
        <ele>72.4905</ele>
        <time>2019-03-22T15:20:14Z</time>
      </trkpt>
      <trkpt lat="49.28725" lon="-0.16204">
        <ele>72.6275</ele>
        <time>2019-03-22T15:20:19Z</time>
      </trkpt>
      <trkpt lat="49.28725" lon="-0.16204">
        <ele>72.6275</ele>
        <time>2019-03-22T15:20:26Z</time>
      </trkpt>
      <trkpt lat="49.28725" lon="-0.16204">
        <ele>3.8</ele>
        <time>2019-03-22T15:20:26Z</time>
      </trkpt>
      <trkpt lat="49.28725" lon="-0.16204">
        <ele>3.8</ele>
        <time>2019-03-22T15:21:11Z</time>
      </trkpt>
      <trkpt lat="49.28726" lon="-0.16177">
        <ele>74.2089</ele>
        <time>2019-03-22T15:21:11Z</time>
      </trkpt>
      <trkpt lat="49.28725" lon="-0.16171">
        <ele>74.3641</ele>
        <time>2019-03-22T15:21:14Z</time>
      </trkpt>
      <trkpt lat="49.28724" lon="-0.16164">
        <ele>74.6834</ele>
        <time>2019-03-22T15:21:20Z</time>
      </trkpt>
      <trkpt lat="49.28724" lon="-0.16158">
        <ele>74.8994</ele>
        <time>2019-03-22T15:21:24Z</time>
      </trkpt>
      <trkpt lat="49.28723" lon="-0.16154">
        <ele>75.0086</ele>
        <time>2019-03-22T15:21:26Z</time>
      </trkpt>
      <trkpt lat="49.28724" lon="-0.16146">
        <ele>75.2293</ele>
        <time>2019-03-22T15:21:30Z</time>
      </trkpt>
      <trkpt lat="49.28725" lon="-0.16141">
        <ele>75.3412</ele>
        <time>2019-03-22T15:21:32Z</time>
      </trkpt>
      <trkpt lat="49.28725" lon="-0.16137">
        <ele>75.4542</ele>
        <time>2019-03-22T15:21:34Z</time>
      </trkpt>
      <trkpt lat="49.28726" lon="-0.1613">
        <ele>75.6835</ele>
        <time>2019-03-22T15:21:38Z</time>
      </trkpt>
      <trkpt lat="49.28726" lon="-0.16126">
        <ele>75.9059</ele>
        <time>2019-03-22T15:21:42Z</time>
      </trkpt>
      <trkpt lat="49.28727" lon="-0.16117">
        <ele>76.2358</ele>
        <time>2019-03-22T15:21:48Z</time>
      </trkpt>
      <trkpt lat="49.28727" lon="-0.16114">
        <ele>76.3409</ele>
        <time>2019-03-22T15:21:50Z</time>
      </trkpt>
      <trkpt lat="49.28726" lon="-0.16105">
        <ele>76.5512</ele>
        <time>2019-03-22T15:21:54Z</time>
      </trkpt>
      <trkpt lat="49.28726" lon="-0.161">
        <ele>76.6558</ele>
        <time>2019-03-22T15:21:56Z</time>
      </trkpt>
      <trkpt lat="49.28726" lon="-0.16097">
        <ele>76.7612</ele>
        <time>2019-03-22T15:21:58Z</time>
      </trkpt>
      <trkpt lat="49.28726" lon="-0.16092">
        <ele>76.9199</ele>
        <time>2019-03-22T15:22:01Z</time>
      </trkpt>
      <trkpt lat="49.28726" lon="-0.16085">
        <ele>77.0803</ele>
        <time>2019-03-22T15:22:04Z</time>
      </trkpt>
      <trkpt lat="49.28726" lon="-0.16081">
        <ele>77.1885</ele>
        <time>2019-03-22T15:22:06Z</time>
      </trkpt>
      <trkpt lat="49.28729" lon="-0.16075">
        <ele>77.5653</ele>
        <time>2019-03-22T15:22:13Z</time>
      </trkpt>
      <trkpt lat="49.28731" lon="-0.16071">
        <ele>77.7242</ele>
        <time>2019-03-22T15:22:16Z</time>
      </trkpt>
      <trkpt lat="49.28732" lon="-0.16064">
        <ele>77.8822</ele>
        <time>2019-03-22T15:22:19Z</time>
      </trkpt>
      <trkpt lat="49.28733" lon="-0.16059">
        <ele>77.9879</ele>
        <time>2019-03-22T15:22:21Z</time>
      </trkpt>
      <trkpt lat="49.28734" lon="-0.16055">
        <ele>78.0936</ele>
        <time>2019-03-22T15:22:23Z</time>
      </trkpt>
      <trkpt lat="49.28736" lon="-0.16047">
        <ele>78.3065</ele>
        <time>2019-03-22T15:22:27Z</time>
      </trkpt>
      <trkpt lat="49.28738" lon="-0.16041">
        <ele>78.4653</ele>
        <time>2019-03-22T15:22:30Z</time>
      </trkpt>
      <trkpt lat="49.28741" lon="-0.16034">
        <ele>78.7348</ele>
        <time>2019-03-22T15:22:35Z</time>
      </trkpt>
      <trkpt lat="49.28742" lon="-0.16027">
        <ele>78.9559</ele>
        <time>2019-03-22T15:22:39Z</time>
      </trkpt>
      <trkpt lat="49.28742" lon="-0.16019">
        <ele>79.1173</ele>
        <time>2019-03-22T15:22:42Z</time>
      </trkpt>
      <trkpt lat="49.28742" lon="-0.16019">
        <ele>3.3</ele>
        <time>2019-03-22T15:22:49Z</time>
      </trkpt>
      <trkpt lat="49.28742" lon="-0.16019">
        <ele>3.3</ele>
        <time>2019-03-22T15:23:22Z</time>
      </trkpt>
      <trkpt lat="49.28742" lon="-0.15997">
        <ele>80.874</ele>
        <time>2019-03-22T15:23:22Z</time>
      </trkpt>
      <trkpt lat="49.28745" lon="-0.15991">
        <ele>81.0906</ele>
        <time>2019-03-22T15:23:26Z</time>
      </trkpt>
      <trkpt lat="49.28746" lon="-0.15987">
        <ele>81.1979</ele>
        <time>2019-03-22T15:23:28Z</time>
      </trkpt>
      <trkpt lat="49.28747" lon="-0.15982">
        <ele>81.3569</ele>
        <time>2019-03-22T15:23:31Z</time>
      </trkpt>
      <trkpt lat="49.2875" lon="-0.15976">
        <ele>81.5137</ele>
        <time>2019-03-22T15:23:34Z</time>
      </trkpt>
      <trkpt lat="49.28754" lon="-0.15969">
        <ele>81.7698</ele>
        <time>2019-03-22T15:23:39Z</time>
      </trkpt>
      <trkpt lat="49.28755" lon="-0.15961">
        <ele>81.9211</ele>
        <time>2019-03-22T15:23:42Z</time>
      </trkpt>
      <trkpt lat="49.28757" lon="-0.15954">
        <ele>82.1204</ele>
        <time>2019-03-22T15:23:46Z</time>
      </trkpt>
      <trkpt lat="49.28759" lon="-0.15947">
        <ele>82.314</ele>
        <time>2019-03-22T15:23:50Z</time>
      </trkpt>
      <trkpt lat="49.2876" lon="-0.15943">
        <ele>82.4082</ele>
        <time>2019-03-22T15:23:52Z</time>
      </trkpt>
      <trkpt lat="49.28762" lon="-0.15932">
        <ele>82.549</ele>
        <time>2019-03-22T15:23:55Z</time>
      </trkpt>
      <trkpt lat="49.28762" lon="-0.15924">
        <ele>82.7346</ele>
        <time>2019-03-22T15:23:59Z</time>
      </trkpt>
      <trkpt lat="49.28762" lon="-0.1592">
        <ele>82.7805</ele>
        <time>2019-03-22T15:24:00Z</time>
      </trkpt>
      <trkpt lat="49.28762" lon="-0.15913">
        <ele>82.8709</ele>
        <time>2019-03-22T15:24:02Z</time>
      </trkpt>
      <trkpt lat="49.28762" lon="-0.15908">
        <ele>82.96</ele>
        <time>2019-03-22T15:24:04Z</time>
      </trkpt>
      <trkpt lat="49.28762" lon="-0.15899">
        <ele>83.0918</ele>
        <time>2019-03-22T15:24:07Z</time>
      </trkpt>
      <trkpt lat="49.28762" lon="-0.15891">
        <ele>83.2228</ele>
        <time>2019-03-22T15:24:10Z</time>
      </trkpt>
      <trkpt lat="49.28762" lon="-0.15886">
        <ele>83.3082</ele>
        <time>2019-03-22T15:24:12Z</time>
      </trkpt>
      <trkpt lat="49.28763" lon="-0.15878">
        <ele>83.4336</ele>
        <time>2019-03-22T15:24:15Z</time>
      </trkpt>
      <trkpt lat="49.28763" lon="-0.15874">
        <ele>83.5139</ele>
        <time>2019-03-22T15:24:17Z</time>
      </trkpt>
      <trkpt lat="49.28763" lon="-0.15869">
        <ele>83.6323</ele>
        <time>2019-03-22T15:24:20Z</time>
      </trkpt>
      <trkpt lat="49.28763" lon="-0.15861">
        <ele>83.7479</ele>
        <time>2019-03-22T15:24:23Z</time>
      </trkpt>
      <trkpt lat="49.28763" lon="-0.15857">
        <ele>83.822</ele>
        <time>2019-03-22T15:24:25Z</time>
      </trkpt>
      <trkpt lat="49.28763" lon="-0.15852">
        <ele>83.9285</ele>
        <time>2019-03-22T15:24:28Z</time>
      </trkpt>
      <trkpt lat="49.28763" lon="-0.15845">
        <ele>84.0923</ele>
        <time>2019-03-22T15:24:33Z</time>
      </trkpt>
      <trkpt lat="49.28763" lon="-0.15845">
        <ele>84.0923</ele>
        <time>2019-03-22T15:24:40Z</time>
      </trkpt>
      <trkpt lat="49.28763" lon="-0.15845">
        <ele>2.8</ele>
        <time>2019-03-22T15:24:40Z</time>
      </trkpt>
      <trkpt lat="49.28763" lon="-0.15845">
        <ele>2.8</ele>
        <time>2019-03-22T15:24:48Z</time>
      </trkpt>
      <trkpt lat="49.28769" lon="-0.15828">
        <ele>84.5513</ele>
        <time>2019-03-22T15:24:48Z</time>
      </trkpt>
      <trkpt lat="49.2877" lon="-0.15824">
        <ele>84.6132</ele>
        <time>2019-03-22T15:24:50Z</time>
      </trkpt>
      <trkpt lat="49.2877" lon="-0.15819">
        <ele>84.6732</ele>
        <time>2019-03-22T15:24:52Z</time>
      </trkpt>
      <trkpt lat="49.2877" lon="-0.15815">
        <ele>84.7314</ele>
        <time>2019-03-22T15:24:54Z</time>
      </trkpt>
      <trkpt lat="49.2877" lon="-0.15807">
        <ele>84.8418</ele>
        <time>2019-03-22T15:24:58Z</time>
      </trkpt>
      <trkpt lat="49.28771" lon="-0.15799">
        <ele>84.9444</ele>
        <time>2019-03-22T15:25:02Z</time>
      </trkpt>
      <trkpt lat="49.28772" lon="-0.15792">
        <ele>85.0648</ele>
        <time>2019-03-22T15:25:07Z</time>
      </trkpt>
      <trkpt lat="49.28773" lon="-0.15788">
        <ele>85.1106</ele>
        <time>2019-03-22T15:25:09Z</time>
      </trkpt>
      <trkpt lat="49.28774" lon="-0.15783">
        <ele>85.1759</ele>
        <time>2019-03-22T15:25:12Z</time>
      </trkpt>
      <trkpt lat="49.28773" lon="-0.15775">
        <ele>85.2571</ele>
        <time>2019-03-22T15:25:16Z</time>
      </trkpt>
      <trkpt lat="49.28774" lon="-0.15768">
        <ele>85.3321</ele>
        <time>2019-03-22T15:25:20Z</time>
      </trkpt>
      <trkpt lat="49.28774" lon="-0.15765">
        <ele>85.3845</ele>
        <time>2019-03-22T15:25:23Z</time>
      </trkpt>
      <trkpt lat="49.28774" lon="-0.1576">
        <ele>85.4652</ele>
        <time>2019-03-22T15:25:28Z</time>
      </trkpt>
      <trkpt lat="49.28775" lon="-0.15752">
        <ele>85.5248</ele>
        <time>2019-03-22T15:25:32Z</time>
      </trkpt>
      <trkpt lat="49.28776" lon="-0.15749">
        <ele>85.567</ele>
        <time>2019-03-22T15:25:35Z</time>
      </trkpt>
      <trkpt lat="49.28777" lon="-0.15744">
        <ele>85.6062</ele>
        <time>2019-03-22T15:25:38Z</time>
      </trkpt>
      <trkpt lat="49.28778" lon="-0.15739">
        <ele>85.6432</ele>
        <time>2019-03-22T15:25:41Z</time>
      </trkpt>
      <trkpt lat="49.28778" lon="-0.15736">
        <ele>85.6664</ele>
        <time>2019-03-22T15:25:43Z</time>
      </trkpt>
      <trkpt lat="49.28779" lon="-0.15732">
        <ele>85.6994</ele>
        <time>2019-03-22T15:25:46Z</time>
      </trkpt>
      <trkpt lat="49.2878" lon="-0.15724">
        <ele>85.7496</ele>
        <time>2019-03-22T15:25:51Z</time>
      </trkpt>
      <trkpt lat="49.28782" lon="-0.15717">
        <ele>85.7862</ele>
        <time>2019-03-22T15:25:55Z</time>
      </trkpt>
      <trkpt lat="49.28783" lon="-0.15713">
        <ele>85.8112</ele>
        <time>2019-03-22T15:25:58Z</time>
      </trkpt>
      <trkpt lat="49.28784" lon="-0.15705">
        <ele>85.8559</ele>
        <time>2019-03-22T15:26:04Z</time>
      </trkpt>
      <trkpt lat="49.28785" lon="-0.15697">
        <ele>85.8896</ele>
        <time>2019-03-22T15:26:09Z</time>
      </trkpt>
      <trkpt lat="49.28788" lon="-0.1569">
        <ele>85.9149</ele>
        <time>2019-03-22T15:26:13Z</time>
      </trkpt>
      <trkpt lat="49.28789" lon="-0.15683">
        <ele>85.9375</ele>
        <time>2019-03-22T15:26:17Z</time>
      </trkpt>
      <trkpt lat="49.2879" lon="-0.15676">
        <ele>85.9577</ele>
        <time>2019-03-22T15:26:21Z</time>
      </trkpt>
      <trkpt lat="49.2879" lon="-0.15672">
        <ele>85.9669</ele>
        <time>2019-03-22T15:26:23Z</time>
      </trkpt>
      <trkpt lat="49.28791" lon="-0.15665">
        <ele>85.9843</ele>
        <time>2019-03-22T15:26:27Z</time>
      </trkpt>
      <trkpt lat="49.28791" lon="-0.1566">
        <ele>85.9958</ele>
        <time>2019-03-22T15:26:30Z</time>
      </trkpt>
      <trkpt lat="49.28792" lon="-0.15655">
        <ele>86.0064</ele>
        <time>2019-03-22T15:26:33Z</time>
      </trkpt>
      <trkpt lat="49.28792" lon="-0.15651">
        <ele>86.0164</ele>
        <time>2019-03-22T15:26:36Z</time>
      </trkpt>
      <trkpt lat="49.28793" lon="-0.15643">
        <ele>86.0321</ele>
        <time>2019-03-22T15:26:41Z</time>
      </trkpt>
      <trkpt lat="49.28794" lon="-0.15639">
        <ele>86.045</ele>
        <time>2019-03-22T15:26:45Z</time>
      </trkpt>
      <trkpt lat="49.28795" lon="-0.15632">
        <ele>86.0563</ele>
        <time>2019-03-22T15:26:49Z</time>
      </trkpt>
      <trkpt lat="49.28797" lon="-0.15627">
        <ele>86.0638</ele>
        <time>2019-03-22T15:26:52Z</time>
      </trkpt>
      <trkpt lat="49.28798" lon="-0.15621">
        <ele>86.0724</ele>
        <time>2019-03-22T15:26:56Z</time>
      </trkpt>
      <trkpt lat="49.28799" lon="-0.15616">
        <ele>86.0776</ele>
        <time>2019-03-22T15:26:59Z</time>
      </trkpt>
      <trkpt lat="49.288" lon="-0.15612">
        <ele>86.0817</ele>
        <time>2019-03-22T15:27:02Z</time>
      </trkpt>
      <trkpt lat="49.28801" lon="-0.15607">
        <ele>86.0849</ele>
        <time>2019-03-22T15:27:05Z</time>
      </trkpt>
      <trkpt lat="49.28802" lon="-0.15601">
        <ele>86.0886</ele>
        <time>2019-03-22T15:27:09Z</time>
      </trkpt>
      <trkpt lat="49.28803" lon="-0.15597">
        <ele>86.0914</ele>
        <time>2019-03-22T15:27:12Z</time>
      </trkpt>
      <trkpt lat="49.28804" lon="-0.15593">
        <ele>86.094</ele>
        <time>2019-03-22T15:27:15Z</time>
      </trkpt>
      <trkpt lat="49.28806" lon="-0.15586">
        <ele>86.0979</ele>
        <time>2019-03-22T15:27:19Z</time>
      </trkpt>
      <trkpt lat="49.28808" lon="-0.15579">
        <ele>86.1026</ele>
        <time>2019-03-22T15:27:24Z</time>
      </trkpt>
      <trkpt lat="49.28809" lon="-0.15574">
        <ele>86.105</ele>
        <time>2019-03-22T15:27:27Z</time>
      </trkpt>
      <trkpt lat="49.2881" lon="-0.15569">
        <ele>86.1073</ele>
        <time>2019-03-22T15:27:30Z</time>
      </trkpt>
      <trkpt lat="49.28811" lon="-0.15564">
        <ele>86.11</ele>
        <time>2019-03-22T15:27:33Z</time>
      </trkpt>
      <trkpt lat="49.28813" lon="-0.15556">
        <ele>86.1139</ele>
        <time>2019-03-22T15:27:38Z</time>
      </trkpt>
      <trkpt lat="49.28815" lon="-0.15549">
        <ele>86.1168</ele>
        <time>2019-03-22T15:27:42Z</time>
      </trkpt>
      <trkpt lat="49.28816" lon="-0.15541">
        <ele>86.1222</ele>
        <time>2019-03-22T15:27:48Z</time>
      </trkpt>
      <trkpt lat="49.28816" lon="-0.15534">
        <ele>86.1273</ele>
        <time>2019-03-22T15:27:53Z</time>
      </trkpt>
      <trkpt lat="49.28819" lon="-0.15527">
        <ele>86.1314</ele>
        <time>2019-03-22T15:27:57Z</time>
      </trkpt>
      <trkpt lat="49.28821" lon="-0.15521">
        <ele>86.1367</ele>
        <time>2019-03-22T15:28:01Z</time>
      </trkpt>
      <trkpt lat="49.28822" lon="-0.15511">
        <ele>86.1451</ele>
        <time>2019-03-22T15:28:06Z</time>
      </trkpt>
      <trkpt lat="49.28823" lon="-0.15503">
        <ele>86.1534</ele>
        <time>2019-03-22T15:28:09Z</time>
      </trkpt>
      <trkpt lat="49.28823" lon="-0.15499">
        <ele>86.1597</ele>
        <time>2019-03-22T15:28:11Z</time>
      </trkpt>
      <trkpt lat="49.28823" lon="-0.15495">
        <ele>86.1728</ele>
        <time>2019-03-22T15:28:15Z</time>
      </trkpt>
      <trkpt lat="49.28824" lon="-0.15487">
        <ele>86.1904</ele>
        <time>2019-03-22T15:28:20Z</time>
      </trkpt>
      <trkpt lat="49.28824" lon="-0.15483">
        <ele>86.2007</ele>
        <time>2019-03-22T15:28:23Z</time>
      </trkpt>
      <trkpt lat="49.28825" lon="-0.15476">
        <ele>86.2181</ele>
        <time>2019-03-22T15:28:28Z</time>
      </trkpt>
      <trkpt lat="49.28826" lon="-0.15471">
        <ele>86.2281</ele>
        <time>2019-03-22T15:28:31Z</time>
      </trkpt>
      <trkpt lat="49.28828" lon="-0.15464">
        <ele>86.2425</ele>
        <time>2019-03-22T15:28:36Z</time>
      </trkpt>
      <trkpt lat="49.28828" lon="-0.15455">
        <ele>86.255</ele>
        <time>2019-03-22T15:28:41Z</time>
      </trkpt>
      <trkpt lat="49.28829" lon="-0.1545">
        <ele>86.2614</ele>
        <time>2019-03-22T15:28:44Z</time>
      </trkpt>
      <trkpt lat="49.2883" lon="-0.15442">
        <ele>86.2717</ele>
        <time>2019-03-22T15:28:49Z</time>
      </trkpt>
      <trkpt lat="49.28831" lon="-0.15437">
        <ele>86.276</ele>
        <time>2019-03-22T15:28:51Z</time>
      </trkpt>
      <trkpt lat="49.28832" lon="-0.15433">
        <ele>86.2802</ele>
        <time>2019-03-22T15:28:53Z</time>
      </trkpt>
      <trkpt lat="49.28833" lon="-0.15429">
        <ele>86.2861</ele>
        <time>2019-03-22T15:28:56Z</time>
      </trkpt>
      <trkpt lat="49.28834" lon="-0.15421">
        <ele>86.2947</ele>
        <time>2019-03-22T15:29:02Z</time>
      </trkpt>
      <trkpt lat="49.28835" lon="-0.15417">
        <ele>86.299</ele>
        <time>2019-03-22T15:29:05Z</time>
      </trkpt>
      <trkpt lat="49.28835" lon="-0.15412">
        <ele>86.3027</ele>
        <time>2019-03-22T15:29:08Z</time>
      </trkpt>
      <trkpt lat="49.28837" lon="-0.15406">
        <ele>86.3078</ele>
        <time>2019-03-22T15:29:13Z</time>
      </trkpt>
      <trkpt lat="49.28838" lon="-0.15402">
        <ele>86.3106</ele>
        <time>2019-03-22T15:29:16Z</time>
      </trkpt>
      <trkpt lat="49.28838" lon="-0.15397">
        <ele>86.314</ele>
        <time>2019-03-22T15:29:19Z</time>
      </trkpt>
      <trkpt lat="49.28839" lon="-0.1539">
        <ele>86.3178</ele>
        <time>2019-03-22T15:29:22Z</time>
      </trkpt>
      <trkpt lat="49.2884" lon="-0.15386">
        <ele>86.3202</ele>
        <time>2019-03-22T15:29:24Z</time>
      </trkpt>
      <trkpt lat="49.28842" lon="-0.15379">
        <ele>86.3248</ele>
        <time>2019-03-22T15:29:28Z</time>
      </trkpt>
      <trkpt lat="49.28843" lon="-0.15375">
        <ele>86.3285</ele>
        <time>2019-03-22T15:29:31Z</time>
      </trkpt>
      <trkpt lat="49.28844" lon="-0.15371">
        <ele>86.3333</ele>
        <time>2019-03-22T15:29:34Z</time>
      </trkpt>
      <trkpt lat="49.28845" lon="-0.15364">
        <ele>86.3404</ele>
        <time>2019-03-22T15:29:39Z</time>
      </trkpt>
      <trkpt lat="49.28846" lon="-0.15359">
        <ele>86.3444</ele>
        <time>2019-03-22T15:29:42Z</time>
      </trkpt>
      <trkpt lat="49.28847" lon="-0.15355">
        <ele>86.3491</ele>
        <time>2019-03-22T15:29:46Z</time>
      </trkpt>
      <trkpt lat="49.28848" lon="-0.15347">
        <ele>86.359</ele>
        <time>2019-03-22T15:29:53Z</time>
      </trkpt>
      <trkpt lat="49.28848" lon="-0.1534">
        <ele>86.3645</ele>
        <time>2019-03-22T15:29:57Z</time>
      </trkpt>
      <trkpt lat="49.28848" lon="-0.15331">
        <ele>86.3732</ele>
        <time>2019-03-22T15:30:00Z</time>
      </trkpt>
      <trkpt lat="49.28848" lon="-0.15324">
        <ele>86.4003</ele>
        <time>2019-03-22T15:30:05Z</time>
      </trkpt>
      <trkpt lat="49.28848" lon="-0.15314">
        <ele>86.4339</ele>
        <time>2019-03-22T15:30:10Z</time>
      </trkpt>
      <trkpt lat="49.28848" lon="-0.1531">
        <ele>86.4512</ele>
        <time>2019-03-22T15:30:12Z</time>
      </trkpt>
      <trkpt lat="49.28848" lon="-0.15306">
        <ele>86.4686</ele>
        <time>2019-03-22T15:30:14Z</time>
      </trkpt>
      <trkpt lat="49.28847" lon="-0.15301">
        <ele>86.488</ele>
        <time>2019-03-22T15:30:16Z</time>
      </trkpt>
      <trkpt lat="49.28847" lon="-0.15295">
        <ele>86.5162</ele>
        <time>2019-03-22T15:30:19Z</time>
      </trkpt>
      <trkpt lat="49.28846" lon="-0.15291">
        <ele>86.5341</ele>
        <time>2019-03-22T15:30:21Z</time>
      </trkpt>
      <trkpt lat="49.28845" lon="-0.15283">
        <ele>86.56</ele>
        <time>2019-03-22T15:30:24Z</time>
      </trkpt>
      <trkpt lat="49.28845" lon="-0.15279">
        <ele>86.5764</ele>
        <time>2019-03-22T15:30:26Z</time>
      </trkpt>
      <trkpt lat="49.28845" lon="-0.15271">
        <ele>86.6161</ele>
        <time>2019-03-22T15:30:31Z</time>
      </trkpt>
      <trkpt lat="49.28845" lon="-0.15267">
        <ele>86.6322</ele>
        <time>2019-03-22T15:30:33Z</time>
      </trkpt>
      <trkpt lat="49.28847" lon="-0.1526">
        <ele>86.6982</ele>
        <time>2019-03-22T15:30:39Z</time>
      </trkpt>
      <trkpt lat="49.28848" lon="-0.15256">
        <ele>86.7311</ele>
        <time>2019-03-22T15:30:42Z</time>
      </trkpt>
      <trkpt lat="49.28849" lon="-0.15251">
        <ele>86.7695</ele>
        <time>2019-03-22T15:30:45Z</time>
      </trkpt>
      <trkpt lat="49.28849" lon="-0.15243">
        <ele>86.8196</ele>
        <time>2019-03-22T15:30:49Z</time>
      </trkpt>
      <trkpt lat="49.28849" lon="-0.15238">
        <ele>86.8737</ele>
        <time>2019-03-22T15:30:54Z</time>
      </trkpt>
      <trkpt lat="49.28851" lon="-0.15231">
        <ele>86.9214</ele>
        <time>2019-03-22T15:30:59Z</time>
      </trkpt>
      <trkpt lat="49.28851" lon="-0.15223">
        <ele>86.9635</ele>
        <time>2019-03-22T15:31:04Z</time>
      </trkpt>
      <trkpt lat="49.28852" lon="-0.15214">
        <ele>87.0075</ele>
        <time>2019-03-22T15:31:10Z</time>
      </trkpt>
      <trkpt lat="49.28853" lon="-0.1521">
        <ele>87.0203</ele>
        <time>2019-03-22T15:31:12Z</time>
      </trkpt>
      <trkpt lat="49.28854" lon="-0.15203">
        <ele>87.0501</ele>
        <time>2019-03-22T15:31:17Z</time>
      </trkpt>
      <trkpt lat="49.28855" lon="-0.15199">
        <ele>87.0659</ele>
        <time>2019-03-22T15:31:20Z</time>
      </trkpt>
      <trkpt lat="49.28856" lon="-0.15194">
        <ele>87.0799</ele>
        <time>2019-03-22T15:31:23Z</time>
      </trkpt>
      <trkpt lat="49.28857" lon="-0.1519">
        <ele>87.0934</ele>
        <time>2019-03-22T15:31:26Z</time>
      </trkpt>
      <trkpt lat="49.28858" lon="-0.15185">
        <ele>87.1124</ele>
        <time>2019-03-22T15:31:30Z</time>
      </trkpt>
      <trkpt lat="49.28859" lon="-0.1518">
        <ele>87.1267</ele>
        <time>2019-03-22T15:31:33Z</time>
      </trkpt>
      <trkpt lat="49.28858" lon="-0.15172">
        <ele>87.1508</ele>
        <time>2019-03-22T15:31:38Z</time>
      </trkpt>
      <trkpt lat="49.28858" lon="-0.15165">
        <ele>87.1683</ele>
        <time>2019-03-22T15:31:42Z</time>
      </trkpt>
      <trkpt lat="49.28859" lon="-0.15157">
        <ele>87.1851</ele>
        <time>2019-03-22T15:31:46Z</time>
      </trkpt>
      <trkpt lat="49.28859" lon="-0.15149">
        <ele>87.2054</ele>
        <time>2019-03-22T15:31:51Z</time>
      </trkpt>
      <trkpt lat="49.28859" lon="-0.15144">
        <ele>87.2176</ele>
        <time>2019-03-22T15:31:54Z</time>
      </trkpt>
      <trkpt lat="49.28858" lon="-0.15137">
        <ele>87.2368</ele>
        <time>2019-03-22T15:31:59Z</time>
      </trkpt>
      <trkpt lat="49.28859" lon="-0.15129">
        <ele>87.2553</ele>
        <time>2019-03-22T15:32:04Z</time>
      </trkpt>
      <trkpt lat="49.28861" lon="-0.15123">
        <ele>87.2765</ele>
        <time>2019-03-22T15:32:09Z</time>
      </trkpt>
      <trkpt lat="49.28863" lon="-0.15116">
        <ele>87.2975</ele>
        <time>2019-03-22T15:32:14Z</time>
      </trkpt>
      <trkpt lat="49.28865" lon="-0.15111">
        <ele>87.3154</ele>
        <time>2019-03-22T15:32:18Z</time>
      </trkpt>
      <trkpt lat="49.28865" lon="-0.15103">
        <ele>87.3432</ele>
        <time>2019-03-22T15:32:24Z</time>
      </trkpt>
      <trkpt lat="49.28867" lon="-0.15095">
        <ele>87.3718</ele>
        <time>2019-03-22T15:32:30Z</time>
      </trkpt>
      <trkpt lat="49.28864" lon="-0.15088">
        <ele>87.3944</ele>
        <time>2019-03-22T15:32:35Z</time>
      </trkpt>
      <trkpt lat="49.28865" lon="-0.15081">
        <ele>87.4167</ele>
        <time>2019-03-22T15:32:40Z</time>
      </trkpt>
      <trkpt lat="49.28863" lon="-0.15073">
        <ele>87.4352</ele>
        <time>2019-03-22T15:32:43Z</time>
      </trkpt>
      <trkpt lat="49.28862" lon="-0.15069">
        <ele>87.4518</ele>
        <time>2019-03-22T15:32:45Z</time>
      </trkpt>
      <trkpt lat="49.28859" lon="-0.15063">
        <ele>87.4913</ele>
        <time>2019-03-22T15:32:49Z</time>
      </trkpt>
      <trkpt lat="49.28857" lon="-0.1506">
        <ele>87.5302</ele>
        <time>2019-03-22T15:32:53Z</time>
      </trkpt>
      <trkpt lat="49.28857" lon="-0.1506">
        <ele>87.5302</ele>
        <time>2019-03-22T15:33:00Z</time>
      </trkpt>
      <trkpt lat="49.28857" lon="-0.1506">
        <ele>1.4</ele>
        <time>2019-03-22T15:33:00Z</time>
      </trkpt>
      <trkpt lat="49.28857" lon="-0.1506">
        <ele>1.4</ele>
        <time>2019-03-22T15:33:21Z</time>
      </trkpt>
      <trkpt lat="49.2886" lon="-0.15031">
        <ele>87.717</ele>
        <time>2019-03-22T15:33:21Z</time>
      </trkpt>
      <trkpt lat="49.28863" lon="-0.15024">
        <ele>87.7501</ele>
        <time>2019-03-22T15:33:24Z</time>
      </trkpt>
      <trkpt lat="49.28864" lon="-0.1502">
        <ele>87.7742</ele>
        <time>2019-03-22T15:33:26Z</time>
      </trkpt>
      <trkpt lat="49.28866" lon="-0.15013">
        <ele>87.8131</ele>
        <time>2019-03-22T15:33:29Z</time>
      </trkpt>
      <trkpt lat="49.28867" lon="-0.15007">
        <ele>87.8538</ele>
        <time>2019-03-22T15:33:32Z</time>
      </trkpt>
      <trkpt lat="49.28872" lon="-0.15003">
        <ele>87.9364</ele>
        <time>2019-03-22T15:33:38Z</time>
      </trkpt>
      <trkpt lat="49.28876" lon="-0.14998">
        <ele>87.97</ele>
        <time>2019-03-22T15:33:41Z</time>
      </trkpt>
      <trkpt lat="49.28878" lon="-0.14991">
        <ele>88.0096</ele>
        <time>2019-03-22T15:33:45Z</time>
      </trkpt>
      <trkpt lat="49.28881" lon="-0.14984">
        <ele>88.0443</ele>
        <time>2019-03-22T15:33:49Z</time>
      </trkpt>
      <trkpt lat="49.28883" lon="-0.14976">
        <ele>88.0673</ele>
        <time>2019-03-22T15:33:52Z</time>
      </trkpt>
      <trkpt lat="49.28886" lon="-0.14971">
        <ele>88.109</ele>
        <time>2019-03-22T15:33:59Z</time>
      </trkpt>
      <trkpt lat="49.28891" lon="-0.14967">
        <ele>88.1262</ele>
        <time>2019-03-22T15:34:03Z</time>
      </trkpt>
      <trkpt lat="49.28893" lon="-0.14965">
        <ele>88.1317</ele>
        <time>2019-03-22T15:34:05Z</time>
      </trkpt>
      <trkpt lat="49.28896" lon="-0.14959">
        <ele>88.1374</ele>
        <time>2019-03-22T15:34:08Z</time>
      </trkpt>
      <trkpt lat="49.28901" lon="-0.14953">
        <ele>88.143</ele>
        <time>2019-03-22T15:34:12Z</time>
      </trkpt>
      <trkpt lat="49.28904" lon="-0.14949">
        <ele>88.1462</ele>
        <time>2019-03-22T15:34:15Z</time>
      </trkpt>
      <trkpt lat="49.28903" lon="-0.1494">
        <ele>88.145</ele>
        <time>2019-03-22T15:34:20Z</time>
      </trkpt>
      <trkpt lat="49.28899" lon="-0.14935">
        <ele>88.1438</ele>
        <time>2019-03-22T15:34:24Z</time>
      </trkpt>
      <trkpt lat="49.28895" lon="-0.14931">
        <ele>88.145</ele>
        <time>2019-03-22T15:34:28Z</time>
      </trkpt>
      <trkpt lat="49.28892" lon="-0.14926">
        <ele>88.1472</ele>
        <time>2019-03-22T15:34:31Z</time>
      </trkpt>
      <trkpt lat="49.2889" lon="-0.14923">
        <ele>88.1542</ele>
        <time>2019-03-22T15:34:36Z</time>
      </trkpt>
      <trkpt lat="49.28887" lon="-0.1492">
        <ele>88.1634</ele>
        <time>2019-03-22T15:34:41Z</time>
      </trkpt>
      <trkpt lat="49.28886" lon="-0.14913">
        <ele>88.1674</ele>
        <time>2019-03-22T15:34:45Z</time>
      </trkpt>
      <trkpt lat="49.28883" lon="-0.14908">
        <ele>88.1729</ele>
        <time>2019-03-22T15:34:49Z</time>
      </trkpt>
      <trkpt lat="49.2888" lon="-0.14902">
        <ele>88.1804</ele>
        <time>2019-03-22T15:34:52Z</time>
      </trkpt>
      <trkpt lat="49.28878" lon="-0.14896">
        <ele>88.198</ele>
        <time>2019-03-22T15:34:55Z</time>
      </trkpt>
      <trkpt lat="49.28876" lon="-0.14887">
        <ele>88.2227</ele>
        <time>2019-03-22T15:34:58Z</time>
      </trkpt>
      <trkpt lat="49.28877" lon="-0.14879">
        <ele>88.2757</ele>
        <time>2019-03-22T15:35:03Z</time>
      </trkpt>
      <trkpt lat="49.28876" lon="-0.14871">
        <ele>88.3594</ele>
        <time>2019-03-22T15:35:09Z</time>
      </trkpt>
      <trkpt lat="49.28875" lon="-0.14864">
        <ele>88.4503</ele>
        <time>2019-03-22T15:35:15Z</time>
      </trkpt>
      <trkpt lat="49.28875" lon="-0.14858">
        <ele>88.4973</ele>
        <time>2019-03-22T15:35:18Z</time>
      </trkpt>
      <trkpt lat="49.28875" lon="-0.14853">
        <ele>88.5486</ele>
        <time>2019-03-22T15:35:21Z</time>
      </trkpt>
      <trkpt lat="49.28874" lon="-0.14844">
        <ele>88.6225</ele>
        <time>2019-03-22T15:35:25Z</time>
      </trkpt>
      <trkpt lat="49.28874" lon="-0.14836">
        <ele>88.7239</ele>
        <time>2019-03-22T15:35:30Z</time>
      </trkpt>
      <trkpt lat="49.28873" lon="-0.14828">
        <ele>88.8122</ele>
        <time>2019-03-22T15:35:34Z</time>
      </trkpt>
      <trkpt lat="49.28873" lon="-0.14824">
        <ele>88.8814</ele>
        <time>2019-03-22T15:35:37Z</time>
      </trkpt>
      <trkpt lat="49.28872" lon="-0.14816">
        <ele>88.9989</ele>
        <time>2019-03-22T15:35:42Z</time>
      </trkpt>
      <trkpt lat="49.28872" lon="-0.14808">
        <ele>89.0677</ele>
        <time>2019-03-22T15:35:45Z</time>
      </trkpt>
      <trkpt lat="49.28874" lon="-0.148">
        <ele>89.1648</ele>
        <time>2019-03-22T15:35:49Z</time>
      </trkpt>
      <trkpt lat="49.28875" lon="-0.14795">
        <ele>89.2351</ele>
        <time>2019-03-22T15:35:52Z</time>
      </trkpt>
      <trkpt lat="49.28874" lon="-0.14787">
        <ele>89.3725</ele>
        <time>2019-03-22T15:35:58Z</time>
      </trkpt>
      <trkpt lat="49.28874" lon="-0.14779">
        <ele>89.4417</ele>
        <time>2019-03-22T15:36:01Z</time>
      </trkpt>
      <trkpt lat="49.28875" lon="-0.14776">
        <ele>89.4881</ele>
        <time>2019-03-22T15:36:03Z</time>
      </trkpt>
      <trkpt lat="49.28875" lon="-0.14769">
        <ele>89.5802</ele>
        <time>2019-03-22T15:36:07Z</time>
      </trkpt>
      <trkpt lat="49.28874" lon="-0.14761">
        <ele>89.6948</ele>
        <time>2019-03-22T15:36:12Z</time>
      </trkpt>
      <trkpt lat="49.28874" lon="-0.14761">
        <ele>3.3</ele>
        <time>2019-03-22T15:36:20Z</time>
      </trkpt>
      <trkpt lat="49.28874" lon="-0.14761">
        <ele>3.3</ele>
        <time>2019-03-22T15:36:24Z</time>
      </trkpt>
      <trkpt lat="49.28875" lon="-0.14751">
        <ele>89.9135</ele>
        <time>2019-03-22T15:36:24Z</time>
      </trkpt>
      <trkpt lat="49.28875" lon="-0.14742">
        <ele>89.9644</ele>
        <time>2019-03-22T15:36:27Z</time>
      </trkpt>
      <trkpt lat="49.28875" lon="-0.14738">
        <ele>89.9982</ele>
        <time>2019-03-22T15:36:29Z</time>
      </trkpt>
      <trkpt lat="49.28875" lon="-0.14731">
        <ele>90.0487</ele>
        <time>2019-03-22T15:36:32Z</time>
      </trkpt>
      <trkpt lat="49.28876" lon="-0.14723">
        <ele>90.1148</ele>
        <time>2019-03-22T15:36:36Z</time>
      </trkpt>
      <trkpt lat="49.28875" lon="-0.14716">
        <ele>90.192</ele>
        <time>2019-03-22T15:36:41Z</time>
      </trkpt>
      <trkpt lat="49.28874" lon="-0.14712">
        <ele>90.2362</ele>
        <time>2019-03-22T15:36:44Z</time>
      </trkpt>
      <trkpt lat="49.28876" lon="-0.14705">
        <ele>90.3198</ele>
        <time>2019-03-22T15:36:50Z</time>
      </trkpt>
      <trkpt lat="49.28877" lon="-0.14698">
        <ele>90.347</ele>
        <time>2019-03-22T15:36:52Z</time>
      </trkpt>
      <trkpt lat="49.28878" lon="-0.14695">
        <ele>90.3616</ele>
        <time>2019-03-22T15:36:53Z</time>
      </trkpt>
      <trkpt lat="49.28877" lon="-0.14688">
        <ele>90.4235</ele>
        <time>2019-03-22T15:36:57Z</time>
      </trkpt>
      <trkpt lat="49.28878" lon="-0.14682">
        <ele>90.4828</ele>
        <time>2019-03-22T15:37:01Z</time>
      </trkpt>
      <trkpt lat="49.2888" lon="-0.14676">
        <ele>90.5383</ele>
        <time>2019-03-22T15:37:05Z</time>
      </trkpt>
      <trkpt lat="49.28881" lon="-0.14666">
        <ele>90.6037</ele>
        <time>2019-03-22T15:37:10Z</time>
      </trkpt>
      <trkpt lat="49.28882" lon="-0.14658">
        <ele>90.6537</ele>
        <time>2019-03-22T15:37:14Z</time>
      </trkpt>
      <trkpt lat="49.28883" lon="-0.14654">
        <ele>90.6773</ele>
        <time>2019-03-22T15:37:16Z</time>
      </trkpt>
      <trkpt lat="49.28884" lon="-0.1465">
        <ele>90.7115</ele>
        <time>2019-03-22T15:37:19Z</time>
      </trkpt>
      <trkpt lat="49.28884" lon="-0.14642">
        <ele>90.7652</ele>
        <time>2019-03-22T15:37:24Z</time>
      </trkpt>
      <trkpt lat="49.28884" lon="-0.14638">
        <ele>90.7953</ele>
        <time>2019-03-22T15:37:27Z</time>
      </trkpt>
      <trkpt lat="49.28886" lon="-0.1463">
        <ele>90.8377</ele>
        <time>2019-03-22T15:37:32Z</time>
      </trkpt>
      <trkpt lat="49.28887" lon="-0.14622">
        <ele>90.876</ele>
        <time>2019-03-22T15:37:37Z</time>
      </trkpt>
      <trkpt lat="49.28887" lon="-0.14618">
        <ele>90.8976</ele>
        <time>2019-03-22T15:37:40Z</time>
      </trkpt>
      <trkpt lat="49.28888" lon="-0.14613">
        <ele>90.9182</ele>
        <time>2019-03-22T15:37:43Z</time>
      </trkpt>
      <trkpt lat="49.28888" lon="-0.14608">
        <ele>90.9378</ele>
        <time>2019-03-22T15:37:46Z</time>
      </trkpt>
      <trkpt lat="49.28889" lon="-0.14601">
        <ele>90.9621</ele>
        <time>2019-03-22T15:37:50Z</time>
      </trkpt>
      <trkpt lat="49.28888" lon="-0.14593">
        <ele>90.9851</ele>
        <time>2019-03-22T15:37:54Z</time>
      </trkpt>
      <trkpt lat="49.28888" lon="-0.14586">
        <ele>91.0129</ele>
        <time>2019-03-22T15:37:59Z</time>
      </trkpt>
      <trkpt lat="49.28889" lon="-0.14582">
        <ele>91.0278</ele>
        <time>2019-03-22T15:38:02Z</time>
      </trkpt>
      <trkpt lat="49.28889" lon="-0.14578">
        <ele>91.0419</ele>
        <time>2019-03-22T15:38:05Z</time>
      </trkpt>
      <trkpt lat="49.28889" lon="-0.14573">
        <ele>91.0551</ele>
        <time>2019-03-22T15:38:08Z</time>
      </trkpt>
      <trkpt lat="49.2889" lon="-0.14569">
        <ele>91.0675</ele>
        <time>2019-03-22T15:38:11Z</time>
      </trkpt>
      <trkpt lat="49.2889" lon="-0.14564">
        <ele>91.0788</ele>
        <time>2019-03-22T15:38:14Z</time>
      </trkpt>
      <trkpt lat="49.2889" lon="-0.14558">
        <ele>91.0965</ele>
        <time>2019-03-22T15:38:19Z</time>
      </trkpt>
      <trkpt lat="49.28891" lon="-0.14554">
        <ele>91.1065</ele>
        <time>2019-03-22T15:38:22Z</time>
      </trkpt>
      <trkpt lat="49.28891" lon="-0.14549">
        <ele>91.1118</ele>
        <time>2019-03-22T15:38:24Z</time>
      </trkpt>
      <trkpt lat="49.28893" lon="-0.1454">
        <ele>91.125</ele>
        <time>2019-03-22T15:38:29Z</time>
      </trkpt>
      <trkpt lat="49.28894" lon="-0.14531">
        <ele>91.1383</ele>
        <time>2019-03-22T15:38:34Z</time>
      </trkpt>
      <trkpt lat="49.28895" lon="-0.14521">
        <ele>91.1488</ele>
        <time>2019-03-22T15:38:38Z</time>
      </trkpt>
      <trkpt lat="49.28895" lon="-0.14517">
        <ele>91.1522</ele>
        <time>2019-03-22T15:38:39Z</time>
      </trkpt>
      <trkpt lat="49.28895" lon="-0.14512">
        <ele>91.1604</ele>
        <time>2019-03-22T15:38:41Z</time>
      </trkpt>
      <trkpt lat="49.28897" lon="-0.14505">
        <ele>91.1759</ele>
        <time>2019-03-22T15:38:44Z</time>
      </trkpt>
      <trkpt lat="49.28897" lon="-0.145">
        <ele>91.1942</ele>
        <time>2019-03-22T15:38:47Z</time>
      </trkpt>
      <trkpt lat="49.28898" lon="-0.14493">
        <ele>91.2238</ele>
        <time>2019-03-22T15:38:52Z</time>
      </trkpt>
      <trkpt lat="49.289" lon="-0.14485">
        <ele>91.255</ele>
        <time>2019-03-22T15:38:58Z</time>
      </trkpt>
      <trkpt lat="49.28903" lon="-0.14478">
        <ele>91.2815</ele>
        <time>2019-03-22T15:39:05Z</time>
      </trkpt>
      <trkpt lat="49.28905" lon="-0.14472">
        <ele>91.2937</ele>
        <time>2019-03-22T15:39:09Z</time>
      </trkpt>
      <trkpt lat="49.28906" lon="-0.14465">
        <ele>91.3042</ele>
        <time>2019-03-22T15:39:13Z</time>
      </trkpt>
      <trkpt lat="49.28906" lon="-0.14461">
        <ele>91.309</ele>
        <time>2019-03-22T15:39:15Z</time>
      </trkpt>
      <trkpt lat="49.28907" lon="-0.14453">
        <ele>91.3218</ele>
        <time>2019-03-22T15:39:21Z</time>
      </trkpt>
      <trkpt lat="49.28907" lon="-0.14449">
        <ele>91.326</ele>
        <time>2019-03-22T15:39:23Z</time>
      </trkpt>
      <trkpt lat="49.28907" lon="-0.14449">
        <ele>3.7</ele>
        <time>2019-03-22T15:39:31Z</time>
      </trkpt>
      <trkpt lat="49.28907" lon="-0.14449">
        <ele>3.7</ele>
        <time>2019-03-22T15:39:35Z</time>
      </trkpt>
      <trkpt lat="49.28914" lon="-0.1444">
        <ele>91.3331</ele>
        <time>2019-03-22T15:39:35Z</time>
      </trkpt>
      <trkpt lat="49.28913" lon="-0.14433">
        <ele>91.3322</ele>
        <time>2019-03-22T15:39:40Z</time>
      </trkpt>
      <trkpt lat="49.28913" lon="-0.14428">
        <ele>91.3309</ele>
        <time>2019-03-22T15:39:42Z</time>
      </trkpt>
      <trkpt lat="49.28912" lon="-0.14424">
        <ele>91.33</ele>
        <time>2019-03-22T15:39:44Z</time>
      </trkpt>
      <trkpt lat="49.28913" lon="-0.14416">
        <ele>91.3257</ele>
        <time>2019-03-22T15:39:48Z</time>
      </trkpt>
      <trkpt lat="49.28914" lon="-0.1441">
        <ele>91.3229</ele>
        <time>2019-03-22T15:39:51Z</time>
      </trkpt>
      <trkpt lat="49.28915" lon="-0.14406">
        <ele>91.3213</ele>
        <time>2019-03-22T15:39:53Z</time>
      </trkpt>
      <trkpt lat="49.28917" lon="-0.14401">
        <ele>91.3199</ele>
        <time>2019-03-22T15:39:56Z</time>
      </trkpt>
      <trkpt lat="49.28918" lon="-0.14396">
        <ele>91.3173</ele>
        <time>2019-03-22T15:39:59Z</time>
      </trkpt>
      <trkpt lat="49.28921" lon="-0.1439">
        <ele>91.309</ele>
        <time>2019-03-22T15:40:02Z</time>
      </trkpt>
      <trkpt lat="49.28923" lon="-0.14386">
        <ele>91.2881</ele>
        <time>2019-03-22T15:40:06Z</time>
      </trkpt>
      <trkpt lat="49.28924" lon="-0.14378">
        <ele>91.2677</ele>
        <time>2019-03-22T15:40:09Z</time>
      </trkpt>
      <trkpt lat="49.28926" lon="-0.14372">
        <ele>91.2527</ele>
        <time>2019-03-22T15:40:12Z</time>
      </trkpt>
      <trkpt lat="49.28928" lon="-0.14364">
        <ele>91.2412</ele>
        <time>2019-03-22T15:40:16Z</time>
      </trkpt>
      <trkpt lat="49.28928" lon="-0.14355">
        <ele>91.2391</ele>
        <time>2019-03-22T15:40:19Z</time>
      </trkpt>
      <trkpt lat="49.28929" lon="-0.14351">
        <ele>91.2413</ele>
        <time>2019-03-22T15:40:21Z</time>
      </trkpt>
      <trkpt lat="49.28929" lon="-0.14347">
        <ele>91.2455</ele>
        <time>2019-03-22T15:40:23Z</time>
      </trkpt>
      <trkpt lat="49.28929" lon="-0.14343">
        <ele>91.2516</ele>
        <time>2019-03-22T15:40:25Z</time>
      </trkpt>
      <trkpt lat="49.2893" lon="-0.14337">
        <ele>91.2632</ele>
        <time>2019-03-22T15:40:28Z</time>
      </trkpt>
      <trkpt lat="49.28931" lon="-0.1433">
        <ele>91.2886</ele>
        <time>2019-03-22T15:40:33Z</time>
      </trkpt>
      <trkpt lat="49.28932" lon="-0.14326">
        <ele>91.3015</ele>
        <time>2019-03-22T15:40:35Z</time>
      </trkpt>
      <trkpt lat="49.28934" lon="-0.14318">
        <ele>91.332</ele>
        <time>2019-03-22T15:40:39Z</time>
      </trkpt>
      <trkpt lat="49.28934" lon="-0.14313">
        <ele>91.3586</ele>
        <time>2019-03-22T15:40:42Z</time>
      </trkpt>
      <trkpt lat="49.28935" lon="-0.14306">
        <ele>91.3984</ele>
        <time>2019-03-22T15:40:46Z</time>
      </trkpt>
      <trkpt lat="49.28937" lon="-0.14299">
        <ele>91.4578</ele>
        <time>2019-03-22T15:40:52Z</time>
      </trkpt>
      <trkpt lat="49.28938" lon="-0.14295">
        <ele>91.4851</ele>
        <time>2019-03-22T15:40:55Z</time>
      </trkpt>
      <trkpt lat="49.28939" lon="-0.14291">
        <ele>91.5025</ele>
        <time>2019-03-22T15:40:57Z</time>
      </trkpt>
      <trkpt lat="49.28939" lon="-0.14284">
        <ele>91.5422</ele>
        <time>2019-03-22T15:41:02Z</time>
      </trkpt>
      <trkpt lat="49.28939" lon="-0.14278">
        <ele>91.5711</ele>
        <time>2019-03-22T15:41:06Z</time>
      </trkpt>
      <trkpt lat="49.2894" lon="-0.14271">
        <ele>91.6048</ele>
        <time>2019-03-22T15:41:11Z</time>
      </trkpt>
      <trkpt lat="49.2894" lon="-0.14266">
        <ele>91.6236</ele>
        <time>2019-03-22T15:41:14Z</time>
      </trkpt>
      <trkpt lat="49.28941" lon="-0.14258">
        <ele>91.6587</ele>
        <time>2019-03-22T15:41:20Z</time>
      </trkpt>
      <trkpt lat="49.28942" lon="-0.14251">
        <ele>91.6838</ele>
        <time>2019-03-22T15:41:25Z</time>
      </trkpt>
      <trkpt lat="49.28944" lon="-0.14243">
        <ele>91.7086</ele>
        <time>2019-03-22T15:41:31Z</time>
      </trkpt>
      <trkpt lat="49.28944" lon="-0.14239">
        <ele>91.7191</ele>
        <time>2019-03-22T15:41:34Z</time>
      </trkpt>
      <trkpt lat="49.28945" lon="-0.14234">
        <ele>91.7286</ele>
        <time>2019-03-22T15:41:37Z</time>
      </trkpt>
      <trkpt lat="49.28946" lon="-0.14229">
        <ele>91.7371</ele>
        <time>2019-03-22T15:41:40Z</time>
      </trkpt>
      <trkpt lat="49.28946" lon="-0.14225">
        <ele>91.7406</ele>
        <time>2019-03-22T15:41:42Z</time>
      </trkpt>
      <trkpt lat="49.28947" lon="-0.14221">
        <ele>91.7433</ele>
        <time>2019-03-22T15:41:44Z</time>
      </trkpt>
      <trkpt lat="49.28948" lon="-0.14215">
        <ele>91.748</ele>
        <time>2019-03-22T15:41:49Z</time>
      </trkpt>
      <trkpt lat="49.28949" lon="-0.14207">
        <ele>91.7508</ele>
        <time>2019-03-22T15:41:54Z</time>
      </trkpt>
      <trkpt lat="49.2895" lon="-0.14202">
        <ele>91.7525</ele>
        <time>2019-03-22T15:41:57Z</time>
      </trkpt>
      <trkpt lat="49.2895" lon="-0.14198">
        <ele>91.7567</ele>
        <time>2019-03-22T15:42:00Z</time>
      </trkpt>
      <trkpt lat="49.28952" lon="-0.1419">
        <ele>91.7696</ele>
        <time>2019-03-22T15:42:06Z</time>
      </trkpt>
      <trkpt lat="49.28953" lon="-0.14178">
        <ele>91.7797</ele>
        <time>2019-03-22T15:42:10Z</time>
      </trkpt>
      <trkpt lat="49.28954" lon="-0.14171">
        <ele>91.7895</ele>
        <time>2019-03-22T15:42:14Z</time>
      </trkpt>
      <trkpt lat="49.28956" lon="-0.14164">
        <ele>91.7978</ele>
        <time>2019-03-22T15:42:17Z</time>
      </trkpt>
      <trkpt lat="49.28958" lon="-0.14156">
        <ele>91.8065</ele>
        <time>2019-03-22T15:42:20Z</time>
      </trkpt>
      <trkpt lat="49.2896" lon="-0.14149">
        <ele>91.8156</ele>
        <time>2019-03-22T15:42:24Z</time>
      </trkpt>
      <trkpt lat="49.2896" lon="-0.14145">
        <ele>91.8196</ele>
        <time>2019-03-22T15:42:26Z</time>
      </trkpt>
      <trkpt lat="49.28961" lon="-0.14136">
        <ele>91.831</ele>
        <time>2019-03-22T15:42:31Z</time>
      </trkpt>
      <trkpt lat="49.28963" lon="-0.1413">
        <ele>91.8402</ele>
        <time>2019-03-22T15:42:35Z</time>
      </trkpt>
      <trkpt lat="49.28964" lon="-0.14122">
        <ele>91.8521</ele>
        <time>2019-03-22T15:42:40Z</time>
      </trkpt>
      <trkpt lat="49.28966" lon="-0.14114">
        <ele>91.8645</ele>
        <time>2019-03-22T15:42:45Z</time>
      </trkpt>
      <trkpt lat="49.28967" lon="-0.14109">
        <ele>91.8725</ele>
        <time>2019-03-22T15:42:48Z</time>
      </trkpt>
      <trkpt lat="49.28968" lon="-0.14105">
        <ele>91.8828</ele>
        <time>2019-03-22T15:42:52Z</time>
      </trkpt>
      <trkpt lat="49.2897" lon="-0.14099">
        <ele>91.8959</ele>
        <time>2019-03-22T15:42:59Z</time>
      </trkpt>
      <trkpt lat="49.28972" lon="-0.14091">
        <ele>91.9005</ele>
        <time>2019-03-22T15:43:06Z</time>
      </trkpt>
      <trkpt lat="49.28973" lon="-0.14084">
        <ele>91.899</ele>
        <time>2019-03-22T15:43:10Z</time>
      </trkpt>
      <trkpt lat="49.28975" lon="-0.14078">
        <ele>91.8955</ele>
        <time>2019-03-22T15:43:14Z</time>
      </trkpt>
      <trkpt lat="49.28975" lon="-0.14074">
        <ele>91.891</ele>
        <time>2019-03-22T15:43:17Z</time>
      </trkpt>
      <trkpt lat="49.28975" lon="-0.14066">
        <ele>91.8809</ele>
        <time>2019-03-22T15:43:22Z</time>
      </trkpt>
      <trkpt lat="49.28976" lon="-0.14057">
        <ele>91.8738</ele>
        <time>2019-03-22T15:43:26Z</time>
      </trkpt>
      <trkpt lat="49.28976" lon="-0.14053">
        <ele>91.8716</ele>
        <time>2019-03-22T15:43:28Z</time>
      </trkpt>
      <trkpt lat="49.28977" lon="-0.14046">
        <ele>91.8687</ele>
        <time>2019-03-22T15:43:31Z</time>
      </trkpt>
      <trkpt lat="49.2898" lon="-0.14038">
        <ele>91.8637</ele>
        <time>2019-03-22T15:43:36Z</time>
      </trkpt>
      <trkpt lat="49.28981" lon="-0.1403">
        <ele>91.8605</ele>
        <time>2019-03-22T15:43:40Z</time>
      </trkpt>
      <trkpt lat="49.28981" lon="-0.14023">
        <ele>91.8583</ele>
        <time>2019-03-22T15:43:45Z</time>
      </trkpt>
      <trkpt lat="49.2898" lon="-0.14016">
        <ele>91.8541</ele>
        <time>2019-03-22T15:43:50Z</time>
      </trkpt>
      <trkpt lat="49.2898" lon="-0.14008">
        <ele>91.8491</ele>
        <time>2019-03-22T15:43:55Z</time>
      </trkpt>
      <trkpt lat="49.28981" lon="-0.14001">
        <ele>91.8386</ele>
        <time>2019-03-22T15:44:01Z</time>
      </trkpt>
      <trkpt lat="49.28982" lon="-0.13994">
        <ele>91.8251</ele>
        <time>2019-03-22T15:44:06Z</time>
      </trkpt>
      <trkpt lat="49.28982" lon="-0.13994">
        <ele>91.8251</ele>
        <time>2019-03-22T15:44:13Z</time>
      </trkpt>
      <trkpt lat="49.28982" lon="-0.13994">
        <ele>3.4</ele>
        <time>2019-03-22T15:44:13Z</time>
      </trkpt>
      <trkpt lat="49.28982" lon="-0.13994">
        <ele>3.4</ele>
        <time>2019-03-22T15:44:31Z</time>
      </trkpt>
      <trkpt lat="49.28985" lon="-0.13969">
        <ele>91.7239</ele>
        <time>2019-03-22T15:44:31Z</time>
      </trkpt>
      <trkpt lat="49.28986" lon="-0.13963">
        <ele>91.7116</ele>
        <time>2019-03-22T15:44:33Z</time>
      </trkpt>
      <trkpt lat="49.28987" lon="-0.13958">
        <ele>91.7</ele>
        <time>2019-03-22T15:44:35Z</time>
      </trkpt>
      <trkpt lat="49.28988" lon="-0.13953">
        <ele>91.6893</ele>
        <time>2019-03-22T15:44:37Z</time>
      </trkpt>
      <trkpt lat="49.28987" lon="-0.13945">
        <ele>91.6638</ele>
        <time>2019-03-22T15:44:42Z</time>
      </trkpt>
      <trkpt lat="49.28983" lon="-0.1394">
        <ele>91.6459</ele>
        <time>2019-03-22T15:44:46Z</time>
      </trkpt>
      <trkpt lat="49.28979" lon="-0.13935">
        <ele>91.6257</ele>
        <time>2019-03-22T15:44:51Z</time>
      </trkpt>
      <trkpt lat="49.28977" lon="-0.13932">
        <ele>91.6181</ele>
        <time>2019-03-22T15:44:53Z</time>
      </trkpt>
      <trkpt lat="49.28973" lon="-0.1393">
        <ele>91.5999</ele>
        <time>2019-03-22T15:44:58Z</time>
      </trkpt>
      <trkpt lat="49.28974" lon="-0.13916">
        <ele>91.5734</ele>
        <time>2019-03-22T15:45:05Z</time>
      </trkpt>
      <trkpt lat="49.28975" lon="-0.13909">
        <ele>91.5623</ele>
        <time>2019-03-22T15:45:08Z</time>
      </trkpt>
      <trkpt lat="49.28975" lon="-0.13901">
        <ele>91.5394</ele>
        <time>2019-03-22T15:45:13Z</time>
      </trkpt>
      <trkpt lat="49.28976" lon="-0.13892">
        <ele>91.5168</ele>
        <time>2019-03-22T15:45:18Z</time>
      </trkpt>
      <trkpt lat="49.28978" lon="-0.13885">
        <ele>91.502</ele>
        <time>2019-03-22T15:45:22Z</time>
      </trkpt>
      <trkpt lat="49.28979" lon="-0.13878">
        <ele>91.495</ele>
        <time>2019-03-22T15:45:25Z</time>
      </trkpt>
      <trkpt lat="49.28979" lon="-0.13875">
        <ele>91.4924</ele>
        <time>2019-03-22T15:45:27Z</time>
      </trkpt>
      <trkpt lat="49.28983" lon="-0.1387">
        <ele>91.4893</ele>
        <time>2019-03-22T15:45:32Z</time>
      </trkpt>
      <trkpt lat="49.28985" lon="-0.13868">
        <ele>91.4891</ele>
        <time>2019-03-22T15:45:34Z</time>
      </trkpt>
      <trkpt lat="49.28987" lon="-0.1386">
        <ele>91.4901</ele>
        <time>2019-03-22T15:45:37Z</time>
      </trkpt>
      <trkpt lat="49.28991" lon="-0.13854">
        <ele>91.4921</ele>
        <time>2019-03-22T15:45:41Z</time>
      </trkpt>
      <trkpt lat="49.28994" lon="-0.13847">
        <ele>91.4932</ele>
        <time>2019-03-22T15:45:45Z</time>
      </trkpt>
      <trkpt lat="49.28995" lon="-0.1384">
        <ele>91.4938</ele>
        <time>2019-03-22T15:45:48Z</time>
      </trkpt>
      <trkpt lat="49.29" lon="-0.13833">
        <ele>91.4922</ele>
        <time>2019-03-22T15:45:53Z</time>
      </trkpt>
      <trkpt lat="49.29004" lon="-0.13829">
        <ele>91.489</ele>
        <time>2019-03-22T15:45:55Z</time>
      </trkpt>
      <trkpt lat="49.29008" lon="-0.13827">
        <ele>91.4843</ele>
        <time>2019-03-22T15:45:57Z</time>
      </trkpt>
      <trkpt lat="49.29014" lon="-0.13821">
        <ele>91.4738</ele>
        <time>2019-03-22T15:46:00Z</time>
      </trkpt>
      <trkpt lat="49.29014" lon="-0.13809">
        <ele>91.4484</ele>
        <time>2019-03-22T15:46:06Z</time>
      </trkpt>
      <trkpt lat="49.29016" lon="-0.13803">
        <ele>91.424</ele>
        <time>2019-03-22T15:46:10Z</time>
      </trkpt>
      <trkpt lat="49.29019" lon="-0.13796">
        <ele>91.3939</ele>
        <time>2019-03-22T15:46:14Z</time>
      </trkpt>
      <trkpt lat="49.2902" lon="-0.13792">
        <ele>91.3775</ele>
        <time>2019-03-22T15:46:16Z</time>
      </trkpt>
      <trkpt lat="49.29018" lon="-0.13784">
        <ele>91.3332</ele>
        <time>2019-03-22T15:46:21Z</time>
      </trkpt>
      <trkpt lat="49.29016" lon="-0.13778">
        <ele>91.2855</ele>
        <time>2019-03-22T15:46:26Z</time>
      </trkpt>
      <trkpt lat="49.29017" lon="-0.13771">
        <ele>91.2457</ele>
        <time>2019-03-22T15:46:30Z</time>
      </trkpt>
      <trkpt lat="49.29017" lon="-0.13765">
        <ele>91.2154</ele>
        <time>2019-03-22T15:46:33Z</time>
      </trkpt>
      <trkpt lat="49.29018" lon="-0.13761">
        <ele>91.195</ele>
        <time>2019-03-22T15:46:35Z</time>
      </trkpt>
      <trkpt lat="49.29018" lon="-0.13753">
        <ele>91.1302</ele>
        <time>2019-03-22T15:46:41Z</time>
      </trkpt>
      <trkpt lat="49.29018" lon="-0.13746">
        <ele>91.0626</ele>
        <time>2019-03-22T15:46:47Z</time>
      </trkpt>
      <trkpt lat="49.29019" lon="-0.13738">
        <ele>91.0198</ele>
        <time>2019-03-22T15:46:51Z</time>
      </trkpt>
      <trkpt lat="49.29018" lon="-0.13729">
        <ele>90.955</ele>
        <time>2019-03-22T15:46:57Z</time>
      </trkpt>
      <trkpt lat="49.29019" lon="-0.13721">
        <ele>90.9035</ele>
        <time>2019-03-22T15:47:02Z</time>
      </trkpt>
      <trkpt lat="49.2902" lon="-0.13717">
        <ele>90.8829</ele>
        <time>2019-03-22T15:47:04Z</time>
      </trkpt>
      <trkpt lat="49.2902" lon="-0.1371">
        <ele>90.8186</ele>
        <time>2019-03-22T15:47:10Z</time>
      </trkpt>
      <trkpt lat="49.29022" lon="-0.13702">
        <ele>90.7623</ele>
        <time>2019-03-22T15:47:15Z</time>
      </trkpt>
      <trkpt lat="49.29023" lon="-0.13694">
        <ele>90.7058</ele>
        <time>2019-03-22T15:47:20Z</time>
      </trkpt>
      <trkpt lat="49.29024" lon="-0.13687">
        <ele>90.6611</ele>
        <time>2019-03-22T15:47:24Z</time>
      </trkpt>
      <trkpt lat="49.29024" lon="-0.13683">
        <ele>90.6392</ele>
        <time>2019-03-22T15:47:26Z</time>
      </trkpt>
      <trkpt lat="49.29025" lon="-0.13678">
        <ele>90.6071</ele>
        <time>2019-03-22T15:47:29Z</time>
      </trkpt>
      <trkpt lat="49.29025" lon="-0.13674">
        <ele>90.5861</ele>
        <time>2019-03-22T15:47:31Z</time>
      </trkpt>
      <trkpt lat="49.29026" lon="-0.13666">
        <ele>90.5452</ele>
        <time>2019-03-22T15:47:35Z</time>
      </trkpt>
      <trkpt lat="49.29026" lon="-0.13662">
        <ele>90.5051</ele>
        <time>2019-03-22T15:47:39Z</time>
      </trkpt>
      <trkpt lat="49.29027" lon="-0.13655">
        <ele>90.4657</ele>
        <time>2019-03-22T15:47:43Z</time>
      </trkpt>
      <trkpt lat="49.29027" lon="-0.13646">
        <ele>90.4156</ele>
        <time>2019-03-22T15:47:48Z</time>
      </trkpt>
      <trkpt lat="49.29027" lon="-0.13642">
        <ele>90.3947</ele>
        <time>2019-03-22T15:47:50Z</time>
      </trkpt>
      <trkpt lat="49.29028" lon="-0.13638">
        <ele>90.3725</ele>
        <time>2019-03-22T15:47:52Z</time>
      </trkpt>
      <trkpt lat="49.29028" lon="-0.13633">
        <ele>90.3384</ele>
        <time>2019-03-22T15:47:55Z</time>
      </trkpt>
      <trkpt lat="49.29029" lon="-0.13623">
        <ele>90.2807</ele>
        <time>2019-03-22T15:48:00Z</time>
      </trkpt>
      <trkpt lat="49.2903" lon="-0.13617">
        <ele>90.2447</ele>
        <time>2019-03-22T15:48:03Z</time>
      </trkpt>
      <trkpt lat="49.29031" lon="-0.1361">
        <ele>90.181</ele>
        <time>2019-03-22T15:48:08Z</time>
      </trkpt>
      <trkpt lat="49.29032" lon="-0.13599">
        <ele>90.1014</ele>
        <time>2019-03-22T15:48:14Z</time>
      </trkpt>
      <trkpt lat="49.29033" lon="-0.13594">
        <ele>90.0629</ele>
        <time>2019-03-22T15:48:17Z</time>
      </trkpt>
      <trkpt lat="49.29034" lon="-0.13587">
        <ele>90.0133</ele>
        <time>2019-03-22T15:48:21Z</time>
      </trkpt>
      <trkpt lat="49.29034" lon="-0.1358">
        <ele>89.9649</ele>
        <time>2019-03-22T15:48:25Z</time>
      </trkpt>
      <trkpt lat="49.29035" lon="-0.13576">
        <ele>89.9298</ele>
        <time>2019-03-22T15:48:28Z</time>
      </trkpt>
      <trkpt lat="49.29035" lon="-0.13572">
        <ele>89.9069</ele>
        <time>2019-03-22T15:48:30Z</time>
      </trkpt>
      <trkpt lat="49.29035" lon="-0.13568">
        <ele>89.8732</ele>
        <time>2019-03-22T15:48:33Z</time>
      </trkpt>
      <trkpt lat="49.29037" lon="-0.1356">
        <ele>89.8069</ele>
        <time>2019-03-22T15:48:39Z</time>
      </trkpt>
      <trkpt lat="49.29037" lon="-0.13552">
        <ele>89.7641</ele>
        <time>2019-03-22T15:48:43Z</time>
      </trkpt>
      <trkpt lat="49.29037" lon="-0.13549">
        <ele>89.7435</ele>
        <time>2019-03-22T15:48:45Z</time>
      </trkpt>
      <trkpt lat="49.29037" lon="-0.13544">
        <ele>89.7139</ele>
        <time>2019-03-22T15:48:48Z</time>
      </trkpt>
      <trkpt lat="49.29038" lon="-0.1354">
        <ele>89.695</ele>
        <time>2019-03-22T15:48:50Z</time>
      </trkpt>
      <trkpt lat="49.29038" lon="-0.13536">
        <ele>89.6761</ele>
        <time>2019-03-22T15:48:52Z</time>
      </trkpt>
      <trkpt lat="49.29039" lon="-0.13528">
        <ele>89.6387</ele>
        <time>2019-03-22T15:48:56Z</time>
      </trkpt>
      <trkpt lat="49.29039" lon="-0.13525">
        <ele>89.6199</ele>
        <time>2019-03-22T15:48:58Z</time>
      </trkpt>
      <trkpt lat="49.29041" lon="-0.13517">
        <ele>89.5735</ele>
        <time>2019-03-22T15:49:03Z</time>
      </trkpt>
      <trkpt lat="49.29044" lon="-0.13507">
        <ele>89.541</ele>
        <time>2019-03-22T15:49:07Z</time>
      </trkpt>
      <trkpt lat="49.29045" lon="-0.13501">
        <ele>89.5158</ele>
        <time>2019-03-22T15:49:11Z</time>
      </trkpt>
      <trkpt lat="49.29046" lon="-0.13496">
        <ele>89.5045</ele>
        <time>2019-03-22T15:49:13Z</time>
      </trkpt>
      <trkpt lat="49.29047" lon="-0.13493">
        <ele>89.4939</ele>
        <time>2019-03-22T15:49:15Z</time>
      </trkpt>
      <trkpt lat="49.29047" lon="-0.13485">
        <ele>89.4798</ele>
        <time>2019-03-22T15:49:18Z</time>
      </trkpt>
      <trkpt lat="49.2905" lon="-0.13479">
        <ele>89.4631</ele>
        <time>2019-03-22T15:49:22Z</time>
      </trkpt>
      <trkpt lat="49.29053" lon="-0.1347">
        <ele>89.4424</ele>
        <time>2019-03-22T15:49:28Z</time>
      </trkpt>
      <trkpt lat="49.29056" lon="-0.13465">
        <ele>89.43</ele>
        <time>2019-03-22T15:49:32Z</time>
      </trkpt>
      <trkpt lat="49.29059" lon="-0.13459">
        <ele>89.4204</ele>
        <time>2019-03-22T15:49:36Z</time>
      </trkpt>
      <trkpt lat="49.29062" lon="-0.1345">
        <ele>89.4116</ele>
        <time>2019-03-22T15:49:40Z</time>
      </trkpt>
      <trkpt lat="49.29066" lon="-0.13444">
        <ele>89.4015</ele>
        <time>2019-03-22T15:49:44Z</time>
      </trkpt>
      <trkpt lat="49.29068" lon="-0.1344">
        <ele>89.3936</ele>
        <time>2019-03-22T15:49:47Z</time>
      </trkpt>
      <trkpt lat="49.29071" lon="-0.13435">
        <ele>89.3826</ele>
        <time>2019-03-22T15:49:51Z</time>
      </trkpt>
      <trkpt lat="49.29072" lon="-0.13428">
        <ele>89.3731</ele>
        <time>2019-03-22T15:49:54Z</time>
      </trkpt>
      <trkpt lat="49.29074" lon="-0.13421">
        <ele>89.3573</ele>
        <time>2019-03-22T15:49:58Z</time>
      </trkpt>
      <trkpt lat="49.29074" lon="-0.13421">
        <ele>4</ele>
        <time>2019-03-22T15:50:05Z</time>
      </trkpt>
      <trkpt lat="49.29074" lon="-0.13421">
        <ele>4</ele>
        <time>2019-03-22T15:50:10Z</time>
      </trkpt>
      <trkpt lat="49.29074" lon="-0.13406">
        <ele>89.2838</ele>
        <time>2019-03-22T15:50:10Z</time>
      </trkpt>
      <trkpt lat="49.29075" lon="-0.13403">
        <ele>89.2679</ele>
        <time>2019-03-22T15:50:12Z</time>
      </trkpt>
      <trkpt lat="49.29076" lon="-0.13398">
        <ele>89.2512</ele>
        <time>2019-03-22T15:50:14Z</time>
      </trkpt>
      <trkpt lat="49.29076" lon="-0.13391">
        <ele>89.2256</ele>
        <time>2019-03-22T15:50:17Z</time>
      </trkpt>
      <trkpt lat="49.29078" lon="-0.13385">
        <ele>89.1893</ele>
        <time>2019-03-22T15:50:21Z</time>
      </trkpt>
      <trkpt lat="49.29081" lon="-0.13377">
        <ele>89.1394</ele>
        <time>2019-03-22T15:50:26Z</time>
      </trkpt>
      <trkpt lat="49.29082" lon="-0.13374">
        <ele>89.1185</ele>
        <time>2019-03-22T15:50:28Z</time>
      </trkpt>
      <trkpt lat="49.29083" lon="-0.13366">
        <ele>89.075</ele>
        <time>2019-03-22T15:50:32Z</time>
      </trkpt>
      <trkpt lat="49.29083" lon="-0.13361">
        <ele>89.0415</ele>
        <time>2019-03-22T15:50:35Z</time>
      </trkpt>
      <trkpt lat="49.29084" lon="-0.13354">
        <ele>88.996</ele>
        <time>2019-03-22T15:50:39Z</time>
      </trkpt>
      <trkpt lat="49.29085" lon="-0.13349">
        <ele>88.9503</ele>
        <time>2019-03-22T15:50:43Z</time>
      </trkpt>
      <trkpt lat="49.29085" lon="-0.13344">
        <ele>88.9165</ele>
        <time>2019-03-22T15:50:46Z</time>
      </trkpt>
      <trkpt lat="49.29085" lon="-0.13336">
        <ele>88.86</ele>
        <time>2019-03-22T15:50:51Z</time>
      </trkpt>
      <trkpt lat="49.29086" lon="-0.13327">
        <ele>88.8141</ele>
        <time>2019-03-22T15:50:55Z</time>
      </trkpt>
      <trkpt lat="49.29088" lon="-0.1332">
        <ele>88.7673</ele>
        <time>2019-03-22T15:50:59Z</time>
      </trkpt>
      <trkpt lat="49.29089" lon="-0.13312">
        <ele>88.721</ele>
        <time>2019-03-22T15:51:03Z</time>
      </trkpt>
      <trkpt lat="49.2909" lon="-0.13308">
        <ele>88.6869</ele>
        <time>2019-03-22T15:51:06Z</time>
      </trkpt>
      <trkpt lat="49.2909" lon="-0.13302">
        <ele>88.6531</ele>
        <time>2019-03-22T15:51:09Z</time>
      </trkpt>
      <trkpt lat="49.29091" lon="-0.13298">
        <ele>88.6311</ele>
        <time>2019-03-22T15:51:11Z</time>
      </trkpt>
      <trkpt lat="49.29093" lon="-0.13291">
        <ele>88.5888</ele>
        <time>2019-03-22T15:51:15Z</time>
      </trkpt>
      <trkpt lat="49.29093" lon="-0.13287">
        <ele>88.5677</ele>
        <time>2019-03-22T15:51:17Z</time>
      </trkpt>
      <trkpt lat="49.29094" lon="-0.13282">
        <ele>88.536</ele>
        <time>2019-03-22T15:51:20Z</time>
      </trkpt>
      <trkpt lat="49.29096" lon="-0.13275">
        <ele>88.4939</ele>
        <time>2019-03-22T15:51:24Z</time>
      </trkpt>
      <trkpt lat="49.29098" lon="-0.13271">
        <ele>88.4627</ele>
        <time>2019-03-22T15:51:27Z</time>
      </trkpt>
      <trkpt lat="49.29098" lon="-0.13264">
        <ele>88.4213</ele>
        <time>2019-03-22T15:51:31Z</time>
      </trkpt>
      <trkpt lat="49.29099" lon="-0.1326">
        <ele>88.4011</ele>
        <time>2019-03-22T15:51:33Z</time>
      </trkpt>
      <trkpt lat="49.29101" lon="-0.13254">
        <ele>88.3609</ele>
        <time>2019-03-22T15:51:37Z</time>
      </trkpt>
      <trkpt lat="49.29101" lon="-0.13247">
        <ele>88.3217</ele>
        <time>2019-03-22T15:51:41Z</time>
      </trkpt>
      <trkpt lat="49.29103" lon="-0.13239">
        <ele>88.2742</ele>
        <time>2019-03-22T15:51:46Z</time>
      </trkpt>
      <trkpt lat="49.29103" lon="-0.13234">
        <ele>88.2461</ele>
        <time>2019-03-22T15:51:49Z</time>
      </trkpt>
      <trkpt lat="49.29102" lon="-0.13228">
        <ele>88.2093</ele>
        <time>2019-03-22T15:51:53Z</time>
      </trkpt>
      <trkpt lat="49.29103" lon="-0.1322">
        <ele>88.1653</ele>
        <time>2019-03-22T15:51:58Z</time>
      </trkpt>
      <trkpt lat="49.29104" lon="-0.13211">
        <ele>88.123</ele>
        <time>2019-03-22T15:52:03Z</time>
      </trkpt>
      <trkpt lat="49.29106" lon="-0.13204">
        <ele>88.0819</ele>
        <time>2019-03-22T15:52:08Z</time>
      </trkpt>
      <trkpt lat="49.29108" lon="-0.13198">
        <ele>88.05</ele>
        <time>2019-03-22T15:52:12Z</time>
      </trkpt>
      <trkpt lat="49.29109" lon="-0.13191">
        <ele>88.0189</ele>
        <time>2019-03-22T15:52:16Z</time>
      </trkpt>
      <trkpt lat="49.29109" lon="-0.13187">
        <ele>88.0037</ele>
        <time>2019-03-22T15:52:18Z</time>
      </trkpt>
      <trkpt lat="49.29109" lon="-0.13183">
        <ele>87.9813</ele>
        <time>2019-03-22T15:52:21Z</time>
      </trkpt>
      <trkpt lat="49.29111" lon="-0.13176">
        <ele>87.9517</ele>
        <time>2019-03-22T15:52:25Z</time>
      </trkpt>
      <trkpt lat="49.29111" lon="-0.13167">
        <ele>87.9053</ele>
        <time>2019-03-22T15:52:31Z</time>
      </trkpt>
      <trkpt lat="49.29112" lon="-0.1316">
        <ele>87.8733</ele>
        <time>2019-03-22T15:52:35Z</time>
      </trkpt>
      <trkpt lat="49.29113" lon="-0.13155">
        <ele>87.8572</ele>
        <time>2019-03-22T15:52:37Z</time>
      </trkpt>
      <trkpt lat="49.29115" lon="-0.13148">
        <ele>87.8246</ele>
        <time>2019-03-22T15:52:41Z</time>
      </trkpt>
      <trkpt lat="49.29116" lon="-0.13141">
        <ele>87.7918</ele>
        <time>2019-03-22T15:52:45Z</time>
      </trkpt>
      <trkpt lat="49.29116" lon="-0.13135">
        <ele>87.7675</ele>
        <time>2019-03-22T15:52:48Z</time>
      </trkpt>
      <trkpt lat="49.29117" lon="-0.13132">
        <ele>87.7515</ele>
        <time>2019-03-22T15:52:50Z</time>
      </trkpt>
      <trkpt lat="49.29118" lon="-0.13125">
        <ele>87.7204</ele>
        <time>2019-03-22T15:52:54Z</time>
      </trkpt>
      <trkpt lat="49.29119" lon="-0.13121">
        <ele>87.7053</ele>
        <time>2019-03-22T15:52:56Z</time>
      </trkpt>
      <trkpt lat="49.2912" lon="-0.13115">
        <ele>87.6834</ele>
        <time>2019-03-22T15:52:59Z</time>
      </trkpt>
      <trkpt lat="49.2912" lon="-0.13112">
        <ele>87.6686</ele>
        <time>2019-03-22T15:53:01Z</time>
      </trkpt>
      <trkpt lat="49.29121" lon="-0.13107">
        <ele>87.6468</ele>
        <time>2019-03-22T15:53:04Z</time>
      </trkpt>
      <trkpt lat="49.29122" lon="-0.13103">
        <ele>87.6324</ele>
        <time>2019-03-22T15:53:06Z</time>
      </trkpt>
      <trkpt lat="49.29122" lon="-0.13099">
        <ele>87.6112</ele>
        <time>2019-03-22T15:53:09Z</time>
      </trkpt>
      <trkpt lat="49.29123" lon="-0.13095">
        <ele>87.597</ele>
        <time>2019-03-22T15:53:11Z</time>
      </trkpt>
      <trkpt lat="49.29125" lon="-0.13086">
        <ele>87.5614</ele>
        <time>2019-03-22T15:53:16Z</time>
      </trkpt>
      <trkpt lat="49.29126" lon="-0.1308">
        <ele>87.5327</ele>
        <time>2019-03-22T15:53:20Z</time>
      </trkpt>
      <trkpt lat="49.29127" lon="-0.13076">
        <ele>87.5183</ele>
        <time>2019-03-22T15:53:22Z</time>
      </trkpt>
      <trkpt lat="49.29127" lon="-0.13072">
        <ele>87.5039</ele>
        <time>2019-03-22T15:53:24Z</time>
      </trkpt>
      <trkpt lat="49.29128" lon="-0.13065">
        <ele>87.4746</ele>
        <time>2019-03-22T15:53:28Z</time>
      </trkpt>
      <trkpt lat="49.2913" lon="-0.13058">
        <ele>87.4534</ele>
        <time>2019-03-22T15:53:31Z</time>
      </trkpt>
      <trkpt lat="49.29133" lon="-0.1305">
        <ele>87.4238</ele>
        <time>2019-03-22T15:53:36Z</time>
      </trkpt>
      <trkpt lat="49.29134" lon="-0.13047">
        <ele>87.4184</ele>
        <time>2019-03-22T15:53:37Z</time>
      </trkpt>
      <trkpt lat="49.29137" lon="-0.1304">
        <ele>87.4026</ele>
        <time>2019-03-22T15:53:40Z</time>
      </trkpt>
      <trkpt lat="49.29139" lon="-0.13033">
        <ele>87.3829</ele>
        <time>2019-03-22T15:53:44Z</time>
      </trkpt>
      <trkpt lat="49.2914" lon="-0.13029">
        <ele>87.3737</ele>
        <time>2019-03-22T15:53:46Z</time>
      </trkpt>
      <trkpt lat="49.29148" lon="-0.13024">
        <ele>87.3521</ele>
        <time>2019-03-22T15:53:51Z</time>
      </trkpt>
      <trkpt lat="49.29154" lon="-0.13015">
        <ele>87.3383</ele>
        <time>2019-03-22T15:53:54Z</time>
      </trkpt>
      <trkpt lat="49.29154" lon="-0.13015">
        <ele>2.9</ele>
        <time>2019-03-22T15:54:01Z</time>
      </trkpt>
      <trkpt lat="49.29154" lon="-0.13015">
        <ele>2.9</ele>
        <time>2019-03-22T15:54:05Z</time>
      </trkpt>
      <trkpt lat="49.29146" lon="-0.13001">
        <ele>87.2933</ele>
        <time>2019-03-22T15:54:05Z</time>
      </trkpt>
      <trkpt lat="49.29146" lon="-0.12997">
        <ele>87.281</ele>
        <time>2019-03-22T15:54:07Z</time>
      </trkpt>
      <trkpt lat="49.29145" lon="-0.12991">
        <ele>87.2616</ele>
        <time>2019-03-22T15:54:10Z</time>
      </trkpt>
      <trkpt lat="49.29147" lon="-0.12983">
        <ele>87.2347</ele>
        <time>2019-03-22T15:54:14Z</time>
      </trkpt>
      <trkpt lat="49.29148" lon="-0.12975">
        <ele>87.2005</ele>
        <time>2019-03-22T15:54:19Z</time>
      </trkpt>
      <trkpt lat="49.2915" lon="-0.12969">
        <ele>87.1715</ele>
        <time>2019-03-22T15:54:23Z</time>
      </trkpt>
      <trkpt lat="49.2915" lon="-0.12962">
        <ele>87.1349</ele>
        <time>2019-03-22T15:54:28Z</time>
      </trkpt>
      <trkpt lat="49.29151" lon="-0.12954">
        <ele>87.1002</ele>
        <time>2019-03-22T15:54:33Z</time>
      </trkpt>
      <trkpt lat="49.29151" lon="-0.12951">
        <ele>87.0866</ele>
        <time>2019-03-22T15:54:35Z</time>
      </trkpt>
      <trkpt lat="49.29152" lon="-0.12946">
        <ele>87.0661</ele>
        <time>2019-03-22T15:54:38Z</time>
      </trkpt>
      <trkpt lat="49.29152" lon="-0.12942">
        <ele>87.0526</ele>
        <time>2019-03-22T15:54:40Z</time>
      </trkpt>
      <trkpt lat="49.29153" lon="-0.12938">
        <ele>87.0393</ele>
        <time>2019-03-22T15:54:42Z</time>
      </trkpt>
      <trkpt lat="49.29153" lon="-0.12934">
        <ele>87.0261</ele>
        <time>2019-03-22T15:54:44Z</time>
      </trkpt>
      <trkpt lat="49.29155" lon="-0.12927">
        <ele>86.994</ele>
        <time>2019-03-22T15:54:49Z</time>
      </trkpt>
      <trkpt lat="49.29156" lon="-0.1292">
        <ele>86.9693</ele>
        <time>2019-03-22T15:54:53Z</time>
      </trkpt>
      <trkpt lat="49.29158" lon="-0.12912">
        <ele>86.9457</ele>
        <time>2019-03-22T15:54:57Z</time>
      </trkpt>
      <trkpt lat="49.29159" lon="-0.12907">
        <ele>86.9284</ele>
        <time>2019-03-22T15:55:00Z</time>
      </trkpt>
      <trkpt lat="49.2916" lon="-0.12903">
        <ele>86.9172</ele>
        <time>2019-03-22T15:55:02Z</time>
      </trkpt>
      <trkpt lat="49.29161" lon="-0.12899">
        <ele>86.9014</ele>
        <time>2019-03-22T15:55:05Z</time>
      </trkpt>
      <trkpt lat="49.29162" lon="-0.12895">
        <ele>86.8865</ele>
        <time>2019-03-22T15:55:08Z</time>
      </trkpt>
      <trkpt lat="49.29162" lon="-0.12892">
        <ele>86.8765</ele>
        <time>2019-03-22T15:55:10Z</time>
      </trkpt>
      <trkpt lat="49.29163" lon="-0.12886">
        <ele>86.8571</ele>
        <time>2019-03-22T15:55:14Z</time>
      </trkpt>
      <trkpt lat="49.29164" lon="-0.12882">
        <ele>86.8427</ele>
        <time>2019-03-22T15:55:17Z</time>
      </trkpt>
      <trkpt lat="49.29165" lon="-0.12877">
        <ele>86.823</ele>
        <time>2019-03-22T15:55:21Z</time>
      </trkpt>
      <trkpt lat="49.29165" lon="-0.12874">
        <ele>86.8125</ele>
        <time>2019-03-22T15:55:23Z</time>
      </trkpt>
      <trkpt lat="49.29166" lon="-0.12868">
        <ele>86.7962</ele>
        <time>2019-03-22T15:55:26Z</time>
      </trkpt>
      <trkpt lat="49.29168" lon="-0.12863">
        <ele>86.7796</ele>
        <time>2019-03-22T15:55:29Z</time>
      </trkpt>
      <trkpt lat="49.29169" lon="-0.12859">
        <ele>86.769</ele>
        <time>2019-03-22T15:55:31Z</time>
      </trkpt>
      <trkpt lat="49.2917" lon="-0.12854">
        <ele>86.7535</ele>
        <time>2019-03-22T15:55:34Z</time>
      </trkpt>
      <trkpt lat="49.29171" lon="-0.12846">
        <ele>86.726</ele>
        <time>2019-03-22T15:55:39Z</time>
      </trkpt>
      <trkpt lat="49.29172" lon="-0.12842">
        <ele>86.7142</ele>
        <time>2019-03-22T15:55:41Z</time>
      </trkpt>
      <trkpt lat="49.29173" lon="-0.12839">
        <ele>86.7027</ele>
        <time>2019-03-22T15:55:43Z</time>
      </trkpt>
      <trkpt lat="49.29174" lon="-0.12832">
        <ele>86.6807</ele>
        <time>2019-03-22T15:55:47Z</time>
      </trkpt>
      <trkpt lat="49.29175" lon="-0.12824">
        <ele>86.6605</ele>
        <time>2019-03-22T15:55:51Z</time>
      </trkpt>
      <trkpt lat="49.29176" lon="-0.1282">
        <ele>86.6511</ele>
        <time>2019-03-22T15:55:53Z</time>
      </trkpt>
      <trkpt lat="49.29177" lon="-0.12812">
        <ele>86.6279</ele>
        <time>2019-03-22T15:55:58Z</time>
      </trkpt>
      <trkpt lat="49.29178" lon="-0.12808">
        <ele>86.6144</ele>
        <time>2019-03-22T15:56:01Z</time>
      </trkpt>
      <trkpt lat="49.2918" lon="-0.128">
        <ele>86.5926</ele>
        <time>2019-03-22T15:56:06Z</time>
      </trkpt>
      <trkpt lat="49.29181" lon="-0.12793">
        <ele>86.5755</ele>
        <time>2019-03-22T15:56:10Z</time>
      </trkpt>
      <trkpt lat="49.29182" lon="-0.12785">
        <ele>86.559</ele>
        <time>2019-03-22T15:56:14Z</time>
      </trkpt>
      <trkpt lat="49.29184" lon="-0.12778">
        <ele>86.5416</ele>
        <time>2019-03-22T15:56:18Z</time>
      </trkpt>
      <trkpt lat="49.29184" lon="-0.1277">
        <ele>86.5245</ele>
        <time>2019-03-22T15:56:22Z</time>
      </trkpt>
      <trkpt lat="49.29186" lon="-0.12763">
        <ele>86.5023</ele>
        <time>2019-03-22T15:56:27Z</time>
      </trkpt>
      <trkpt lat="49.29188" lon="-0.12755">
        <ele>86.4845</ele>
        <time>2019-03-22T15:56:31Z</time>
      </trkpt>
      <trkpt lat="49.29189" lon="-0.12748">
        <ele>86.4613</ele>
        <time>2019-03-22T15:56:36Z</time>
      </trkpt>
      <trkpt lat="49.2919" lon="-0.12742">
        <ele>86.4398</ele>
        <time>2019-03-22T15:56:40Z</time>
      </trkpt>
      <trkpt lat="49.29192" lon="-0.12733">
        <ele>86.4113</ele>
        <time>2019-03-22T15:56:45Z</time>
      </trkpt>
      <trkpt lat="49.29192" lon="-0.12729">
        <ele>86.3997</ele>
        <time>2019-03-22T15:56:47Z</time>
      </trkpt>
      <trkpt lat="49.29194" lon="-0.12723">
        <ele>86.3884</ele>
        <time>2019-03-22T15:56:49Z</time>
      </trkpt>
      <trkpt lat="49.29197" lon="-0.12717">
        <ele>86.3715</ele>
        <time>2019-03-22T15:56:52Z</time>
      </trkpt>
      <trkpt lat="49.29201" lon="-0.1271">
        <ele>86.3555</ele>
        <time>2019-03-22T15:56:55Z</time>
      </trkpt>
      <trkpt lat="49.29206" lon="-0.12701">
        <ele>86.3316</ele>
        <time>2019-03-22T15:57:00Z</time>
      </trkpt>
      <trkpt lat="49.2921" lon="-0.12694">
        <ele>86.3097</ele>
        <time>2019-03-22T15:57:05Z</time>
      </trkpt>
      <trkpt lat="49.29211" lon="-0.12691">
        <ele>86.3021</ele>
        <time>2019-03-22T15:57:07Z</time>
      </trkpt>
      <trkpt lat="49.29212" lon="-0.12684">
        <ele>86.2891</ele>
        <time>2019-03-22T15:57:11Z</time>
      </trkpt>
      <trkpt lat="49.29215" lon="-0.12675">
        <ele>86.2801</ele>
        <time>2019-03-22T15:57:14Z</time>
      </trkpt>
      <trkpt lat="49.29214" lon="-0.12669">
        <ele>86.2684</ele>
        <time>2019-03-22T15:57:18Z</time>
      </trkpt>
      <trkpt lat="49.29212" lon="-0.12664">
        <ele>86.2581</ele>
        <time>2019-03-22T15:57:22Z</time>
      </trkpt>
      <trkpt lat="49.29211" lon="-0.12657">
        <ele>86.2426</ele>
        <time>2019-03-22T15:57:27Z</time>
      </trkpt>
      <trkpt lat="49.2921" lon="-0.12649">
        <ele>86.2242</ele>
        <time>2019-03-22T15:57:32Z</time>
      </trkpt>
      <trkpt lat="49.29212" lon="-0.12642">
        <ele>86.2096</ele>
        <time>2019-03-22T15:57:36Z</time>
      </trkpt>
      <trkpt lat="49.29212" lon="-0.12639">
        <ele>86.2007</ele>
        <time>2019-03-22T15:57:38Z</time>
      </trkpt>
      <trkpt lat="49.29213" lon="-0.12635">
        <ele>86.1923</ele>
        <time>2019-03-22T15:57:40Z</time>
      </trkpt>
      <trkpt lat="49.29214" lon="-0.1263">
        <ele>86.1801</ele>
        <time>2019-03-22T15:57:43Z</time>
      </trkpt>
      <trkpt lat="49.29215" lon="-0.12624">
        <ele>86.1679</ele>
        <time>2019-03-22T15:57:46Z</time>
      </trkpt>
      <trkpt lat="49.29216" lon="-0.12619">
        <ele>86.155</ele>
        <time>2019-03-22T15:57:49Z</time>
      </trkpt>
      <trkpt lat="49.29219" lon="-0.12611">
        <ele>86.1359</ele>
        <time>2019-03-22T15:57:53Z</time>
      </trkpt>
      <trkpt lat="49.2922" lon="-0.12606">
        <ele>86.1269</ele>
        <time>2019-03-22T15:57:55Z</time>
      </trkpt>
      <trkpt lat="49.29222" lon="-0.12602">
        <ele>86.1184</ele>
        <time>2019-03-22T15:57:57Z</time>
      </trkpt>
      <trkpt lat="49.29225" lon="-0.12594">
        <ele>86.1032</ele>
        <time>2019-03-22T15:58:01Z</time>
      </trkpt>
      <trkpt lat="49.29226" lon="-0.12591">
        <ele>86.0954</ele>
        <time>2019-03-22T15:58:03Z</time>
      </trkpt>
      <trkpt lat="49.2923" lon="-0.12587">
        <ele>86.0824</ele>
        <time>2019-03-22T15:58:06Z</time>
      </trkpt>
      <trkpt lat="49.29234" lon="-0.1258">
        <ele>86.0534</ele>
        <time>2019-03-22T15:58:11Z</time>
      </trkpt>
      <trkpt lat="49.29235" lon="-0.12569">
        <ele>86.006</ele>
        <time>2019-03-22T15:58:18Z</time>
      </trkpt>
      <trkpt lat="49.29238" lon="-0.12563">
        <ele>85.9807</ele>
        <time>2019-03-22T15:58:22Z</time>
      </trkpt>
      <trkpt lat="49.29239" lon="-0.12556">
        <ele>85.9569</ele>
        <time>2019-03-22T15:58:26Z</time>
      </trkpt>
      <trkpt lat="49.2923" lon="-0.12554">
        <ele>85.926</ele>
        <time>2019-03-22T15:58:31Z</time>
      </trkpt>
      <trkpt lat="49.29237" lon="-0.1254">
        <ele>85.885</ele>
        <time>2019-03-22T15:58:38Z</time>
      </trkpt>
      <trkpt lat="49.29236" lon="-0.12532">
        <ele>85.8713</ele>
        <time>2019-03-22T15:58:41Z</time>
      </trkpt>
      <trkpt lat="49.29237" lon="-0.12528">
        <ele>85.8418</ele>
        <time>2019-03-22T15:58:46Z</time>
      </trkpt>
      <trkpt lat="49.29237" lon="-0.12528">
        <ele>5.4</ele>
        <time>2019-03-22T15:58:53Z</time>
      </trkpt>
      <trkpt lat="49.29237" lon="-0.12528">
        <ele>5.4</ele>
        <time>2019-03-22T15:59:00Z</time>
      </trkpt>
      <trkpt lat="49.29237" lon="-0.12524">
        <ele>85.7653</ele>
        <time>2019-03-22T15:59:00Z</time>
      </trkpt>
      <trkpt lat="49.29237" lon="-0.12524">
        <ele>85.7653</ele>
        <time>2019-03-22T16:02:08Z</time>
      </trkpt>
      <trkpt lat="49.29237" lon="-0.12524">
        <ele>5.5</ele>
        <time>2019-03-22T16:02:27Z</time>
      </trkpt>
      <trkpt lat="49.29237" lon="-0.12524">
        <ele>5.5</ele>
        <time>2019-03-22T16:19:54Z</time>
      </trkpt>
      <trkpt lat="49.29227" lon="-0.12531">
        <ele>64.0009</ele>
        <time>2019-03-22T16:19:54Z</time>
      </trkpt>
      <trkpt lat="49.29228" lon="-0.12524">
        <ele>63.914</ele>
        <time>2019-03-22T16:19:58Z</time>
      </trkpt>
      <trkpt lat="49.29228" lon="-0.12518">
        <ele>63.8527</ele>
        <time>2019-03-22T16:20:01Z</time>
      </trkpt>
      <trkpt lat="49.29228" lon="-0.12514">
        <ele>63.8133</ele>
        <time>2019-03-22T16:20:03Z</time>
      </trkpt>
      <trkpt lat="49.29231" lon="-0.12506">
        <ele>63.7198</ele>
        <time>2019-03-22T16:20:08Z</time>
      </trkpt>
      <trkpt lat="49.29232" lon="-0.125">
        <ele>63.6504</ele>
        <time>2019-03-22T16:20:12Z</time>
      </trkpt>
      <trkpt lat="49.29235" lon="-0.12493">
        <ele>63.5838</ele>
        <time>2019-03-22T16:20:16Z</time>
      </trkpt>
      <trkpt lat="49.29236" lon="-0.12486">
        <ele>63.5054</ele>
        <time>2019-03-22T16:20:21Z</time>
      </trkpt>
      <trkpt lat="49.29237" lon="-0.12481">
        <ele>63.4609</ele>
        <time>2019-03-22T16:20:24Z</time>
      </trkpt>
      <trkpt lat="49.29238" lon="-0.12477">
        <ele>63.4177</ele>
        <time>2019-03-22T16:20:27Z</time>
      </trkpt>
      <trkpt lat="49.29239" lon="-0.12472">
        <ele>63.3767</ele>
        <time>2019-03-22T16:20:30Z</time>
      </trkpt>
      <trkpt lat="49.29239" lon="-0.12467">
        <ele>63.3378</ele>
        <time>2019-03-22T16:20:33Z</time>
      </trkpt>
      <trkpt lat="49.29241" lon="-0.1246">
        <ele>63.2873</ele>
        <time>2019-03-22T16:20:37Z</time>
      </trkpt>
      <trkpt lat="49.29241" lon="-0.12453">
        <ele>63.2392</ele>
        <time>2019-03-22T16:20:41Z</time>
      </trkpt>
      <trkpt lat="49.29243" lon="-0.12446">
        <ele>63.1928</ele>
        <time>2019-03-22T16:20:45Z</time>
      </trkpt>
      <trkpt lat="49.29246" lon="-0.12439">
        <ele>63.1366</ele>
        <time>2019-03-22T16:20:50Z</time>
      </trkpt>
      <trkpt lat="49.29248" lon="-0.12434">
        <ele>63.1039</ele>
        <time>2019-03-22T16:20:53Z</time>
      </trkpt>
      <trkpt lat="49.29249" lon="-0.12426">
        <ele>63.0655</ele>
        <time>2019-03-22T16:20:57Z</time>
      </trkpt>
      <trkpt lat="49.29249" lon="-0.12419">
        <ele>63.0339</ele>
        <time>2019-03-22T16:21:01Z</time>
      </trkpt>
      <trkpt lat="49.29252" lon="-0.12411">
        <ele>63.0045</ele>
        <time>2019-03-22T16:21:05Z</time>
      </trkpt>
      <trkpt lat="49.29254" lon="-0.12407">
        <ele>62.9914</ele>
        <time>2019-03-22T16:21:07Z</time>
      </trkpt>
      <trkpt lat="49.29256" lon="-0.12401">
        <ele>62.9733</ele>
        <time>2019-03-22T16:21:10Z</time>
      </trkpt>
      <trkpt lat="49.29259" lon="-0.12394">
        <ele>62.9502</ele>
        <time>2019-03-22T16:21:14Z</time>
      </trkpt>
      <trkpt lat="49.29261" lon="-0.12386">
        <ele>62.9195</ele>
        <time>2019-03-22T16:21:19Z</time>
      </trkpt>
      <trkpt lat="49.29263" lon="-0.12382">
        <ele>62.8999</ele>
        <time>2019-03-22T16:21:22Z</time>
      </trkpt>
      <trkpt lat="49.29264" lon="-0.12375">
        <ele>62.8722</ele>
        <time>2019-03-22T16:21:26Z</time>
      </trkpt>
      <trkpt lat="49.29265" lon="-0.12368">
        <ele>62.8345</ele>
        <time>2019-03-22T16:21:31Z</time>
      </trkpt>
      <trkpt lat="49.29267" lon="-0.12361">
        <ele>62.8096</ele>
        <time>2019-03-22T16:21:34Z</time>
      </trkpt>
      <trkpt lat="49.29267" lon="-0.12353">
        <ele>62.7666</ele>
        <time>2019-03-22T16:21:39Z</time>
      </trkpt>
      <trkpt lat="49.29267" lon="-0.12348">
        <ele>62.7409</ele>
        <time>2019-03-22T16:21:42Z</time>
      </trkpt>
      <trkpt lat="49.29268" lon="-0.1234">
        <ele>62.7002</ele>
        <time>2019-03-22T16:21:47Z</time>
      </trkpt>
      <trkpt lat="49.29269" lon="-0.12334">
        <ele>62.679</ele>
        <time>2019-03-22T16:21:50Z</time>
      </trkpt>
      <trkpt lat="49.29271" lon="-0.12325">
        <ele>62.6471</ele>
        <time>2019-03-22T16:21:54Z</time>
      </trkpt>
      <trkpt lat="49.29272" lon="-0.12318">
        <ele>62.5994</ele>
        <time>2019-03-22T16:21:59Z</time>
      </trkpt>
      <trkpt lat="49.29274" lon="-0.12311">
        <ele>62.5566</ele>
        <time>2019-03-22T16:22:03Z</time>
      </trkpt>
      <trkpt lat="49.29276" lon="-0.12307">
        <ele>62.5234</ele>
        <time>2019-03-22T16:22:06Z</time>
      </trkpt>
      <trkpt lat="49.29278" lon="-0.12301">
        <ele>62.4826</ele>
        <time>2019-03-22T16:22:10Z</time>
      </trkpt>
      <trkpt lat="49.2928" lon="-0.12291">
        <ele>62.4336</ele>
        <time>2019-03-22T16:22:15Z</time>
      </trkpt>
      <trkpt lat="49.29279" lon="-0.12284">
        <ele>62.3997</ele>
        <time>2019-03-22T16:22:19Z</time>
      </trkpt>
      <trkpt lat="49.2928" lon="-0.12277">
        <ele>62.3653</ele>
        <time>2019-03-22T16:22:24Z</time>
      </trkpt>
      <trkpt lat="49.2928" lon="-0.12273">
        <ele>62.3531</ele>
        <time>2019-03-22T16:22:26Z</time>
      </trkpt>
      <trkpt lat="49.29281" lon="-0.1227">
        <ele>62.3421</ele>
        <time>2019-03-22T16:22:28Z</time>
      </trkpt>
      <trkpt lat="49.29283" lon="-0.12262">
        <ele>62.3205</ele>
        <time>2019-03-22T16:22:32Z</time>
      </trkpt>
      <trkpt lat="49.29284" lon="-0.12255">
        <ele>62.3011</ele>
        <time>2019-03-22T16:22:36Z</time>
      </trkpt>
      <trkpt lat="49.29286" lon="-0.12247">
        <ele>62.2806</ele>
        <time>2019-03-22T16:22:40Z</time>
      </trkpt>
      <trkpt lat="49.29287" lon="-0.12243">
        <ele>62.2637</ele>
        <time>2019-03-22T16:22:43Z</time>
      </trkpt>
      <trkpt lat="49.29288" lon="-0.12239">
        <ele>62.253</ele>
        <time>2019-03-22T16:22:45Z</time>
      </trkpt>
      <trkpt lat="49.29289" lon="-0.12231">
        <ele>62.2297</ele>
        <time>2019-03-22T16:22:50Z</time>
      </trkpt>
      <trkpt lat="49.29291" lon="-0.12224">
        <ele>62.2141</ele>
        <time>2019-03-22T16:22:54Z</time>
      </trkpt>
      <trkpt lat="49.29292" lon="-0.1222">
        <ele>62.2053</ele>
        <time>2019-03-22T16:22:56Z</time>
      </trkpt>
      <trkpt lat="49.29294" lon="-0.12213">
        <ele>62.1875</ele>
        <time>2019-03-22T16:23:01Z</time>
      </trkpt>
      <trkpt lat="49.29294" lon="-0.1221">
        <ele>62.1815</ele>
        <time>2019-03-22T16:23:03Z</time>
      </trkpt>
      <trkpt lat="49.29295" lon="-0.12202">
        <ele>62.1682</ele>
        <time>2019-03-22T16:23:08Z</time>
      </trkpt>
      <trkpt lat="49.29295" lon="-0.12197">
        <ele>62.1652</ele>
        <time>2019-03-22T16:23:10Z</time>
      </trkpt>
      <trkpt lat="49.29297" lon="-0.1219">
        <ele>62.1609</ele>
        <time>2019-03-22T16:23:14Z</time>
      </trkpt>
      <trkpt lat="49.29298" lon="-0.12182">
        <ele>62.162</ele>
        <time>2019-03-22T16:23:19Z</time>
      </trkpt>
      <trkpt lat="49.293" lon="-0.12175">
        <ele>62.1689</ele>
        <time>2019-03-22T16:23:23Z</time>
      </trkpt>
      <trkpt lat="49.29301" lon="-0.1217">
        <ele>62.1767</ele>
        <time>2019-03-22T16:23:26Z</time>
      </trkpt>
      <trkpt lat="49.29303" lon="-0.12164">
        <ele>62.1855</ele>
        <time>2019-03-22T16:23:29Z</time>
      </trkpt>
      <trkpt lat="49.29305" lon="-0.12157">
        <ele>62.1919</ele>
        <time>2019-03-22T16:23:32Z</time>
      </trkpt>
      <trkpt lat="49.29306" lon="-0.12152">
        <ele>62.1994</ele>
        <time>2019-03-22T16:23:35Z</time>
      </trkpt>
      <trkpt lat="49.29307" lon="-0.12148">
        <ele>62.2076</ele>
        <time>2019-03-22T16:23:38Z</time>
      </trkpt>
      <trkpt lat="49.2931" lon="-0.12141">
        <ele>62.215</ele>
        <time>2019-03-22T16:23:42Z</time>
      </trkpt>
      <trkpt lat="49.29311" lon="-0.12135">
        <ele>62.2222</ele>
        <time>2019-03-22T16:23:46Z</time>
      </trkpt>
      <trkpt lat="49.29312" lon="-0.1213">
        <ele>62.2261</ele>
        <time>2019-03-22T16:23:48Z</time>
      </trkpt>
      <trkpt lat="49.29313" lon="-0.12123">
        <ele>62.2351</ele>
        <time>2019-03-22T16:23:52Z</time>
      </trkpt>
      <trkpt lat="49.29315" lon="-0.12115">
        <ele>62.2404</ele>
        <time>2019-03-22T16:23:56Z</time>
      </trkpt>
      <trkpt lat="49.29315" lon="-0.12108">
        <ele>62.2427</ele>
        <time>2019-03-22T16:24:00Z</time>
      </trkpt>
      <trkpt lat="49.29317" lon="-0.12102">
        <ele>62.2402</ele>
        <time>2019-03-22T16:24:04Z</time>
      </trkpt>
      <trkpt lat="49.29318" lon="-0.12094">
        <ele>62.2342</ele>
        <time>2019-03-22T16:24:08Z</time>
      </trkpt>
      <trkpt lat="49.2932" lon="-0.12088">
        <ele>62.2223</ele>
        <time>2019-03-22T16:24:12Z</time>
      </trkpt>
      <trkpt lat="49.29321" lon="-0.12081">
        <ele>62.2064</ele>
        <time>2019-03-22T16:24:16Z</time>
      </trkpt>
      <trkpt lat="49.29321" lon="-0.12074">
        <ele>62.1903</ele>
        <time>2019-03-22T16:24:20Z</time>
      </trkpt>
      <trkpt lat="49.29324" lon="-0.12066">
        <ele>62.1693</ele>
        <time>2019-03-22T16:24:25Z</time>
      </trkpt>
      <trkpt lat="49.29325" lon="-0.1206">
        <ele>62.1517</ele>
        <time>2019-03-22T16:24:29Z</time>
      </trkpt>
      <trkpt lat="49.29327" lon="-0.12055">
        <ele>62.1335</ele>
        <time>2019-03-22T16:24:33Z</time>
      </trkpt>
      <trkpt lat="49.29328" lon="-0.12047">
        <ele>62.1147</ele>
        <time>2019-03-22T16:24:38Z</time>
      </trkpt>
      <trkpt lat="49.29328" lon="-0.1204">
        <ele>62.105</ele>
        <time>2019-03-22T16:24:41Z</time>
      </trkpt>
      <trkpt lat="49.29329" lon="-0.12035">
        <ele>62.098</ele>
        <time>2019-03-22T16:24:43Z</time>
      </trkpt>
      <trkpt lat="49.29331" lon="-0.12028">
        <ele>62.0843</ele>
        <time>2019-03-22T16:24:47Z</time>
      </trkpt>
      <trkpt lat="49.29332" lon="-0.12024">
        <ele>62.0749</ele>
        <time>2019-03-22T16:24:50Z</time>
      </trkpt>
      <trkpt lat="49.29334" lon="-0.12016">
        <ele>62.0613</ele>
        <time>2019-03-22T16:24:55Z</time>
      </trkpt>
      <trkpt lat="49.29334" lon="-0.12012">
        <ele>62.0546</ele>
        <time>2019-03-22T16:24:58Z</time>
      </trkpt>
      <trkpt lat="49.29337" lon="-0.12005">
        <ele>62.0424</ele>
        <time>2019-03-22T16:25:02Z</time>
      </trkpt>
      <trkpt lat="49.29338" lon="-0.11996">
        <ele>62.0291</ele>
        <time>2019-03-22T16:25:06Z</time>
      </trkpt>
      <trkpt lat="49.29338" lon="-0.11992">
        <ele>62.0229</ele>
        <time>2019-03-22T16:25:08Z</time>
      </trkpt>
      <trkpt lat="49.2934" lon="-0.11984">
        <ele>62.0065</ele>
        <time>2019-03-22T16:25:13Z</time>
      </trkpt>
      <trkpt lat="49.29341" lon="-0.11981">
        <ele>61.9993</ele>
        <time>2019-03-22T16:25:15Z</time>
      </trkpt>
      <trkpt lat="49.29342" lon="-0.11977">
        <ele>61.9917</ele>
        <time>2019-03-22T16:25:17Z</time>
      </trkpt>
      <trkpt lat="49.29343" lon="-0.11972">
        <ele>61.9797</ele>
        <time>2019-03-22T16:25:20Z</time>
      </trkpt>
      <trkpt lat="49.29344" lon="-0.11968">
        <ele>61.9713</ele>
        <time>2019-03-22T16:25:22Z</time>
      </trkpt>
      <trkpt lat="49.29345" lon="-0.11961">
        <ele>61.9538</ele>
        <time>2019-03-22T16:25:26Z</time>
      </trkpt>
      <trkpt lat="49.29347" lon="-0.11954">
        <ele>61.9369</ele>
        <time>2019-03-22T16:25:30Z</time>
      </trkpt>
      <trkpt lat="49.29349" lon="-0.11946">
        <ele>61.9185</ele>
        <time>2019-03-22T16:25:35Z</time>
      </trkpt>
      <trkpt lat="49.2935" lon="-0.11943">
        <ele>61.909</ele>
        <time>2019-03-22T16:25:38Z</time>
      </trkpt>
      <trkpt lat="49.2935" lon="-0.11935">
        <ele>61.8946</ele>
        <time>2019-03-22T16:25:42Z</time>
      </trkpt>
      <trkpt lat="49.29352" lon="-0.11927">
        <ele>61.8744</ele>
        <time>2019-03-22T16:25:47Z</time>
      </trkpt>
      <trkpt lat="49.29354" lon="-0.11921">
        <ele>61.8568</ele>
        <time>2019-03-22T16:25:51Z</time>
      </trkpt>
      <trkpt lat="49.29355" lon="-0.11913">
        <ele>61.8388</ele>
        <time>2019-03-22T16:25:55Z</time>
      </trkpt>
      <trkpt lat="49.29355" lon="-0.1191">
        <ele>61.8301</ele>
        <time>2019-03-22T16:25:57Z</time>
      </trkpt>
      <trkpt lat="49.29358" lon="-0.11904">
        <ele>61.8128</ele>
        <time>2019-03-22T16:26:01Z</time>
      </trkpt>
      <trkpt lat="49.29358" lon="-0.11897">
        <ele>61.797</ele>
        <time>2019-03-22T16:26:05Z</time>
      </trkpt>
      <trkpt lat="49.29359" lon="-0.1189">
        <ele>61.7819</ele>
        <time>2019-03-22T16:26:09Z</time>
      </trkpt>
      <trkpt lat="49.29361" lon="-0.11881">
        <ele>61.7685</ele>
        <time>2019-03-22T16:26:13Z</time>
      </trkpt>
      <trkpt lat="49.29362" lon="-0.11877">
        <ele>61.7609</ele>
        <time>2019-03-22T16:26:15Z</time>
      </trkpt>
      <trkpt lat="49.29363" lon="-0.11873">
        <ele>61.7535</ele>
        <time>2019-03-22T16:26:17Z</time>
      </trkpt>
      <trkpt lat="49.29363" lon="-0.11869">
        <ele>61.746</ele>
        <time>2019-03-22T16:26:19Z</time>
      </trkpt>
      <trkpt lat="49.29364" lon="-0.11866">
        <ele>61.7388</ele>
        <time>2019-03-22T16:26:21Z</time>
      </trkpt>
      <trkpt lat="49.29365" lon="-0.11863">
        <ele>61.7318</ele>
        <time>2019-03-22T16:26:23Z</time>
      </trkpt>
      <trkpt lat="49.29366" lon="-0.11857">
        <ele>61.7183</ele>
        <time>2019-03-22T16:26:27Z</time>
      </trkpt>
      <trkpt lat="49.29367" lon="-0.11853">
        <ele>61.7115</ele>
        <time>2019-03-22T16:26:29Z</time>
      </trkpt>
      <trkpt lat="49.29368" lon="-0.11848">
        <ele>61.7023</ele>
        <time>2019-03-22T16:26:32Z</time>
      </trkpt>
      <trkpt lat="49.29369" lon="-0.11845">
        <ele>61.6967</ele>
        <time>2019-03-22T16:26:34Z</time>
      </trkpt>
      <trkpt lat="49.29371" lon="-0.11838">
        <ele>61.688</ele>
        <time>2019-03-22T16:26:37Z</time>
      </trkpt>
      <trkpt lat="49.29372" lon="-0.11831">
        <ele>61.6768</ele>
        <time>2019-03-22T16:26:41Z</time>
      </trkpt>
      <trkpt lat="49.29373" lon="-0.11827">
        <ele>61.6718</ele>
        <time>2019-03-22T16:26:43Z</time>
      </trkpt>
      <trkpt lat="49.29373" lon="-0.11823">
        <ele>61.6667</ele>
        <time>2019-03-22T16:26:45Z</time>
      </trkpt>
      <trkpt lat="49.29375" lon="-0.11818">
        <ele>61.659</ele>
        <time>2019-03-22T16:26:48Z</time>
      </trkpt>
      <trkpt lat="49.29376" lon="-0.11812">
        <ele>61.6436</ele>
        <time>2019-03-22T16:26:53Z</time>
      </trkpt>
      <trkpt lat="49.29377" lon="-0.11808">
        <ele>61.6368</ele>
        <time>2019-03-22T16:26:55Z</time>
      </trkpt>
      <trkpt lat="49.29378" lon="-0.11804">
        <ele>61.6278</ele>
        <time>2019-03-22T16:26:58Z</time>
      </trkpt>
      <trkpt lat="49.29379" lon="-0.11797">
        <ele>61.6152</ele>
        <time>2019-03-22T16:27:02Z</time>
      </trkpt>
      <trkpt lat="49.29381" lon="-0.11789">
        <ele>61.6029</ele>
        <time>2019-03-22T16:27:06Z</time>
      </trkpt>
      <trkpt lat="49.29382" lon="-0.11785">
        <ele>61.5974</ele>
        <time>2019-03-22T16:27:08Z</time>
      </trkpt>
      <trkpt lat="49.29384" lon="-0.11778">
        <ele>61.5887</ele>
        <time>2019-03-22T16:27:12Z</time>
      </trkpt>
      <trkpt lat="49.29385" lon="-0.11775">
        <ele>61.5849</ele>
        <time>2019-03-22T16:27:14Z</time>
      </trkpt>
      <trkpt lat="49.29385" lon="-0.11767">
        <ele>61.5786</ele>
        <time>2019-03-22T16:27:18Z</time>
      </trkpt>
      <trkpt lat="49.29388" lon="-0.1176">
        <ele>61.5703</ele>
        <time>2019-03-22T16:27:23Z</time>
      </trkpt>
      <trkpt lat="49.2939" lon="-0.11752">
        <ele>61.565</ele>
        <time>2019-03-22T16:27:27Z</time>
      </trkpt>
      <trkpt lat="49.29391" lon="-0.11743">
        <ele>61.5587</ele>
        <time>2019-03-22T16:27:32Z</time>
      </trkpt>
      <trkpt lat="49.29392" lon="-0.11736">
        <ele>61.5534</ele>
        <time>2019-03-22T16:27:36Z</time>
      </trkpt>
      <trkpt lat="49.29394" lon="-0.11728">
        <ele>61.5456</ele>
        <time>2019-03-22T16:27:41Z</time>
      </trkpt>
      <trkpt lat="49.29396" lon="-0.11721">
        <ele>61.5419</ele>
        <time>2019-03-22T16:27:46Z</time>
      </trkpt>
      <trkpt lat="49.29397" lon="-0.11713">
        <ele>61.5394</ele>
        <time>2019-03-22T16:27:50Z</time>
      </trkpt>
      <trkpt lat="49.29398" lon="-0.1171">
        <ele>61.5385</ele>
        <time>2019-03-22T16:27:52Z</time>
      </trkpt>
      <trkpt lat="49.294" lon="-0.11702">
        <ele>61.5336</ele>
        <time>2019-03-22T16:27:56Z</time>
      </trkpt>
      <trkpt lat="49.29401" lon="-0.11693">
        <ele>61.5248</ele>
        <time>2019-03-22T16:28:00Z</time>
      </trkpt>
      <trkpt lat="49.29401" lon="-0.11687">
        <ele>61.5188</ele>
        <time>2019-03-22T16:28:03Z</time>
      </trkpt>
      <trkpt lat="49.29401" lon="-0.11683">
        <ele>61.515</ele>
        <time>2019-03-22T16:28:05Z</time>
      </trkpt>
      <trkpt lat="49.29401" lon="-0.11677">
        <ele>61.5086</ele>
        <time>2019-03-22T16:28:08Z</time>
      </trkpt>
      <trkpt lat="49.29402" lon="-0.11671">
        <ele>61.4975</ele>
        <time>2019-03-22T16:28:12Z</time>
      </trkpt>
      <trkpt lat="49.29404" lon="-0.11664">
        <ele>61.4789</ele>
        <time>2019-03-22T16:28:17Z</time>
      </trkpt>
      <trkpt lat="49.29405" lon="-0.11657">
        <ele>61.4625</ele>
        <time>2019-03-22T16:28:21Z</time>
      </trkpt>
      <trkpt lat="49.29406" lon="-0.11652">
        <ele>61.452</ele>
        <time>2019-03-22T16:28:24Z</time>
      </trkpt>
      <trkpt lat="49.29407" lon="-0.11645">
        <ele>61.4428</ele>
        <time>2019-03-22T16:28:27Z</time>
      </trkpt>
      <trkpt lat="49.29408" lon="-0.11638">
        <ele>61.4326</ele>
        <time>2019-03-22T16:28:32Z</time>
      </trkpt>
      <trkpt lat="49.29409" lon="-0.1163">
        <ele>61.4244</ele>
        <time>2019-03-22T16:28:37Z</time>
      </trkpt>
      <trkpt lat="49.2941" lon="-0.11625">
        <ele>61.4175</ele>
        <time>2019-03-22T16:28:40Z</time>
      </trkpt>
      <trkpt lat="49.29411" lon="-0.11619">
        <ele>61.4075</ele>
        <time>2019-03-22T16:28:44Z</time>
      </trkpt>
      <trkpt lat="49.29412" lon="-0.11611">
        <ele>61.3936</ele>
        <time>2019-03-22T16:28:48Z</time>
      </trkpt>
      <trkpt lat="49.29412" lon="-0.11603">
        <ele>61.3798</ele>
        <time>2019-03-22T16:28:52Z</time>
      </trkpt>
      <trkpt lat="49.29415" lon="-0.11597">
        <ele>61.3657</ele>
        <time>2019-03-22T16:28:56Z</time>
      </trkpt>
      <trkpt lat="49.29417" lon="-0.11591">
        <ele>61.3521</ele>
        <time>2019-03-22T16:29:00Z</time>
      </trkpt>
      <trkpt lat="49.29418" lon="-0.11588">
        <ele>61.3421</ele>
        <time>2019-03-22T16:29:03Z</time>
      </trkpt>
      <trkpt lat="49.29419" lon="-0.11584">
        <ele>61.3353</ele>
        <time>2019-03-22T16:29:05Z</time>
      </trkpt>
      <trkpt lat="49.2942" lon="-0.11577">
        <ele>61.3223</ele>
        <time>2019-03-22T16:29:09Z</time>
      </trkpt>
      <trkpt lat="49.29421" lon="-0.11572">
        <ele>61.3158</ele>
        <time>2019-03-22T16:29:11Z</time>
      </trkpt>
      <trkpt lat="49.29422" lon="-0.11564">
        <ele>61.3026</ele>
        <time>2019-03-22T16:29:15Z</time>
      </trkpt>
      <trkpt lat="49.29422" lon="-0.11557">
        <ele>61.2943</ele>
        <time>2019-03-22T16:29:18Z</time>
      </trkpt>
      <trkpt lat="49.29421" lon="-0.11552">
        <ele>61.2864</ele>
        <time>2019-03-22T16:29:21Z</time>
      </trkpt>
      <trkpt lat="49.29422" lon="-0.11544">
        <ele>61.2719</ele>
        <time>2019-03-22T16:29:26Z</time>
      </trkpt>
      <trkpt lat="49.29422" lon="-0.11537">
        <ele>61.2585</ele>
        <time>2019-03-22T16:29:31Z</time>
      </trkpt>
      <trkpt lat="49.29422" lon="-0.11537">
        <ele>7.8</ele>
        <time>2019-03-22T16:29:38Z</time>
      </trkpt>
      <trkpt lat="49.29422" lon="-0.11537">
        <ele>7.8</ele>
        <time>2019-03-22T16:29:42Z</time>
      </trkpt>
      <trkpt lat="49.29424" lon="-0.11529">
        <ele>61.237</ele>
        <time>2019-03-22T16:29:42Z</time>
      </trkpt>
      <trkpt lat="49.29423" lon="-0.11522">
        <ele>61.2302</ele>
        <time>2019-03-22T16:29:46Z</time>
      </trkpt>
      <trkpt lat="49.29424" lon="-0.11515">
        <ele>61.2253</ele>
        <time>2019-03-22T16:29:50Z</time>
      </trkpt>
      <trkpt lat="49.29424" lon="-0.11511">
        <ele>61.2233</ele>
        <time>2019-03-22T16:29:52Z</time>
      </trkpt>
      <trkpt lat="49.29427" lon="-0.11503">
        <ele>61.2196</ele>
        <time>2019-03-22T16:29:56Z</time>
      </trkpt>
      <trkpt lat="49.29428" lon="-0.115">
        <ele>61.218</ele>
        <time>2019-03-22T16:29:58Z</time>
      </trkpt>
      <trkpt lat="49.2943" lon="-0.11494">
        <ele>61.216</ele>
        <time>2019-03-22T16:30:01Z</time>
      </trkpt>
      <trkpt lat="49.29432" lon="-0.11487">
        <ele>61.2155</ele>
        <time>2019-03-22T16:30:04Z</time>
      </trkpt>
      <trkpt lat="49.29434" lon="-0.1148">
        <ele>61.2195</ele>
        <time>2019-03-22T16:30:08Z</time>
      </trkpt>
      <trkpt lat="49.29436" lon="-0.11473">
        <ele>61.2321</ele>
        <time>2019-03-22T16:30:12Z</time>
      </trkpt>
      <trkpt lat="49.29438" lon="-0.11467">
        <ele>61.2534</ele>
        <time>2019-03-22T16:30:16Z</time>
      </trkpt>
      <trkpt lat="49.2944" lon="-0.11461">
        <ele>61.2822</ele>
        <time>2019-03-22T16:30:20Z</time>
      </trkpt>
      <trkpt lat="49.29443" lon="-0.11454">
        <ele>61.3135</ele>
        <time>2019-03-22T16:30:24Z</time>
      </trkpt>
      <trkpt lat="49.29445" lon="-0.1145">
        <ele>61.3293</ele>
        <time>2019-03-22T16:30:26Z</time>
      </trkpt>
      <trkpt lat="49.29447" lon="-0.11443">
        <ele>61.3632</ele>
        <time>2019-03-22T16:30:30Z</time>
      </trkpt>
      <trkpt lat="49.2945" lon="-0.11437">
        <ele>61.3984</ele>
        <time>2019-03-22T16:30:34Z</time>
      </trkpt>
      <trkpt lat="49.29451" lon="-0.11433">
        <ele>61.4164</ele>
        <time>2019-03-22T16:30:36Z</time>
      </trkpt>
      <trkpt lat="49.29454" lon="-0.11427">
        <ele>61.4523</ele>
        <time>2019-03-22T16:30:40Z</time>
      </trkpt>
      <trkpt lat="49.29454" lon="-0.1142">
        <ele>61.4918</ele>
        <time>2019-03-22T16:30:44Z</time>
      </trkpt>
      <trkpt lat="49.29455" lon="-0.11416">
        <ele>61.5134</ele>
        <time>2019-03-22T16:30:46Z</time>
      </trkpt>
      <trkpt lat="49.29455" lon="-0.1141">
        <ele>61.5581</ele>
        <time>2019-03-22T16:30:50Z</time>
      </trkpt>
      <trkpt lat="49.29457" lon="-0.11402">
        <ele>61.6014</ele>
        <time>2019-03-22T16:30:54Z</time>
      </trkpt>
      <trkpt lat="49.29458" lon="-0.11394">
        <ele>61.6416</ele>
        <time>2019-03-22T16:30:58Z</time>
      </trkpt>
      <trkpt lat="49.29459" lon="-0.11387">
        <ele>61.7105</ele>
        <time>2019-03-22T16:31:04Z</time>
      </trkpt>
      <trkpt lat="49.29461" lon="-0.1138">
        <ele>61.761</ele>
        <time>2019-03-22T16:31:08Z</time>
      </trkpt>
      <trkpt lat="49.29463" lon="-0.11373">
        <ele>61.8187</ele>
        <time>2019-03-22T16:31:12Z</time>
      </trkpt>
      <trkpt lat="49.29464" lon="-0.11364">
        <ele>61.8888</ele>
        <time>2019-03-22T16:31:17Z</time>
      </trkpt>
      <trkpt lat="49.29465" lon="-0.1136">
        <ele>61.9168</ele>
        <time>2019-03-22T16:31:19Z</time>
      </trkpt>
      <trkpt lat="49.29466" lon="-0.11355">
        <ele>61.9591</ele>
        <time>2019-03-22T16:31:22Z</time>
      </trkpt>
      <trkpt lat="49.29467" lon="-0.11352">
        <ele>61.9865</ele>
        <time>2019-03-22T16:31:24Z</time>
      </trkpt>
      <trkpt lat="49.29467" lon="-0.11348">
        <ele>62.0134</ele>
        <time>2019-03-22T16:31:26Z</time>
      </trkpt>
      <trkpt lat="49.29468" lon="-0.11344">
        <ele>62.04</ele>
        <time>2019-03-22T16:31:28Z</time>
      </trkpt>
      <trkpt lat="49.29469" lon="-0.1134">
        <ele>62.0667</ele>
        <time>2019-03-22T16:31:30Z</time>
      </trkpt>
      <trkpt lat="49.29471" lon="-0.11332">
        <ele>62.1336</ele>
        <time>2019-03-22T16:31:35Z</time>
      </trkpt>
      <trkpt lat="49.29472" lon="-0.11326">
        <ele>62.1846</ele>
        <time>2019-03-22T16:31:39Z</time>
      </trkpt>
      <trkpt lat="49.29475" lon="-0.11319">
        <ele>62.2463</ele>
        <time>2019-03-22T16:31:44Z</time>
      </trkpt>
      <trkpt lat="49.29476" lon="-0.11311">
        <ele>62.28</ele>
        <time>2019-03-22T16:31:47Z</time>
      </trkpt>
      <trkpt lat="49.29477" lon="-0.11304">
        <ele>62.3209</ele>
        <time>2019-03-22T16:31:51Z</time>
      </trkpt>
      <trkpt lat="49.29478" lon="-0.113">
        <ele>62.3395</ele>
        <time>2019-03-22T16:31:53Z</time>
      </trkpt>
      <trkpt lat="49.29478" lon="-0.11295">
        <ele>62.3563</ele>
        <time>2019-03-22T16:31:55Z</time>
      </trkpt>
      <trkpt lat="49.2948" lon="-0.11287">
        <ele>62.3932</ele>
        <time>2019-03-22T16:32:00Z</time>
      </trkpt>
      <trkpt lat="49.29481" lon="-0.11282">
        <ele>62.4126</ele>
        <time>2019-03-22T16:32:03Z</time>
      </trkpt>
      <trkpt lat="49.29482" lon="-0.11279">
        <ele>62.4245</ele>
        <time>2019-03-22T16:32:05Z</time>
      </trkpt>
      <trkpt lat="49.29483" lon="-0.11274">
        <ele>62.4413</ele>
        <time>2019-03-22T16:32:08Z</time>
      </trkpt>
      <trkpt lat="49.29484" lon="-0.11271">
        <ele>62.4524</ele>
        <time>2019-03-22T16:32:10Z</time>
      </trkpt>
      <trkpt lat="49.29485" lon="-0.11267">
        <ele>62.4633</ele>
        <time>2019-03-22T16:32:12Z</time>
      </trkpt>
      <trkpt lat="49.29486" lon="-0.11261">
        <ele>62.483</ele>
        <time>2019-03-22T16:32:16Z</time>
      </trkpt>
      <trkpt lat="49.29487" lon="-0.11258">
        <ele>62.4927</ele>
        <time>2019-03-22T16:32:18Z</time>
      </trkpt>
      <trkpt lat="49.29488" lon="-0.11253">
        <ele>62.5058</ele>
        <time>2019-03-22T16:32:21Z</time>
      </trkpt>
      <trkpt lat="49.2949" lon="-0.11249">
        <ele>62.5177</ele>
        <time>2019-03-22T16:32:24Z</time>
      </trkpt>
      <trkpt lat="49.29491" lon="-0.1124">
        <ele>62.531</ele>
        <time>2019-03-22T16:32:28Z</time>
      </trkpt>
      <trkpt lat="49.29492" lon="-0.11233">
        <ele>62.546</ele>
        <time>2019-03-22T16:32:33Z</time>
      </trkpt>
      <trkpt lat="49.29493" lon="-0.11228">
        <ele>62.5532</ele>
        <time>2019-03-22T16:32:36Z</time>
      </trkpt>
      <trkpt lat="49.29494" lon="-0.11224">
        <ele>62.5573</ele>
        <time>2019-03-22T16:32:38Z</time>
      </trkpt>
      <trkpt lat="49.29496" lon="-0.11218">
        <ele>62.5625</ele>
        <time>2019-03-22T16:32:43Z</time>
      </trkpt>
      <trkpt lat="49.29498" lon="-0.11211">
        <ele>62.563</ele>
        <time>2019-03-22T16:32:47Z</time>
      </trkpt>
      <trkpt lat="49.29499" lon="-0.11202">
        <ele>62.5594</ele>
        <time>2019-03-22T16:32:52Z</time>
      </trkpt>
      <trkpt lat="49.29501" lon="-0.11195">
        <ele>62.5446</ele>
        <time>2019-03-22T16:32:57Z</time>
      </trkpt>
      <trkpt lat="49.29502" lon="-0.11187">
        <ele>62.529</ele>
        <time>2019-03-22T16:33:01Z</time>
      </trkpt>
      <trkpt lat="49.29504" lon="-0.11179">
        <ele>62.5095</ele>
        <time>2019-03-22T16:33:06Z</time>
      </trkpt>
      <trkpt lat="49.29503" lon="-0.11171">
        <ele>62.4718</ele>
        <time>2019-03-22T16:33:13Z</time>
      </trkpt>
      <trkpt lat="49.29505" lon="-0.11165">
        <ele>62.4526</ele>
        <time>2019-03-22T16:33:16Z</time>
      </trkpt>
      <trkpt lat="49.29506" lon="-0.11158">
        <ele>62.4298</ele>
        <time>2019-03-22T16:33:20Z</time>
      </trkpt>
      <trkpt lat="49.29508" lon="-0.11151">
        <ele>62.4054</ele>
        <time>2019-03-22T16:33:24Z</time>
      </trkpt>
      <trkpt lat="49.29509" lon="-0.11147">
        <ele>62.3942</ele>
        <time>2019-03-22T16:33:26Z</time>
      </trkpt>
      <trkpt lat="49.2951" lon="-0.1114">
        <ele>62.372</ele>
        <time>2019-03-22T16:33:30Z</time>
      </trkpt>
      <trkpt lat="49.2951" lon="-0.11132">
        <ele>62.3473</ele>
        <time>2019-03-22T16:33:35Z</time>
      </trkpt>
      <trkpt lat="49.29513" lon="-0.11126">
        <ele>62.3294</ele>
        <time>2019-03-22T16:33:39Z</time>
      </trkpt>
      <trkpt lat="49.29515" lon="-0.11123">
        <ele>62.3203</ele>
        <time>2019-03-22T16:33:41Z</time>
      </trkpt>
      <trkpt lat="49.29517" lon="-0.11116">
        <ele>62.3025</ele>
        <time>2019-03-22T16:33:45Z</time>
      </trkpt>
      <trkpt lat="49.29518" lon="-0.11113">
        <ele>62.2911</ele>
        <time>2019-03-22T16:33:48Z</time>
      </trkpt>
      <trkpt lat="49.29519" lon="-0.11107">
        <ele>62.2794</ele>
        <time>2019-03-22T16:33:52Z</time>
      </trkpt>
      <trkpt lat="49.29521" lon="-0.11103">
        <ele>62.2735</ele>
        <time>2019-03-22T16:33:54Z</time>
      </trkpt>
      <trkpt lat="49.29522" lon="-0.11096">
        <ele>62.2609</ele>
        <time>2019-03-22T16:33:58Z</time>
      </trkpt>
      <trkpt lat="49.29523" lon="-0.11091">
        <ele>62.2517</ele>
        <time>2019-03-22T16:34:01Z</time>
      </trkpt>
      <trkpt lat="49.29523" lon="-0.11083">
        <ele>62.2404</ele>
        <time>2019-03-22T16:34:05Z</time>
      </trkpt>
      <trkpt lat="49.29525" lon="-0.11075">
        <ele>62.2308</ele>
        <time>2019-03-22T16:34:09Z</time>
      </trkpt>
      <trkpt lat="49.29527" lon="-0.11068">
        <ele>62.2215</ele>
        <time>2019-03-22T16:34:13Z</time>
      </trkpt>
      <trkpt lat="49.29528" lon="-0.11061">
        <ele>62.2133</ele>
        <time>2019-03-22T16:34:17Z</time>
      </trkpt>
      <trkpt lat="49.29528" lon="-0.11057">
        <ele>62.2079</ele>
        <time>2019-03-22T16:34:20Z</time>
      </trkpt>
      <trkpt lat="49.29531" lon="-0.1105">
        <ele>62.2019</ele>
        <time>2019-03-22T16:34:25Z</time>
      </trkpt>
      <trkpt lat="49.29532" lon="-0.11046">
        <ele>62.2006</ele>
        <time>2019-03-22T16:34:28Z</time>
      </trkpt>
      <trkpt lat="49.29533" lon="-0.11039">
        <ele>62.2035</ele>
        <time>2019-03-22T16:34:32Z</time>
      </trkpt>
      <trkpt lat="49.29535" lon="-0.11031">
        <ele>62.2083</ele>
        <time>2019-03-22T16:34:37Z</time>
      </trkpt>
      <trkpt lat="49.29537" lon="-0.11026">
        <ele>62.2117</ele>
        <time>2019-03-22T16:34:40Z</time>
      </trkpt>
      <trkpt lat="49.29538" lon="-0.11023">
        <ele>62.2142</ele>
        <time>2019-03-22T16:34:42Z</time>
      </trkpt>
      <trkpt lat="49.29539" lon="-0.11019">
        <ele>62.216</ele>
        <time>2019-03-22T16:34:44Z</time>
      </trkpt>
      <trkpt lat="49.29541" lon="-0.11012">
        <ele>62.2182</ele>
        <time>2019-03-22T16:34:48Z</time>
      </trkpt>
      <trkpt lat="49.29542" lon="-0.11007">
        <ele>62.2197</ele>
        <time>2019-03-22T16:34:51Z</time>
      </trkpt>
      <trkpt lat="49.29543" lon="-0.11">
        <ele>62.2202</ele>
        <time>2019-03-22T16:34:55Z</time>
      </trkpt>
      <trkpt lat="49.29543" lon="-0.10993">
        <ele>62.2183</ele>
        <time>2019-03-22T16:34:59Z</time>
      </trkpt>
      <trkpt lat="49.29543" lon="-0.10989">
        <ele>62.2168</ele>
        <time>2019-03-22T16:35:01Z</time>
      </trkpt>
      <trkpt lat="49.29543" lon="-0.10983">
        <ele>62.2132</ele>
        <time>2019-03-22T16:35:04Z</time>
      </trkpt>
      <trkpt lat="49.29544" lon="-0.10976">
        <ele>62.206</ele>
        <time>2019-03-22T16:35:09Z</time>
      </trkpt>
      <trkpt lat="49.29547" lon="-0.10969">
        <ele>62.1975</ele>
        <time>2019-03-22T16:35:13Z</time>
      </trkpt>
      <trkpt lat="49.29548" lon="-0.10962">
        <ele>62.1855</ele>
        <time>2019-03-22T16:35:17Z</time>
      </trkpt>
      <trkpt lat="49.29549" lon="-0.10954">
        <ele>62.1731</ele>
        <time>2019-03-22T16:35:22Z</time>
      </trkpt>
      <trkpt lat="49.2955" lon="-0.10947">
        <ele>62.1644</ele>
        <time>2019-03-22T16:35:27Z</time>
      </trkpt>
      <trkpt lat="49.29551" lon="-0.10939">
        <ele>62.1567</ele>
        <time>2019-03-22T16:35:32Z</time>
      </trkpt>
      <trkpt lat="49.29552" lon="-0.10935">
        <ele>62.1535</ele>
        <time>2019-03-22T16:35:34Z</time>
      </trkpt>
      <trkpt lat="49.29552" lon="-0.10932">
        <ele>62.1499</ele>
        <time>2019-03-22T16:35:36Z</time>
      </trkpt>
      <trkpt lat="49.29552" lon="-0.10925">
        <ele>62.1422</ele>
        <time>2019-03-22T16:35:40Z</time>
      </trkpt>
      <trkpt lat="49.29554" lon="-0.10917">
        <ele>62.1292</ele>
        <time>2019-03-22T16:35:45Z</time>
      </trkpt>
      <trkpt lat="49.29556" lon="-0.1091">
        <ele>62.1207</ele>
        <time>2019-03-22T16:35:49Z</time>
      </trkpt>
      <trkpt lat="49.29557" lon="-0.10902">
        <ele>62.113</ele>
        <time>2019-03-22T16:35:53Z</time>
      </trkpt>
      <trkpt lat="49.29558" lon="-0.10899">
        <ele>62.1092</ele>
        <time>2019-03-22T16:35:55Z</time>
      </trkpt>
      <trkpt lat="49.29559" lon="-0.10895">
        <ele>62.1055</ele>
        <time>2019-03-22T16:35:57Z</time>
      </trkpt>
      <trkpt lat="49.29559" lon="-0.10888">
        <ele>62.0971</ele>
        <time>2019-03-22T16:36:01Z</time>
      </trkpt>
      <trkpt lat="49.2956" lon="-0.10881">
        <ele>62.086</ele>
        <time>2019-03-22T16:36:05Z</time>
      </trkpt>
      <trkpt lat="49.29562" lon="-0.10876">
        <ele>62.0783</ele>
        <time>2019-03-22T16:36:08Z</time>
      </trkpt>
      <trkpt lat="49.29563" lon="-0.10872">
        <ele>62.072</ele>
        <time>2019-03-22T16:36:11Z</time>
      </trkpt>
      <trkpt lat="49.29564" lon="-0.10868">
        <ele>62.0684</ele>
        <time>2019-03-22T16:36:13Z</time>
      </trkpt>
      <trkpt lat="49.29565" lon="-0.10863">
        <ele>62.0635</ele>
        <time>2019-03-22T16:36:16Z</time>
      </trkpt>
      <trkpt lat="49.29566" lon="-0.10859">
        <ele>62.0609</ele>
        <time>2019-03-22T16:36:18Z</time>
      </trkpt>
      <trkpt lat="49.29568" lon="-0.10851">
        <ele>62.0584</ele>
        <time>2019-03-22T16:36:23Z</time>
      </trkpt>
      <trkpt lat="49.29569" lon="-0.10842">
        <ele>62.06</ele>
        <time>2019-03-22T16:36:27Z</time>
      </trkpt>
      <trkpt lat="49.29569" lon="-0.10839">
        <ele>62.0606</ele>
        <time>2019-03-22T16:36:29Z</time>
      </trkpt>
      <trkpt lat="49.2957" lon="-0.10834">
        <ele>62.062</ele>
        <time>2019-03-22T16:36:32Z</time>
      </trkpt>
      <trkpt lat="49.2957" lon="-0.10831">
        <ele>62.0632</ele>
        <time>2019-03-22T16:36:34Z</time>
      </trkpt>
      <trkpt lat="49.29571" lon="-0.10828">
        <ele>62.0644</ele>
        <time>2019-03-22T16:36:36Z</time>
      </trkpt>
      <trkpt lat="49.29572" lon="-0.10825">
        <ele>62.0656</ele>
        <time>2019-03-22T16:36:38Z</time>
      </trkpt>
      <trkpt lat="49.29575" lon="-0.10815">
        <ele>62.0676</ele>
        <time>2019-03-22T16:36:44Z</time>
      </trkpt>
      <trkpt lat="49.29575" lon="-0.10811">
        <ele>62.0686</ele>
        <time>2019-03-22T16:36:46Z</time>
      </trkpt>
      <trkpt lat="49.29576" lon="-0.10807">
        <ele>62.0698</ele>
        <time>2019-03-22T16:36:48Z</time>
      </trkpt>
      <trkpt lat="49.29579" lon="-0.10801">
        <ele>62.0731</ele>
        <time>2019-03-22T16:36:52Z</time>
      </trkpt>
      <trkpt lat="49.2958" lon="-0.10798">
        <ele>62.0732</ele>
        <time>2019-03-22T16:36:54Z</time>
      </trkpt>
      <trkpt lat="49.29582" lon="-0.10791">
        <ele>62.0711</ele>
        <time>2019-03-22T16:36:58Z</time>
      </trkpt>
      <trkpt lat="49.29583" lon="-0.10788">
        <ele>62.0696</ele>
        <time>2019-03-22T16:37:00Z</time>
      </trkpt>
      <trkpt lat="49.29584" lon="-0.10783">
        <ele>62.0682</ele>
        <time>2019-03-22T16:37:02Z</time>
      </trkpt>
      <trkpt lat="49.29585" lon="-0.10779">
        <ele>62.0665</ele>
        <time>2019-03-22T16:37:04Z</time>
      </trkpt>
      <trkpt lat="49.29587" lon="-0.10773">
        <ele>62.0622</ele>
        <time>2019-03-22T16:37:08Z</time>
      </trkpt>
      <trkpt lat="49.29589" lon="-0.10765">
        <ele>62.056</ele>
        <time>2019-03-22T16:37:12Z</time>
      </trkpt>
      <trkpt lat="49.2959" lon="-0.10761">
        <ele>62.0486</ele>
        <time>2019-03-22T16:37:15Z</time>
      </trkpt>
      <trkpt lat="49.29592" lon="-0.10753">
        <ele>62.0376</ele>
        <time>2019-03-22T16:37:19Z</time>
      </trkpt>
      <trkpt lat="49.29592" lon="-0.10745">
        <ele>62.0269</ele>
        <time>2019-03-22T16:37:23Z</time>
      </trkpt>
      <trkpt lat="49.29593" lon="-0.10741">
        <ele>62.022</ele>
        <time>2019-03-22T16:37:25Z</time>
      </trkpt>
      <trkpt lat="49.29593" lon="-0.10734">
        <ele>62.0114</ele>
        <time>2019-03-22T16:37:30Z</time>
      </trkpt>
      <trkpt lat="49.29594" lon="-0.10726">
        <ele>62.0015</ele>
        <time>2019-03-22T16:37:34Z</time>
      </trkpt>
      <trkpt lat="49.29595" lon="-0.10721">
        <ele>61.9944</ele>
        <time>2019-03-22T16:37:37Z</time>
      </trkpt>
      <trkpt lat="49.29597" lon="-0.10713">
        <ele>61.9859</ele>
        <time>2019-03-22T16:37:42Z</time>
      </trkpt>
      <trkpt lat="49.29599" lon="-0.10705">
        <ele>61.9805</ele>
        <time>2019-03-22T16:37:47Z</time>
      </trkpt>
      <trkpt lat="49.29599" lon="-0.10701">
        <ele>61.9783</ele>
        <time>2019-03-22T16:37:49Z</time>
      </trkpt>
      <trkpt lat="49.296" lon="-0.10696">
        <ele>61.9755</ele>
        <time>2019-03-22T16:37:52Z</time>
      </trkpt>
      <trkpt lat="49.29602" lon="-0.10689">
        <ele>61.972</ele>
        <time>2019-03-22T16:37:56Z</time>
      </trkpt>
      <trkpt lat="49.29603" lon="-0.10682">
        <ele>61.9661</ele>
        <time>2019-03-22T16:38:01Z</time>
      </trkpt>
      <trkpt lat="49.29604" lon="-0.10676">
        <ele>61.9638</ele>
        <time>2019-03-22T16:38:04Z</time>
      </trkpt>
      <trkpt lat="49.29606" lon="-0.10669">
        <ele>61.961</ele>
        <time>2019-03-22T16:38:08Z</time>
      </trkpt>
      <trkpt lat="49.29608" lon="-0.10663">
        <ele>61.9511</ele>
        <time>2019-03-22T16:38:13Z</time>
      </trkpt>
      <trkpt lat="49.29609" lon="-0.10656">
        <ele>61.9431</ele>
        <time>2019-03-22T16:38:17Z</time>
      </trkpt>
      <trkpt lat="49.29611" lon="-0.1065">
        <ele>61.935</ele>
        <time>2019-03-22T16:38:21Z</time>
      </trkpt>
      <trkpt lat="49.29613" lon="-0.10643">
        <ele>61.9306</ele>
        <time>2019-03-22T16:38:24Z</time>
      </trkpt>
      <trkpt lat="49.29615" lon="-0.10636">
        <ele>61.9247</ele>
        <time>2019-03-22T16:38:29Z</time>
      </trkpt>
      <trkpt lat="49.29616" lon="-0.10629">
        <ele>61.9218</ele>
        <time>2019-03-22T16:38:32Z</time>
      </trkpt>
      <trkpt lat="49.29618" lon="-0.1062">
        <ele>61.9179</ele>
        <time>2019-03-22T16:38:36Z</time>
      </trkpt>
      <trkpt lat="49.29618" lon="-0.10613">
        <ele>61.9141</ele>
        <time>2019-03-22T16:38:40Z</time>
      </trkpt>
      <trkpt lat="49.2962" lon="-0.10605">
        <ele>61.9085</ele>
        <time>2019-03-22T16:38:45Z</time>
      </trkpt>
      <trkpt lat="49.29621" lon="-0.10601">
        <ele>61.9068</ele>
        <time>2019-03-22T16:38:47Z</time>
      </trkpt>
      <trkpt lat="49.29624" lon="-0.10594">
        <ele>61.9036</ele>
        <time>2019-03-22T16:38:51Z</time>
      </trkpt>
      <trkpt lat="49.29625" lon="-0.10586">
        <ele>61.898</ele>
        <time>2019-03-22T16:38:56Z</time>
      </trkpt>
      <trkpt lat="49.29625" lon="-0.10578">
        <ele>61.895</ele>
        <time>2019-03-22T16:39:00Z</time>
      </trkpt>
      <trkpt lat="49.29625" lon="-0.10574">
        <ele>61.8941</ele>
        <time>2019-03-22T16:39:02Z</time>
      </trkpt>
      <trkpt lat="49.29618" lon="-0.10569">
        <ele>61.8826</ele>
        <time>2019-03-22T16:39:10Z</time>
      </trkpt>
      <trkpt lat="49.29613" lon="-0.10571">
        <ele>61.8612</ele>
        <time>2019-03-22T16:39:13Z</time>
      </trkpt>
      <trkpt lat="49.29608" lon="-0.10569">
        <ele>61.8162</ele>
        <time>2019-03-22T16:39:17Z</time>
      </trkpt>
      <trkpt lat="49.29603" lon="-0.10565">
        <ele>61.7667</ele>
        <time>2019-03-22T16:39:20Z</time>
      </trkpt>
      <trkpt lat="49.29599" lon="-0.10563">
        <ele>61.7066</ele>
        <time>2019-03-22T16:39:23Z</time>
      </trkpt>
      <trkpt lat="49.29593" lon="-0.10565">
        <ele>61.6162</ele>
        <time>2019-03-22T16:39:27Z</time>
      </trkpt>
      <trkpt lat="49.29586" lon="-0.10576">
        <ele>61.5692</ele>
        <time>2019-03-22T16:39:29Z</time>
      </trkpt>
      <trkpt lat="49.29584" lon="-0.10579">
        <ele>61.5456</ele>
        <time>2019-03-22T16:39:30Z</time>
      </trkpt>
      <trkpt lat="49.2958" lon="-0.10583">
        <ele>61.3685</ele>
        <time>2019-03-22T16:39:37Z</time>
      </trkpt>
      <trkpt lat="49.29577" lon="-0.1059">
        <ele>61.2348</ele>
        <time>2019-03-22T16:39:42Z</time>
      </trkpt>
      <trkpt lat="49.29573" lon="-0.10593">
        <ele>61.155</ele>
        <time>2019-03-22T16:39:45Z</time>
      </trkpt>
      <trkpt lat="49.2957" lon="-0.10595">
        <ele>61.1003</ele>
        <time>2019-03-22T16:39:47Z</time>
      </trkpt>
      <trkpt lat="49.29567" lon="-0.10597">
        <ele>61.0483</ele>
        <time>2019-03-22T16:39:49Z</time>
      </trkpt>
      <trkpt lat="49.29567" lon="-0.10597">
        <ele>8.4</ele>
        <time>2019-03-22T16:39:54Z</time>
      </trkpt>
      <trkpt lat="49.29567" lon="-0.10597">
        <ele>8.4</ele>
        <time>2019-03-22T16:40:35Z</time>
      </trkpt>
      <trkpt lat="49.29539" lon="-0.10604">
        <ele>59.9585</ele>
        <time>2019-03-22T16:40:35Z</time>
      </trkpt>
      <trkpt lat="49.29534" lon="-0.10607">
        <ele>59.7734</ele>
        <time>2019-03-22T16:40:40Z</time>
      </trkpt>
      <trkpt lat="49.29531" lon="-0.10609">
        <ele>59.6624</ele>
        <time>2019-03-22T16:40:43Z</time>
      </trkpt>
      <trkpt lat="49.29527" lon="-0.10613">
        <ele>59.4729</ele>
        <time>2019-03-22T16:40:48Z</time>
      </trkpt>
      <trkpt lat="49.29521" lon="-0.10614">
        <ele>59.272</ele>
        <time>2019-03-22T16:40:53Z</time>
      </trkpt>
      <trkpt lat="49.29517" lon="-0.10616">
        <ele>59.105</ele>
        <time>2019-03-22T16:40:57Z</time>
      </trkpt>
      <trkpt lat="49.29512" lon="-0.10619">
        <ele>58.9353</ele>
        <time>2019-03-22T16:41:01Z</time>
      </trkpt>
      <trkpt lat="49.29507" lon="-0.1062">
        <ele>58.7254</ele>
        <time>2019-03-22T16:41:06Z</time>
      </trkpt>
      <trkpt lat="49.29503" lon="-0.10624">
        <ele>58.5992</ele>
        <time>2019-03-22T16:41:09Z</time>
      </trkpt>
      <trkpt lat="49.29499" lon="-0.1063">
        <ele>58.4758</ele>
        <time>2019-03-22T16:41:12Z</time>
      </trkpt>
      <trkpt lat="49.29497" lon="-0.10637">
        <ele>58.3583</ele>
        <time>2019-03-22T16:41:15Z</time>
      </trkpt>
      <trkpt lat="49.29495" lon="-0.10641">
        <ele>58.2852</ele>
        <time>2019-03-22T16:41:17Z</time>
      </trkpt>
      <trkpt lat="49.29494" lon="-0.10648">
        <ele>58.1345</ele>
        <time>2019-03-22T16:41:21Z</time>
      </trkpt>
      <trkpt lat="49.29493" lon="-0.10655">
        <ele>58.015</ele>
        <time>2019-03-22T16:41:24Z</time>
      </trkpt>
      <trkpt lat="49.29492" lon="-0.1066">
        <ele>57.937</ele>
        <time>2019-03-22T16:41:26Z</time>
      </trkpt>
      <trkpt lat="49.29492" lon="-0.10663">
        <ele>57.821</ele>
        <time>2019-03-22T16:41:29Z</time>
      </trkpt>
      <trkpt lat="49.29491" lon="-0.1067">
        <ele>57.6685</ele>
        <time>2019-03-22T16:41:33Z</time>
      </trkpt>
      <trkpt lat="49.2949" lon="-0.10675">
        <ele>57.5261</ele>
        <time>2019-03-22T16:41:37Z</time>
      </trkpt>
      <trkpt lat="49.29488" lon="-0.10683">
        <ele>57.386</ele>
        <time>2019-03-22T16:41:41Z</time>
      </trkpt>
      <trkpt lat="49.29486" lon="-0.10691">
        <ele>57.2822</ele>
        <time>2019-03-22T16:41:44Z</time>
      </trkpt>
      <trkpt lat="49.29483" lon="-0.10697">
        <ele>57.13</ele>
        <time>2019-03-22T16:41:49Z</time>
      </trkpt>
      <trkpt lat="49.2948" lon="-0.10704">
        <ele>57.0183</ele>
        <time>2019-03-22T16:41:53Z</time>
      </trkpt>
      <trkpt lat="49.29478" lon="-0.1071">
        <ele>56.9319</ele>
        <time>2019-03-22T16:41:56Z</time>
      </trkpt>
      <trkpt lat="49.29477" lon="-0.10715">
        <ele>56.8728</ele>
        <time>2019-03-22T16:41:58Z</time>
      </trkpt>
      <trkpt lat="49.29475" lon="-0.10723">
        <ele>56.7809</ele>
        <time>2019-03-22T16:42:01Z</time>
      </trkpt>
      <trkpt lat="49.29473" lon="-0.1073">
        <ele>56.7178</ele>
        <time>2019-03-22T16:42:03Z</time>
      </trkpt>
      <trkpt lat="49.29472" lon="-0.10734">
        <ele>56.6528</ele>
        <time>2019-03-22T16:42:05Z</time>
      </trkpt>
      <trkpt lat="49.29472" lon="-0.10738">
        <ele>56.5897</ele>
        <time>2019-03-22T16:42:07Z</time>
      </trkpt>
      <trkpt lat="49.29471" lon="-0.10741">
        <ele>56.5011</ele>
        <time>2019-03-22T16:42:10Z</time>
      </trkpt>
      <trkpt lat="49.29471" lon="-0.10749">
        <ele>56.3248</ele>
        <time>2019-03-22T16:42:16Z</time>
      </trkpt>
      <trkpt lat="49.29469" lon="-0.10756">
        <ele>56.1924</ele>
        <time>2019-03-22T16:42:21Z</time>
      </trkpt>
      <trkpt lat="49.29468" lon="-0.10763">
        <ele>56.0862</ele>
        <time>2019-03-22T16:42:25Z</time>
      </trkpt>
      <trkpt lat="49.29467" lon="-0.10772">
        <ele>56.0065</ele>
        <time>2019-03-22T16:42:28Z</time>
      </trkpt>
      <trkpt lat="49.29465" lon="-0.1078">
        <ele>55.9279</ele>
        <time>2019-03-22T16:42:31Z</time>
      </trkpt>
      <trkpt lat="49.29465" lon="-0.10785">
        <ele>55.876</ele>
        <time>2019-03-22T16:42:33Z</time>
      </trkpt>
      <trkpt lat="49.29463" lon="-0.10792">
        <ele>55.777</ele>
        <time>2019-03-22T16:42:37Z</time>
      </trkpt>
      <trkpt lat="49.29461" lon="-0.10797">
        <ele>55.6841</ele>
        <time>2019-03-22T16:42:41Z</time>
      </trkpt>
      <trkpt lat="49.2946" lon="-0.10801">
        <ele>55.6359</ele>
        <time>2019-03-22T16:42:43Z</time>
      </trkpt>
      <trkpt lat="49.29458" lon="-0.10808">
        <ele>55.5403</ele>
        <time>2019-03-22T16:42:47Z</time>
      </trkpt>
      <trkpt lat="49.29457" lon="-0.10812">
        <ele>55.4675</ele>
        <time>2019-03-22T16:42:51Z</time>
      </trkpt>
      <trkpt lat="49.29455" lon="-0.10817">
        <ele>55.3886</ele>
        <time>2019-03-22T16:42:57Z</time>
      </trkpt>
      <trkpt lat="49.29453" lon="-0.10823">
        <ele>55.2997</ele>
        <time>2019-03-22T16:43:01Z</time>
      </trkpt>
      <trkpt lat="49.29451" lon="-0.10831">
        <ele>55.2184</ele>
        <time>2019-03-22T16:43:05Z</time>
      </trkpt>
      <trkpt lat="49.29449" lon="-0.1084">
        <ele>55.1603</ele>
        <time>2019-03-22T16:43:08Z</time>
      </trkpt>
      <trkpt lat="49.29448" lon="-0.10844">
        <ele>55.123</ele>
        <time>2019-03-22T16:43:10Z</time>
      </trkpt>
      <trkpt lat="49.29447" lon="-0.1085">
        <ele>55.0858</ele>
        <time>2019-03-22T16:43:12Z</time>
      </trkpt>
      <trkpt lat="49.29446" lon="-0.10854">
        <ele>55.0367</ele>
        <time>2019-03-22T16:43:15Z</time>
      </trkpt>
      <trkpt lat="49.29444" lon="-0.1086">
        <ele>54.9753</ele>
        <time>2019-03-22T16:43:19Z</time>
      </trkpt>
      <trkpt lat="49.29444" lon="-0.10864">
        <ele>54.9454</ele>
        <time>2019-03-22T16:43:21Z</time>
      </trkpt>
      <trkpt lat="49.29443" lon="-0.10868">
        <ele>54.9167</ele>
        <time>2019-03-22T16:43:23Z</time>
      </trkpt>
      <trkpt lat="49.2944" lon="-0.10877">
        <ele>54.8356</ele>
        <time>2019-03-22T16:43:29Z</time>
      </trkpt>
      <trkpt lat="49.29438" lon="-0.10883">
        <ele>54.7706</ele>
        <time>2019-03-22T16:43:34Z</time>
      </trkpt>
      <trkpt lat="49.29437" lon="-0.10891">
        <ele>54.7263</ele>
        <time>2019-03-22T16:43:38Z</time>
      </trkpt>
      <trkpt lat="49.29437" lon="-0.10897">
        <ele>54.7031</ele>
        <time>2019-03-22T16:43:41Z</time>
      </trkpt>
      <trkpt lat="49.29436" lon="-0.10901">
        <ele>54.6888</ele>
        <time>2019-03-22T16:43:43Z</time>
      </trkpt>
      <trkpt lat="49.29434" lon="-0.10908">
        <ele>54.675</ele>
        <time>2019-03-22T16:43:46Z</time>
      </trkpt>
      <trkpt lat="49.29433" lon="-0.10912">
        <ele>54.6691</ele>
        <time>2019-03-22T16:43:48Z</time>
      </trkpt>
      <trkpt lat="49.29433" lon="-0.10917">
        <ele>54.6633</ele>
        <time>2019-03-22T16:43:51Z</time>
      </trkpt>
      <trkpt lat="49.2943" lon="-0.10925">
        <ele>54.654</ele>
        <time>2019-03-22T16:43:57Z</time>
      </trkpt>
      <trkpt lat="49.29429" lon="-0.1093">
        <ele>54.6481</ele>
        <time>2019-03-22T16:43:59Z</time>
      </trkpt>
      <trkpt lat="49.29428" lon="-0.10938">
        <ele>54.6437</ele>
        <time>2019-03-22T16:44:04Z</time>
      </trkpt>
      <trkpt lat="49.29427" lon="-0.10942">
        <ele>54.6439</ele>
        <time>2019-03-22T16:44:06Z</time>
      </trkpt>
      <trkpt lat="49.29426" lon="-0.10946">
        <ele>54.6423</ele>
        <time>2019-03-22T16:44:08Z</time>
      </trkpt>
      <trkpt lat="49.29426" lon="-0.10951">
        <ele>54.6436</ele>
        <time>2019-03-22T16:44:11Z</time>
      </trkpt>
      <trkpt lat="49.29426" lon="-0.10957">
        <ele>54.6444</ele>
        <time>2019-03-22T16:44:13Z</time>
      </trkpt>
      <trkpt lat="49.29424" lon="-0.10964">
        <ele>54.6432</ele>
        <time>2019-03-22T16:44:18Z</time>
      </trkpt>
      <trkpt lat="49.29423" lon="-0.10968">
        <ele>54.6428</ele>
        <time>2019-03-22T16:44:20Z</time>
      </trkpt>
      <trkpt lat="49.29419" lon="-0.10973">
        <ele>54.6442</ele>
        <time>2019-03-22T16:44:26Z</time>
      </trkpt>
      <trkpt lat="49.29419" lon="-0.10973">
        <ele>6.1</ele>
        <time>2019-03-22T16:44:33Z</time>
      </trkpt>
      <trkpt lat="49.29419" lon="-0.10973">
        <ele>6.1</ele>
        <time>2019-03-22T16:44:37Z</time>
      </trkpt>
      <trkpt lat="49.29416" lon="-0.10986">
        <ele>54.6511</ele>
        <time>2019-03-22T16:44:37Z</time>
      </trkpt>
      <trkpt lat="49.29415" lon="-0.1099">
        <ele>54.6505</ele>
        <time>2019-03-22T16:44:39Z</time>
      </trkpt>
      <trkpt lat="49.29414" lon="-0.10994">
        <ele>54.65</ele>
        <time>2019-03-22T16:44:41Z</time>
      </trkpt>
      <trkpt lat="49.29414" lon="-0.10997">
        <ele>54.6496</ele>
        <time>2019-03-22T16:44:43Z</time>
      </trkpt>
      <trkpt lat="49.29413" lon="-0.11001">
        <ele>54.6485</ele>
        <time>2019-03-22T16:44:45Z</time>
      </trkpt>
      <trkpt lat="49.29412" lon="-0.11007">
        <ele>54.647</ele>
        <time>2019-03-22T16:44:48Z</time>
      </trkpt>
      <trkpt lat="49.29412" lon="-0.11013">
        <ele>54.6484</ele>
        <time>2019-03-22T16:44:52Z</time>
      </trkpt>
      <trkpt lat="49.29411" lon="-0.1102">
        <ele>54.648</ele>
        <time>2019-03-22T16:44:57Z</time>
      </trkpt>
      <trkpt lat="49.29409" lon="-0.11025">
        <ele>54.647</ele>
        <time>2019-03-22T16:45:00Z</time>
      </trkpt>
      <trkpt lat="49.29409" lon="-0.1103">
        <ele>54.6464</ele>
        <time>2019-03-22T16:45:02Z</time>
      </trkpt>
      <trkpt lat="49.29406" lon="-0.11037">
        <ele>54.6446</ele>
        <time>2019-03-22T16:45:06Z</time>
      </trkpt>
      <trkpt lat="49.29405" lon="-0.1104">
        <ele>54.6429</ele>
        <time>2019-03-22T16:45:08Z</time>
      </trkpt>
      <trkpt lat="49.29405" lon="-0.11049">
        <ele>54.6393</ele>
        <time>2019-03-22T16:45:12Z</time>
      </trkpt>
      <trkpt lat="49.29403" lon="-0.11057">
        <ele>54.6364</ele>
        <time>2019-03-22T16:45:17Z</time>
      </trkpt>
      <trkpt lat="49.29402" lon="-0.11065">
        <ele>54.639</ele>
        <time>2019-03-22T16:45:21Z</time>
      </trkpt>
      <trkpt lat="49.294" lon="-0.11072">
        <ele>54.6423</ele>
        <time>2019-03-22T16:45:26Z</time>
      </trkpt>
      <trkpt lat="49.29398" lon="-0.11075">
        <ele>54.6467</ele>
        <time>2019-03-22T16:45:28Z</time>
      </trkpt>
      <trkpt lat="49.29396" lon="-0.11083">
        <ele>54.657</ele>
        <time>2019-03-22T16:45:32Z</time>
      </trkpt>
      <trkpt lat="49.29395" lon="-0.1109">
        <ele>54.6609</ele>
        <time>2019-03-22T16:45:35Z</time>
      </trkpt>
      <trkpt lat="49.29395" lon="-0.11095">
        <ele>54.6624</ele>
        <time>2019-03-22T16:45:38Z</time>
      </trkpt>
      <trkpt lat="49.29394" lon="-0.11099">
        <ele>54.6602</ele>
        <time>2019-03-22T16:45:42Z</time>
      </trkpt>
      <trkpt lat="49.29391" lon="-0.11104">
        <ele>54.6557</ele>
        <time>2019-03-22T16:45:46Z</time>
      </trkpt>
      <trkpt lat="49.2939" lon="-0.11111">
        <ele>54.6535</ele>
        <time>2019-03-22T16:45:50Z</time>
      </trkpt>
      <trkpt lat="49.29389" lon="-0.11115">
        <ele>54.6529</ele>
        <time>2019-03-22T16:45:52Z</time>
      </trkpt>
      <trkpt lat="49.29387" lon="-0.11123">
        <ele>54.652</ele>
        <time>2019-03-22T16:45:57Z</time>
      </trkpt>
      <trkpt lat="49.29386" lon="-0.11131">
        <ele>54.6552</ele>
        <time>2019-03-22T16:46:01Z</time>
      </trkpt>
      <trkpt lat="49.29386" lon="-0.11138">
        <ele>54.664</ele>
        <time>2019-03-22T16:46:05Z</time>
      </trkpt>
      <trkpt lat="49.29385" lon="-0.11145">
        <ele>54.6699</ele>
        <time>2019-03-22T16:46:09Z</time>
      </trkpt>
      <trkpt lat="49.29384" lon="-0.11152">
        <ele>54.6691</ele>
        <time>2019-03-22T16:46:14Z</time>
      </trkpt>
      <trkpt lat="49.29382" lon="-0.1116">
        <ele>54.661</ele>
        <time>2019-03-22T16:46:18Z</time>
      </trkpt>
      <trkpt lat="49.2938" lon="-0.11166">
        <ele>54.6529</ele>
        <time>2019-03-22T16:46:21Z</time>
      </trkpt>
      <trkpt lat="49.29377" lon="-0.11174">
        <ele>54.644</ele>
        <time>2019-03-22T16:46:24Z</time>
      </trkpt>
      <trkpt lat="49.29376" lon="-0.11182">
        <ele>54.6265</ele>
        <time>2019-03-22T16:46:29Z</time>
      </trkpt>
      <trkpt lat="49.29375" lon="-0.11191">
        <ele>54.5993</ele>
        <time>2019-03-22T16:46:36Z</time>
      </trkpt>
      <trkpt lat="49.29373" lon="-0.11197">
        <ele>54.5869</ele>
        <time>2019-03-22T16:46:40Z</time>
      </trkpt>
      <trkpt lat="49.29372" lon="-0.11205">
        <ele>54.5801</ele>
        <time>2019-03-22T16:46:42Z</time>
      </trkpt>
      <trkpt lat="49.29369" lon="-0.11213">
        <ele>54.5634</ele>
        <time>2019-03-22T16:46:46Z</time>
      </trkpt>
      <trkpt lat="49.29367" lon="-0.1122">
        <ele>54.5476</ele>
        <time>2019-03-22T16:46:49Z</time>
      </trkpt>
      <trkpt lat="49.29366" lon="-0.11225">
        <ele>54.5367</ele>
        <time>2019-03-22T16:46:51Z</time>
      </trkpt>
      <trkpt lat="49.29365" lon="-0.11228">
        <ele>54.5244</ele>
        <time>2019-03-22T16:46:54Z</time>
      </trkpt>
      <trkpt lat="49.29363" lon="-0.11235">
        <ele>54.5025</ele>
        <time>2019-03-22T16:47:00Z</time>
      </trkpt>
      <trkpt lat="49.29362" lon="-0.11239">
        <ele>54.4956</ele>
        <time>2019-03-22T16:47:02Z</time>
      </trkpt>
      <trkpt lat="49.29361" lon="-0.11246">
        <ele>54.4829</ele>
        <time>2019-03-22T16:47:06Z</time>
      </trkpt>
      <trkpt lat="49.29358" lon="-0.11253">
        <ele>54.4704</ele>
        <time>2019-03-22T16:47:10Z</time>
      </trkpt>
      <trkpt lat="49.29357" lon="-0.1126">
        <ele>54.4542</ele>
        <time>2019-03-22T16:47:15Z</time>
      </trkpt>
      <trkpt lat="49.29356" lon="-0.11267">
        <ele>54.4422</ele>
        <time>2019-03-22T16:47:18Z</time>
      </trkpt>
      <trkpt lat="49.29355" lon="-0.11273">
        <ele>54.4266</ele>
        <time>2019-03-22T16:47:22Z</time>
      </trkpt>
      <trkpt lat="49.29351" lon="-0.1128">
        <ele>54.4086</ele>
        <time>2019-03-22T16:47:28Z</time>
      </trkpt>
      <trkpt lat="49.29349" lon="-0.11287">
        <ele>54.4042</ele>
        <time>2019-03-22T16:47:31Z</time>
      </trkpt>
      <trkpt lat="49.29349" lon="-0.11294">
        <ele>54.3989</ele>
        <time>2019-03-22T16:47:35Z</time>
      </trkpt>
      <trkpt lat="49.29347" lon="-0.11301">
        <ele>54.3913</ele>
        <time>2019-03-22T16:47:39Z</time>
      </trkpt>
      <trkpt lat="49.29346" lon="-0.11307">
        <ele>54.3803</ele>
        <time>2019-03-22T16:47:43Z</time>
      </trkpt>
      <trkpt lat="49.29345" lon="-0.11312">
        <ele>54.3707</ele>
        <time>2019-03-22T16:47:46Z</time>
      </trkpt>
      <trkpt lat="49.29344" lon="-0.11316">
        <ele>54.3603</ele>
        <time>2019-03-22T16:47:49Z</time>
      </trkpt>
      <trkpt lat="49.29344" lon="-0.11326">
        <ele>54.3437</ele>
        <time>2019-03-22T16:47:56Z</time>
      </trkpt>
      <trkpt lat="49.29341" lon="-0.11333">
        <ele>54.3353</ele>
        <time>2019-03-22T16:47:59Z</time>
      </trkpt>
      <trkpt lat="49.29338" lon="-0.1134">
        <ele>54.3223</ele>
        <time>2019-03-22T16:48:03Z</time>
      </trkpt>
      <trkpt lat="49.29337" lon="-0.11348">
        <ele>54.3031</ele>
        <time>2019-03-22T16:48:07Z</time>
      </trkpt>
      <trkpt lat="49.29335" lon="-0.11355">
        <ele>54.291</ele>
        <time>2019-03-22T16:48:11Z</time>
      </trkpt>
      <trkpt lat="49.29334" lon="-0.11363">
        <ele>54.2847</ele>
        <time>2019-03-22T16:48:15Z</time>
      </trkpt>
      <trkpt lat="49.29331" lon="-0.1137">
        <ele>54.2842</ele>
        <time>2019-03-22T16:48:19Z</time>
      </trkpt>
      <trkpt lat="49.2933" lon="-0.11378">
        <ele>54.2858</ele>
        <time>2019-03-22T16:48:23Z</time>
      </trkpt>
      <trkpt lat="49.29328" lon="-0.11385">
        <ele>54.2861</ele>
        <time>2019-03-22T16:48:26Z</time>
      </trkpt>
      <trkpt lat="49.29326" lon="-0.11393">
        <ele>54.2867</ele>
        <time>2019-03-22T16:48:30Z</time>
      </trkpt>
      <trkpt lat="49.29325" lon="-0.11401">
        <ele>54.2948</ele>
        <time>2019-03-22T16:48:36Z</time>
      </trkpt>
      <trkpt lat="49.29325" lon="-0.11405">
        <ele>54.2977</ele>
        <time>2019-03-22T16:48:39Z</time>
      </trkpt>
      <trkpt lat="49.29325" lon="-0.11412">
        <ele>54.2983</ele>
        <time>2019-03-22T16:48:44Z</time>
      </trkpt>
      <trkpt lat="49.29324" lon="-0.1142">
        <ele>54.2981</ele>
        <time>2019-03-22T16:48:47Z</time>
      </trkpt>
      <trkpt lat="49.29323" lon="-0.11425">
        <ele>54.3003</ele>
        <time>2019-03-22T16:48:49Z</time>
      </trkpt>
      <trkpt lat="49.29322" lon="-0.11432">
        <ele>54.3135</ele>
        <time>2019-03-22T16:48:53Z</time>
      </trkpt>
      <trkpt lat="49.29321" lon="-0.11436">
        <ele>54.33</ele>
        <time>2019-03-22T16:48:57Z</time>
      </trkpt>
      <trkpt lat="49.29318" lon="-0.11443">
        <ele>54.3364</ele>
        <time>2019-03-22T16:49:01Z</time>
      </trkpt>
      <trkpt lat="49.29317" lon="-0.11451">
        <ele>54.3323</ele>
        <time>2019-03-22T16:49:08Z</time>
      </trkpt>
      <trkpt lat="49.29317" lon="-0.11459">
        <ele>54.3277</ele>
        <time>2019-03-22T16:49:13Z</time>
      </trkpt>
      <trkpt lat="49.29315" lon="-0.11465">
        <ele>54.3232</ele>
        <time>2019-03-22T16:49:17Z</time>
      </trkpt>
      <trkpt lat="49.29314" lon="-0.11475">
        <ele>54.3206</ele>
        <time>2019-03-22T16:49:21Z</time>
      </trkpt>
      <trkpt lat="49.29314" lon="-0.11478">
        <ele>54.3206</ele>
        <time>2019-03-22T16:49:23Z</time>
      </trkpt>
      <trkpt lat="49.29313" lon="-0.11486">
        <ele>54.3215</ele>
        <time>2019-03-22T16:49:26Z</time>
      </trkpt>
      <trkpt lat="49.29314" lon="-0.11493">
        <ele>54.3271</ele>
        <time>2019-03-22T16:49:29Z</time>
      </trkpt>
      <trkpt lat="49.29314" lon="-0.11498">
        <ele>54.3338</ele>
        <time>2019-03-22T16:49:31Z</time>
      </trkpt>
      <trkpt lat="49.29314" lon="-0.11503">
        <ele>54.3473</ele>
        <time>2019-03-22T16:49:34Z</time>
      </trkpt>
      <trkpt lat="49.29312" lon="-0.11509">
        <ele>54.3859</ele>
        <time>2019-03-22T16:49:41Z</time>
      </trkpt>
      <trkpt lat="49.29309" lon="-0.11515">
        <ele>54.4485</ele>
        <time>2019-03-22T16:49:54Z</time>
      </trkpt>
      <trkpt lat="49.29304" lon="-0.11518">
        <ele>54.4898</ele>
        <time>2019-03-22T16:50:01Z</time>
      </trkpt>
      <trkpt lat="49.29301" lon="-0.1152">
        <ele>54.5054</ele>
        <time>2019-03-22T16:50:06Z</time>
      </trkpt>
      <trkpt lat="49.29295" lon="-0.11521">
        <ele>54.5172</ele>
        <time>2019-03-22T16:50:13Z</time>
      </trkpt>
      <trkpt lat="49.29292" lon="-0.11521">
        <ele>54.5132</ele>
        <time>2019-03-22T16:50:15Z</time>
      </trkpt>
      <trkpt lat="49.2929" lon="-0.11522">
        <ele>54.5062</ele>
        <time>2019-03-22T16:50:17Z</time>
      </trkpt>
      <trkpt lat="49.29285" lon="-0.11525">
        <ele>54.484</ele>
        <time>2019-03-22T16:50:21Z</time>
      </trkpt>
      <trkpt lat="49.2928" lon="-0.11526">
        <ele>54.4431</ele>
        <time>2019-03-22T16:50:26Z</time>
      </trkpt>
      <trkpt lat="49.29277" lon="-0.11527">
        <ele>54.4121</ele>
        <time>2019-03-22T16:50:29Z</time>
      </trkpt>
      <trkpt lat="49.29275" lon="-0.11528">
        <ele>54.3896</ele>
        <time>2019-03-22T16:50:31Z</time>
      </trkpt>
      <trkpt lat="49.29272" lon="-0.11528">
        <ele>54.3684</ele>
        <time>2019-03-22T16:50:33Z</time>
      </trkpt>
      <trkpt lat="49.29268" lon="-0.1153">
        <ele>54.3283</ele>
        <time>2019-03-22T16:50:37Z</time>
      </trkpt>
      <trkpt lat="49.29263" lon="-0.1153">
        <ele>54.2875</ele>
        <time>2019-03-22T16:50:41Z</time>
      </trkpt>
      <trkpt lat="49.29259" lon="-0.11534">
        <ele>54.2415</ele>
        <time>2019-03-22T16:50:45Z</time>
      </trkpt>
      <trkpt lat="49.29257" lon="-0.11536">
        <ele>54.2163</ele>
        <time>2019-03-22T16:50:47Z</time>
      </trkpt>
      <trkpt lat="49.29254" lon="-0.11539">
        <ele>54.1906</ele>
        <time>2019-03-22T16:50:49Z</time>
      </trkpt>
      <trkpt lat="49.29251" lon="-0.11544">
        <ele>54.1389</ele>
        <time>2019-03-22T16:50:53Z</time>
      </trkpt>
      <trkpt lat="49.29249" lon="-0.11552">
        <ele>54.0712</ele>
        <time>2019-03-22T16:50:58Z</time>
      </trkpt>
      <trkpt lat="49.29247" lon="-0.11556">
        <ele>54.0445</ele>
        <time>2019-03-22T16:51:00Z</time>
      </trkpt>
      <trkpt lat="49.29246" lon="-0.1156">
        <ele>54.0176</ele>
        <time>2019-03-22T16:51:02Z</time>
      </trkpt>
      <trkpt lat="49.29245" lon="-0.11565">
        <ele>53.8974</ele>
        <time>2019-03-22T16:51:10Z</time>
      </trkpt>
      <trkpt lat="49.29241" lon="-0.11569">
        <ele>53.793</ele>
        <time>2019-03-22T16:51:16Z</time>
      </trkpt>
      <trkpt lat="49.29236" lon="-0.11571">
        <ele>53.7172</ele>
        <time>2019-03-22T16:51:20Z</time>
      </trkpt>
      <trkpt lat="49.29234" lon="-0.11572">
        <ele>53.6574</ele>
        <time>2019-03-22T16:51:23Z</time>
      </trkpt>
      <trkpt lat="49.29228" lon="-0.11571">
        <ele>53.5759</ele>
        <time>2019-03-22T16:51:27Z</time>
      </trkpt>
      <trkpt lat="49.29221" lon="-0.11565">
        <ele>53.5146</ele>
        <time>2019-03-22T16:51:30Z</time>
      </trkpt>
      <trkpt lat="49.29217" lon="-0.1157">
        <ele>53.4207</ele>
        <time>2019-03-22T16:51:35Z</time>
      </trkpt>
      <trkpt lat="49.29215" lon="-0.11573">
        <ele>53.4031</ele>
        <time>2019-03-22T16:51:36Z</time>
      </trkpt>
      <trkpt lat="49.29212" lon="-0.11576">
        <ele>53.369</ele>
        <time>2019-03-22T16:51:38Z</time>
      </trkpt>
      <trkpt lat="49.29207" lon="-0.11579">
        <ele>53.2684</ele>
        <time>2019-03-22T16:51:44Z</time>
      </trkpt>
      <trkpt lat="49.29203" lon="-0.11579">
        <ele>53.1831</ele>
        <time>2019-03-22T16:51:49Z</time>
      </trkpt>
      <trkpt lat="49.29198" lon="-0.11586">
        <ele>53.0411</ele>
        <time>2019-03-22T16:51:58Z</time>
      </trkpt>
      <trkpt lat="49.29194" lon="-0.1159">
        <ele>52.9833</ele>
        <time>2019-03-22T16:52:02Z</time>
      </trkpt>
      <trkpt lat="49.29192" lon="-0.11593">
        <ele>52.9568</ele>
        <time>2019-03-22T16:52:04Z</time>
      </trkpt>
      <trkpt lat="49.29187" lon="-0.11594">
        <ele>52.9211</ele>
        <time>2019-03-22T16:52:07Z</time>
      </trkpt>
      <trkpt lat="49.29182" lon="-0.11593">
        <ele>52.8997</ele>
        <time>2019-03-22T16:52:09Z</time>
      </trkpt>
      <trkpt lat="49.29179" lon="-0.11593">
        <ele>52.8712</ele>
        <time>2019-03-22T16:52:12Z</time>
      </trkpt>
      <trkpt lat="49.29175" lon="-0.11589">
        <ele>52.848</ele>
        <time>2019-03-22T16:52:16Z</time>
      </trkpt>
      <trkpt lat="49.29168" lon="-0.11586">
        <ele>52.8301</ele>
        <time>2019-03-22T16:52:20Z</time>
      </trkpt>
      <trkpt lat="49.29163" lon="-0.11587">
        <ele>52.8157</ele>
        <time>2019-03-22T16:52:23Z</time>
      </trkpt>
      <trkpt lat="49.29163" lon="-0.11587">
        <ele>5</ele>
        <time>2019-03-22T16:52:30Z</time>
      </trkpt>
      <trkpt lat="49.29163" lon="-0.11587">
        <ele>5</ele>
        <time>2019-03-22T16:53:00Z</time>
      </trkpt>
      <trkpt lat="49.29154" lon="-0.1159">
        <ele>52.717</ele>
        <time>2019-03-22T16:53:00Z</time>
      </trkpt>
      <trkpt lat="49.29149" lon="-0.11591">
        <ele>52.7099</ele>
        <time>2019-03-22T16:53:04Z</time>
      </trkpt>
      <trkpt lat="49.29144" lon="-0.1159">
        <ele>52.6994</ele>
        <time>2019-03-22T16:53:10Z</time>
      </trkpt>
      <trkpt lat="49.29142" lon="-0.1159">
        <ele>52.6953</ele>
        <time>2019-03-22T16:53:12Z</time>
      </trkpt>
      <trkpt lat="49.29136" lon="-0.11593">
        <ele>52.6872</ele>
        <time>2019-03-22T16:53:18Z</time>
      </trkpt>
      <trkpt lat="49.29132" lon="-0.11593">
        <ele>52.6817</ele>
        <time>2019-03-22T16:53:21Z</time>
      </trkpt>
      <trkpt lat="49.29127" lon="-0.11591">
        <ele>52.675</ele>
        <time>2019-03-22T16:53:26Z</time>
      </trkpt>
      <trkpt lat="49.29122" lon="-0.11592">
        <ele>52.6699</ele>
        <time>2019-03-22T16:53:30Z</time>
      </trkpt>
      <trkpt lat="49.29117" lon="-0.11598">
        <ele>52.665</ele>
        <time>2019-03-22T16:53:35Z</time>
      </trkpt>
      <trkpt lat="49.29113" lon="-0.11601">
        <ele>52.6638</ele>
        <time>2019-03-22T16:53:39Z</time>
      </trkpt>
      <trkpt lat="49.29108" lon="-0.11604">
        <ele>52.666</ele>
        <time>2019-03-22T16:53:45Z</time>
      </trkpt>
      <trkpt lat="49.29103" lon="-0.11603">
        <ele>52.6707</ele>
        <time>2019-03-22T16:53:53Z</time>
      </trkpt>
      <trkpt lat="49.29098" lon="-0.11604">
        <ele>52.6761</ele>
        <time>2019-03-22T16:54:00Z</time>
      </trkpt>
      <trkpt lat="49.29094" lon="-0.11601">
        <ele>52.6787</ele>
        <time>2019-03-22T16:54:03Z</time>
      </trkpt>
      <trkpt lat="49.29092" lon="-0.11599">
        <ele>52.6829</ele>
        <time>2019-03-22T16:54:12Z</time>
      </trkpt>
      <trkpt lat="49.29086" lon="-0.11599">
        <ele>52.6953</ele>
        <time>2019-03-22T16:54:27Z</time>
      </trkpt>
      <trkpt lat="49.29081" lon="-0.11602">
        <ele>52.7138</ele>
        <time>2019-03-22T16:54:36Z</time>
      </trkpt>
      <trkpt lat="49.29077" lon="-0.11603">
        <ele>52.7175</ele>
        <time>2019-03-22T16:54:39Z</time>
      </trkpt>
      <trkpt lat="49.29072" lon="-0.11604">
        <ele>52.7214</ele>
        <time>2019-03-22T16:54:44Z</time>
      </trkpt>
      <trkpt lat="49.2907" lon="-0.11604">
        <ele>52.7227</ele>
        <time>2019-03-22T16:54:46Z</time>
      </trkpt>
      <trkpt lat="49.2907" lon="-0.11604">
        <ele>5</ele>
        <time>2019-03-22T16:54:53Z</time>
      </trkpt>
      <trkpt lat="49.2907" lon="-0.11604">
        <ele>5</ele>
        <time>2019-03-22T16:55:35Z</time>
      </trkpt>
      <trkpt lat="49.29076" lon="-0.11581">
        <ele>52.7895</ele>
        <time>2019-03-22T16:55:35Z</time>
      </trkpt>
      <trkpt lat="49.29078" lon="-0.11577">
        <ele>52.7937</ele>
        <time>2019-03-22T16:55:39Z</time>
      </trkpt>
      <trkpt lat="49.29078" lon="-0.11577">
        <ele>5</ele>
        <time>2019-03-22T16:55:48Z</time>
      </trkpt>
      <trkpt lat="49.29078" lon="-0.11577">
        <ele>5</ele>
        <time>2019-03-22T16:55:58Z</time>
      </trkpt>
      <trkpt lat="49.29073" lon="-0.11587">
        <ele>52.8386</ele>
        <time>2019-03-22T16:58:05Z</time>
      </trkpt>
      <trkpt lat="49.29073" lon="-0.11594">
        <ele>52.8266</ele>
        <time>2019-03-22T16:58:09Z</time>
      </trkpt>
      <trkpt lat="49.29073" lon="-0.116">
        <ele>52.8121</ele>
        <time>2019-03-22T16:58:13Z</time>
      </trkpt>
      <trkpt lat="49.29073" lon="-0.116">
        <ele>52.8121</ele>
        <time>2019-03-22T16:58:20Z</time>
      </trkpt>
      <trkpt lat="49.29073" lon="-0.116">
        <ele>5</ele>
        <time>2019-03-22T16:58:20Z</time>
      </trkpt>
      <trkpt lat="49.29073" lon="-0.116">
        <ele>5</ele>
        <time>2019-03-22T16:58:37Z</time>
      </trkpt>
      <trkpt lat="49.29073" lon="-0.116">
        <ele>5</ele>
        <time>2019-03-22T17:03:38Z</time>
      </trkpt>
      <trkpt lat="49.29073" lon="-0.116">
        <ele>5</ele>
        <time>2019-03-22T17:15:17Z</time>
      </trkpt>
      <trkpt lat="49.29048" lon="-0.11617">
        <ele>70.73</ele>
        <time>2019-03-22T17:15:18Z</time>
      </trkpt>
      <trkpt lat="49.29045" lon="-0.11613">
        <ele>71.3526</ele>
        <time>2019-03-22T17:15:32Z</time>
      </trkpt>
      <trkpt lat="49.2904" lon="-0.11615">
        <ele>71.5658</ele>
        <time>2019-03-22T17:15:37Z</time>
      </trkpt>
      <trkpt lat="49.29036" lon="-0.11617">
        <ele>71.6306</ele>
        <time>2019-03-22T17:15:39Z</time>
      </trkpt>
      <trkpt lat="49.2903" lon="-0.11619">
        <ele>71.6813</ele>
        <time>2019-03-22T17:15:41Z</time>
      </trkpt>
      <trkpt lat="49.29025" lon="-0.11622">
        <ele>71.7213</ele>
        <time>2019-03-22T17:15:43Z</time>
      </trkpt>
      <trkpt lat="49.29019" lon="-0.11622">
        <ele>71.7736</ele>
        <time>2019-03-22T17:15:46Z</time>
      </trkpt>
      <trkpt lat="49.29015" lon="-0.11622">
        <ele>71.8388</ele>
        <time>2019-03-22T17:15:50Z</time>
      </trkpt>
      <trkpt lat="49.29015" lon="-0.11622">
        <ele>5</ele>
        <time>2019-03-22T17:15:55Z</time>
      </trkpt>
      <trkpt lat="49.29015" lon="-0.11622">
        <ele>5</ele>
        <time>2019-03-22T17:19:05Z</time>
      </trkpt>
      <trkpt lat="49.28994" lon="-0.11615">
        <ele>74.1269</ele>
        <time>2019-03-22T17:19:05Z</time>
      </trkpt>
      <trkpt lat="49.28987" lon="-0.11616">
        <ele>74.2531</ele>
        <time>2019-03-22T17:19:09Z</time>
      </trkpt>
      <trkpt lat="49.28984" lon="-0.11622">
        <ele>74.4473</ele>
        <time>2019-03-22T17:19:16Z</time>
      </trkpt>
      <trkpt lat="49.28978" lon="-0.11623">
        <ele>74.5385</ele>
        <time>2019-03-22T17:19:20Z</time>
      </trkpt>
      <trkpt lat="49.28974" lon="-0.11624">
        <ele>74.5789</ele>
        <time>2019-03-22T17:19:22Z</time>
      </trkpt>
      <trkpt lat="49.28969" lon="-0.11623">
        <ele>74.6546</ele>
        <time>2019-03-22T17:19:29Z</time>
      </trkpt>
      <trkpt lat="49.28965" lon="-0.11619">
        <ele>74.7545</ele>
        <time>2019-03-22T17:19:37Z</time>
      </trkpt>
      <trkpt lat="49.2896" lon="-0.11618">
        <ele>74.7748</ele>
        <time>2019-03-22T17:19:39Z</time>
      </trkpt>
      <trkpt lat="49.28952" lon="-0.11617">
        <ele>74.791</ele>
        <time>2019-03-22T17:19:41Z</time>
      </trkpt>
      <trkpt lat="49.28952" lon="-0.11617">
        <ele>74.791</ele>
        <time>2019-03-22T17:19:47Z</time>
      </trkpt>
      <trkpt lat="49.28952" lon="-0.11617">
        <ele>5</ele>
        <time>2019-03-22T17:19:47Z</time>
      </trkpt>
      <trkpt lat="49.28952" lon="-0.11617">
        <ele>5</ele>
        <time>2019-03-22T17:21:27Z</time>
      </trkpt>
      <trkpt lat="49.28969" lon="-0.11602">
        <ele>74.7762</ele>
        <time>2019-03-22T17:21:27Z</time>
      </trkpt>
      <trkpt lat="49.28969" lon="-0.11602">
        <ele>74.7762</ele>
        <time>2019-03-22T17:21:34Z</time>
      </trkpt>
      <trkpt lat="49.28969" lon="-0.11602">
        <ele>5</ele>
        <time>2019-03-22T17:21:34Z</time>
      </trkpt>
      <trkpt lat="49.28969" lon="-0.11602">
        <ele>5</ele>
        <time>2019-03-22T17:23:27Z</time>
      </trkpt>
      <trkpt lat="49.28949" lon="-0.11623">
        <ele>74.0042</ele>
        <time>2019-03-22T17:23:27Z</time>
      </trkpt>
      <trkpt lat="49.28949" lon="-0.11623">
        <ele>74.0042</ele>
        <time>2019-03-22T17:23:32Z</time>
      </trkpt>
      <trkpt lat="49.28949" lon="-0.11623">
        <ele>5</ele>
        <time>2019-03-22T17:23:32Z</time>
      </trkpt>
      <trkpt lat="49.28949" lon="-0.11623">
        <ele>5</ele>
        <time>2019-03-22T17:24:17Z</time>
      </trkpt>
      <trkpt lat="49.28931" lon="-0.11626">
        <ele>73.7089</ele>
        <time>2019-03-22T17:24:17Z</time>
      </trkpt>
      <trkpt lat="49.28926" lon="-0.11629">
        <ele>73.6884</ele>
        <time>2019-03-22T17:24:20Z</time>
      </trkpt>
      <trkpt lat="49.28921" lon="-0.11629">
        <ele>73.6512</ele>
        <time>2019-03-22T17:24:26Z</time>
      </trkpt>
      <trkpt lat="49.28918" lon="-0.1163">
        <ele>73.6321</ele>
        <time>2019-03-22T17:24:29Z</time>
      </trkpt>
      <trkpt lat="49.28913" lon="-0.1163">
        <ele>73.6006</ele>
        <time>2019-03-22T17:24:34Z</time>
      </trkpt>
      <trkpt lat="49.28908" lon="-0.11629">
        <ele>73.5808</ele>
        <time>2019-03-22T17:24:37Z</time>
      </trkpt>
      <trkpt lat="49.28906" lon="-0.11629">
        <ele>73.5739</ele>
        <time>2019-03-22T17:24:38Z</time>
      </trkpt>
      <trkpt lat="49.28901" lon="-0.11631">
        <ele>73.5608</ele>
        <time>2019-03-22T17:24:40Z</time>
      </trkpt>
      <trkpt lat="49.28895" lon="-0.11631">
        <ele>73.5348</ele>
        <time>2019-03-22T17:24:44Z</time>
      </trkpt>
      <trkpt lat="49.28893" lon="-0.11631">
        <ele>73.5201</ele>
        <time>2019-03-22T17:24:46Z</time>
      </trkpt>
      <trkpt lat="49.28887" lon="-0.1163">
        <ele>73.4929</ele>
        <time>2019-03-22T17:24:50Z</time>
      </trkpt>
      <trkpt lat="49.28887" lon="-0.1163">
        <ele>4.3</ele>
        <time>2019-03-22T17:24:57Z</time>
      </trkpt>
      <trkpt lat="49.28887" lon="-0.1163">
        <ele>4.3</ele>
        <time>2019-03-22T17:25:15Z</time>
      </trkpt>
      <trkpt lat="49.28881" lon="-0.11602">
        <ele>73.0575</ele>
        <time>2019-03-22T17:25:15Z</time>
      </trkpt>
      <trkpt lat="49.28881" lon="-0.11602">
        <ele>73.0575</ele>
        <time>2019-03-22T17:25:20Z</time>
      </trkpt>
      <trkpt lat="49.28881" lon="-0.11602">
        <ele>5</ele>
        <time>2019-03-22T17:25:20Z</time>
      </trkpt>
      <trkpt lat="49.28881" lon="-0.11602">
        <ele>5</ele>
        <time>2019-03-22T17:25:37Z</time>
      </trkpt>
      <trkpt lat="49.28878" lon="-0.11582">
        <ele>72.9904</ele>
        <time>2019-03-22T17:25:37Z</time>
      </trkpt>
      <trkpt lat="49.28878" lon="-0.11582">
        <ele>72.9904</ele>
        <time>2019-03-22T17:25:42Z</time>
      </trkpt>
      <trkpt lat="49.28878" lon="-0.11582">
        <ele>5</ele>
        <time>2019-03-22T17:25:42Z</time>
      </trkpt>
      <trkpt lat="49.28878" lon="-0.11582">
        <ele>5</ele>
        <time>2019-03-22T17:25:50Z</time>
      </trkpt>
      <trkpt lat="49.28878" lon="-0.11582">
        <ele>72.9904</ele>
        <time>2019-03-22T17:27:45Z</time>
      </trkpt>
      <trkpt lat="49.28911" lon="-0.11606">
        <ele>72.6126</ele>
        <time>2019-03-22T17:27:46Z</time>
      </trkpt>
      <trkpt lat="49.28907" lon="-0.1162">
        <ele>72.6133</ele>
        <time>2019-03-22T17:27:56Z</time>
      </trkpt>
      <trkpt lat="49.28899" lon="-0.11608">
        <ele>72.609</ele>
        <time>2019-03-22T17:28:01Z</time>
      </trkpt>
      <trkpt lat="49.28899" lon="-0.11608">
        <ele>5</ele>
        <time>2019-03-22T17:28:09Z</time>
      </trkpt>
      <trkpt lat="49.28899" lon="-0.11608">
        <ele>5</ele>
        <time>2019-03-22T17:29:33Z</time>
      </trkpt>
      <trkpt lat="49.28911" lon="-0.11631">
        <ele>72.1817</ele>
        <time>2019-03-22T17:29:33Z</time>
      </trkpt>
      <trkpt lat="49.28914" lon="-0.1163">
        <ele>72.1284</ele>
        <time>2019-03-22T17:29:36Z</time>
      </trkpt>
      <trkpt lat="49.28917" lon="-0.11628">
        <ele>72.0466</ele>
        <time>2019-03-22T17:29:40Z</time>
      </trkpt>
      <trkpt lat="49.28923" lon="-0.11627">
        <ele>71.9246</ele>
        <time>2019-03-22T17:29:45Z</time>
      </trkpt>
      <trkpt lat="49.28928" lon="-0.11624">
        <ele>71.8068</ele>
        <time>2019-03-22T17:29:49Z</time>
      </trkpt>
      <trkpt lat="49.28933" lon="-0.11625">
        <ele>71.6696</ele>
        <time>2019-03-22T17:29:53Z</time>
      </trkpt>
      <trkpt lat="49.28938" lon="-0.11627">
        <ele>71.5613</ele>
        <time>2019-03-22T17:29:56Z</time>
      </trkpt>
      <trkpt lat="49.28942" lon="-0.11621">
        <ele>71.4517</ele>
        <time>2019-03-22T17:29:59Z</time>
      </trkpt>
      <trkpt lat="49.28948" lon="-0.11622">
        <ele>71.3323</ele>
        <time>2019-03-22T17:30:02Z</time>
      </trkpt>
      <trkpt lat="49.28952" lon="-0.11626">
        <ele>71.098</ele>
        <time>2019-03-22T17:30:06Z</time>
      </trkpt>
      <trkpt lat="49.28952" lon="-0.11626">
        <ele>5</ele>
        <time>2019-03-22T17:30:11Z</time>
      </trkpt>
      <trkpt lat="49.28952" lon="-0.11626">
        <ele>5</ele>
        <time>2019-03-22T17:30:15Z</time>
      </trkpt>
      <trkpt lat="49.28959" lon="-0.11619">
        <ele>70.4883</ele>
        <time>2019-03-22T17:30:15Z</time>
      </trkpt>
      <trkpt lat="49.28969" lon="-0.11614">
        <ele>70.1786</ele>
        <time>2019-03-22T17:30:20Z</time>
      </trkpt>
      <trkpt lat="49.28974" lon="-0.11612">
        <ele>70.065</ele>
        <time>2019-03-22T17:30:22Z</time>
      </trkpt>
      <trkpt lat="49.28976" lon="-0.11611">
        <ele>69.953</ele>
        <time>2019-03-22T17:30:24Z</time>
      </trkpt>
      <trkpt lat="49.28979" lon="-0.1161">
        <ele>69.8377</ele>
        <time>2019-03-22T17:30:26Z</time>
      </trkpt>
      <trkpt lat="49.28988" lon="-0.11608">
        <ele>69.5358</ele>
        <time>2019-03-22T17:30:31Z</time>
      </trkpt>
      <trkpt lat="49.2899" lon="-0.11608">
        <ele>69.4092</ele>
        <time>2019-03-22T17:30:33Z</time>
      </trkpt>
      <trkpt lat="49.28995" lon="-0.11609">
        <ele>69.2134</ele>
        <time>2019-03-22T17:30:36Z</time>
      </trkpt>
      <trkpt lat="49.28999" lon="-0.1161">
        <ele>68.9658</ele>
        <time>2019-03-22T17:30:40Z</time>
      </trkpt>
      <trkpt lat="49.29005" lon="-0.1161">
        <ele>68.7177</ele>
        <time>2019-03-22T17:30:44Z</time>
      </trkpt>
      <trkpt lat="49.29009" lon="-0.1161">
        <ele>68.5273</ele>
        <time>2019-03-22T17:30:47Z</time>
      </trkpt>
      <trkpt lat="49.29013" lon="-0.1161">
        <ele>68.3356</ele>
        <time>2019-03-22T17:30:50Z</time>
      </trkpt>
      <trkpt lat="49.29019" lon="-0.11613">
        <ele>68.0109</ele>
        <time>2019-03-22T17:30:55Z</time>
      </trkpt>
      <trkpt lat="49.29024" lon="-0.11614">
        <ele>67.6958</ele>
        <time>2019-03-22T17:31:00Z</time>
      </trkpt>
      <trkpt lat="49.29029" lon="-0.11616">
        <ele>67.4451</ele>
        <time>2019-03-22T17:31:04Z</time>
      </trkpt>
      <trkpt lat="49.29035" lon="-0.11617">
        <ele>67.2066</ele>
        <time>2019-03-22T17:31:08Z</time>
      </trkpt>
      <trkpt lat="49.29039" lon="-0.11615">
        <ele>66.9172</ele>
        <time>2019-03-22T17:31:13Z</time>
      </trkpt>
      <trkpt lat="49.29044" lon="-0.11615">
        <ele>66.6871</ele>
        <time>2019-03-22T17:31:17Z</time>
      </trkpt>
      <trkpt lat="49.29048" lon="-0.11615">
        <ele>66.5243</ele>
        <time>2019-03-22T17:31:20Z</time>
      </trkpt>
      <trkpt lat="49.29053" lon="-0.11611">
        <ele>66.3349</ele>
        <time>2019-03-22T17:31:24Z</time>
      </trkpt>
      <trkpt lat="49.29055" lon="-0.11608">
        <ele>66.2488</ele>
        <time>2019-03-22T17:31:26Z</time>
      </trkpt>
      <trkpt lat="49.29061" lon="-0.1161">
        <ele>66.142</ele>
        <time>2019-03-22T17:31:29Z</time>
      </trkpt>
      <trkpt lat="49.29065" lon="-0.11608">
        <ele>66.0461</ele>
        <time>2019-03-22T17:31:32Z</time>
      </trkpt>
      <trkpt lat="49.29068" lon="-0.11607">
        <ele>65.9868</ele>
        <time>2019-03-22T17:31:34Z</time>
      </trkpt>
      <trkpt lat="49.29073" lon="-0.11604">
        <ele>65.9067</ele>
        <time>2019-03-22T17:31:37Z</time>
      </trkpt>
      <trkpt lat="49.29073" lon="-0.11604">
        <ele>5</ele>
        <time>2019-03-22T17:31:42Z</time>
      </trkpt>
      <trkpt lat="49.29073" lon="-0.11604">
        <ele>5</ele>
        <time>2019-03-22T17:31:54Z</time>
      </trkpt>
      <trkpt lat="49.29063" lon="-0.11603">
        <ele>65.5448</ele>
        <time>2019-03-22T17:31:54Z</time>
      </trkpt>
      <trkpt lat="49.29058" lon="-0.11605">
        <ele>65.4815</ele>
        <time>2019-03-22T17:31:57Z</time>
      </trkpt>
      <trkpt lat="49.29053" lon="-0.11606">
        <ele>65.3985</ele>
        <time>2019-03-22T17:32:01Z</time>
      </trkpt>
      <trkpt lat="49.2905" lon="-0.11606">
        <ele>65.3584</ele>
        <time>2019-03-22T17:32:03Z</time>
      </trkpt>
      <trkpt lat="49.29046" lon="-0.11606">
        <ele>65.3003</ele>
        <time>2019-03-22T17:32:06Z</time>
      </trkpt>
      <trkpt lat="49.29043" lon="-0.11606">
        <ele>65.2653</ele>
        <time>2019-03-22T17:32:08Z</time>
      </trkpt>
      <trkpt lat="49.29039" lon="-0.11609">
        <ele>65.1614</ele>
        <time>2019-03-22T17:32:15Z</time>
      </trkpt>
      <trkpt lat="49.29034" lon="-0.11606">
        <ele>65.0948</ele>
        <time>2019-03-22T17:32:18Z</time>
      </trkpt>
      <trkpt lat="49.29032" lon="-0.11605">
        <ele>65.0499</ele>
        <time>2019-03-22T17:32:20Z</time>
      </trkpt>
      <trkpt lat="49.29026" lon="-0.11601">
        <ele>64.9686</ele>
        <time>2019-03-22T17:32:24Z</time>
      </trkpt>
      <trkpt lat="49.2902" lon="-0.11601">
        <ele>64.8804</ele>
        <time>2019-03-22T17:32:29Z</time>
      </trkpt>
      <trkpt lat="49.29016" lon="-0.11604">
        <ele>64.8304</ele>
        <time>2019-03-22T17:32:32Z</time>
      </trkpt>
      <trkpt lat="49.29013" lon="-0.11607">
        <ele>64.7987</ele>
        <time>2019-03-22T17:32:34Z</time>
      </trkpt>
      <trkpt lat="49.29008" lon="-0.11609">
        <ele>64.7532</ele>
        <time>2019-03-22T17:32:37Z</time>
      </trkpt>
      <trkpt lat="49.29005" lon="-0.1161">
        <ele>64.7241</ele>
        <time>2019-03-22T17:32:39Z</time>
      </trkpt>
      <trkpt lat="49.29002" lon="-0.11612">
        <ele>64.7071</ele>
        <time>2019-03-22T17:32:41Z</time>
      </trkpt>
      <trkpt lat="49.28997" lon="-0.11612">
        <ele>64.6587</ele>
        <time>2019-03-22T17:32:44Z</time>
      </trkpt>
      <trkpt lat="49.28993" lon="-0.11615">
        <ele>64.6235</ele>
        <time>2019-03-22T17:32:46Z</time>
      </trkpt>
      <trkpt lat="49.28986" lon="-0.1162">
        <ele>64.5728</ele>
        <time>2019-03-22T17:32:49Z</time>
      </trkpt>
      <trkpt lat="49.28982" lon="-0.1162">
        <ele>64.5216</ele>
        <time>2019-03-22T17:32:53Z</time>
      </trkpt>
      <trkpt lat="49.28977" lon="-0.1162">
        <ele>64.4779</ele>
        <time>2019-03-22T17:32:58Z</time>
      </trkpt>
      <trkpt lat="49.28974" lon="-0.1162">
        <ele>64.4585</ele>
        <time>2019-03-22T17:33:00Z</time>
      </trkpt>
      <trkpt lat="49.2897" lon="-0.11618">
        <ele>64.4327</ele>
        <time>2019-03-22T17:33:03Z</time>
      </trkpt>
      <trkpt lat="49.28967" lon="-0.11617">
        <ele>64.4183</ele>
        <time>2019-03-22T17:33:05Z</time>
      </trkpt>
      <trkpt lat="49.28964" lon="-0.11616">
        <ele>64.4039</ele>
        <time>2019-03-22T17:33:07Z</time>
      </trkpt>
      <trkpt lat="49.28962" lon="-0.11615">
        <ele>64.3959</ele>
        <time>2019-03-22T17:33:08Z</time>
      </trkpt>
      <trkpt lat="49.28959" lon="-0.11615">
        <ele>64.3795</ele>
        <time>2019-03-22T17:33:10Z</time>
      </trkpt>
      <trkpt lat="49.28954" lon="-0.11613">
        <ele>64.3639</ele>
        <time>2019-03-22T17:33:12Z</time>
      </trkpt>
      <trkpt lat="49.2895" lon="-0.11616">
        <ele>64.342</ele>
        <time>2019-03-22T17:33:16Z</time>
      </trkpt>
      <trkpt lat="49.2895" lon="-0.11616">
        <ele>5</ele>
        <time>2019-03-22T17:33:21Z</time>
      </trkpt>
      <trkpt lat="49.2895" lon="-0.11616">
        <ele>5</ele>
        <time>2019-03-22T17:34:45Z</time>
      </trkpt>
      <trkpt lat="49.28945" lon="-0.11624">
        <ele>63.3422</ele>
        <time>2019-03-22T17:35:54Z</time>
      </trkpt>
      <trkpt lat="49.28942" lon="-0.11628">
        <ele>63.341</ele>
        <time>2019-03-22T17:36:01Z</time>
      </trkpt>
      <trkpt lat="49.28938" lon="-0.11633">
        <ele>63.3462</ele>
        <time>2019-03-22T17:36:13Z</time>
      </trkpt>
      <trkpt lat="49.28933" lon="-0.11631">
        <ele>63.3543</ele>
        <time>2019-03-22T17:36:18Z</time>
      </trkpt>
      <trkpt lat="49.28926" lon="-0.11628">
        <ele>63.3604</ele>
        <time>2019-03-22T17:36:23Z</time>
      </trkpt>
      <trkpt lat="49.28923" lon="-0.11626">
        <ele>63.3622</ele>
        <time>2019-03-22T17:36:24Z</time>
      </trkpt>
      <trkpt lat="49.28917" lon="-0.11624">
        <ele>63.3689</ele>
        <time>2019-03-22T17:36:27Z</time>
      </trkpt>
      <trkpt lat="49.28913" lon="-0.11623">
        <ele>63.3768</ele>
        <time>2019-03-22T17:36:29Z</time>
      </trkpt>
      <trkpt lat="49.28909" lon="-0.11621">
        <ele>63.3865</ele>
        <time>2019-03-22T17:36:31Z</time>
      </trkpt>
      <trkpt lat="49.28904" lon="-0.11623">
        <ele>63.401</ele>
        <time>2019-03-22T17:36:35Z</time>
      </trkpt>
      <trkpt lat="49.289" lon="-0.11624">
        <ele>63.4174</ele>
        <time>2019-03-22T17:36:37Z</time>
      </trkpt>
      <trkpt lat="49.28898" lon="-0.11624">
        <ele>63.4331</ele>
        <time>2019-03-22T17:36:39Z</time>
      </trkpt>
      <trkpt lat="49.28893" lon="-0.11625">
        <ele>63.4656</ele>
        <time>2019-03-22T17:36:44Z</time>
      </trkpt>
      <trkpt lat="49.2889" lon="-0.11625">
        <ele>63.4811</ele>
        <time>2019-03-22T17:36:48Z</time>
      </trkpt>
      <trkpt lat="49.2889" lon="-0.11625">
        <ele>4.5</ele>
        <time>2019-03-22T17:36:55Z</time>
      </trkpt>
      <trkpt lat="49.2889" lon="-0.11625">
        <ele>4.5</ele>
        <time>2019-03-22T17:39:03Z</time>
      </trkpt>
      <trkpt lat="49.28868" lon="-0.11631">
        <ele>62.2648</ele>
        <time>2019-03-22T17:39:03Z</time>
      </trkpt>
      <trkpt lat="49.28864" lon="-0.1163">
        <ele>62.2381</ele>
        <time>2019-03-22T17:39:07Z</time>
      </trkpt>
      <trkpt lat="49.28858" lon="-0.11631">
        <ele>62.1956</ele>
        <time>2019-03-22T17:39:12Z</time>
      </trkpt>
      <trkpt lat="49.28853" lon="-0.11632">
        <ele>62.1752</ele>
        <time>2019-03-22T17:39:15Z</time>
      </trkpt>
      <trkpt lat="49.2885" lon="-0.11632">
        <ele>62.1638</ele>
        <time>2019-03-22T17:39:17Z</time>
      </trkpt>
      <trkpt lat="49.28845" lon="-0.11636">
        <ele>62.1436</ele>
        <time>2019-03-22T17:39:21Z</time>
      </trkpt>
      <trkpt lat="49.28841" lon="-0.1164">
        <ele>62.1325</ele>
        <time>2019-03-22T17:39:24Z</time>
      </trkpt>
      <trkpt lat="49.2884" lon="-0.11647">
        <ele>62.1236</ele>
        <time>2019-03-22T17:39:29Z</time>
      </trkpt>
      <trkpt lat="49.2884" lon="-0.11647">
        <ele>4</ele>
        <time>2019-03-22T17:39:34Z</time>
      </trkpt>
      <trkpt lat="49.2884" lon="-0.11647">
        <ele>4</ele>
        <time>2019-03-22T17:39:39Z</time>
      </trkpt>
      <trkpt lat="49.28831" lon="-0.11647">
        <ele>62.1219</ele>
        <time>2019-03-22T17:39:39Z</time>
      </trkpt>
      <trkpt lat="49.28826" lon="-0.11641">
        <ele>62.1259</ele>
        <time>2019-03-22T17:39:41Z</time>
      </trkpt>
      <trkpt lat="49.28821" lon="-0.11641">
        <ele>62.1352</ele>
        <time>2019-03-22T17:39:44Z</time>
      </trkpt>
      <trkpt lat="49.28816" lon="-0.11643">
        <ele>62.1469</ele>
        <time>2019-03-22T17:39:47Z</time>
      </trkpt>
      <trkpt lat="49.28811" lon="-0.11652">
        <ele>62.1555</ele>
        <time>2019-03-22T17:39:49Z</time>
      </trkpt>
      <trkpt lat="49.2881" lon="-0.11665">
        <ele>62.1689</ele>
        <time>2019-03-22T17:39:52Z</time>
      </trkpt>
      <trkpt lat="49.2881" lon="-0.11665">
        <ele>4</ele>
        <time>2019-03-22T17:39:58Z</time>
      </trkpt>
      <trkpt lat="49.2881" lon="-0.11665">
        <ele>4</ele>
        <time>2019-03-22T17:40:16Z</time>
      </trkpt>
      <trkpt lat="49.28788" lon="-0.11661">
        <ele>62.2064</ele>
        <time>2019-03-22T17:40:16Z</time>
      </trkpt>
      <trkpt lat="49.28784" lon="-0.11666">
        <ele>62.2131</ele>
        <time>2019-03-22T17:40:19Z</time>
      </trkpt>
      <trkpt lat="49.28782" lon="-0.11669">
        <ele>62.217</ele>
        <time>2019-03-22T17:40:21Z</time>
      </trkpt>
      <trkpt lat="49.28777" lon="-0.11673">
        <ele>62.2211</ele>
        <time>2019-03-22T17:40:24Z</time>
      </trkpt>
      <trkpt lat="49.28772" lon="-0.11675">
        <ele>62.2255</ele>
        <time>2019-03-22T17:40:27Z</time>
      </trkpt>
      <trkpt lat="49.28766" lon="-0.11676">
        <ele>62.2316</ele>
        <time>2019-03-22T17:40:30Z</time>
      </trkpt>
      <trkpt lat="49.28762" lon="-0.11677">
        <ele>62.2379</ele>
        <time>2019-03-22T17:40:33Z</time>
      </trkpt>
      <trkpt lat="49.28757" lon="-0.11676">
        <ele>62.2452</ele>
        <time>2019-03-22T17:40:37Z</time>
      </trkpt>
      <trkpt lat="49.28752" lon="-0.11672">
        <ele>62.252</ele>
        <time>2019-03-22T17:40:41Z</time>
      </trkpt>
      <trkpt lat="49.2875" lon="-0.11671">
        <ele>62.2553</ele>
        <time>2019-03-22T17:40:43Z</time>
      </trkpt>
      <trkpt lat="49.28745" lon="-0.11672">
        <ele>62.2581</ele>
        <time>2019-03-22T17:40:45Z</time>
      </trkpt>
      <trkpt lat="49.28742" lon="-0.11673">
        <ele>62.2606</ele>
        <time>2019-03-22T17:40:47Z</time>
      </trkpt>
      <trkpt lat="49.2874" lon="-0.11674">
        <ele>62.2641</ele>
        <time>2019-03-22T17:40:49Z</time>
      </trkpt>
      <trkpt lat="49.28735" lon="-0.11675">
        <ele>62.2803</ele>
        <time>2019-03-22T17:40:56Z</time>
      </trkpt>
      <trkpt lat="49.2873" lon="-0.11682">
        <ele>62.2864</ele>
        <time>2019-03-22T17:41:00Z</time>
      </trkpt>
      <trkpt lat="49.28724" lon="-0.11682">
        <ele>62.2913</ele>
        <time>2019-03-22T17:41:03Z</time>
      </trkpt>
      <trkpt lat="49.2872" lon="-0.1168">
        <ele>62.299</ele>
        <time>2019-03-22T17:41:05Z</time>
      </trkpt>
      <trkpt lat="49.28714" lon="-0.1168">
        <ele>62.3272</ele>
        <time>2019-03-22T17:41:09Z</time>
      </trkpt>
      <trkpt lat="49.28709" lon="-0.11681">
        <ele>62.3728</ele>
        <time>2019-03-22T17:41:13Z</time>
      </trkpt>
      <trkpt lat="49.28704" lon="-0.11681">
        <ele>62.4342</ele>
        <time>2019-03-22T17:41:17Z</time>
      </trkpt>
      <trkpt lat="49.28702" lon="-0.11681">
        <ele>62.4863</ele>
        <time>2019-03-22T17:41:20Z</time>
      </trkpt>
      <trkpt lat="49.28697" lon="-0.11682">
        <ele>62.5557</ele>
        <time>2019-03-22T17:41:24Z</time>
      </trkpt>
      <trkpt lat="49.28694" lon="-0.11682">
        <ele>62.5893</ele>
        <time>2019-03-22T17:41:26Z</time>
      </trkpt>
      <trkpt lat="49.2869" lon="-0.11687">
        <ele>62.6345</ele>
        <time>2019-03-22T17:41:29Z</time>
      </trkpt>
      <trkpt lat="49.28688" lon="-0.11695">
        <ele>62.6865</ele>
        <time>2019-03-22T17:41:33Z</time>
      </trkpt>
      <trkpt lat="49.28688" lon="-0.11703">
        <ele>62.7383</ele>
        <time>2019-03-22T17:41:37Z</time>
      </trkpt>
      <trkpt lat="49.28688" lon="-0.11706">
        <ele>62.7643</ele>
        <time>2019-03-22T17:41:39Z</time>
      </trkpt>
      <trkpt lat="49.28688" lon="-0.11713">
        <ele>62.8035</ele>
        <time>2019-03-22T17:41:42Z</time>
      </trkpt>
      <trkpt lat="49.28687" lon="-0.1172">
        <ele>62.8439</ele>
        <time>2019-03-22T17:41:45Z</time>
      </trkpt>
      <trkpt lat="49.28684" lon="-0.11726">
        <ele>62.9003</ele>
        <time>2019-03-22T17:41:49Z</time>
      </trkpt>
      <trkpt lat="49.28681" lon="-0.11733">
        <ele>62.9559</ele>
        <time>2019-03-22T17:41:53Z</time>
      </trkpt>
      <trkpt lat="49.28678" lon="-0.1174">
        <ele>63.0086</ele>
        <time>2019-03-22T17:41:57Z</time>
      </trkpt>
      <trkpt lat="49.28676" lon="-0.11744">
        <ele>63.0566</ele>
        <time>2019-03-22T17:42:01Z</time>
      </trkpt>
      <trkpt lat="49.28675" lon="-0.11752">
        <ele>63.1204</ele>
        <time>2019-03-22T17:42:07Z</time>
      </trkpt>
      <trkpt lat="49.28675" lon="-0.1176">
        <ele>63.1646</ele>
        <time>2019-03-22T17:42:11Z</time>
      </trkpt>
      <trkpt lat="49.28673" lon="-0.1177">
        <ele>63.2732</ele>
        <time>2019-03-22T17:42:36Z</time>
      </trkpt>
      <trkpt lat="49.28673" lon="-0.11777">
        <ele>63.2985</ele>
        <time>2019-03-22T17:42:39Z</time>
      </trkpt>
      <trkpt lat="49.28673" lon="-0.11782">
        <ele>63.3119</ele>
        <time>2019-03-22T17:42:41Z</time>
      </trkpt>
      <trkpt lat="49.28673" lon="-0.11786">
        <ele>63.3241</ele>
        <time>2019-03-22T17:42:43Z</time>
      </trkpt>
      <trkpt lat="49.28672" lon="-0.11795">
        <ele>63.3412</ele>
        <time>2019-03-22T17:42:46Z</time>
      </trkpt>
      <trkpt lat="49.28672" lon="-0.11804">
        <ele>63.3539</ele>
        <time>2019-03-22T17:42:49Z</time>
      </trkpt>
      <trkpt lat="49.28671" lon="-0.11815">
        <ele>63.3607</ele>
        <time>2019-03-22T17:42:52Z</time>
      </trkpt>
      <trkpt lat="49.2867" lon="-0.11822">
        <ele>63.3594</ele>
        <time>2019-03-22T17:42:55Z</time>
      </trkpt>
      <trkpt lat="49.28669" lon="-0.11829">
        <ele>63.3535</ele>
        <time>2019-03-22T17:42:57Z</time>
      </trkpt>
      <trkpt lat="49.28668" lon="-0.11836">
        <ele>63.3438</ele>
        <time>2019-03-22T17:42:59Z</time>
      </trkpt>
      <trkpt lat="49.28667" lon="-0.11845">
        <ele>63.3258</ele>
        <time>2019-03-22T17:43:02Z</time>
      </trkpt>
      <trkpt lat="49.28667" lon="-0.11853">
        <ele>63.2906</ele>
        <time>2019-03-22T17:43:07Z</time>
      </trkpt>
      <trkpt lat="49.28665" lon="-0.11861">
        <ele>63.2482</ele>
        <time>2019-03-22T17:43:12Z</time>
      </trkpt>
      <trkpt lat="49.28662" lon="-0.11868">
        <ele>63.2178</ele>
        <time>2019-03-22T17:43:15Z</time>
      </trkpt>
      <trkpt lat="49.28658" lon="-0.11873">
        <ele>63.1773</ele>
        <time>2019-03-22T17:43:19Z</time>
      </trkpt>
      <trkpt lat="49.28654" lon="-0.11878">
        <ele>63.1479</ele>
        <time>2019-03-22T17:43:22Z</time>
      </trkpt>
      <trkpt lat="49.28651" lon="-0.11887">
        <ele>63.1201</ele>
        <time>2019-03-22T17:43:25Z</time>
      </trkpt>
      <trkpt lat="49.28649" lon="-0.11891">
        <ele>63.1114</ele>
        <time>2019-03-22T17:43:26Z</time>
      </trkpt>
      <trkpt lat="49.28645" lon="-0.11895">
        <ele>63.0747</ele>
        <time>2019-03-22T17:43:30Z</time>
      </trkpt>
      <trkpt lat="49.2864" lon="-0.11893">
        <ele>63.0388</ele>
        <time>2019-03-22T17:43:34Z</time>
      </trkpt>
      <trkpt lat="49.28635" lon="-0.11892">
        <ele>63.0131</ele>
        <time>2019-03-22T17:43:37Z</time>
      </trkpt>
      <trkpt lat="49.28631" lon="-0.11895">
        <ele>62.9728</ele>
        <time>2019-03-22T17:43:43Z</time>
      </trkpt>
      <trkpt lat="49.28627" lon="-0.11902">
        <ele>62.9441</ele>
        <time>2019-03-22T17:43:47Z</time>
      </trkpt>
      <trkpt lat="49.28625" lon="-0.11904">
        <ele>62.9307</ele>
        <time>2019-03-22T17:43:49Z</time>
      </trkpt>
      <trkpt lat="49.2862" lon="-0.11908">
        <ele>62.9121</ele>
        <time>2019-03-22T17:43:52Z</time>
      </trkpt>
      <trkpt lat="49.28616" lon="-0.11915">
        <ele>62.8928</ele>
        <time>2019-03-22T17:43:56Z</time>
      </trkpt>
      <trkpt lat="49.28611" lon="-0.11919">
        <ele>62.8776</ele>
        <time>2019-03-22T17:44:00Z</time>
      </trkpt>
      <trkpt lat="49.28609" lon="-0.11926">
        <ele>62.8634</ele>
        <time>2019-03-22T17:44:04Z</time>
      </trkpt>
      <trkpt lat="49.28607" lon="-0.11929">
        <ele>62.8567</ele>
        <time>2019-03-22T17:44:06Z</time>
      </trkpt>
      <trkpt lat="49.28605" lon="-0.11935">
        <ele>62.8423</ele>
        <time>2019-03-22T17:44:10Z</time>
      </trkpt>
      <trkpt lat="49.28604" lon="-0.1194">
        <ele>62.8351</ele>
        <time>2019-03-22T17:44:12Z</time>
      </trkpt>
      <trkpt lat="49.28602" lon="-0.11947">
        <ele>62.8213</ele>
        <time>2019-03-22T17:44:17Z</time>
      </trkpt>
      <trkpt lat="49.286" lon="-0.11952">
        <ele>62.8183</ele>
        <time>2019-03-22T17:44:19Z</time>
      </trkpt>
      <trkpt lat="49.28596" lon="-0.11956">
        <ele>62.8105</ele>
        <time>2019-03-22T17:44:24Z</time>
      </trkpt>
      <trkpt lat="49.28593" lon="-0.11959">
        <ele>62.8037</ele>
        <time>2019-03-22T17:44:27Z</time>
      </trkpt>
      <trkpt lat="49.28587" lon="-0.11963">
        <ele>62.7907</ele>
        <time>2019-03-22T17:44:32Z</time>
      </trkpt>
      <trkpt lat="49.28582" lon="-0.11969">
        <ele>62.7684</ele>
        <time>2019-03-22T17:44:38Z</time>
      </trkpt>
      <trkpt lat="49.28579" lon="-0.11977">
        <ele>62.749</ele>
        <time>2019-03-22T17:44:41Z</time>
      </trkpt>
      <trkpt lat="49.28575" lon="-0.11984">
        <ele>62.7251</ele>
        <time>2019-03-22T17:44:44Z</time>
      </trkpt>
      <trkpt lat="49.28573" lon="-0.11991">
        <ele>62.6982</ele>
        <time>2019-03-22T17:44:47Z</time>
      </trkpt>
      <trkpt lat="49.28571" lon="-0.11995">
        <ele>62.6796</ele>
        <time>2019-03-22T17:44:49Z</time>
      </trkpt>
      <trkpt lat="49.28568" lon="-0.12002">
        <ele>62.6517</ele>
        <time>2019-03-22T17:44:52Z</time>
      </trkpt>
      <trkpt lat="49.28566" lon="-0.12005">
        <ele>62.6323</ele>
        <time>2019-03-22T17:44:54Z</time>
      </trkpt>
      <trkpt lat="49.28562" lon="-0.12011">
        <ele>62.593</ele>
        <time>2019-03-22T17:44:58Z</time>
      </trkpt>
      <trkpt lat="49.2856" lon="-0.12018">
        <ele>62.5459</ele>
        <time>2019-03-22T17:45:03Z</time>
      </trkpt>
      <trkpt lat="49.28558" lon="-0.12022">
        <ele>62.5282</ele>
        <time>2019-03-22T17:45:05Z</time>
      </trkpt>
      <trkpt lat="49.28556" lon="-0.12027">
        <ele>62.5018</ele>
        <time>2019-03-22T17:45:08Z</time>
      </trkpt>
      <trkpt lat="49.28553" lon="-0.12032">
        <ele>62.4614</ele>
        <time>2019-03-22T17:45:12Z</time>
      </trkpt>
      <trkpt lat="49.28551" lon="-0.12035">
        <ele>62.4407</ele>
        <time>2019-03-22T17:45:14Z</time>
      </trkpt>
      <trkpt lat="49.28549" lon="-0.12038">
        <ele>62.4201</ele>
        <time>2019-03-22T17:45:16Z</time>
      </trkpt>
      <trkpt lat="49.28546" lon="-0.12042">
        <ele>62.3733</ele>
        <time>2019-03-22T17:45:21Z</time>
      </trkpt>
      <trkpt lat="49.28542" lon="-0.12048">
        <ele>62.3326</ele>
        <time>2019-03-22T17:45:26Z</time>
      </trkpt>
      <trkpt lat="49.28539" lon="-0.12051">
        <ele>62.3097</ele>
        <time>2019-03-22T17:45:29Z</time>
      </trkpt>
      <trkpt lat="49.28536" lon="-0.12059">
        <ele>62.2815</ele>
        <time>2019-03-22T17:45:33Z</time>
      </trkpt>
      <trkpt lat="49.28535" lon="-0.12063">
        <ele>62.2703</ele>
        <time>2019-03-22T17:45:35Z</time>
      </trkpt>
      <trkpt lat="49.28531" lon="-0.1207">
        <ele>62.2546</ele>
        <time>2019-03-22T17:45:39Z</time>
      </trkpt>
      <trkpt lat="49.28528" lon="-0.12076">
        <ele>62.2477</ele>
        <time>2019-03-22T17:45:42Z</time>
      </trkpt>
      <trkpt lat="49.28527" lon="-0.1208">
        <ele>62.2458</ele>
        <time>2019-03-22T17:45:43Z</time>
      </trkpt>
      <trkpt lat="49.28525" lon="-0.12083">
        <ele>62.2439</ele>
        <time>2019-03-22T17:45:44Z</time>
      </trkpt>
      <trkpt lat="49.28522" lon="-0.1209">
        <ele>62.2384</ele>
        <time>2019-03-22T17:45:47Z</time>
      </trkpt>
      <trkpt lat="49.2852" lon="-0.12093">
        <ele>62.2348</ele>
        <time>2019-03-22T17:45:49Z</time>
      </trkpt>
      <trkpt lat="49.28518" lon="-0.121">
        <ele>62.2292</ele>
        <time>2019-03-22T17:45:52Z</time>
      </trkpt>
      <trkpt lat="49.28513" lon="-0.12104">
        <ele>62.22</ele>
        <time>2019-03-22T17:45:56Z</time>
      </trkpt>
      <trkpt lat="49.2851" lon="-0.1211">
        <ele>62.2062</ele>
        <time>2019-03-22T17:46:01Z</time>
      </trkpt>
      <trkpt lat="49.28508" lon="-0.12113">
        <ele>62.2009</ele>
        <time>2019-03-22T17:46:03Z</time>
      </trkpt>
      <trkpt lat="49.28505" lon="-0.12119">
        <ele>62.1877</ele>
        <time>2019-03-22T17:46:07Z</time>
      </trkpt>
      <trkpt lat="49.28504" lon="-0.12122">
        <ele>62.1801</ele>
        <time>2019-03-22T17:46:09Z</time>
      </trkpt>
      <trkpt lat="49.28502" lon="-0.12125">
        <ele>62.1723</ele>
        <time>2019-03-22T17:46:11Z</time>
      </trkpt>
      <trkpt lat="49.285" lon="-0.12128">
        <ele>62.164</ele>
        <time>2019-03-22T17:46:13Z</time>
      </trkpt>
      <trkpt lat="49.28498" lon="-0.12132">
        <ele>62.1512</ele>
        <time>2019-03-22T17:46:16Z</time>
      </trkpt>
      <trkpt lat="49.28496" lon="-0.12135">
        <ele>62.1428</ele>
        <time>2019-03-22T17:46:18Z</time>
      </trkpt>
      <trkpt lat="49.28493" lon="-0.12138">
        <ele>62.1351</ele>
        <time>2019-03-22T17:46:20Z</time>
      </trkpt>
      <trkpt lat="49.2849" lon="-0.12145">
        <ele>62.1232</ele>
        <time>2019-03-22T17:46:23Z</time>
      </trkpt>
      <trkpt lat="49.28488" lon="-0.12149">
        <ele>62.1159</ele>
        <time>2019-03-22T17:46:25Z</time>
      </trkpt>
      <trkpt lat="49.28486" lon="-0.12153">
        <ele>62.1094</ele>
        <time>2019-03-22T17:46:27Z</time>
      </trkpt>
      <trkpt lat="49.28484" lon="-0.12159">
        <ele>62.0959</ele>
        <time>2019-03-22T17:46:31Z</time>
      </trkpt>
      <trkpt lat="49.28484" lon="-0.12159">
        <ele>4</ele>
        <time>2019-03-22T17:46:36Z</time>
      </trkpt>
      <trkpt lat="49.28484" lon="-0.12159">
        <ele>4</ele>
        <time>2019-03-22T17:46:41Z</time>
      </trkpt>
      <trkpt lat="49.28477" lon="-0.12168">
        <ele>62.0704</ele>
        <time>2019-03-22T17:46:41Z</time>
      </trkpt>
      <trkpt lat="49.28475" lon="-0.12171">
        <ele>62.0663</ele>
        <time>2019-03-22T17:46:43Z</time>
      </trkpt>
      <trkpt lat="49.28473" lon="-0.12175">
        <ele>62.0609</ele>
        <time>2019-03-22T17:46:46Z</time>
      </trkpt>
      <trkpt lat="49.2847" lon="-0.12181">
        <ele>62.0555</ele>
        <time>2019-03-22T17:46:50Z</time>
      </trkpt>
      <trkpt lat="49.28465" lon="-0.12188">
        <ele>62.0513</ele>
        <time>2019-03-22T17:46:54Z</time>
      </trkpt>
      <trkpt lat="49.28461" lon="-0.12194">
        <ele>62.0482</ele>
        <time>2019-03-22T17:46:58Z</time>
      </trkpt>
      <trkpt lat="49.28459" lon="-0.12197">
        <ele>62.0466</ele>
        <time>2019-03-22T17:47:00Z</time>
      </trkpt>
      <trkpt lat="49.28455" lon="-0.12202">
        <ele>62.0441</ele>
        <time>2019-03-22T17:47:04Z</time>
      </trkpt>
      <trkpt lat="49.28452" lon="-0.12207">
        <ele>62.0437</ele>
        <time>2019-03-22T17:47:08Z</time>
      </trkpt>
      <trkpt lat="49.2845" lon="-0.12213">
        <ele>62.0434</ele>
        <time>2019-03-22T17:47:13Z</time>
      </trkpt>
      <trkpt lat="49.28449" lon="-0.12216">
        <ele>62.0423</ele>
        <time>2019-03-22T17:47:17Z</time>
      </trkpt>
      <trkpt lat="49.28444" lon="-0.12223">
        <ele>62.0407</ele>
        <time>2019-03-22T17:47:21Z</time>
      </trkpt>
      <trkpt lat="49.28441" lon="-0.12227">
        <ele>62.0394</ele>
        <time>2019-03-22T17:47:24Z</time>
      </trkpt>
      <trkpt lat="49.28439" lon="-0.12231">
        <ele>62.0269</ele>
        <time>2019-03-22T17:47:30Z</time>
      </trkpt>
      <trkpt lat="49.28436" lon="-0.12235">
        <ele>61.9665</ele>
        <time>2019-03-22T17:47:37Z</time>
      </trkpt>
      <trkpt lat="49.28433" lon="-0.12241">
        <ele>61.9228</ele>
        <time>2019-03-22T17:47:40Z</time>
      </trkpt>
      <trkpt lat="49.2843" lon="-0.12246">
        <ele>61.8737</ele>
        <time>2019-03-22T17:47:43Z</time>
      </trkpt>
      <trkpt lat="49.28428" lon="-0.1225">
        <ele>61.8388</ele>
        <time>2019-03-22T17:47:45Z</time>
      </trkpt>
      <trkpt lat="49.28427" lon="-0.12253">
        <ele>61.8032</ele>
        <time>2019-03-22T17:47:47Z</time>
      </trkpt>
      <trkpt lat="49.28425" lon="-0.12256">
        <ele>61.7674</ele>
        <time>2019-03-22T17:47:49Z</time>
      </trkpt>
      <trkpt lat="49.28421" lon="-0.1226">
        <ele>61.699</ele>
        <time>2019-03-22T17:47:53Z</time>
      </trkpt>
      <trkpt lat="49.28418" lon="-0.12266">
        <ele>61.6504</ele>
        <time>2019-03-22T17:47:56Z</time>
      </trkpt>
      <trkpt lat="49.28416" lon="-0.12274">
        <ele>61.5868</ele>
        <time>2019-03-22T17:48:00Z</time>
      </trkpt>
      <trkpt lat="49.28412" lon="-0.12281">
        <ele>61.5268</ele>
        <time>2019-03-22T17:48:04Z</time>
      </trkpt>
      <trkpt lat="49.2841" lon="-0.12285">
        <ele>61.4979</ele>
        <time>2019-03-22T17:48:06Z</time>
      </trkpt>
      <trkpt lat="49.28407" lon="-0.1229">
        <ele>61.4252</ele>
        <time>2019-03-22T17:48:11Z</time>
      </trkpt>
      <trkpt lat="49.28404" lon="-0.12296">
        <ele>61.3667</ele>
        <time>2019-03-22T17:48:15Z</time>
      </trkpt>
      <trkpt lat="49.28399" lon="-0.123">
        <ele>61.3118</ele>
        <time>2019-03-22T17:48:19Z</time>
      </trkpt>
      <trkpt lat="49.28396" lon="-0.12306">
        <ele>61.264</ele>
        <time>2019-03-22T17:48:23Z</time>
      </trkpt>
      <trkpt lat="49.28393" lon="-0.12311">
        <ele>61.2292</ele>
        <time>2019-03-22T17:48:26Z</time>
      </trkpt>
      <trkpt lat="49.28391" lon="-0.12314">
        <ele>61.207</ele>
        <time>2019-03-22T17:48:28Z</time>
      </trkpt>
      <trkpt lat="49.28387" lon="-0.1232">
        <ele>61.1778</ele>
        <time>2019-03-22T17:48:31Z</time>
      </trkpt>
      <trkpt lat="49.28384" lon="-0.12324">
        <ele>61.1441</ele>
        <time>2019-03-22T17:48:35Z</time>
      </trkpt>
      <trkpt lat="49.28381" lon="-0.1233">
        <ele>61.1172</ele>
        <time>2019-03-22T17:48:39Z</time>
      </trkpt>
      <trkpt lat="49.2838" lon="-0.12333">
        <ele>61.1069</ele>
        <time>2019-03-22T17:48:41Z</time>
      </trkpt>
      <trkpt lat="49.28378" lon="-0.12337">
        <ele>61.0958</ele>
        <time>2019-03-22T17:48:44Z</time>
      </trkpt>
      <trkpt lat="49.28374" lon="-0.12343">
        <ele>61.0919</ele>
        <time>2019-03-22T17:48:47Z</time>
      </trkpt>
      <trkpt lat="49.28373" lon="-0.12346">
        <ele>61.0931</ele>
        <time>2019-03-22T17:48:49Z</time>
      </trkpt>
      <trkpt lat="49.28369" lon="-0.12353">
        <ele>61.1027</ele>
        <time>2019-03-22T17:48:53Z</time>
      </trkpt>
      <trkpt lat="49.28366" lon="-0.1236">
        <ele>61.1219</ele>
        <time>2019-03-22T17:48:57Z</time>
      </trkpt>
      <trkpt lat="49.28362" lon="-0.12366">
        <ele>61.1731</ele>
        <time>2019-03-22T17:49:04Z</time>
      </trkpt>
      <trkpt lat="49.28359" lon="-0.12372">
        <ele>61.1982</ele>
        <time>2019-03-22T17:49:07Z</time>
      </trkpt>
      <trkpt lat="49.28357" lon="-0.12375">
        <ele>61.2159</ele>
        <time>2019-03-22T17:49:09Z</time>
      </trkpt>
      <trkpt lat="49.28355" lon="-0.12379">
        <ele>61.2337</ele>
        <time>2019-03-22T17:49:11Z</time>
      </trkpt>
      <trkpt lat="49.28353" lon="-0.12383">
        <ele>61.2592</ele>
        <time>2019-03-22T17:49:14Z</time>
      </trkpt>
      <trkpt lat="49.28349" lon="-0.12385">
        <ele>61.2911</ele>
        <time>2019-03-22T17:49:18Z</time>
      </trkpt>
      <trkpt lat="49.28344" lon="-0.1238">
        <ele>61.3059</ele>
        <time>2019-03-22T17:49:20Z</time>
      </trkpt>
      <trkpt lat="49.28339" lon="-0.12382">
        <ele>61.3334</ele>
        <time>2019-03-22T17:49:24Z</time>
      </trkpt>
      <trkpt lat="49.28335" lon="-0.12385">
        <ele>61.3529</ele>
        <time>2019-03-22T17:49:27Z</time>
      </trkpt>
      <trkpt lat="49.28331" lon="-0.12388">
        <ele>61.3732</ele>
        <time>2019-03-22T17:49:30Z</time>
      </trkpt>
      <trkpt lat="49.28328" lon="-0.12392">
        <ele>61.3896</ele>
        <time>2019-03-22T17:49:32Z</time>
      </trkpt>
      <trkpt lat="49.28325" lon="-0.12398">
        <ele>61.4191</ele>
        <time>2019-03-22T17:49:35Z</time>
      </trkpt>
      <trkpt lat="49.28322" lon="-0.12404">
        <ele>61.4536</ele>
        <time>2019-03-22T17:49:38Z</time>
      </trkpt>
      <trkpt lat="49.2832" lon="-0.1241">
        <ele>61.488</ele>
        <time>2019-03-22T17:49:41Z</time>
      </trkpt>
      <trkpt lat="49.28319" lon="-0.12417">
        <ele>61.535</ele>
        <time>2019-03-22T17:49:45Z</time>
      </trkpt>
      <trkpt lat="49.28318" lon="-0.12423">
        <ele>61.5699</ele>
        <time>2019-03-22T17:49:48Z</time>
      </trkpt>
      <trkpt lat="49.28318" lon="-0.12428">
        <ele>61.6046</ele>
        <time>2019-03-22T17:49:51Z</time>
      </trkpt>
      <trkpt lat="49.28318" lon="-0.12436">
        <ele>61.6719</ele>
        <time>2019-03-22T17:49:57Z</time>
      </trkpt>
      <trkpt lat="49.28318" lon="-0.1244">
        <ele>61.6943</ele>
        <time>2019-03-22T17:49:59Z</time>
      </trkpt>
      <trkpt lat="49.28318" lon="-0.12444">
        <ele>61.7168</ele>
        <time>2019-03-22T17:50:01Z</time>
      </trkpt>
      <trkpt lat="49.28316" lon="-0.12452">
        <ele>61.7499</ele>
        <time>2019-03-22T17:50:04Z</time>
      </trkpt>
      <trkpt lat="49.28314" lon="-0.12461">
        <ele>61.7826</ele>
        <time>2019-03-22T17:50:07Z</time>
      </trkpt>
      <trkpt lat="49.28311" lon="-0.12467">
        <ele>61.8259</ele>
        <time>2019-03-22T17:50:11Z</time>
      </trkpt>
      <trkpt lat="49.28307" lon="-0.12472">
        <ele>61.8695</ele>
        <time>2019-03-22T17:50:15Z</time>
      </trkpt>
      <trkpt lat="49.28305" lon="-0.12475">
        <ele>61.8922</ele>
        <time>2019-03-22T17:50:17Z</time>
      </trkpt>
      <trkpt lat="49.28303" lon="-0.12477">
        <ele>61.9258</ele>
        <time>2019-03-22T17:50:20Z</time>
      </trkpt>
      <trkpt lat="49.28301" lon="-0.1248">
        <ele>61.9488</ele>
        <time>2019-03-22T17:50:22Z</time>
      </trkpt>
      <trkpt lat="49.28299" lon="-0.12483">
        <ele>61.9822</ele>
        <time>2019-03-22T17:50:25Z</time>
      </trkpt>
      <trkpt lat="49.28296" lon="-0.12487">
        <ele>62.0223</ele>
        <time>2019-03-22T17:50:29Z</time>
      </trkpt>
      <trkpt lat="49.28293" lon="-0.12494">
        <ele>62.0508</ele>
        <time>2019-03-22T17:50:32Z</time>
      </trkpt>
      <trkpt lat="49.28291" lon="-0.12498">
        <ele>62.0698</ele>
        <time>2019-03-22T17:50:34Z</time>
      </trkpt>
      <trkpt lat="49.28288" lon="-0.12503">
        <ele>62.0978</ele>
        <time>2019-03-22T17:50:37Z</time>
      </trkpt>
      <trkpt lat="49.28286" lon="-0.12506">
        <ele>62.1159</ele>
        <time>2019-03-22T17:50:39Z</time>
      </trkpt>
      <trkpt lat="49.28283" lon="-0.12512">
        <ele>62.1529</ele>
        <time>2019-03-22T17:50:43Z</time>
      </trkpt>
      <trkpt lat="49.28281" lon="-0.12515">
        <ele>62.1721</ele>
        <time>2019-03-22T17:50:45Z</time>
      </trkpt>
      <trkpt lat="49.28279" lon="-0.12519">
        <ele>62.1917</ele>
        <time>2019-03-22T17:50:47Z</time>
      </trkpt>
      <trkpt lat="49.28276" lon="-0.12524">
        <ele>62.2422</ele>
        <time>2019-03-22T17:50:52Z</time>
      </trkpt>
      <trkpt lat="49.28273" lon="-0.12528">
        <ele>62.2832</ele>
        <time>2019-03-22T17:50:56Z</time>
      </trkpt>
      <trkpt lat="49.28271" lon="-0.12532">
        <ele>62.3121</ele>
        <time>2019-03-22T17:50:59Z</time>
      </trkpt>
      <trkpt lat="49.28268" lon="-0.12537">
        <ele>62.3399</ele>
        <time>2019-03-22T17:51:02Z</time>
      </trkpt>
      <trkpt lat="49.28266" lon="-0.1254">
        <ele>62.3584</ele>
        <time>2019-03-22T17:51:04Z</time>
      </trkpt>
      <trkpt lat="49.28264" lon="-0.12545">
        <ele>62.3941</ele>
        <time>2019-03-22T17:51:08Z</time>
      </trkpt>
      <trkpt lat="49.28261" lon="-0.12549">
        <ele>62.4244</ele>
        <time>2019-03-22T17:51:12Z</time>
      </trkpt>
      <trkpt lat="49.28256" lon="-0.12551">
        <ele>62.4513</ele>
        <time>2019-03-22T17:51:16Z</time>
      </trkpt>
      <trkpt lat="49.28254" lon="-0.12552">
        <ele>62.4614</ele>
        <time>2019-03-22T17:51:18Z</time>
      </trkpt>
      <trkpt lat="49.2825" lon="-0.12559">
        <ele>62.4811</ele>
        <time>2019-03-22T17:51:23Z</time>
      </trkpt>
      <trkpt lat="49.28247" lon="-0.12565">
        <ele>62.4898</ele>
        <time>2019-03-22T17:51:27Z</time>
      </trkpt>
      <trkpt lat="49.28243" lon="-0.12568">
        <ele>62.4922</ele>
        <time>2019-03-22T17:51:31Z</time>
      </trkpt>
      <trkpt lat="49.28241" lon="-0.12569">
        <ele>62.492</ele>
        <time>2019-03-22T17:51:33Z</time>
      </trkpt>
      <trkpt lat="49.28239" lon="-0.12571">
        <ele>62.4915</ele>
        <time>2019-03-22T17:51:35Z</time>
      </trkpt>
      <trkpt lat="49.28235" lon="-0.12576">
        <ele>62.4887</ele>
        <time>2019-03-22T17:51:39Z</time>
      </trkpt>
      <trkpt lat="49.28232" lon="-0.12579">
        <ele>62.4852</ele>
        <time>2019-03-22T17:51:42Z</time>
      </trkpt>
      <trkpt lat="49.28227" lon="-0.12578">
        <ele>62.4794</ele>
        <time>2019-03-22T17:51:48Z</time>
      </trkpt>
      <trkpt lat="49.28227" lon="-0.12578">
        <ele>3.8</ele>
        <time>2019-03-22T17:51:55Z</time>
      </trkpt>
      <trkpt lat="49.28227" lon="-0.12578">
        <ele>3.8</ele>
        <time>2019-03-22T17:52:40Z</time>
      </trkpt>
      <trkpt lat="49.28227" lon="-0.12578">
        <ele>3.8</ele>
        <time>2019-03-22T17:53:16Z</time>
      </trkpt>
      <trkpt lat="49.28227" lon="-0.12578">
        <ele>3.8</ele>
        <time>2019-03-22T17:53:20Z</time>
      </trkpt>
    </trkseg>
  </trk>
</gpx>